<?xml version='1.0' encoding='UTF-8'?><gpx version="1.1" creator="JPX - https://github.com/jenetics/jpx" xmlns="http://www.topografix.com/GPX/1/1"><trk><trkseg><trkpt lat="43.2075781" lon="11.3684596"><ele>290.0</ele><time>2026-04-26T11:25:48.627Z</time></trkpt><trkpt lat="43.2075079" lon="11.3684594"><ele>290.0</ele><time>2026-04-26T11:25:49.627Z</time></trkpt><trkpt lat="43.2074383" lon="11.3684812"><ele>290.0</ele><time>2026-04-26T11:25:50.627Z</time></trkpt><trkpt lat="43.2073744" lon="11.3685065"><ele>290.0</ele><time>2026-04-26T11:25:51.626Z</time></trkpt><trkpt lat="43.2073045" lon="11.3684978"><ele>290.0</ele><time>2026-04-26T11:25:52.626Z</time></trkpt><trkpt lat="43.2072252" lon="11.3684555"><ele>290.0</ele><time>2026-04-26T11:25:53.626Z</time></trkpt><trkpt lat="43.207149" lon="11.3684218"><ele>290.0</ele><time>2026-04-26T11:25:54.626Z</time></trkpt><trkpt lat="43.2070711" lon="11.3684045"><ele>292.83333333333337</ele><time>2026-04-26T11:25:55.626Z</time></trkpt><trkpt lat="43.2069847" lon="11.368393"><ele>295.6666666666667</ele><time>2026-04-26T11:25:56.626Z</time></trkpt><trkpt lat="43.206903" lon="11.3683843"><ele>298.5</ele><time>2026-04-26T11:25:57.626Z</time></trkpt><trkpt lat="43.2068404" lon="11.3683252"><ele>301.3333333333333</ele><time>2026-04-26T11:25:59.626Z</time></trkpt><trkpt lat="43.2068739" lon="11.3682198"><ele>304.16666666666663</ele><time>2026-04-26T11:26:01.626Z</time></trkpt><trkpt lat="43.2069355" lon="11.3681348"><ele>307.0</ele><time>2026-04-26T11:26:04.626Z</time></trkpt><trkpt lat="43.2070039" lon="11.3680958"><ele>307.8333333333333</ele><time>2026-04-26T11:26:06.626Z</time></trkpt><trkpt lat="43.2070781" lon="11.3680205"><ele>308.66666666666663</ele><time>2026-04-26T11:26:08.626Z</time></trkpt><trkpt lat="43.2070707" lon="11.3678517"><ele>309.5</ele><time>2026-04-26T11:26:10.626Z</time></trkpt><trkpt lat="43.2070597" lon="11.3677601"><ele>310.3333333333333</ele><time>2026-04-26T11:26:11.626Z</time></trkpt><trkpt lat="43.2070337" lon="11.3676655"><ele>311.1666666666667</ele><time>2026-04-26T11:26:12.626Z</time></trkpt><trkpt lat="43.2069959" lon="11.3675612"><ele>312.0</ele><time>2026-04-26T11:26:13.626Z</time></trkpt><trkpt lat="43.2069641" lon="11.3674566"><ele>312.0</ele><time>2026-04-26T11:26:14.626Z</time></trkpt><trkpt lat="43.2069396" lon="11.367335"><ele>312.0</ele><time>2026-04-26T11:26:15.626Z</time></trkpt><trkpt lat="43.2069286" lon="11.3672381"><ele>312.0</ele><time>2026-04-26T11:26:16.626Z</time></trkpt><trkpt lat="43.2069775" lon="11.367088"><ele>312.0</ele><time>2026-04-26T11:26:18.626Z</time></trkpt><trkpt lat="43.2070341" lon="11.3670158"><ele>312.0</ele><time>2026-04-26T11:26:19.626Z</time></trkpt><trkpt lat="43.2070962" lon="11.3669214"><ele>312.5</ele><time>2026-04-26T11:26:20.626Z</time></trkpt><trkpt lat="43.2071592" lon="11.3668234"><ele>313.0</ele><time>2026-04-26T11:26:21.626Z</time></trkpt><trkpt lat="43.2072163" lon="11.3667262"><ele>313.5</ele><time>2026-04-26T11:26:22.626Z</time></trkpt><trkpt lat="43.2072795" lon="11.3666151"><ele>314.0</ele><time>2026-04-26T11:26:24.626Z</time></trkpt><trkpt lat="43.2072368" lon="11.366546"><ele>314.5</ele><time>2026-04-26T11:26:26.627Z</time></trkpt><trkpt lat="43.2071618" lon="11.3665133"><ele>315.0</ele><time>2026-04-26T11:26:27.627Z</time></trkpt><trkpt lat="43.2071032" lon="11.3664698"><ele>315.0</ele><time>2026-04-26T11:26:28.626Z</time></trkpt><trkpt lat="43.2070542" lon="11.3664002"><ele>315.0</ele><time>2026-04-26T11:26:29.627Z</time></trkpt><trkpt lat="43.2070074" lon="11.3663088"><ele>315.0</ele><time>2026-04-26T11:26:30.627Z</time></trkpt><trkpt lat="43.2069623" lon="11.3662179"><ele>315.0</ele><time>2026-04-26T11:26:31.626Z</time></trkpt><trkpt lat="43.2069153" lon="11.3661175"><ele>315.0</ele><time>2026-04-26T11:26:32.627Z</time></trkpt><trkpt lat="43.206868" lon="11.3660008"><ele>315.0</ele><time>2026-04-26T11:26:33.626Z</time></trkpt><trkpt lat="43.206821" lon="11.3658741"><ele>315.0</ele><time>2026-04-26T11:26:34.626Z</time></trkpt><trkpt lat="43.206775" lon="11.3657463"><ele>315.0</ele><time>2026-04-26T11:26:35.626Z</time></trkpt><trkpt lat="43.2067305" lon="11.3656305"><ele>315.0</ele><time>2026-04-26T11:26:36.626Z</time></trkpt><trkpt lat="43.2066829" lon="11.3655226"><ele>315.0</ele><time>2026-04-26T11:26:37.626Z</time></trkpt><trkpt lat="43.2066353" lon="11.3654431"><ele>315.0</ele><time>2026-04-26T11:26:38.626Z</time></trkpt><trkpt lat="43.2065803" lon="11.3653823"><ele>315.0</ele><time>2026-04-26T11:26:39.626Z</time></trkpt><trkpt lat="43.2065045" lon="11.3653302"><ele>316.0</ele><time>2026-04-26T11:26:40.626Z</time></trkpt><trkpt lat="43.2064165" lon="11.3652946"><ele>317.0</ele><time>2026-04-26T11:26:41.626Z</time></trkpt><trkpt lat="43.2063366" lon="11.3652516"><ele>318.0</ele><time>2026-04-26T11:26:42.626Z</time></trkpt><trkpt lat="43.2062606" lon="11.3652059"><ele>319.0</ele><time>2026-04-26T11:26:43.627Z</time></trkpt><trkpt lat="43.2061834" lon="11.3651668"><ele>320.0</ele><time>2026-04-26T11:26:44.627Z</time></trkpt><trkpt lat="43.2061044" lon="11.3651147"><ele>321.0</ele><time>2026-04-26T11:26:45.627Z</time></trkpt><trkpt lat="43.2060217" lon="11.3650632"><ele>321.0</ele><time>2026-04-26T11:26:46.626Z</time></trkpt><trkpt lat="43.2059529" lon="11.365004"><ele>321.0</ele><time>2026-04-26T11:26:47.626Z</time></trkpt><trkpt lat="43.2058934" lon="11.364938"><ele>321.0</ele><time>2026-04-26T11:26:48.626Z</time></trkpt><trkpt lat="43.205846" lon="11.3648612"><ele>321.0</ele><time>2026-04-26T11:26:49.627Z</time></trkpt><trkpt lat="43.2058114" lon="11.364773"><ele>321.0</ele><time>2026-04-26T11:26:50.626Z</time></trkpt><trkpt lat="43.2057959" lon="11.3646747"><ele>321.0</ele><time>2026-04-26T11:26:51.626Z</time></trkpt><trkpt lat="43.2057634" lon="11.3645309"><ele>321.1666666666667</ele><time>2026-04-26T11:26:53.626Z</time></trkpt><trkpt lat="43.205666" lon="11.3644556"><ele>321.3333333333333</ele><time>2026-04-26T11:26:55.626Z</time></trkpt><trkpt lat="43.2055826" lon="11.3644409"><ele>321.5</ele><time>2026-04-26T11:26:56.627Z</time></trkpt><trkpt lat="43.2055086" lon="11.3644184"><ele>321.66666666666663</ele><time>2026-04-26T11:26:57.626Z</time></trkpt><trkpt lat="43.2054462" lon="11.3643762"><ele>321.8333333333333</ele><time>2026-04-26T11:26:58.626Z</time></trkpt><trkpt lat="43.2053832" lon="11.3643258"><ele>322.0</ele><time>2026-04-26T11:26:59.626Z</time></trkpt><trkpt lat="43.2053166" lon="11.3642741"><ele>322.0</ele><time>2026-04-26T11:27:00.627Z</time></trkpt><trkpt lat="43.2052479" lon="11.3642261"><ele>322.0</ele><time>2026-04-26T11:27:01.626Z</time></trkpt><trkpt lat="43.2051816" lon="11.3641644"><ele>322.0</ele><time>2026-04-26T11:27:02.626Z</time></trkpt><trkpt lat="43.2051194" lon="11.3641096"><ele>322.0</ele><time>2026-04-26T11:27:03.626Z</time></trkpt><trkpt lat="43.2050079" lon="11.364073"><ele>322.0</ele><time>2026-04-26T11:27:05.627Z</time></trkpt><trkpt lat="43.2049335" lon="11.3640748"><ele>322.0</ele><time>2026-04-26T11:27:06.626Z</time></trkpt><trkpt lat="43.2048661" lon="11.3640973"><ele>321.40000000000003</ele><time>2026-04-26T11:27:07.626Z</time></trkpt><trkpt lat="43.2047976" lon="11.3641267"><ele>320.8</ele><time>2026-04-26T11:27:08.627Z</time></trkpt><trkpt lat="43.2047055" lon="11.3642278"><ele>320.2</ele><time>2026-04-26T11:27:10.626Z</time></trkpt><trkpt lat="43.2046013" lon="11.3642999"><ele>319.6</ele><time>2026-04-26T11:27:12.626Z</time></trkpt><trkpt lat="43.2045256" lon="11.3642993"><ele>319.0</ele><time>2026-04-26T11:27:13.626Z</time></trkpt><trkpt lat="43.2044483" lon="11.3642829"><ele>319.0</ele><time>2026-04-26T11:27:14.627Z</time></trkpt><trkpt lat="43.2043615" lon="11.3642603"><ele>319.0</ele><time>2026-04-26T11:27:15.626Z</time></trkpt><trkpt lat="43.2042733" lon="11.3642394"><ele>319.0</ele><time>2026-04-26T11:27:16.626Z</time></trkpt><trkpt lat="43.2041912" lon="11.3642127"><ele>319.0</ele><time>2026-04-26T11:27:17.626Z</time></trkpt><trkpt lat="43.2041109" lon="11.3642002"><ele>319.0</ele><time>2026-04-26T11:27:18.626Z</time></trkpt><trkpt lat="43.2040329" lon="11.3642085"><ele>319.0</ele><time>2026-04-26T11:27:19.626Z</time></trkpt><trkpt lat="43.2039487" lon="11.3642261"><ele>318.0</ele><time>2026-04-26T11:27:20.626Z</time></trkpt><trkpt lat="43.2038671" lon="11.3642473"><ele>317.0</ele><time>2026-04-26T11:27:21.626Z</time></trkpt><trkpt lat="43.2037856" lon="11.3642621"><ele>316.0</ele><time>2026-04-26T11:27:22.626Z</time></trkpt><trkpt lat="43.203704" lon="11.3642837"><ele>315.0</ele><time>2026-04-26T11:27:23.627Z</time></trkpt><trkpt lat="43.2036288" lon="11.3643111"><ele>314.0</ele><time>2026-04-26T11:27:24.626Z</time></trkpt><trkpt lat="43.2035632" lon="11.3643499"><ele>313.0</ele><time>2026-04-26T11:27:25.627Z</time></trkpt><trkpt lat="43.2035064" lon="11.3644032"><ele>313.0</ele><time>2026-04-26T11:27:26.626Z</time></trkpt><trkpt lat="43.2034452" lon="11.3644836"><ele>313.0</ele><time>2026-04-26T11:27:27.626Z</time></trkpt><trkpt lat="43.2033908" lon="11.3645903"><ele>313.0</ele><time>2026-04-26T11:27:28.626Z</time></trkpt><trkpt lat="43.2033424" lon="11.3647242"><ele>313.0</ele><time>2026-04-26T11:27:29.626Z</time></trkpt><trkpt lat="43.2032914" lon="11.3648561"><ele>313.0</ele><time>2026-04-26T11:27:30.626Z</time></trkpt><trkpt lat="43.2032442" lon="11.3649856"><ele>313.6</ele><time>2026-04-26T11:27:31.626Z</time></trkpt><trkpt lat="43.203202" lon="11.3651063"><ele>314.20000000000005</ele><time>2026-04-26T11:27:32.626Z</time></trkpt><trkpt lat="43.2031716" lon="11.3652244"><ele>314.8</ele><time>2026-04-26T11:27:33.626Z</time></trkpt><trkpt lat="43.2031448" lon="11.3653398"><ele>315.40000000000003</ele><time>2026-04-26T11:27:34.626Z</time></trkpt><trkpt lat="43.2031071" lon="11.3654592"><ele>316.0</ele><time>2026-04-26T11:27:35.626Z</time></trkpt><trkpt lat="43.2030643" lon="11.3655595"><ele>314.16666666666663</ele><time>2026-04-26T11:27:36.626Z</time></trkpt><trkpt lat="43.203014" lon="11.3656398"><ele>312.3333333333333</ele><time>2026-04-26T11:27:37.626Z</time></trkpt><trkpt lat="43.2029798" lon="11.3657144"><ele>310.5</ele><time>2026-04-26T11:27:38.627Z</time></trkpt><trkpt lat="43.2029623" lon="11.3658225"><ele>308.6666666666667</ele><time>2026-04-26T11:27:39.626Z</time></trkpt><trkpt lat="43.2029416" lon="11.3659638"><ele>306.83333333333337</ele><time>2026-04-26T11:27:40.626Z</time></trkpt><trkpt lat="43.202918" lon="11.3661011"><ele>305.0</ele><time>2026-04-26T11:27:41.626Z</time></trkpt><trkpt lat="43.2028777" lon="11.3662089"><ele>305.0</ele><time>2026-04-26T11:27:42.627Z</time></trkpt><trkpt lat="43.2028395" lon="11.3663053"><ele>305.0</ele><time>2026-04-26T11:27:43.626Z</time></trkpt><trkpt lat="43.2028104" lon="11.3664054"><ele>305.0</ele><time>2026-04-26T11:27:44.626Z</time></trkpt><trkpt lat="43.202792" lon="11.366515"><ele>305.0</ele><time>2026-04-26T11:27:45.626Z</time></trkpt><trkpt lat="43.2027741" lon="11.3666338"><ele>305.0</ele><time>2026-04-26T11:27:46.626Z</time></trkpt><trkpt lat="43.2027577" lon="11.3667737"><ele>305.0</ele><time>2026-04-26T11:27:47.626Z</time></trkpt><trkpt lat="43.2027363" lon="11.3669161"><ele>305.6</ele><time>2026-04-26T11:27:48.626Z</time></trkpt><trkpt lat="43.2027162" lon="11.3670688"><ele>306.2</ele><time>2026-04-26T11:27:49.626Z</time></trkpt><trkpt lat="43.2026968" lon="11.3672075"><ele>306.8</ele><time>2026-04-26T11:27:50.626Z</time></trkpt><trkpt lat="43.2026776" lon="11.3673394"><ele>307.4</ele><time>2026-04-26T11:27:51.626Z</time></trkpt><trkpt lat="43.2026469" lon="11.3674619"><ele>308.0</ele><time>2026-04-26T11:27:52.626Z</time></trkpt><trkpt lat="43.2026166" lon="11.3675815"><ele>308.6666666666667</ele><time>2026-04-26T11:27:53.626Z</time></trkpt><trkpt lat="43.2025999" lon="11.367707"><ele>309.33333333333337</ele><time>2026-04-26T11:27:54.626Z</time></trkpt><trkpt lat="43.2025823" lon="11.36782"><ele>310.0</ele><time>2026-04-26T11:27:55.626Z</time></trkpt><trkpt lat="43.2025714" lon="11.367918"><ele>310.6666666666667</ele><time>2026-04-26T11:27:56.627Z</time></trkpt><trkpt lat="43.2025509" lon="11.3680119"><ele>311.3333333333333</ele><time>2026-04-26T11:27:57.626Z</time></trkpt><trkpt lat="43.2025159" lon="11.3680956"><ele>312.0</ele><time>2026-04-26T11:27:58.626Z</time></trkpt><trkpt lat="43.202451" lon="11.3681923"><ele>312.4</ele><time>2026-04-26T11:27:59.626Z</time></trkpt><trkpt lat="43.2023738" lon="11.3682956"><ele>312.79999999999995</ele><time>2026-04-26T11:28:00.626Z</time></trkpt><trkpt lat="43.2023032" lon="11.3684048"><ele>313.2</ele><time>2026-04-26T11:28:01.627Z</time></trkpt><trkpt lat="43.2022338" lon="11.3685106"><ele>313.59999999999997</ele><time>2026-04-26T11:28:02.626Z</time></trkpt><trkpt lat="43.2021763" lon="11.36861"><ele>314.0</ele><time>2026-04-26T11:28:03.627Z</time></trkpt><trkpt lat="43.2021181" lon="11.3687054"><ele>312.83333333333337</ele><time>2026-04-26T11:28:04.626Z</time></trkpt><trkpt lat="43.2020627" lon="11.368801"><ele>311.6666666666667</ele><time>2026-04-26T11:28:05.627Z</time></trkpt><trkpt lat="43.2020048" lon="11.3688957"><ele>310.5</ele><time>2026-04-26T11:28:06.626Z</time></trkpt><trkpt lat="43.2019492" lon="11.3689933"><ele>309.3333333333333</ele><time>2026-04-26T11:28:07.626Z</time></trkpt><trkpt lat="43.2018978" lon="11.3690928"><ele>308.16666666666663</ele><time>2026-04-26T11:28:08.626Z</time></trkpt><trkpt lat="43.2018451" lon="11.3691935"><ele>307.0</ele><time>2026-04-26T11:28:09.626Z</time></trkpt><trkpt lat="43.2017937" lon="11.369284"><ele>307.0</ele><time>2026-04-26T11:28:10.626Z</time></trkpt><trkpt lat="43.2017486" lon="11.3693834"><ele>307.0</ele><time>2026-04-26T11:28:11.627Z</time></trkpt><trkpt lat="43.2017039" lon="11.3694773"><ele>307.0</ele><time>2026-04-26T11:28:12.626Z</time></trkpt><trkpt lat="43.2016499" lon="11.3695725"><ele>307.0</ele><time>2026-04-26T11:28:13.626Z</time></trkpt><trkpt lat="43.201592" lon="11.369666"><ele>307.0</ele><time>2026-04-26T11:28:14.626Z</time></trkpt><trkpt lat="43.2015282" lon="11.3697504"><ele>307.0</ele><time>2026-04-26T11:28:15.627Z</time></trkpt><trkpt lat="43.2014729" lon="11.3698468"><ele>306.3333333333333</ele><time>2026-04-26T11:28:16.626Z</time></trkpt><trkpt lat="43.2014345" lon="11.3699608"><ele>305.66666666666663</ele><time>2026-04-26T11:28:17.626Z</time></trkpt><trkpt lat="43.2014073" lon="11.3700796"><ele>305.0</ele><time>2026-04-26T11:28:18.626Z</time></trkpt><trkpt lat="43.2013796" lon="11.3701994"><ele>304.3333333333333</ele><time>2026-04-26T11:28:19.626Z</time></trkpt><trkpt lat="43.2013538" lon="11.3703226"><ele>303.6666666666667</ele><time>2026-04-26T11:28:20.626Z</time></trkpt><trkpt lat="43.2013323" lon="11.370428"><ele>303.0</ele><time>2026-04-26T11:28:21.626Z</time></trkpt><trkpt lat="43.2013132" lon="11.3705262"><ele>302.0</ele><time>2026-04-26T11:28:22.627Z</time></trkpt><trkpt lat="43.2012965" lon="11.3706334"><ele>301.0</ele><time>2026-04-26T11:28:23.626Z</time></trkpt><trkpt lat="43.2012875" lon="11.370737"><ele>300.0</ele><time>2026-04-26T11:28:24.626Z</time></trkpt><trkpt lat="43.2012843" lon="11.3708409"><ele>299.0</ele><time>2026-04-26T11:28:25.627Z</time></trkpt><trkpt lat="43.2012857" lon="11.3709285"><ele>298.0</ele><time>2026-04-26T11:28:26.626Z</time></trkpt><trkpt lat="43.201294" lon="11.3710165"><ele>297.0</ele><time>2026-04-26T11:29:01.626Z</time></trkpt><trkpt lat="43.2013002" lon="11.3712149"><ele>297.0</ele><time>2026-04-26T11:29:03.626Z</time></trkpt><trkpt lat="43.2012945" lon="11.3713455"><ele>297.0</ele><time>2026-04-26T11:29:04.627Z</time></trkpt><trkpt lat="43.2012923" lon="11.371482"><ele>297.0</ele><time>2026-04-26T11:29:05.626Z</time></trkpt><trkpt lat="43.2012902" lon="11.3716247"><ele>297.0</ele><time>2026-04-26T11:29:06.626Z</time></trkpt><trkpt lat="43.2012866" lon="11.371772"><ele>297.0</ele><time>2026-04-26T11:29:07.626Z</time></trkpt><trkpt lat="43.2012878" lon="11.3719155"><ele>296.25</ele><time>2026-04-26T11:29:08.626Z</time></trkpt><trkpt lat="43.2012813" lon="11.3720542"><ele>295.5</ele><time>2026-04-26T11:29:09.626Z</time></trkpt><trkpt lat="43.2012624" lon="11.3722109"><ele>294.75</ele><time>2026-04-26T11:29:10.627Z</time></trkpt><trkpt lat="43.2012441" lon="11.3723765"><ele>294.0</ele><time>2026-04-26T11:29:11.626Z</time></trkpt><trkpt lat="43.2012315" lon="11.3725423"><ele>292.75</ele><time>2026-04-26T11:29:12.626Z</time></trkpt><trkpt lat="43.2012155" lon="11.3727095"><ele>291.5</ele><time>2026-04-26T11:29:13.626Z</time></trkpt><trkpt lat="43.2011992" lon="11.3728706"><ele>290.25</ele><time>2026-04-26T11:29:14.626Z</time></trkpt><trkpt lat="43.2011834" lon="11.3730258"><ele>289.0</ele><time>2026-04-26T11:29:15.626Z</time></trkpt><trkpt lat="43.2011619" lon="11.3731841"><ele>287.5</ele><time>2026-04-26T11:29:16.626Z</time></trkpt><trkpt lat="43.2011456" lon="11.3733462"><ele>286.0</ele><time>2026-04-26T11:29:17.626Z</time></trkpt><trkpt lat="43.2011305" lon="11.3735104"><ele>284.5</ele><time>2026-04-26T11:29:18.627Z</time></trkpt><trkpt lat="43.2011155" lon="11.3736819"><ele>283.0</ele><time>2026-04-26T11:29:19.626Z</time></trkpt><trkpt lat="43.2011054" lon="11.3738575"><ele>281.8</ele><time>2026-04-26T11:29:20.626Z</time></trkpt><trkpt lat="43.2010917" lon="11.3740153"><ele>280.6</ele><time>2026-04-26T11:29:21.626Z</time></trkpt><trkpt lat="43.2010838" lon="11.374172"><ele>279.4</ele><time>2026-04-26T11:29:22.626Z</time></trkpt><trkpt lat="43.2010747" lon="11.3743164"><ele>278.2</ele><time>2026-04-26T11:29:23.625Z</time></trkpt><trkpt lat="43.2010634" lon="11.37445"><ele>277.0</ele><time>2026-04-26T11:29:24.625Z</time></trkpt><trkpt lat="43.2010513" lon="11.3745803"><ele>276.0</ele><time>2026-04-26T11:29:25.626Z</time></trkpt><trkpt lat="43.2010424" lon="11.374708"><ele>275.0</ele><time>2026-04-26T11:29:26.625Z</time></trkpt><trkpt lat="43.201031" lon="11.374834"><ele>274.0</ele><time>2026-04-26T11:29:27.626Z</time></trkpt><trkpt lat="43.2010184" lon="11.3749536"><ele>273.0</ele><time>2026-04-26T11:29:28.625Z</time></trkpt><trkpt lat="43.2010032" lon="11.3750728"><ele>272.0</ele><time>2026-04-26T11:29:29.625Z</time></trkpt><trkpt lat="43.20099" lon="11.3751727"><ele>271.0</ele><time>2026-04-26T11:29:30.625Z</time></trkpt><trkpt lat="43.2009758" lon="11.3752619"><ele>271.0</ele><time>2026-04-26T11:29:31.625Z</time></trkpt><trkpt lat="43.2009671" lon="11.3753579"><ele>271.0</ele><time>2026-04-26T11:29:33.625Z</time></trkpt><trkpt lat="43.200899" lon="11.3753963"><ele>271.0</ele><time>2026-04-26T11:29:36.625Z</time></trkpt><trkpt lat="43.2008229" lon="11.3753533"><ele>271.0</ele><time>2026-04-26T11:29:37.625Z</time></trkpt><trkpt lat="43.2007195" lon="11.3753023"><ele>271.0</ele><time>2026-04-26T11:29:38.625Z</time></trkpt><trkpt lat="43.2006084" lon="11.375242"><ele>268.0</ele><time>2026-04-26T11:29:39.625Z</time></trkpt><trkpt lat="43.200511" lon="11.3751774"><ele>265.0</ele><time>2026-04-26T11:29:40.625Z</time></trkpt><trkpt lat="43.2004126" lon="11.3751081"><ele>262.0</ele><time>2026-04-26T11:29:41.625Z</time></trkpt><trkpt lat="43.2003256" lon="11.3750435"><ele>259.0</ele><time>2026-04-26T11:29:42.625Z</time></trkpt><trkpt lat="43.2002539" lon="11.374993"><ele>256.0</ele><time>2026-04-26T11:29:43.626Z</time></trkpt><trkpt lat="43.2001797" lon="11.3749671"><ele>256.0</ele><time>2026-04-26T11:29:44.625Z</time></trkpt><trkpt lat="43.2001048" lon="11.3749805"><ele>256.0</ele><time>2026-04-26T11:29:45.625Z</time></trkpt><trkpt lat="43.2000372" lon="11.3750328"><ele>256.0</ele><time>2026-04-26T11:29:46.625Z</time></trkpt><trkpt lat="43.1999691" lon="11.375121"><ele>256.0</ele><time>2026-04-26T11:29:47.625Z</time></trkpt><trkpt lat="43.19991" lon="11.3752345"><ele>256.0</ele><time>2026-04-26T11:29:48.625Z</time></trkpt><trkpt lat="43.1998398" lon="11.37538"><ele>253.0</ele><time>2026-04-26T11:29:49.625Z</time></trkpt><trkpt lat="43.1997637" lon="11.3755245"><ele>250.0</ele><time>2026-04-26T11:29:50.625Z</time></trkpt><trkpt lat="43.1996718" lon="11.3756541"><ele>247.0</ele><time>2026-04-26T11:29:51.625Z</time></trkpt><trkpt lat="43.1995758" lon="11.3757695"><ele>244.0</ele><time>2026-04-26T11:29:52.625Z</time></trkpt><trkpt lat="43.1994817" lon="11.3758816"><ele>244.0</ele><time>2026-04-26T11:29:53.625Z</time></trkpt><trkpt lat="43.1993879" lon="11.3759818"><ele>244.0</ele><time>2026-04-26T11:29:54.625Z</time></trkpt><trkpt lat="43.1992863" lon="11.3760753"><ele>244.0</ele><time>2026-04-26T11:29:55.625Z</time></trkpt><trkpt lat="43.1991745" lon="11.3761442"><ele>244.0</ele><time>2026-04-26T11:29:56.625Z</time></trkpt><trkpt lat="43.1990419" lon="11.3761913"><ele>242.0</ele><time>2026-04-26T11:29:57.625Z</time></trkpt><trkpt lat="43.1988969" lon="11.376222"><ele>240.0</ele><time>2026-04-26T11:29:58.625Z</time></trkpt><trkpt lat="43.1987555" lon="11.376255"><ele>238.0</ele><time>2026-04-26T11:29:59.626Z</time></trkpt><trkpt lat="43.1986208" lon="11.3762826"><ele>236.0</ele><time>2026-04-26T11:30:00.625Z</time></trkpt><trkpt lat="43.1984958" lon="11.3763207"><ele>236.0</ele><time>2026-04-26T11:30:01.625Z</time></trkpt><trkpt lat="43.1983817" lon="11.3763791"><ele>236.0</ele><time>2026-04-26T11:30:02.625Z</time></trkpt><trkpt lat="43.1982718" lon="11.3764611"><ele>236.0</ele><time>2026-04-26T11:30:03.625Z</time></trkpt><trkpt lat="43.1981723" lon="11.3765577"><ele>236.0</ele><time>2026-04-26T11:30:04.625Z</time></trkpt><trkpt lat="43.1980707" lon="11.3766701"><ele>236.0</ele><time>2026-04-26T11:30:05.625Z</time></trkpt><trkpt lat="43.1979707" lon="11.3767841"><ele>236.0</ele><time>2026-04-26T11:30:06.625Z</time></trkpt><trkpt lat="43.1978727" lon="11.3768943"><ele>236.0</ele><time>2026-04-26T11:30:07.625Z</time></trkpt><trkpt lat="43.1977697" lon="11.3769964"><ele>236.0</ele><time>2026-04-26T11:30:08.625Z</time></trkpt><trkpt lat="43.1976636" lon="11.3770889"><ele>236.0</ele><time>2026-04-26T11:30:09.625Z</time></trkpt><trkpt lat="43.1975502" lon="11.3771749"><ele>236.0</ele><time>2026-04-26T11:30:10.625Z</time></trkpt><trkpt lat="43.1974371" lon="11.377252"><ele>236.0</ele><time>2026-04-26T11:30:11.625Z</time></trkpt><trkpt lat="43.1973209" lon="11.3773299"><ele>236.0</ele><time>2026-04-26T11:30:12.625Z</time></trkpt><trkpt lat="43.1972139" lon="11.3774024"><ele>235.20000000000002</ele><time>2026-04-26T11:30:13.625Z</time></trkpt><trkpt lat="43.1971124" lon="11.377469"><ele>234.40000000000003</ele><time>2026-04-26T11:30:14.625Z</time></trkpt><trkpt lat="43.1970165" lon="11.3775344"><ele>233.6</ele><time>2026-04-26T11:30:15.625Z</time></trkpt><trkpt lat="43.1969267" lon="11.3775891"><ele>232.8</ele><time>2026-04-26T11:30:16.625Z</time></trkpt><trkpt lat="43.1968566" lon="11.3776336"><ele>232.0</ele><time>2026-04-26T11:30:17.626Z</time></trkpt><trkpt lat="43.1967958" lon="11.3776698"><ele>232.0</ele><time>2026-04-26T11:30:18.626Z</time></trkpt><trkpt lat="43.196714" lon="11.3776904"><ele>232.0</ele><time>2026-04-26T11:30:20.626Z</time></trkpt><trkpt lat="43.196679" lon="11.3775747"><ele>232.0</ele><time>2026-04-26T11:30:22.626Z</time></trkpt><trkpt lat="43.1966636" lon="11.377471"><ele>232.0</ele><time>2026-04-26T11:30:23.625Z</time></trkpt><trkpt lat="43.1966474" lon="11.3773354"><ele>232.0</ele><time>2026-04-26T11:30:24.625Z</time></trkpt><trkpt lat="43.1966371" lon="11.3771737"><ele>233.0</ele><time>2026-04-26T11:30:25.625Z</time></trkpt><trkpt lat="43.1966232" lon="11.3769951"><ele>234.0</ele><time>2026-04-26T11:30:26.625Z</time></trkpt><trkpt lat="43.1966002" lon="11.3767982"><ele>235.0</ele><time>2026-04-26T11:30:27.625Z</time></trkpt><trkpt lat="43.1965718" lon="11.3765826"><ele>236.0</ele><time>2026-04-26T11:30:28.626Z</time></trkpt><trkpt lat="43.1965311" lon="11.3763398"><ele>237.0</ele><time>2026-04-26T11:30:29.625Z</time></trkpt><trkpt lat="43.1964914" lon="11.3760626"><ele>238.0</ele><time>2026-04-26T11:30:30.626Z</time></trkpt><trkpt lat="43.196454" lon="11.3757676"><ele>239.0</ele><time>2026-04-26T11:30:31.625Z</time></trkpt><trkpt lat="43.1964236" lon="11.3755082"><ele>242.0</ele><time>2026-04-26T11:30:32.625Z</time></trkpt><trkpt lat="43.1963981" lon="11.3752604"><ele>245.0</ele><time>2026-04-26T11:30:33.626Z</time></trkpt><trkpt lat="43.1963681" lon="11.3750166"><ele>248.0</ele><time>2026-04-26T11:30:34.625Z</time></trkpt><trkpt lat="43.1963398" lon="11.374802"><ele>249.66666666666669</ele><time>2026-04-26T11:30:35.626Z</time></trkpt><trkpt lat="43.196315" lon="11.3746"><ele>251.33333333333331</ele><time>2026-04-26T11:30:36.625Z</time></trkpt><trkpt lat="43.1962839" lon="11.3744066"><ele>253.0</ele><time>2026-04-26T11:30:37.625Z</time></trkpt><trkpt lat="43.1962461" lon="11.3741792"><ele>253.0</ele><time>2026-04-26T11:30:38.625Z</time></trkpt><trkpt lat="43.1961939" lon="11.3739364"><ele>253.0</ele><time>2026-04-26T11:30:39.625Z</time></trkpt><trkpt lat="43.1961488" lon="11.3737199"><ele>253.0</ele><time>2026-04-26T11:30:40.626Z</time></trkpt><trkpt lat="43.19611" lon="11.3735333"><ele>254.8</ele><time>2026-04-26T11:30:41.625Z</time></trkpt><trkpt lat="43.196079" lon="11.3733858"><ele>256.6</ele><time>2026-04-26T11:30:42.625Z</time></trkpt><trkpt lat="43.1960526" lon="11.3732601"><ele>258.4</ele><time>2026-04-26T11:30:43.626Z</time></trkpt><trkpt lat="43.1960351" lon="11.3731623"><ele>260.2</ele><time>2026-04-26T11:30:44.626Z</time></trkpt><trkpt lat="43.1960096" lon="11.3730233"><ele>262.0</ele><time>2026-04-26T11:30:46.625Z</time></trkpt><trkpt lat="43.1960158" lon="11.372926"><ele>262.0</ele><time>2026-04-26T11:30:48.625Z</time></trkpt><trkpt lat="43.1959897" lon="11.3730127"><ele>262.0</ele><time>2026-04-26T11:30:54.625Z</time></trkpt><trkpt lat="43.1960274" lon="11.3731434"><ele>262.0</ele><time>2026-04-26T11:31:07.625Z</time></trkpt><trkpt lat="43.1960563" lon="11.3732885"><ele>262.0</ele><time>2026-04-26T11:31:09.626Z</time></trkpt><trkpt lat="43.1960848" lon="11.3734453"><ele>262.0</ele><time>2026-04-26T11:31:11.625Z</time></trkpt><trkpt lat="43.1960329" lon="11.3735056"><ele>262.0</ele><time>2026-04-26T11:31:15.625Z</time></trkpt><trkpt lat="43.1959904" lon="11.3734133"><ele>262.0</ele><time>2026-04-26T11:31:17.625Z</time></trkpt><trkpt lat="43.1959492" lon="11.3733345"><ele>262.0</ele><time>2026-04-26T11:31:18.625Z</time></trkpt><trkpt lat="43.1959058" lon="11.3732597"><ele>262.0</ele><time>2026-04-26T11:31:19.625Z</time></trkpt><trkpt lat="43.1958796" lon="11.373118"><ele>262.0</ele><time>2026-04-26T11:31:21.625Z</time></trkpt><trkpt lat="43.1958632" lon="11.372967"><ele>262.0</ele><time>2026-04-26T11:31:23.626Z</time></trkpt><trkpt lat="43.1958502" lon="11.37288"><ele>262.5</ele><time>2026-04-26T11:31:24.625Z</time></trkpt><trkpt lat="43.1958364" lon="11.3727828"><ele>263.0</ele><time>2026-04-26T11:31:25.625Z</time></trkpt><trkpt lat="43.1958292" lon="11.3726782"><ele>263.5</ele><time>2026-04-26T11:31:26.625Z</time></trkpt><trkpt lat="43.1958192" lon="11.3725741"><ele>264.0</ele><time>2026-04-26T11:31:27.626Z</time></trkpt><trkpt lat="43.195813" lon="11.3724337"><ele>264.5</ele><time>2026-04-26T11:31:29.625Z</time></trkpt><trkpt lat="43.1958252" lon="11.3723456"><ele>265.0</ele><time>2026-04-26T11:31:31.625Z</time></trkpt><trkpt lat="43.1958791" lon="11.3722242"><ele>265.3333333333333</ele><time>2026-04-26T11:31:33.626Z</time></trkpt><trkpt lat="43.1958965" lon="11.3721258"><ele>265.66666666666663</ele><time>2026-04-26T11:31:36.625Z</time></trkpt><trkpt lat="43.1958034" lon="11.3721108"><ele>266.0</ele><time>2026-04-26T11:31:40.625Z</time></trkpt><trkpt lat="43.195714" lon="11.3721141"><ele>266.3333333333333</ele><time>2026-04-26T11:31:42.625Z</time></trkpt><trkpt lat="43.1956452" lon="11.3721092"><ele>266.6666666666667</ele><time>2026-04-26T11:31:44.626Z</time></trkpt><trkpt lat="43.1955694" lon="11.3721165"><ele>267.0</ele><time>2026-04-26T11:31:46.625Z</time></trkpt><trkpt lat="43.1954675" lon="11.3721294"><ele>264.3333333333333</ele><time>2026-04-26T11:31:48.625Z</time></trkpt><trkpt lat="43.1953666" lon="11.3721555"><ele>261.6666666666667</ele><time>2026-04-26T11:31:50.625Z</time></trkpt><trkpt lat="43.1952748" lon="11.3721681"><ele>259.0</ele><time>2026-04-26T11:31:52.625Z</time></trkpt><trkpt lat="43.195188" lon="11.3721859"><ele>256.33333333333337</ele><time>2026-04-26T11:31:54.626Z</time></trkpt><trkpt lat="43.1951253" lon="11.3722068"><ele>253.66666666666669</ele><time>2026-04-26T11:31:56.625Z</time></trkpt><trkpt lat="43.1950599" lon="11.3721983"><ele>251.0</ele><time>2026-04-26T11:31:59.626Z</time></trkpt><trkpt lat="43.1949923" lon="11.3722076"><ele>251.00000000000003</ele><time>2026-04-26T11:32:02.625Z</time></trkpt><trkpt lat="43.1949082" lon="11.3721444"><ele>251.0</ele><time>2026-04-26T11:32:05.625Z</time></trkpt><trkpt lat="43.1948486" lon="11.3720704"><ele>251.0</ele><time>2026-04-26T11:32:07.625Z</time></trkpt><trkpt lat="43.1948064" lon="11.3719983"><ele>251.0</ele><time>2026-04-26T11:32:09.625Z</time></trkpt><trkpt lat="43.1947678" lon="11.3719297"><ele>251.00000000000003</ele><time>2026-04-26T11:32:11.625Z</time></trkpt><trkpt lat="43.1947251" lon="11.371863"><ele>251.0</ele><time>2026-04-26T11:32:13.625Z</time></trkpt><trkpt lat="43.1946458" lon="11.3717862"><ele>252.33333333333334</ele><time>2026-04-26T11:32:16.625Z</time></trkpt><trkpt lat="43.1945826" lon="11.371764"><ele>253.66666666666669</ele><time>2026-04-26T11:32:19.625Z</time></trkpt><trkpt lat="43.1945148" lon="11.3717487"><ele>255.0</ele><time>2026-04-26T11:32:21.625Z</time></trkpt><trkpt lat="43.194412" lon="11.3717259"><ele>256.3333333333333</ele><time>2026-04-26T11:32:23.625Z</time></trkpt><trkpt lat="43.1943342" lon="11.3717156"><ele>257.66666666666663</ele><time>2026-04-26T11:32:24.625Z</time></trkpt><trkpt lat="43.1942407" lon="11.371702"><ele>259.0</ele><time>2026-04-26T11:32:25.625Z</time></trkpt><trkpt lat="43.1941583" lon="11.3716875"><ele>259.0</ele><time>2026-04-26T11:32:26.626Z</time></trkpt><trkpt lat="43.1940871" lon="11.3716736"><ele>259.0</ele><time>2026-04-26T11:32:27.625Z</time></trkpt><trkpt lat="43.1940167" lon="11.3716538"><ele>259.0</ele><time>2026-04-26T11:32:28.626Z</time></trkpt><trkpt lat="43.1939429" lon="11.371629"><ele>259.0</ele><time>2026-04-26T11:32:29.625Z</time></trkpt><trkpt lat="43.1938742" lon="11.3716098"><ele>259.0</ele><time>2026-04-26T11:32:30.625Z</time></trkpt><trkpt lat="43.1938097" lon="11.3715876"><ele>259.0</ele><time>2026-04-26T11:32:31.625Z</time></trkpt><trkpt lat="43.1937151" lon="11.3715213"><ele>260.57142857142856</ele><time>2026-04-26T11:32:33.625Z</time></trkpt><trkpt lat="43.1936558" lon="11.3714722"><ele>262.1428571428571</ele><time>2026-04-26T11:32:35.625Z</time></trkpt><trkpt lat="43.1935915" lon="11.3713742"><ele>263.7142857142857</ele><time>2026-04-26T11:32:38.625Z</time></trkpt><trkpt lat="43.1935297" lon="11.3713327"><ele>265.2857142857143</ele><time>2026-04-26T11:32:41.626Z</time></trkpt><trkpt lat="43.1934731" lon="11.3713937"><ele>266.85714285714283</ele><time>2026-04-26T11:32:44.625Z</time></trkpt><trkpt lat="43.1934558" lon="11.3714832"><ele>268.42857142857144</ele><time>2026-04-26T11:32:53.625Z</time></trkpt><trkpt lat="43.1934856" lon="11.3715766"><ele>270.0</ele><time>2026-04-26T11:32:57.626Z</time></trkpt><trkpt lat="43.1934214" lon="11.3716587"><ele>270.0</ele><time>2026-04-26T11:33:01.625Z</time></trkpt><trkpt lat="43.1933536" lon="11.3716598"><ele>270.0</ele><time>2026-04-26T11:33:03.626Z</time></trkpt><trkpt lat="43.1933011" lon="11.3715835"><ele>270.0</ele><time>2026-04-26T11:33:05.625Z</time></trkpt><trkpt lat="43.1932287" lon="11.3715168"><ele>270.0</ele><time>2026-04-26T11:33:07.625Z</time></trkpt><trkpt lat="43.1931445" lon="11.3714615"><ele>270.0</ele><time>2026-04-26T11:33:09.625Z</time></trkpt><trkpt lat="43.1930858" lon="11.3714248"><ele>270.0</ele><time>2026-04-26T11:33:10.626Z</time></trkpt><trkpt lat="43.1930274" lon="11.3713831"><ele>273.4</ele><time>2026-04-26T11:33:11.625Z</time></trkpt><trkpt lat="43.1929599" lon="11.3713375"><ele>276.8</ele><time>2026-04-26T11:33:12.625Z</time></trkpt><trkpt lat="43.1928855" lon="11.3712839"><ele>280.2</ele><time>2026-04-26T11:33:13.625Z</time></trkpt><trkpt lat="43.192797" lon="11.3712144"><ele>283.6</ele><time>2026-04-26T11:33:14.626Z</time></trkpt><trkpt lat="43.1926997" lon="11.3711426"><ele>287.0</ele><time>2026-04-26T11:33:15.625Z</time></trkpt><trkpt lat="43.1926268" lon="11.3710887"><ele>287.0</ele><time>2026-04-26T11:33:16.625Z</time></trkpt><trkpt lat="43.1925083" lon="11.3710198"><ele>287.0</ele><time>2026-04-26T11:33:18.625Z</time></trkpt><trkpt lat="43.1924324" lon="11.3709675"><ele>287.0</ele><time>2026-04-26T11:33:19.625Z</time></trkpt><trkpt lat="43.1923688" lon="11.3709202"><ele>287.0</ele><time>2026-04-26T11:33:20.625Z</time></trkpt><trkpt lat="43.1923095" lon="11.3708899"><ele>287.0</ele><time>2026-04-26T11:33:21.626Z</time></trkpt><trkpt lat="43.1922051" lon="11.3708479"><ele>287.1666666666667</ele><time>2026-04-26T11:33:23.626Z</time></trkpt><trkpt lat="43.1921111" lon="11.3708462"><ele>287.33333333333337</ele><time>2026-04-26T11:33:25.625Z</time></trkpt><trkpt lat="43.1920203" lon="11.370844"><ele>287.5</ele><time>2026-04-26T11:33:27.625Z</time></trkpt><trkpt lat="43.191947" lon="11.3707825"><ele>287.6666666666667</ele><time>2026-04-26T11:33:29.625Z</time></trkpt><trkpt lat="43.1919106" lon="11.3707049"><ele>287.8333333333333</ele><time>2026-04-26T11:33:31.625Z</time></trkpt><trkpt lat="43.1919413" lon="11.3707884"><ele>288.0</ele><time>2026-04-26T11:33:36.625Z</time></trkpt><trkpt lat="43.1920375" lon="11.3708587"><ele>288.0</ele><time>2026-04-26T11:33:38.626Z</time></trkpt><trkpt lat="43.1921446" lon="11.3708357"><ele>288.0</ele><time>2026-04-26T11:33:40.625Z</time></trkpt><trkpt lat="43.1921799" lon="11.3707614"><ele>288.0</ele><time>2026-04-26T11:33:43.625Z</time></trkpt><trkpt lat="43.1921131" lon="11.3706629"><ele>288.0</ele><time>2026-04-26T11:33:46.625Z</time></trkpt><trkpt lat="43.1920576" lon="11.370581"><ele>288.0</ele><time>2026-04-26T11:33:47.625Z</time></trkpt><trkpt lat="43.1919936" lon="11.3704833"><ele>288.0</ele><time>2026-04-26T11:33:48.626Z</time></trkpt><trkpt lat="43.1919386" lon="11.3703802"><ele>289.8333333333333</ele><time>2026-04-26T11:33:49.625Z</time></trkpt><trkpt lat="43.1918839" lon="11.3702863"><ele>291.6666666666667</ele><time>2026-04-26T11:33:50.625Z</time></trkpt><trkpt lat="43.1918394" lon="11.3701963"><ele>293.5</ele><time>2026-04-26T11:33:51.625Z</time></trkpt><trkpt lat="43.1918036" lon="11.3701058"><ele>295.33333333333337</ele><time>2026-04-26T11:33:52.625Z</time></trkpt><trkpt lat="43.1917622" lon="11.3700245"><ele>297.1666666666667</ele><time>2026-04-26T11:33:53.625Z</time></trkpt><trkpt lat="43.1917227" lon="11.3699366"><ele>299.0</ele><time>2026-04-26T11:33:54.625Z</time></trkpt><trkpt lat="43.1916742" lon="11.3698595"><ele>299.0</ele><time>2026-04-26T11:33:55.625Z</time></trkpt><trkpt lat="43.1916131" lon="11.3697913"><ele>299.0</ele><time>2026-04-26T11:33:56.625Z</time></trkpt><trkpt lat="43.1915557" lon="11.3697324"><ele>299.0</ele><time>2026-04-26T11:33:57.625Z</time></trkpt><trkpt lat="43.1914817" lon="11.3695937"><ele>299.0</ele><time>2026-04-26T11:33:59.625Z</time></trkpt><trkpt lat="43.1914537" lon="11.3695158"><ele>299.0</ele><time>2026-04-26T11:34:00.626Z</time></trkpt><trkpt lat="43.1914213" lon="11.3694402"><ele>299.0</ele><time>2026-04-26T11:34:01.625Z</time></trkpt><trkpt lat="43.1913836" lon="11.3693649"><ele>299.4</ele><time>2026-04-26T11:34:02.625Z</time></trkpt><trkpt lat="43.1913235" lon="11.369222"><ele>299.79999999999995</ele><time>2026-04-26T11:34:04.625Z</time></trkpt><trkpt lat="43.1913001" lon="11.3690713"><ele>300.20000000000005</ele><time>2026-04-26T11:34:06.625Z</time></trkpt><trkpt lat="43.1912954" lon="11.3688971"><ele>300.6</ele><time>2026-04-26T11:34:08.625Z</time></trkpt><trkpt lat="43.1912872" lon="11.3687747"><ele>301.0</ele><time>2026-04-26T11:34:10.625Z</time></trkpt><trkpt lat="43.191265" lon="11.3686759"><ele>301.5</ele><time>2026-04-26T11:34:12.625Z</time></trkpt><trkpt lat="43.1912393" lon="11.3685427"><ele>302.0</ele><time>2026-04-26T11:34:14.625Z</time></trkpt><trkpt lat="43.1912177" lon="11.3684563"><ele>302.5</ele><time>2026-04-26T11:34:16.625Z</time></trkpt><trkpt lat="43.1911943" lon="11.3683562"><ele>303.0</ele><time>2026-04-26T11:34:19.625Z</time></trkpt><trkpt lat="43.1911467" lon="11.3682511"><ele>303.5</ele><time>2026-04-26T11:35:07.625Z</time></trkpt><trkpt lat="43.1910941" lon="11.3681376"><ele>304.0</ele><time>2026-04-26T11:35:09.625Z</time></trkpt><trkpt lat="43.1910695" lon="11.3680143"><ele>304.2</ele><time>2026-04-26T11:35:11.625Z</time></trkpt><trkpt lat="43.1910719" lon="11.3678545"><ele>304.4</ele><time>2026-04-26T11:35:13.625Z</time></trkpt><trkpt lat="43.1910403" lon="11.3676825"><ele>304.6</ele><time>2026-04-26T11:35:15.625Z</time></trkpt><trkpt lat="43.1910075" lon="11.3675794"><ele>304.8</ele><time>2026-04-26T11:35:16.625Z</time></trkpt><trkpt lat="43.1909741" lon="11.3674691"><ele>305.0</ele><time>2026-04-26T11:35:17.625Z</time></trkpt><trkpt lat="43.1909421" lon="11.3673642"><ele>305.0</ele><time>2026-04-26T11:35:18.625Z</time></trkpt><trkpt lat="43.1909138" lon="11.367258"><ele>305.0</ele><time>2026-04-26T11:35:19.625Z</time></trkpt><trkpt lat="43.1908876" lon="11.3671588"><ele>305.0</ele><time>2026-04-26T11:35:20.625Z</time></trkpt><trkpt lat="43.19086" lon="11.3670721"><ele>305.0</ele><time>2026-04-26T11:35:21.625Z</time></trkpt><trkpt lat="43.1908416" lon="11.3669834"><ele>305.0</ele><time>2026-04-26T11:35:22.625Z</time></trkpt><trkpt lat="43.1908277" lon="11.3668954"><ele>305.0</ele><time>2026-04-26T11:35:23.626Z</time></trkpt><trkpt lat="43.1908266" lon="11.3667995"><ele>305.0</ele><time>2026-04-26T11:35:24.625Z</time></trkpt><trkpt lat="43.1908301" lon="11.3666352"><ele>305.33333333333337</ele><time>2026-04-26T11:35:26.625Z</time></trkpt><trkpt lat="43.1907763" lon="11.3665006"><ele>305.6666666666667</ele><time>2026-04-26T11:35:28.625Z</time></trkpt><trkpt lat="43.1907264" lon="11.366436"><ele>306.0</ele><time>2026-04-26T11:35:29.625Z</time></trkpt><trkpt lat="43.1906734" lon="11.3663668"><ele>306.3333333333333</ele><time>2026-04-26T11:35:30.625Z</time></trkpt><trkpt lat="43.1906158" lon="11.3663044"><ele>306.66666666666663</ele><time>2026-04-26T11:35:31.625Z</time></trkpt><trkpt lat="43.1905554" lon="11.3662523"><ele>307.0</ele><time>2026-04-26T11:35:32.625Z</time></trkpt><trkpt lat="43.1905152" lon="11.3661499"><ele>307.6</ele><time>2026-04-26T11:35:37.625Z</time></trkpt><trkpt lat="43.1905021" lon="11.3660038"><ele>308.2</ele><time>2026-04-26T11:35:39.625Z</time></trkpt><trkpt lat="43.1904922" lon="11.3659056"><ele>308.8</ele><time>2026-04-26T11:35:40.625Z</time></trkpt><trkpt lat="43.1904779" lon="11.3657689"><ele>309.4</ele><time>2026-04-26T11:35:41.625Z</time></trkpt><trkpt lat="43.1904551" lon="11.3656256"><ele>310.0</ele><time>2026-04-26T11:35:42.625Z</time></trkpt><trkpt lat="43.1904373" lon="11.3654896"><ele>312.6</ele><time>2026-04-26T11:35:43.625Z</time></trkpt><trkpt lat="43.1904251" lon="11.3653594"><ele>315.2</ele><time>2026-04-26T11:35:44.625Z</time></trkpt><trkpt lat="43.1904" lon="11.3652335"><ele>317.79999999999995</ele><time>2026-04-26T11:35:45.625Z</time></trkpt><trkpt lat="43.1903616" lon="11.3651155"><ele>320.4</ele><time>2026-04-26T11:35:46.625Z</time></trkpt><trkpt lat="43.1903279" lon="11.3649881"><ele>323.0</ele><time>2026-04-26T11:35:47.625Z</time></trkpt><trkpt lat="43.1902787" lon="11.3648775"><ele>323.0</ele><time>2026-04-26T11:35:48.625Z</time></trkpt><trkpt lat="43.1902184" lon="11.3647932"><ele>323.0</ele><time>2026-04-26T11:35:49.625Z</time></trkpt><trkpt lat="43.1901564" lon="11.3647094"><ele>323.0</ele><time>2026-04-26T11:35:50.625Z</time></trkpt><trkpt lat="43.1900884" lon="11.3646343"><ele>323.0</ele><time>2026-04-26T11:35:51.625Z</time></trkpt><trkpt lat="43.1900146" lon="11.3645714"><ele>323.0</ele><time>2026-04-26T11:35:52.625Z</time></trkpt><trkpt lat="43.1899568" lon="11.3645261"><ele>323.0</ele><time>2026-04-26T11:35:53.625Z</time></trkpt><trkpt lat="43.1898779" lon="11.364428"><ele>324.79999999999995</ele><time>2026-04-26T11:35:55.625Z</time></trkpt><trkpt lat="43.1898079" lon="11.3643002"><ele>326.6</ele><time>2026-04-26T11:35:57.625Z</time></trkpt><trkpt lat="43.1897953" lon="11.364204"><ele>328.4</ele><time>2026-04-26T11:35:59.625Z</time></trkpt><trkpt lat="43.18981" lon="11.364336"><ele>330.20000000000005</ele><time>2026-04-26T11:36:11.625Z</time></trkpt><trkpt lat="43.1898786" lon="11.3644751"><ele>332.0</ele><time>2026-04-26T11:36:13.625Z</time></trkpt><trkpt lat="43.1899454" lon="11.3645758"><ele>332.0</ele><time>2026-04-26T11:36:15.625Z</time></trkpt><trkpt lat="43.1900022" lon="11.3646241"><ele>332.0</ele><time>2026-04-26T11:36:18.626Z</time></trkpt><trkpt lat="43.1900208" lon="11.3645281"><ele>332.0</ele><time>2026-04-26T11:37:38.624Z</time></trkpt><trkpt lat="43.1900049" lon="11.3644238"><ele>332.0</ele><time>2026-04-26T11:37:40.624Z</time></trkpt><trkpt lat="43.1900233" lon="11.364307"><ele>332.0</ele><time>2026-04-26T11:37:43.624Z</time></trkpt><trkpt lat="43.1900659" lon="11.3642059"><ele>332.0</ele><time>2026-04-26T11:37:45.624Z</time></trkpt><trkpt lat="43.1900492" lon="11.3641179"><ele>332.0</ele><time>2026-04-26T11:37:47.625Z</time></trkpt><trkpt lat="43.1900342" lon="11.3640141"><ele>332.0</ele><time>2026-04-26T11:37:49.624Z</time></trkpt><trkpt lat="43.1900173" lon="11.3639127"><ele>332.0</ele><time>2026-04-26T11:37:51.625Z</time></trkpt><trkpt lat="43.1899823" lon="11.3638158"><ele>332.0</ele><time>2026-04-26T11:37:54.624Z</time></trkpt><trkpt lat="43.1899631" lon="11.3637122"><ele>332.0</ele><time>2026-04-26T11:37:57.624Z</time></trkpt><trkpt lat="43.1899734" lon="11.3636169"><ele>332.0</ele><time>2026-04-26T11:37:59.624Z</time></trkpt><trkpt lat="43.1899931" lon="11.3634802"><ele>333.40000000000003</ele><time>2026-04-26T11:38:01.624Z</time></trkpt><trkpt lat="43.1900272" lon="11.3633379"><ele>334.8</ele><time>2026-04-26T11:38:03.624Z</time></trkpt><trkpt lat="43.1900356" lon="11.3631818"><ele>336.2</ele><time>2026-04-26T11:38:05.624Z</time></trkpt><trkpt lat="43.190024" lon="11.3630351"><ele>337.6</ele><time>2026-04-26T11:38:07.624Z</time></trkpt><trkpt lat="43.1900319" lon="11.3628898"><ele>339.0</ele><time>2026-04-26T11:38:09.624Z</time></trkpt><trkpt lat="43.1900217" lon="11.362799"><ele>339.2</ele><time>2026-04-26T11:38:11.624Z</time></trkpt><trkpt lat="43.1900009" lon="11.3626793"><ele>339.4</ele><time>2026-04-26T11:38:15.624Z</time></trkpt><trkpt lat="43.1900093" lon="11.3625592"><ele>339.6</ele><time>2026-04-26T11:38:17.624Z</time></trkpt><trkpt lat="43.1900079" lon="11.3624088"><ele>339.8</ele><time>2026-04-26T11:38:19.625Z</time></trkpt><trkpt lat="43.1900011" lon="11.3622472"><ele>340.0</ele><time>2026-04-26T11:38:21.624Z</time></trkpt><trkpt lat="43.1899907" lon="11.3621533"><ele>338.66666666666663</ele><time>2026-04-26T11:38:22.624Z</time></trkpt><trkpt lat="43.1899776" lon="11.3620679"><ele>337.3333333333333</ele><time>2026-04-26T11:38:23.624Z</time></trkpt><trkpt lat="43.1899524" lon="11.361969"><ele>336.0</ele><time>2026-04-26T11:38:24.624Z</time></trkpt><trkpt lat="43.1899234" lon="11.3618645"><ele>334.6666666666667</ele><time>2026-04-26T11:38:25.624Z</time></trkpt><trkpt lat="43.1898921" lon="11.3617583"><ele>333.33333333333337</ele><time>2026-04-26T11:38:26.624Z</time></trkpt><trkpt lat="43.1898724" lon="11.3616407"><ele>332.0</ele><time>2026-04-26T11:38:27.624Z</time></trkpt><trkpt lat="43.1898599" lon="11.36152"><ele>332.0</ele><time>2026-04-26T11:38:28.624Z</time></trkpt><trkpt lat="43.1898501" lon="11.3614025"><ele>332.0</ele><time>2026-04-26T11:38:29.624Z</time></trkpt><trkpt lat="43.1898423" lon="11.3612825"><ele>332.0</ele><time>2026-04-26T11:38:30.624Z</time></trkpt><trkpt lat="43.1898391" lon="11.36117"><ele>332.0</ele><time>2026-04-26T11:38:31.625Z</time></trkpt><trkpt lat="43.1898424" lon="11.3610676"><ele>332.0</ele><time>2026-04-26T11:38:32.624Z</time></trkpt><trkpt lat="43.1898663" lon="11.3609702"><ele>332.0</ele><time>2026-04-26T11:38:33.624Z</time></trkpt><trkpt lat="43.1898956" lon="11.360883"><ele>331.83333333333337</ele><time>2026-04-26T11:38:34.625Z</time></trkpt><trkpt lat="43.1899345" lon="11.3607921"><ele>331.6666666666667</ele><time>2026-04-26T11:38:35.624Z</time></trkpt><trkpt lat="43.1899842" lon="11.3606968"><ele>331.5</ele><time>2026-04-26T11:38:36.624Z</time></trkpt><trkpt lat="43.1900328" lon="11.3606016"><ele>331.3333333333333</ele><time>2026-04-26T11:38:37.625Z</time></trkpt><trkpt lat="43.1900728" lon="11.3605146"><ele>331.16666666666663</ele><time>2026-04-26T11:38:38.624Z</time></trkpt><trkpt lat="43.1901147" lon="11.3604405"><ele>331.0</ele><time>2026-04-26T11:38:39.624Z</time></trkpt><trkpt lat="43.1901934" lon="11.3603683"><ele>331.0</ele><time>2026-04-26T11:38:41.625Z</time></trkpt><trkpt lat="43.1902569" lon="11.3603601"><ele>331.0</ele><time>2026-04-26T11:38:53.624Z</time></trkpt><trkpt lat="43.1901906" lon="11.3603894"><ele>331.0</ele><time>2026-04-26T11:38:58.624Z</time></trkpt><trkpt lat="43.1901287" lon="11.360462"><ele>331.0</ele><time>2026-04-26T11:39:00.624Z</time></trkpt><trkpt lat="43.1900895" lon="11.3605379"><ele>331.0</ele><time>2026-04-26T11:39:01.624Z</time></trkpt><trkpt lat="43.1900499" lon="11.3606068"><ele>331.0</ele><time>2026-04-26T11:39:02.624Z</time></trkpt><trkpt lat="43.1899855" lon="11.3607401"><ele>331.0</ele><time>2026-04-26T11:39:04.625Z</time></trkpt><trkpt lat="43.1899472" lon="11.3608135"><ele>331.0</ele><time>2026-04-26T11:39:05.624Z</time></trkpt><trkpt lat="43.1899007" lon="11.3609266"><ele>331.0</ele><time>2026-04-26T11:39:07.624Z</time></trkpt><trkpt lat="43.1898458" lon="11.3608622"><ele>331.0</ele><time>2026-04-26T11:39:10.624Z</time></trkpt><trkpt lat="43.1898149" lon="11.3607844"><ele>331.0</ele><time>2026-04-26T11:39:13.624Z</time></trkpt><trkpt lat="43.1897845" lon="11.360651"><ele>331.0</ele><time>2026-04-26T11:39:15.624Z</time></trkpt><trkpt lat="43.1897361" lon="11.3604825"><ele>331.0</ele><time>2026-04-26T11:39:17.624Z</time></trkpt><trkpt lat="43.1897301" lon="11.3603763"><ele>331.0</ele><time>2026-04-26T11:39:18.624Z</time></trkpt><trkpt lat="43.189735" lon="11.3602715"><ele>331.0</ele><time>2026-04-26T11:39:19.624Z</time></trkpt><trkpt lat="43.1897504" lon="11.3601594"><ele>331.0</ele><time>2026-04-26T11:39:20.625Z</time></trkpt><trkpt lat="43.1897574" lon="11.3600386"><ele>331.0</ele><time>2026-04-26T11:39:21.624Z</time></trkpt><trkpt lat="43.1897706" lon="11.35993"><ele>331.0</ele><time>2026-04-26T11:39:22.625Z</time></trkpt><trkpt lat="43.1897806" lon="11.3598302"><ele>331.0</ele><time>2026-04-26T11:39:23.624Z</time></trkpt><trkpt lat="43.1897818" lon="11.3597355"><ele>331.0</ele><time>2026-04-26T11:39:24.624Z</time></trkpt><trkpt lat="43.1897851" lon="11.3595852"><ele>331.0</ele><time>2026-04-26T11:39:26.624Z</time></trkpt><trkpt lat="43.1897706" lon="11.3594543"><ele>331.0</ele><time>2026-04-26T11:39:28.624Z</time></trkpt><trkpt lat="43.1897645" lon="11.3593094"><ele>331.0</ele><time>2026-04-26T11:39:30.624Z</time></trkpt><trkpt lat="43.1897687" lon="11.3592076"><ele>332.3333333333333</ele><time>2026-04-26T11:39:31.624Z</time></trkpt><trkpt lat="43.1897583" lon="11.3590923"><ele>333.66666666666663</ele><time>2026-04-26T11:39:32.624Z</time></trkpt><trkpt lat="43.1897295" lon="11.3589947"><ele>335.0</ele><time>2026-04-26T11:39:33.624Z</time></trkpt><trkpt lat="43.1896696" lon="11.3588663"><ele>336.3333333333333</ele><time>2026-04-26T11:39:35.624Z</time></trkpt><trkpt lat="43.1896499" lon="11.3587509"><ele>337.6666666666667</ele><time>2026-04-26T11:39:37.624Z</time></trkpt><trkpt lat="43.1896993" lon="11.3586609"><ele>339.0</ele><time>2026-04-26T11:39:39.625Z</time></trkpt><trkpt lat="43.1897588" lon="11.3585783"><ele>339.8333333333333</ele><time>2026-04-26T11:39:41.625Z</time></trkpt><trkpt lat="43.189804" lon="11.3585172"><ele>340.6666666666667</ele><time>2026-04-26T11:39:43.624Z</time></trkpt><trkpt lat="43.1898699" lon="11.3584492"><ele>341.5</ele><time>2026-04-26T11:39:46.625Z</time></trkpt><trkpt lat="43.189932" lon="11.358363"><ele>342.33333333333337</ele><time>2026-04-26T11:39:48.624Z</time></trkpt><trkpt lat="43.1899617" lon="11.3582502"><ele>343.1666666666667</ele><time>2026-04-26T11:39:51.625Z</time></trkpt><trkpt lat="43.189981" lon="11.3581561"><ele>344.0</ele><time>2026-04-26T11:40:01.624Z</time></trkpt><trkpt lat="43.1900049" lon="11.3580164"><ele>347.4</ele><time>2026-04-26T11:40:03.624Z</time></trkpt><trkpt lat="43.1900569" lon="11.3578767"><ele>350.79999999999995</ele><time>2026-04-26T11:40:05.624Z</time></trkpt><trkpt lat="43.1901287" lon="11.3577523"><ele>354.20000000000005</ele><time>2026-04-26T11:40:07.624Z</time></trkpt><trkpt lat="43.1902132" lon="11.3576217"><ele>357.6</ele><time>2026-04-26T11:40:09.624Z</time></trkpt><trkpt lat="43.1902629" lon="11.3575551"><ele>361.0</ele><time>2026-04-26T11:40:10.624Z</time></trkpt><trkpt lat="43.1903525" lon="11.3574287"><ele>361.0</ele><time>2026-04-26T11:40:12.624Z</time></trkpt><trkpt lat="43.1903738" lon="11.3573448"><ele>361.0</ele><time>2026-04-26T11:40:13.624Z</time></trkpt><trkpt lat="43.1903938" lon="11.3572597"><ele>361.0</ele><time>2026-04-26T11:40:14.624Z</time></trkpt><trkpt lat="43.1904358" lon="11.3571933"><ele>361.0</ele><time>2026-04-26T11:40:15.624Z</time></trkpt><trkpt lat="43.1905437" lon="11.3571427"><ele>361.0</ele><time>2026-04-26T11:40:17.624Z</time></trkpt><trkpt lat="43.1906553" lon="11.3571748"><ele>361.0</ele><time>2026-04-26T11:40:19.624Z</time></trkpt><trkpt lat="43.1907608" lon="11.3571756"><ele>363.16666666666663</ele><time>2026-04-26T11:40:21.624Z</time></trkpt><trkpt lat="43.190869" lon="11.3570899"><ele>365.3333333333333</ele><time>2026-04-26T11:40:23.624Z</time></trkpt><trkpt lat="43.1909195" lon="11.3570259"><ele>367.5</ele><time>2026-04-26T11:40:24.624Z</time></trkpt><trkpt lat="43.1909603" lon="11.3569486"><ele>369.6666666666667</ele><time>2026-04-26T11:40:25.624Z</time></trkpt><trkpt lat="43.1909902" lon="11.3568613"><ele>371.83333333333337</ele><time>2026-04-26T11:40:26.625Z</time></trkpt><trkpt lat="43.191012" lon="11.3567772"><ele>374.0</ele><time>2026-04-26T11:40:27.624Z</time></trkpt><trkpt lat="43.1910305" lon="11.3566497"><ele>374.0</ele><time>2026-04-26T11:40:29.624Z</time></trkpt><trkpt lat="43.1910566" lon="11.3565378"><ele>374.0</ele><time>2026-04-26T11:40:32.624Z</time></trkpt><trkpt lat="43.1910782" lon="11.3564142"><ele>374.0</ele><time>2026-04-26T11:40:34.625Z</time></trkpt><trkpt lat="43.1910986" lon="11.3562825"><ele>374.0</ele><time>2026-04-26T11:40:35.624Z</time></trkpt><trkpt lat="43.1911303" lon="11.3561596"><ele>374.0</ele><time>2026-04-26T11:40:36.624Z</time></trkpt><trkpt lat="43.1911488" lon="11.3560319"><ele>373.4</ele><time>2026-04-26T11:40:37.624Z</time></trkpt><trkpt lat="43.191156" lon="11.3559098"><ele>372.79999999999995</ele><time>2026-04-26T11:40:38.624Z</time></trkpt><trkpt lat="43.1911587" lon="11.355784"><ele>372.20000000000005</ele><time>2026-04-26T11:40:39.625Z</time></trkpt><trkpt lat="43.1911653" lon="11.3556584"><ele>371.6</ele><time>2026-04-26T11:40:40.624Z</time></trkpt><trkpt lat="43.1911622" lon="11.3555156"><ele>371.0</ele><time>2026-04-26T11:40:41.625Z</time></trkpt><trkpt lat="43.1911559" lon="11.3554074"><ele>371.0</ele><time>2026-04-26T11:40:42.624Z</time></trkpt><trkpt lat="43.191141" lon="11.3552902"><ele>371.0</ele><time>2026-04-26T11:40:43.624Z</time></trkpt><trkpt lat="43.1911348" lon="11.3551731"><ele>371.0</ele><time>2026-04-26T11:40:44.624Z</time></trkpt><trkpt lat="43.1911216" lon="11.3550637"><ele>371.0</ele><time>2026-04-26T11:40:45.625Z</time></trkpt><trkpt lat="43.1911143" lon="11.3549575"><ele>371.0</ele><time>2026-04-26T11:40:46.625Z</time></trkpt><trkpt lat="43.191093" lon="11.354851"><ele>371.0</ele><time>2026-04-26T11:40:47.624Z</time></trkpt><trkpt lat="43.1910644" lon="11.3547516"><ele>370.6666666666667</ele><time>2026-04-26T11:40:48.624Z</time></trkpt><trkpt lat="43.1910439" lon="11.3546541"><ele>370.33333333333337</ele><time>2026-04-26T11:40:49.625Z</time></trkpt><trkpt lat="43.1910286" lon="11.3545673"><ele>370.0</ele><time>2026-04-26T11:40:50.624Z</time></trkpt><trkpt lat="43.1910156" lon="11.3544762"><ele>369.6666666666667</ele><time>2026-04-26T11:40:51.624Z</time></trkpt><trkpt lat="43.1910332" lon="11.3543226"><ele>369.3333333333333</ele><time>2026-04-26T11:40:53.624Z</time></trkpt><trkpt lat="43.1910513" lon="11.3541976"><ele>369.0</ele><time>2026-04-26T11:40:55.624Z</time></trkpt><trkpt lat="43.191013" lon="11.3540716"><ele>369.0</ele><time>2026-04-26T11:40:57.624Z</time></trkpt><trkpt lat="43.1909313" lon="11.3539618"><ele>369.0</ele><time>2026-04-26T11:40:59.624Z</time></trkpt><trkpt lat="43.1908859" lon="11.3538274"><ele>369.0</ele><time>2026-04-26T11:41:01.624Z</time></trkpt><trkpt lat="43.1908093" lon="11.3537262"><ele>369.0</ele><time>2026-04-26T11:41:03.624Z</time></trkpt><trkpt lat="43.190759" lon="11.3536722"><ele>369.0</ele><time>2026-04-26T11:41:04.624Z</time></trkpt><trkpt lat="43.1907051" lon="11.3536097"><ele>367.4</ele><time>2026-04-26T11:41:05.625Z</time></trkpt><trkpt lat="43.190622" lon="11.3535054"><ele>365.79999999999995</ele><time>2026-04-26T11:41:07.624Z</time></trkpt><trkpt lat="43.1905662" lon="11.353394"><ele>364.20000000000005</ele><time>2026-04-26T11:41:09.624Z</time></trkpt><trkpt lat="43.1905088" lon="11.3532567"><ele>362.6</ele><time>2026-04-26T11:41:11.624Z</time></trkpt><trkpt lat="43.1904874" lon="11.3531738"><ele>361.0</ele><time>2026-04-26T11:41:12.624Z</time></trkpt><trkpt lat="43.1904522" lon="11.353021"><ele>361.0</ele><time>2026-04-26T11:41:14.624Z</time></trkpt><trkpt lat="43.1904261" lon="11.3529408"><ele>361.0</ele><time>2026-04-26T11:41:15.624Z</time></trkpt><trkpt lat="43.1903995" lon="11.3528491"><ele>361.0</ele><time>2026-04-26T11:41:16.624Z</time></trkpt><trkpt lat="43.1903706" lon="11.3527473"><ele>361.0</ele><time>2026-04-26T11:41:17.624Z</time></trkpt><trkpt lat="43.190335" lon="11.3526445"><ele>361.0</ele><time>2026-04-26T11:41:18.624Z</time></trkpt><trkpt lat="43.1903006" lon="11.3525403"><ele>361.0</ele><time>2026-04-26T11:41:19.624Z</time></trkpt><trkpt lat="43.1902661" lon="11.3524416"><ele>361.0</ele><time>2026-04-26T11:41:20.624Z</time></trkpt><trkpt lat="43.190236" lon="11.3523399"><ele>361.0</ele><time>2026-04-26T11:41:21.624Z</time></trkpt><trkpt lat="43.1902083" lon="11.3522281"><ele>361.0</ele><time>2026-04-26T11:41:22.625Z</time></trkpt><trkpt lat="43.1901791" lon="11.3521102"><ele>361.0</ele><time>2026-04-26T11:41:23.625Z</time></trkpt><trkpt lat="43.1901479" lon="11.351992"><ele>361.0</ele><time>2026-04-26T11:41:24.624Z</time></trkpt><trkpt lat="43.1901253" lon="11.3518924"><ele>361.0</ele><time>2026-04-26T11:41:25.625Z</time></trkpt><trkpt lat="43.1901052" lon="11.3518015"><ele>361.20000000000005</ele><time>2026-04-26T11:41:26.624Z</time></trkpt><trkpt lat="43.1900825" lon="11.3517094"><ele>361.40000000000003</ele><time>2026-04-26T11:41:27.624Z</time></trkpt><trkpt lat="43.1900587" lon="11.351624"><ele>361.6</ele><time>2026-04-26T11:41:28.624Z</time></trkpt><trkpt lat="43.1900261" lon="11.3514701"><ele>361.8</ele><time>2026-04-26T11:41:30.624Z</time></trkpt><trkpt lat="43.1900431" lon="11.3513021"><ele>362.0</ele><time>2026-04-26T11:41:32.625Z</time></trkpt><trkpt lat="43.1900537" lon="11.3511956"><ele>362.1666666666667</ele><time>2026-04-26T11:41:33.624Z</time></trkpt><trkpt lat="43.1900669" lon="11.351079"><ele>362.33333333333337</ele><time>2026-04-26T11:41:34.624Z</time></trkpt><trkpt lat="43.1900855" lon="11.3509727"><ele>362.5</ele><time>2026-04-26T11:41:35.624Z</time></trkpt><trkpt lat="43.1901117" lon="11.3508552"><ele>362.6666666666667</ele><time>2026-04-26T11:41:36.624Z</time></trkpt><trkpt lat="43.1901247" lon="11.3507418"><ele>362.8333333333333</ele><time>2026-04-26T11:41:37.624Z</time></trkpt><trkpt lat="43.190127" lon="11.3506423"><ele>363.0</ele><time>2026-04-26T11:41:38.624Z</time></trkpt><trkpt lat="43.1901036" lon="11.3505488"><ele>362.6666666666667</ele><time>2026-04-26T11:41:39.624Z</time></trkpt><trkpt lat="43.1900406" lon="11.3503991"><ele>362.3333333333333</ele><time>2026-04-26T11:41:41.625Z</time></trkpt><trkpt lat="43.1899959" lon="11.3503314"><ele>362.0</ele><time>2026-04-26T11:41:42.624Z</time></trkpt><trkpt lat="43.1899138" lon="11.350274"><ele>361.66666666666663</ele><time>2026-04-26T11:41:44.625Z</time></trkpt><trkpt lat="43.1898616" lon="11.3502243"><ele>361.3333333333333</ele><time>2026-04-26T11:41:46.624Z</time></trkpt><trkpt lat="43.1897931" lon="11.350183"><ele>361.0</ele><time>2026-04-26T11:41:48.624Z</time></trkpt><trkpt lat="43.1898254" lon="11.3500933"><ele>361.0</ele><time>2026-04-26T11:42:04.624Z</time></trkpt><trkpt lat="43.1898497" lon="11.3500001"><ele>361.0</ele><time>2026-04-26T11:42:06.625Z</time></trkpt><trkpt lat="43.1898809" lon="11.3499177"><ele>361.0</ele><time>2026-04-26T11:42:08.624Z</time></trkpt><trkpt lat="43.1899236" lon="11.3498249"><ele>361.0</ele><time>2026-04-26T11:42:10.624Z</time></trkpt><trkpt lat="43.1899447" lon="11.349735"><ele>361.0</ele><time>2026-04-26T11:42:12.625Z</time></trkpt><trkpt lat="43.1899586" lon="11.3496456"><ele>361.0</ele><time>2026-04-26T11:42:14.625Z</time></trkpt><trkpt lat="43.1899868" lon="11.3495407"><ele>361.0</ele><time>2026-04-26T11:42:16.625Z</time></trkpt><trkpt lat="43.1900366" lon="11.3494642"><ele>361.0</ele><time>2026-04-26T11:42:18.625Z</time></trkpt><trkpt lat="43.1900917" lon="11.34935"><ele>361.0</ele><time>2026-04-26T11:42:20.624Z</time></trkpt><trkpt lat="43.1901746" lon="11.3492303"><ele>361.0</ele><time>2026-04-26T11:42:22.624Z</time></trkpt><trkpt lat="43.1902248" lon="11.34916"><ele>361.0</ele><time>2026-04-26T11:42:23.625Z</time></trkpt><trkpt lat="43.1902772" lon="11.3490811"><ele>361.0</ele><time>2026-04-26T11:42:24.624Z</time></trkpt><trkpt lat="43.1903411" lon="11.3489916"><ele>361.0</ele><time>2026-04-26T11:42:25.624Z</time></trkpt><trkpt lat="43.1904116" lon="11.3488959"><ele>361.0</ele><time>2026-04-26T11:42:26.624Z</time></trkpt><trkpt lat="43.1904706" lon="11.3488125"><ele>361.0</ele><time>2026-04-26T11:42:27.624Z</time></trkpt><trkpt lat="43.1905246" lon="11.3487418"><ele>361.0</ele><time>2026-04-26T11:42:28.624Z</time></trkpt><trkpt lat="43.1906247" lon="11.3487016"><ele>361.0</ele><time>2026-04-26T11:42:30.624Z</time></trkpt><trkpt lat="43.1907316" lon="11.348745"><ele>361.3333333333333</ele><time>2026-04-26T11:42:32.624Z</time></trkpt><trkpt lat="43.1908353" lon="11.3487191"><ele>361.66666666666663</ele><time>2026-04-26T11:42:34.624Z</time></trkpt><trkpt lat="43.1908801" lon="11.3486507"><ele>362.0</ele><time>2026-04-26T11:42:35.624Z</time></trkpt><trkpt lat="43.19091" lon="11.3485529"><ele>362.3333333333333</ele><time>2026-04-26T11:42:36.624Z</time></trkpt><trkpt lat="43.190944" lon="11.3484373"><ele>362.6666666666667</ele><time>2026-04-26T11:42:37.625Z</time></trkpt><trkpt lat="43.1909777" lon="11.3483087"><ele>363.0</ele><time>2026-04-26T11:42:38.624Z</time></trkpt><trkpt lat="43.1910097" lon="11.3481844"><ele>363.0</ele><time>2026-04-26T11:42:39.624Z</time></trkpt><trkpt lat="43.1910369" lon="11.3480586"><ele>363.0</ele><time>2026-04-26T11:42:40.624Z</time></trkpt><trkpt lat="43.1910629" lon="11.3479411"><ele>363.0</ele><time>2026-04-26T11:42:41.625Z</time></trkpt><trkpt lat="43.1910938" lon="11.3478198"><ele>363.0</ele><time>2026-04-26T11:42:42.624Z</time></trkpt><trkpt lat="43.1911337" lon="11.3476995"><ele>363.0</ele><time>2026-04-26T11:42:43.624Z</time></trkpt><trkpt lat="43.1911721" lon="11.3475788"><ele>363.2</ele><time>2026-04-26T11:42:44.624Z</time></trkpt><trkpt lat="43.1912099" lon="11.3474605"><ele>363.4</ele><time>2026-04-26T11:42:45.624Z</time></trkpt><trkpt lat="43.1912531" lon="11.3473477"><ele>363.59999999999997</ele><time>2026-04-26T11:42:46.624Z</time></trkpt><trkpt lat="43.1912985" lon="11.3472301"><ele>363.79999999999995</ele><time>2026-04-26T11:42:47.624Z</time></trkpt><trkpt lat="43.1913492" lon="11.3471017"><ele>364.0</ele><time>2026-04-26T11:42:48.624Z</time></trkpt><trkpt lat="43.1914004" lon="11.3469706"><ele>362.79999999999995</ele><time>2026-04-26T11:42:49.624Z</time></trkpt><trkpt lat="43.1914506" lon="11.3468521"><ele>361.59999999999997</ele><time>2026-04-26T11:42:50.624Z</time></trkpt><trkpt lat="43.1915135" lon="11.3467519"><ele>360.4</ele><time>2026-04-26T11:42:51.624Z</time></trkpt><trkpt lat="43.1915873" lon="11.34665"><ele>359.2</ele><time>2026-04-26T11:42:52.624Z</time></trkpt><trkpt lat="43.1916651" lon="11.3465558"><ele>358.0</ele><time>2026-04-26T11:42:53.625Z</time></trkpt><trkpt lat="43.1917462" lon="11.3464755"><ele>358.0</ele><time>2026-04-26T11:42:54.624Z</time></trkpt><trkpt lat="43.1918296" lon="11.3463988"><ele>358.0</ele><time>2026-04-26T11:42:55.624Z</time></trkpt><trkpt lat="43.191904" lon="11.3463179"><ele>358.0</ele><time>2026-04-26T11:42:56.624Z</time></trkpt><trkpt lat="43.1919786" lon="11.3462214"><ele>358.0</ele><time>2026-04-26T11:42:57.624Z</time></trkpt><trkpt lat="43.1920448" lon="11.3461216"><ele>358.0</ele><time>2026-04-26T11:42:58.624Z</time></trkpt><trkpt lat="43.1921009" lon="11.3460349"><ele>359.66666666666663</ele><time>2026-04-26T11:42:59.624Z</time></trkpt><trkpt lat="43.1921506" lon="11.3459453"><ele>361.3333333333333</ele><time>2026-04-26T11:43:00.624Z</time></trkpt><trkpt lat="43.1922037" lon="11.3458547"><ele>363.0</ele><time>2026-04-26T11:43:01.625Z</time></trkpt><trkpt lat="43.1922489" lon="11.3457518"><ele>364.6666666666667</ele><time>2026-04-26T11:43:02.625Z</time></trkpt><trkpt lat="43.1922884" lon="11.3456425"><ele>366.33333333333337</ele><time>2026-04-26T11:43:03.624Z</time></trkpt><trkpt lat="43.1923004" lon="11.3455358"><ele>368.0</ele><time>2026-04-26T11:43:04.625Z</time></trkpt><trkpt lat="43.1922909" lon="11.3454197"><ele>368.79999999999995</ele><time>2026-04-26T11:43:05.624Z</time></trkpt><trkpt lat="43.1922651" lon="11.3453051"><ele>369.6</ele><time>2026-04-26T11:43:06.624Z</time></trkpt><trkpt lat="43.1922304" lon="11.3451845"><ele>370.4</ele><time>2026-04-26T11:43:07.624Z</time></trkpt><trkpt lat="43.1921891" lon="11.3450544"><ele>371.20000000000005</ele><time>2026-04-26T11:43:08.624Z</time></trkpt><trkpt lat="43.1921553" lon="11.3449258"><ele>372.0</ele><time>2026-04-26T11:43:09.624Z</time></trkpt><trkpt lat="43.1921224" lon="11.3447942"><ele>369.5</ele><time>2026-04-26T11:43:10.624Z</time></trkpt><trkpt lat="43.1921078" lon="11.3446562"><ele>367.0</ele><time>2026-04-26T11:43:11.625Z</time></trkpt><trkpt lat="43.1921025" lon="11.3444958"><ele>364.5</ele><time>2026-04-26T11:43:12.624Z</time></trkpt><trkpt lat="43.1920873" lon="11.3443268"><ele>362.0</ele><time>2026-04-26T11:43:13.624Z</time></trkpt><trkpt lat="43.1920692" lon="11.3441639"><ele>362.0</ele><time>2026-04-26T11:43:14.624Z</time></trkpt><trkpt lat="43.1920491" lon="11.3440143"><ele>362.0</ele><time>2026-04-26T11:43:15.624Z</time></trkpt><trkpt lat="43.1920279" lon="11.3438944"><ele>362.0</ele><time>2026-04-26T11:43:16.624Z</time></trkpt><trkpt lat="43.1920136" lon="11.3437858"><ele>362.0</ele><time>2026-04-26T11:43:17.625Z</time></trkpt><trkpt lat="43.1919993" lon="11.3436821"><ele>362.0</ele><time>2026-04-26T11:43:18.625Z</time></trkpt><trkpt lat="43.1919964" lon="11.3435909"><ele>362.0</ele><time>2026-04-26T11:43:19.624Z</time></trkpt><trkpt lat="43.1920118" lon="11.3434974"><ele>360.6</ele><time>2026-04-26T11:43:20.624Z</time></trkpt><trkpt lat="43.1920536" lon="11.3434058"><ele>359.20000000000005</ele><time>2026-04-26T11:43:21.624Z</time></trkpt><trkpt lat="43.1921173" lon="11.3433047"><ele>357.8</ele><time>2026-04-26T11:43:22.624Z</time></trkpt><trkpt lat="43.1921754" lon="11.3432064"><ele>356.4</ele><time>2026-04-26T11:43:23.624Z</time></trkpt><trkpt lat="43.1922265" lon="11.3430863"><ele>355.0</ele><time>2026-04-26T11:43:24.624Z</time></trkpt><trkpt lat="43.192269" lon="11.3429594"><ele>354.6</ele><time>2026-04-26T11:43:25.624Z</time></trkpt><trkpt lat="43.1923049" lon="11.3428348"><ele>354.2</ele><time>2026-04-26T11:43:26.624Z</time></trkpt><trkpt lat="43.1923462" lon="11.3427041"><ele>353.79999999999995</ele><time>2026-04-26T11:43:27.624Z</time></trkpt><trkpt lat="43.1923929" lon="11.3425759"><ele>353.4</ele><time>2026-04-26T11:43:28.624Z</time></trkpt><trkpt lat="43.192439" lon="11.3424517"><ele>353.0</ele><time>2026-04-26T11:43:29.624Z</time></trkpt><trkpt lat="43.1924926" lon="11.3423397"><ele>353.0</ele><time>2026-04-26T11:43:30.623Z</time></trkpt><trkpt lat="43.192551" lon="11.3422311"><ele>353.0</ele><time>2026-04-26T11:43:31.623Z</time></trkpt><trkpt lat="43.1926093" lon="11.3421262"><ele>353.0</ele><time>2026-04-26T11:43:32.623Z</time></trkpt><trkpt lat="43.1926707" lon="11.342033"><ele>353.0</ele><time>2026-04-26T11:43:33.623Z</time></trkpt><trkpt lat="43.192717" lon="11.34193"><ele>353.0</ele><time>2026-04-26T11:43:34.623Z</time></trkpt><trkpt lat="43.1927485" lon="11.3418121"><ele>352.4</ele><time>2026-04-26T11:43:35.623Z</time></trkpt><trkpt lat="43.1927592" lon="11.3416893"><ele>351.79999999999995</ele><time>2026-04-26T11:43:36.623Z</time></trkpt><trkpt lat="43.1927608" lon="11.3415567"><ele>351.2</ele><time>2026-04-26T11:43:37.623Z</time></trkpt><trkpt lat="43.1927674" lon="11.3414118"><ele>350.6</ele><time>2026-04-26T11:43:38.623Z</time></trkpt><trkpt lat="43.1927877" lon="11.3412757"><ele>350.0</ele><time>2026-04-26T11:43:39.623Z</time></trkpt><trkpt lat="43.192826" lon="11.3411529"><ele>348.5</ele><time>2026-04-26T11:43:40.623Z</time></trkpt><trkpt lat="43.1928813" lon="11.3410285"><ele>347.0</ele><time>2026-04-26T11:43:41.623Z</time></trkpt><trkpt lat="43.1929462" lon="11.3408996"><ele>345.5</ele><time>2026-04-26T11:43:42.623Z</time></trkpt><trkpt lat="43.1930162" lon="11.3407645"><ele>344.0</ele><time>2026-04-26T11:43:43.623Z</time></trkpt><trkpt lat="43.1930819" lon="11.3406205"><ele>343.25</ele><time>2026-04-26T11:43:44.623Z</time></trkpt><trkpt lat="43.1931436" lon="11.3404695"><ele>342.5</ele><time>2026-04-26T11:43:45.623Z</time></trkpt><trkpt lat="43.1931894" lon="11.3403094"><ele>341.75</ele><time>2026-04-26T11:43:46.623Z</time></trkpt><trkpt lat="43.1932232" lon="11.3401495"><ele>341.0</ele><time>2026-04-26T11:43:47.623Z</time></trkpt><trkpt lat="43.1932462" lon="11.3399833"><ele>344.0</ele><time>2026-04-26T11:43:48.624Z</time></trkpt><trkpt lat="43.1932589" lon="11.3398144"><ele>347.0</ele><time>2026-04-26T11:43:49.623Z</time></trkpt><trkpt lat="43.1932661" lon="11.3396367"><ele>350.0</ele><time>2026-04-26T11:43:50.623Z</time></trkpt><trkpt lat="43.1932718" lon="11.3394638"><ele>353.0</ele><time>2026-04-26T11:43:51.623Z</time></trkpt><trkpt lat="43.1932821" lon="11.3393098"><ele>353.0</ele><time>2026-04-26T11:43:52.623Z</time></trkpt><trkpt lat="43.1932956" lon="11.3391583"><ele>353.0</ele><time>2026-04-26T11:43:53.623Z</time></trkpt><trkpt lat="43.1933175" lon="11.3390111"><ele>353.0</ele><time>2026-04-26T11:43:54.623Z</time></trkpt><trkpt lat="43.1933483" lon="11.3388804"><ele>353.0</ele><time>2026-04-26T11:43:55.623Z</time></trkpt><trkpt lat="43.1933951" lon="11.3387538"><ele>353.0</ele><time>2026-04-26T11:43:56.623Z</time></trkpt><trkpt lat="43.1934457" lon="11.3386269"><ele>353.0</ele><time>2026-04-26T11:43:57.623Z</time></trkpt><trkpt lat="43.1934809" lon="11.3384966"><ele>353.0</ele><time>2026-04-26T11:43:58.623Z</time></trkpt><trkpt lat="43.1934979" lon="11.3383541"><ele>353.0</ele><time>2026-04-26T11:43:59.623Z</time></trkpt><trkpt lat="43.1935116" lon="11.3381947"><ele>353.0</ele><time>2026-04-26T11:44:00.623Z</time></trkpt><trkpt lat="43.1935205" lon="11.3380356"><ele>353.0</ele><time>2026-04-26T11:44:01.623Z</time></trkpt><trkpt lat="43.193537" lon="11.3378533"><ele>354.25</ele><time>2026-04-26T11:44:02.623Z</time></trkpt><trkpt lat="43.1935557" lon="11.3376706"><ele>355.5</ele><time>2026-04-26T11:44:03.624Z</time></trkpt><trkpt lat="43.193557" lon="11.3375061"><ele>356.75</ele><time>2026-04-26T11:44:04.623Z</time></trkpt><trkpt lat="43.1935554" lon="11.3373413"><ele>358.0</ele><time>2026-04-26T11:44:05.623Z</time></trkpt><trkpt lat="43.19355" lon="11.3371789"><ele>359.0</ele><time>2026-04-26T11:44:06.624Z</time></trkpt><trkpt lat="43.1935473" lon="11.3370273"><ele>360.0</ele><time>2026-04-26T11:44:07.623Z</time></trkpt><trkpt lat="43.1935496" lon="11.3368836"><ele>361.0</ele><time>2026-04-26T11:44:08.623Z</time></trkpt><trkpt lat="43.1935583" lon="11.3367489"><ele>362.0</ele><time>2026-04-26T11:44:09.623Z</time></trkpt><trkpt lat="43.1935629" lon="11.3366337"><ele>363.0</ele><time>2026-04-26T11:44:10.623Z</time></trkpt><trkpt lat="43.1935381" lon="11.3365291"><ele>363.0</ele><time>2026-04-26T11:44:11.623Z</time></trkpt><trkpt lat="43.1934772" lon="11.336413"><ele>363.0</ele><time>2026-04-26T11:44:12.623Z</time></trkpt><trkpt lat="43.1933958" lon="11.3363022"><ele>363.0</ele><time>2026-04-26T11:44:13.623Z</time></trkpt><trkpt lat="43.1933039" lon="11.3361992"><ele>363.0</ele><time>2026-04-26T11:44:14.623Z</time></trkpt><trkpt lat="43.1932218" lon="11.3360977"><ele>363.0</ele><time>2026-04-26T11:44:15.623Z</time></trkpt><trkpt lat="43.193147" lon="11.3360008"><ele>363.79999999999995</ele><time>2026-04-26T11:44:16.623Z</time></trkpt><trkpt lat="43.1930706" lon="11.3359031"><ele>364.6</ele><time>2026-04-26T11:44:17.623Z</time></trkpt><trkpt lat="43.1930002" lon="11.3357884"><ele>365.4</ele><time>2026-04-26T11:44:18.623Z</time></trkpt><trkpt lat="43.1929375" lon="11.3356661"><ele>366.20000000000005</ele><time>2026-04-26T11:44:19.623Z</time></trkpt><trkpt lat="43.1928735" lon="11.3355419"><ele>367.0</ele><time>2026-04-26T11:44:20.623Z</time></trkpt><trkpt lat="43.1928099" lon="11.3354191"><ele>367.0</ele><time>2026-04-26T11:44:21.623Z</time></trkpt><trkpt lat="43.1927551" lon="11.3352952"><ele>367.0</ele><time>2026-04-26T11:44:22.624Z</time></trkpt><trkpt lat="43.1927187" lon="11.3351677"><ele>367.0</ele><time>2026-04-26T11:44:23.623Z</time></trkpt><trkpt lat="43.1926911" lon="11.3350275"><ele>367.0</ele><time>2026-04-26T11:44:24.623Z</time></trkpt><trkpt lat="43.1926684" lon="11.3348642"><ele>367.0</ele><time>2026-04-26T11:44:25.624Z</time></trkpt><trkpt lat="43.1926496" lon="11.3346887"><ele>369.0</ele><time>2026-04-26T11:44:26.624Z</time></trkpt><trkpt lat="43.1926339" lon="11.3345141"><ele>371.0</ele><time>2026-04-26T11:44:27.623Z</time></trkpt><trkpt lat="43.1926118" lon="11.3343328"><ele>373.0</ele><time>2026-04-26T11:44:28.623Z</time></trkpt><trkpt lat="43.1925909" lon="11.3341542"><ele>375.0</ele><time>2026-04-26T11:44:29.623Z</time></trkpt><trkpt lat="43.1925655" lon="11.333982"><ele>376.2</ele><time>2026-04-26T11:44:30.624Z</time></trkpt><trkpt lat="43.1925481" lon="11.3338291"><ele>377.4</ele><time>2026-04-26T11:44:31.624Z</time></trkpt><trkpt lat="43.1925419" lon="11.3336832"><ele>378.6</ele><time>2026-04-26T11:44:32.623Z</time></trkpt><trkpt lat="43.1925365" lon="11.333534"><ele>379.8</ele><time>2026-04-26T11:44:33.623Z</time></trkpt><trkpt lat="43.1925157" lon="11.3333921"><ele>381.0</ele><time>2026-04-26T11:44:34.624Z</time></trkpt><trkpt lat="43.1924788" lon="11.3332505"><ele>381.0</ele><time>2026-04-26T11:44:35.623Z</time></trkpt><trkpt lat="43.1924424" lon="11.3331097"><ele>381.0</ele><time>2026-04-26T11:44:36.624Z</time></trkpt><trkpt lat="43.1924124" lon="11.3329555"><ele>381.0</ele><time>2026-04-26T11:44:37.623Z</time></trkpt><trkpt lat="43.1923852" lon="11.3327932"><ele>381.0</ele><time>2026-04-26T11:44:38.623Z</time></trkpt><trkpt lat="43.1923602" lon="11.3326493"><ele>381.0</ele><time>2026-04-26T11:44:39.623Z</time></trkpt><trkpt lat="43.1923432" lon="11.3325117"><ele>381.0</ele><time>2026-04-26T11:44:40.623Z</time></trkpt><trkpt lat="43.1923363" lon="11.3323382"><ele>381.0</ele><time>2026-04-26T11:44:41.624Z</time></trkpt><trkpt lat="43.1923375" lon="11.3321542"><ele>381.0</ele><time>2026-04-26T11:44:42.623Z</time></trkpt><trkpt lat="43.1923338" lon="11.331992"><ele>381.0</ele><time>2026-04-26T11:44:43.623Z</time></trkpt><trkpt lat="43.1923127" lon="11.3318467"><ele>381.0</ele><time>2026-04-26T11:44:44.623Z</time></trkpt><trkpt lat="43.1922801" lon="11.3317212"><ele>381.0</ele><time>2026-04-26T11:44:45.623Z</time></trkpt><trkpt lat="43.1922447" lon="11.3316208"><ele>381.0</ele><time>2026-04-26T11:44:46.623Z</time></trkpt><trkpt lat="43.1922294" lon="11.3315277"><ele>381.0</ele><time>2026-04-26T11:44:47.623Z</time></trkpt><trkpt lat="43.1922295" lon="11.3314243"><ele>381.0</ele><time>2026-04-26T11:44:48.623Z</time></trkpt><trkpt lat="43.1922384" lon="11.3313169"><ele>380.6</ele><time>2026-04-26T11:44:49.623Z</time></trkpt><trkpt lat="43.1922238" lon="11.3311948"><ele>380.20000000000005</ele><time>2026-04-26T11:44:50.624Z</time></trkpt><trkpt lat="43.1921872" lon="11.3310546"><ele>379.79999999999995</ele><time>2026-04-26T11:44:51.623Z</time></trkpt><trkpt lat="43.1921464" lon="11.3309127"><ele>379.4</ele><time>2026-04-26T11:44:52.623Z</time></trkpt><trkpt lat="43.1921018" lon="11.3307616"><ele>379.0</ele><time>2026-04-26T11:44:53.623Z</time></trkpt><trkpt lat="43.1920571" lon="11.3306125"><ele>380.6</ele><time>2026-04-26T11:44:54.623Z</time></trkpt><trkpt lat="43.1920169" lon="11.3304793"><ele>382.2</ele><time>2026-04-26T11:44:55.623Z</time></trkpt><trkpt lat="43.1919649" lon="11.3303505"><ele>383.8</ele><time>2026-04-26T11:44:56.623Z</time></trkpt><trkpt lat="43.1919124" lon="11.3302276"><ele>385.40000000000003</ele><time>2026-04-26T11:44:57.623Z</time></trkpt><trkpt lat="43.1918495" lon="11.3301161"><ele>387.0</ele><time>2026-04-26T11:44:58.623Z</time></trkpt><trkpt lat="43.1917708" lon="11.3300228"><ele>387.0</ele><time>2026-04-26T11:44:59.623Z</time></trkpt><trkpt lat="43.1916924" lon="11.3299515"><ele>387.0</ele><time>2026-04-26T11:45:00.623Z</time></trkpt><trkpt lat="43.1915982" lon="11.3299206"><ele>387.0</ele><time>2026-04-26T11:45:01.624Z</time></trkpt><trkpt lat="43.1914941" lon="11.3299235"><ele>387.0</ele><time>2026-04-26T11:45:02.623Z</time></trkpt><trkpt lat="43.1913768" lon="11.3299402"><ele>387.0</ele><time>2026-04-26T11:45:03.623Z</time></trkpt><trkpt lat="43.1912556" lon="11.3299434"><ele>387.5</ele><time>2026-04-26T11:45:04.623Z</time></trkpt><trkpt lat="43.1911325" lon="11.3299405"><ele>388.0</ele><time>2026-04-26T11:45:05.623Z</time></trkpt><trkpt lat="43.1910039" lon="11.3299376"><ele>388.5</ele><time>2026-04-26T11:45:06.623Z</time></trkpt><trkpt lat="43.1908725" lon="11.3299276"><ele>389.0</ele><time>2026-04-26T11:45:07.623Z</time></trkpt><trkpt lat="43.1907603" lon="11.3299285"><ele>390.4</ele><time>2026-04-26T11:45:08.623Z</time></trkpt><trkpt lat="43.1906699" lon="11.3299637"><ele>391.79999999999995</ele><time>2026-04-26T11:45:09.623Z</time></trkpt><trkpt lat="43.1905797" lon="11.3300428"><ele>393.20000000000005</ele><time>2026-04-26T11:45:10.624Z</time></trkpt><trkpt lat="43.190494" lon="11.3301364"><ele>394.6</ele><time>2026-04-26T11:45:11.624Z</time></trkpt><trkpt lat="43.1904168" lon="11.3301797"><ele>396.0</ele><time>2026-04-26T11:45:12.623Z</time></trkpt><trkpt lat="43.1903352" lon="11.3301854"><ele>396.0</ele><time>2026-04-26T11:45:13.623Z</time></trkpt><trkpt lat="43.1902382" lon="11.3301659"><ele>396.0</ele><time>2026-04-26T11:45:14.624Z</time></trkpt><trkpt lat="43.1901282" lon="11.3301216"><ele>396.0</ele><time>2026-04-26T11:45:15.623Z</time></trkpt><trkpt lat="43.1900135" lon="11.3300728"><ele>396.0</ele><time>2026-04-26T11:45:16.623Z</time></trkpt><trkpt lat="43.189898" lon="11.3300372"><ele>394.8</ele><time>2026-04-26T11:45:17.623Z</time></trkpt><trkpt lat="43.1897906" lon="11.3299969"><ele>393.6</ele><time>2026-04-26T11:45:18.623Z</time></trkpt><trkpt lat="43.1896935" lon="11.3299489"><ele>392.4</ele><time>2026-04-26T11:45:19.623Z</time></trkpt><trkpt lat="43.1895965" lon="11.329894"><ele>391.2</ele><time>2026-04-26T11:45:20.623Z</time></trkpt><trkpt lat="43.1894994" lon="11.3298443"><ele>390.0</ele><time>2026-04-26T11:45:21.623Z</time></trkpt><trkpt lat="43.1894141" lon="11.3297853"><ele>391.75</ele><time>2026-04-26T11:45:22.623Z</time></trkpt><trkpt lat="43.1893487" lon="11.3296875"><ele>393.5</ele><time>2026-04-26T11:45:23.623Z</time></trkpt><trkpt lat="43.1892914" lon="11.3295619"><ele>395.25</ele><time>2026-04-26T11:45:24.624Z</time></trkpt><trkpt lat="43.1892256" lon="11.3294193"><ele>397.0</ele><time>2026-04-26T11:45:25.623Z</time></trkpt><trkpt lat="43.189145" lon="11.3292663"><ele>397.0</ele><time>2026-04-26T11:45:26.623Z</time></trkpt><trkpt lat="43.1890516" lon="11.3291266"><ele>397.0</ele><time>2026-04-26T11:45:27.623Z</time></trkpt><trkpt lat="43.1889696" lon="11.3290056"><ele>397.0</ele><time>2026-04-26T11:45:28.623Z</time></trkpt><trkpt lat="43.1888956" lon="11.328907"><ele>397.0</ele><time>2026-04-26T11:45:29.623Z</time></trkpt><trkpt lat="43.188833" lon="11.3288162"><ele>398.0</ele><time>2026-04-26T11:45:30.623Z</time></trkpt><trkpt lat="43.188789" lon="11.3287066"><ele>399.0</ele><time>2026-04-26T11:45:31.623Z</time></trkpt><trkpt lat="43.188741" lon="11.3285976"><ele>400.0</ele><time>2026-04-26T11:45:32.623Z</time></trkpt><trkpt lat="43.1886722" lon="11.3285062"><ele>401.0</ele><time>2026-04-26T11:45:33.623Z</time></trkpt><trkpt lat="43.1885818" lon="11.3284575"><ele>402.0</ele><time>2026-04-26T11:45:34.623Z</time></trkpt><trkpt lat="43.1884761" lon="11.3284332"><ele>402.0</ele><time>2026-04-26T11:45:35.623Z</time></trkpt><trkpt lat="43.1883663" lon="11.3283814"><ele>402.0</ele><time>2026-04-26T11:45:36.623Z</time></trkpt><trkpt lat="43.188257" lon="11.3283113"><ele>402.0</ele><time>2026-04-26T11:45:37.624Z</time></trkpt><trkpt lat="43.188166" lon="11.328251"><ele>402.0</ele><time>2026-04-26T11:45:38.623Z</time></trkpt><trkpt lat="43.1880899" lon="11.3281997"><ele>402.0</ele><time>2026-04-26T11:45:39.623Z</time></trkpt><trkpt lat="43.1880139" lon="11.3281243"><ele>403.0</ele><time>2026-04-26T11:45:40.624Z</time></trkpt><trkpt lat="43.1879473" lon="11.3280295"><ele>404.0</ele><time>2026-04-26T11:45:41.623Z</time></trkpt><trkpt lat="43.1879032" lon="11.3279162"><ele>405.0</ele><time>2026-04-26T11:45:42.623Z</time></trkpt><trkpt lat="43.1878759" lon="11.3278113"><ele>406.0</ele><time>2026-04-26T11:45:43.624Z</time></trkpt><trkpt lat="43.187857" lon="11.3277158"><ele>407.0</ele><time>2026-04-26T11:45:44.624Z</time></trkpt><trkpt lat="43.1878573" lon="11.3275644"><ele>406.99999999999994</ele><time>2026-04-26T11:45:46.623Z</time></trkpt><trkpt lat="43.1878951" lon="11.3274451"><ele>407.0</ele><time>2026-04-26T11:45:48.623Z</time></trkpt><trkpt lat="43.1879078" lon="11.327348"><ele>407.0</ele><time>2026-04-26T11:45:50.623Z</time></trkpt><trkpt lat="43.1879138" lon="11.327231"><ele>407.0</ele><time>2026-04-26T11:45:52.623Z</time></trkpt><trkpt lat="43.1879235" lon="11.3271454"><ele>406.99999999999994</ele><time>2026-04-26T11:45:53.624Z</time></trkpt><trkpt lat="43.1879166" lon="11.3270372"><ele>407.0</ele><time>2026-04-26T11:45:55.623Z</time></trkpt><trkpt lat="43.187884" lon="11.3271345"><ele>406.99999999999994</ele><time>2026-04-26T11:46:00.623Z</time></trkpt><trkpt lat="43.187906" lon="11.3272164"><ele>407.0</ele><time>2026-04-26T11:46:01.623Z</time></trkpt><trkpt lat="43.1879021" lon="11.3273717"><ele>407.0</ele><time>2026-04-26T11:46:03.623Z</time></trkpt><trkpt lat="43.1878645" lon="11.3275318"><ele>407.0</ele><time>2026-04-26T11:46:05.623Z</time></trkpt><trkpt lat="43.1878447" lon="11.3276153"><ele>406.99999999999994</ele><time>2026-04-26T11:46:06.624Z</time></trkpt><trkpt lat="43.1878435" lon="11.3277082"><ele>407.0</ele><time>2026-04-26T11:46:07.623Z</time></trkpt><trkpt lat="43.1878642" lon="11.3278294"><ele>407.0</ele><time>2026-04-26T11:46:09.623Z</time></trkpt><trkpt lat="43.1878489" lon="11.3277395"><ele>407.0</ele><time>2026-04-26T11:46:15.623Z</time></trkpt><trkpt lat="43.1877765" lon="11.3276518"><ele>407.0</ele><time>2026-04-26T11:46:17.623Z</time></trkpt><trkpt lat="43.1877024" lon="11.3276374"><ele>407.0</ele><time>2026-04-26T11:46:19.624Z</time></trkpt><trkpt lat="43.1876016" lon="11.3276287"><ele>407.0</ele><time>2026-04-26T11:46:21.623Z</time></trkpt><trkpt lat="43.1874911" lon="11.3275871"><ele>407.0</ele><time>2026-04-26T11:46:23.623Z</time></trkpt><trkpt lat="43.1873833" lon="11.3275005"><ele>407.0</ele><time>2026-04-26T11:46:25.623Z</time></trkpt><trkpt lat="43.187311" lon="11.3274598"><ele>407.0</ele><time>2026-04-26T11:46:26.623Z</time></trkpt><trkpt lat="43.1872331" lon="11.327404"><ele>407.0</ele><time>2026-04-26T11:46:27.623Z</time></trkpt><trkpt lat="43.1871485" lon="11.3273642"><ele>407.0</ele><time>2026-04-26T11:46:28.623Z</time></trkpt><trkpt lat="43.1870701" lon="11.3273567"><ele>407.0</ele><time>2026-04-26T11:46:29.623Z</time></trkpt><trkpt lat="43.1869811" lon="11.3273948"><ele>407.0</ele><time>2026-04-26T11:46:30.623Z</time></trkpt><trkpt lat="43.1868827" lon="11.3274435"><ele>407.0</ele><time>2026-04-26T11:46:31.623Z</time></trkpt><trkpt lat="43.1867841" lon="11.3274785"><ele>407.0</ele><time>2026-04-26T11:46:32.623Z</time></trkpt><trkpt lat="43.1866892" lon="11.3275137"><ele>407.0</ele><time>2026-04-26T11:46:33.624Z</time></trkpt><trkpt lat="43.1865813" lon="11.3275476"><ele>408.40000000000003</ele><time>2026-04-26T11:46:34.623Z</time></trkpt><trkpt lat="43.1864734" lon="11.3275857"><ele>409.8</ele><time>2026-04-26T11:46:35.623Z</time></trkpt><trkpt lat="43.1863824" lon="11.3276162"><ele>411.2</ele><time>2026-04-26T11:46:36.623Z</time></trkpt><trkpt lat="43.1863009" lon="11.3276498"><ele>412.6</ele><time>2026-04-26T11:46:37.623Z</time></trkpt><trkpt lat="43.1862194" lon="11.3276901"><ele>414.0</ele><time>2026-04-26T11:46:38.623Z</time></trkpt><trkpt lat="43.1861199" lon="11.3277085"><ele>414.0</ele><time>2026-04-26T11:46:39.624Z</time></trkpt><trkpt lat="43.1860078" lon="11.3277124"><ele>414.0</ele><time>2026-04-26T11:46:40.623Z</time></trkpt><trkpt lat="43.1859026" lon="11.3277216"><ele>414.0</ele><time>2026-04-26T11:46:41.624Z</time></trkpt><trkpt lat="43.1858127" lon="11.3277236"><ele>414.0</ele><time>2026-04-26T11:46:42.623Z</time></trkpt><trkpt lat="43.1857382" lon="11.3277349"><ele>414.0</ele><time>2026-04-26T11:46:43.623Z</time></trkpt><trkpt lat="43.1856752" lon="11.3277355"><ele>414.0</ele><time>2026-04-26T11:46:44.623Z</time></trkpt><trkpt lat="43.1855573" lon="11.3277023"><ele>414.0</ele><time>2026-04-26T11:46:46.623Z</time></trkpt><trkpt lat="43.1854957" lon="11.327663"><ele>414.0</ele><time>2026-04-26T11:46:47.623Z</time></trkpt><trkpt lat="43.1854216" lon="11.3275857"><ele>414.0</ele><time>2026-04-26T11:46:48.624Z</time></trkpt><trkpt lat="43.1853514" lon="11.3275109"><ele>414.0</ele><time>2026-04-26T11:46:49.623Z</time></trkpt><trkpt lat="43.1852744" lon="11.3274447"><ele>414.0</ele><time>2026-04-26T11:46:50.623Z</time></trkpt><trkpt lat="43.185195" lon="11.3273785"><ele>414.0</ele><time>2026-04-26T11:46:51.624Z</time></trkpt><trkpt lat="43.1851266" lon="11.3273236"><ele>414.0</ele><time>2026-04-26T11:46:52.624Z</time></trkpt><trkpt lat="43.1850064" lon="11.3272791"><ele>414.0</ele><time>2026-04-26T11:46:54.624Z</time></trkpt><trkpt lat="43.1849367" lon="11.3272664"><ele>414.0</ele><time>2026-04-26T11:46:55.623Z</time></trkpt><trkpt lat="43.1848714" lon="11.3272535"><ele>414.0</ele><time>2026-04-26T11:46:56.623Z</time></trkpt><trkpt lat="43.1848017" lon="11.3272416"><ele>414.0</ele><time>2026-04-26T11:46:57.623Z</time></trkpt><trkpt lat="43.1846932" lon="11.3272392"><ele>414.0</ele><time>2026-04-26T11:46:59.623Z</time></trkpt><trkpt lat="43.1846367" lon="11.3272804"><ele>415.1666666666667</ele><time>2026-04-26T11:47:00.624Z</time></trkpt><trkpt lat="43.1845713" lon="11.3273288"><ele>416.33333333333337</ele><time>2026-04-26T11:47:01.623Z</time></trkpt><trkpt lat="43.1845113" lon="11.3273642"><ele>417.5</ele><time>2026-04-26T11:47:02.624Z</time></trkpt><trkpt lat="43.1844209" lon="11.3273855"><ele>418.6666666666667</ele><time>2026-04-26T11:47:04.623Z</time></trkpt><trkpt lat="43.1843571" lon="11.3273467"><ele>419.83333333333337</ele><time>2026-04-26T11:47:07.623Z</time></trkpt><trkpt lat="43.1843426" lon="11.3272056"><ele>421.0</ele><time>2026-04-26T11:47:20.623Z</time></trkpt><trkpt lat="43.1843404" lon="11.3270408"><ele>421.8</ele><time>2026-04-26T11:47:22.623Z</time></trkpt><trkpt lat="43.1842897" lon="11.3268947"><ele>422.6</ele><time>2026-04-26T11:47:24.623Z</time></trkpt><trkpt lat="43.1842478" lon="11.3268206"><ele>423.4</ele><time>2026-04-26T11:47:25.623Z</time></trkpt><trkpt lat="43.1841767" lon="11.3267148"><ele>424.2</ele><time>2026-04-26T11:47:27.624Z</time></trkpt><trkpt lat="43.1840909" lon="11.326729"><ele>425.0</ele><time>2026-04-26T11:47:31.623Z</time></trkpt><trkpt lat="43.1840015" lon="11.3267061"><ele>424.99999999999994</ele><time>2026-04-26T11:47:33.623Z</time></trkpt><trkpt lat="43.1839011" lon="11.3266731"><ele>425.0</ele><time>2026-04-26T11:47:35.624Z</time></trkpt><trkpt lat="43.1837979" lon="11.326634"><ele>425.0</ele><time>2026-04-26T11:47:37.623Z</time></trkpt><trkpt lat="43.1837295" lon="11.3266126"><ele>425.0</ele><time>2026-04-26T11:47:38.623Z</time></trkpt><trkpt lat="43.1836598" lon="11.3265856"><ele>424.99999999999994</ele><time>2026-04-26T11:47:39.623Z</time></trkpt><trkpt lat="43.1835857" lon="11.3265592"><ele>425.0</ele><time>2026-04-26T11:47:40.624Z</time></trkpt><trkpt lat="43.1834655" lon="11.3265083"><ele>425.0</ele><time>2026-04-26T11:47:42.624Z</time></trkpt><trkpt lat="43.1833522" lon="11.3264752"><ele>425.0</ele><time>2026-04-26T11:47:44.623Z</time></trkpt><trkpt lat="43.1832534" lon="11.3264374"><ele>425.0</ele><time>2026-04-26T11:47:46.624Z</time></trkpt><trkpt lat="43.1831736" lon="11.3264034"><ele>425.0</ele><time>2026-04-26T11:47:49.623Z</time></trkpt><trkpt lat="43.1831053" lon="11.3263795"><ele>425.0</ele><time>2026-04-26T11:47:51.623Z</time></trkpt><trkpt lat="43.1830022" lon="11.3263743"><ele>426.8333333333333</ele><time>2026-04-26T11:47:53.623Z</time></trkpt><trkpt lat="43.1828839" lon="11.3263315"><ele>428.66666666666663</ele><time>2026-04-26T11:47:55.623Z</time></trkpt><trkpt lat="43.1828188" lon="11.3263042"><ele>430.5</ele><time>2026-04-26T11:47:56.623Z</time></trkpt><trkpt lat="43.1827534" lon="11.3262673"><ele>432.33333333333337</ele><time>2026-04-26T11:47:57.623Z</time></trkpt><trkpt lat="43.1826895" lon="11.3262325"><ele>434.1666666666667</ele><time>2026-04-26T11:47:58.623Z</time></trkpt><trkpt lat="43.1826266" lon="11.326197"><ele>436.0</ele><time>2026-04-26T11:47:59.623Z</time></trkpt><trkpt lat="43.1825595" lon="11.326171"><ele>436.0</ele><time>2026-04-26T11:48:00.623Z</time></trkpt><trkpt lat="43.1824904" lon="11.3261493"><ele>436.0</ele><time>2026-04-26T11:48:01.623Z</time></trkpt><trkpt lat="43.1824265" lon="11.3261231"><ele>436.0</ele><time>2026-04-26T11:48:02.623Z</time></trkpt><trkpt lat="43.182361" lon="11.3260889"><ele>436.0</ele><time>2026-04-26T11:48:03.623Z</time></trkpt><trkpt lat="43.1822935" lon="11.3260581"><ele>436.0</ele><time>2026-04-26T11:48:04.623Z</time></trkpt><trkpt lat="43.1822288" lon="11.3260245"><ele>436.0</ele><time>2026-04-26T11:48:05.623Z</time></trkpt><trkpt lat="43.182167" lon="11.325993"><ele>436.0</ele><time>2026-04-26T11:48:06.623Z</time></trkpt><trkpt lat="43.1820797" lon="11.3259428"><ele>434.33333333333337</ele><time>2026-04-26T11:48:08.623Z</time></trkpt><trkpt lat="43.1820027" lon="11.3259115"><ele>432.6666666666667</ele><time>2026-04-26T11:48:14.623Z</time></trkpt><trkpt lat="43.1819308" lon="11.3258817"><ele>431.0</ele><time>2026-04-26T11:48:24.624Z</time></trkpt><trkpt lat="43.1818542" lon="11.3258532"><ele>429.33333333333337</ele><time>2026-04-26T11:48:27.624Z</time></trkpt><trkpt lat="43.181775" lon="11.3258209"><ele>427.6666666666667</ele><time>2026-04-26T11:48:30.623Z</time></trkpt><trkpt lat="43.1816997" lon="11.3257579"><ele>426.0</ele><time>2026-04-26T11:48:34.623Z</time></trkpt><trkpt lat="43.1816267" lon="11.3257137"><ele>426.0</ele><time>2026-04-26T11:48:37.624Z</time></trkpt><trkpt lat="43.1815532" lon="11.3256588"><ele>426.0</ele><time>2026-04-26T11:48:40.623Z</time></trkpt><trkpt lat="43.181481" lon="11.3256139"><ele>426.0</ele><time>2026-04-26T11:48:58.623Z</time></trkpt><trkpt lat="43.1813994" lon="11.3255763"><ele>426.0</ele><time>2026-04-26T11:49:01.623Z</time></trkpt><trkpt lat="43.1813376" lon="11.3255424"><ele>426.0</ele><time>2026-04-26T11:49:03.623Z</time></trkpt><trkpt lat="43.181261" lon="11.3255082"><ele>426.0</ele><time>2026-04-26T11:49:05.623Z</time></trkpt><trkpt lat="43.1812" lon="11.3254794"><ele>426.8333333333333</ele><time>2026-04-26T11:49:08.623Z</time></trkpt><trkpt lat="43.1811273" lon="11.3254325"><ele>427.66666666666663</ele><time>2026-04-26T11:49:13.623Z</time></trkpt><trkpt lat="43.1810621" lon="11.3253806"><ele>428.5</ele><time>2026-04-26T11:49:15.623Z</time></trkpt><trkpt lat="43.1809658" lon="11.3253168"><ele>429.3333333333333</ele><time>2026-04-26T11:49:17.623Z</time></trkpt><trkpt lat="43.1809056" lon="11.3252758"><ele>430.16666666666663</ele><time>2026-04-26T11:49:18.623Z</time></trkpt><trkpt lat="43.1808429" lon="11.3252332"><ele>431.0</ele><time>2026-04-26T11:49:19.623Z</time></trkpt><trkpt lat="43.1807753" lon="11.3251898"><ele>430.99999999999994</ele><time>2026-04-26T11:49:20.623Z</time></trkpt><trkpt lat="43.1807103" lon="11.3251462"><ele>431.0</ele><time>2026-04-26T11:49:21.623Z</time></trkpt><trkpt lat="43.1806389" lon="11.3251112"><ele>431.0</ele><time>2026-04-26T11:49:22.623Z</time></trkpt><trkpt lat="43.1805637" lon="11.3250741"><ele>431.0</ele><time>2026-04-26T11:49:23.623Z</time></trkpt><trkpt lat="43.1804866" lon="11.3250442"><ele>430.99999999999994</ele><time>2026-04-26T11:49:24.623Z</time></trkpt><trkpt lat="43.1804118" lon="11.3250189"><ele>431.0</ele><time>2026-04-26T11:49:25.624Z</time></trkpt><trkpt lat="43.1803402" lon="11.3249967"><ele>430.8333333333333</ele><time>2026-04-26T11:49:26.623Z</time></trkpt><trkpt lat="43.180274" lon="11.3249741"><ele>430.66666666666663</ele><time>2026-04-26T11:49:27.624Z</time></trkpt><trkpt lat="43.180154" lon="11.3249315"><ele>430.5</ele><time>2026-04-26T11:49:29.623Z</time></trkpt><trkpt lat="43.1800849" lon="11.3249078"><ele>430.33333333333337</ele><time>2026-04-26T11:49:30.623Z</time></trkpt><trkpt lat="43.1800095" lon="11.3248778"><ele>430.1666666666667</ele><time>2026-04-26T11:49:31.623Z</time></trkpt><trkpt lat="43.179927" lon="11.3248514"><ele>430.0</ele><time>2026-04-26T11:49:32.623Z</time></trkpt><trkpt lat="43.1798436" lon="11.3248172"><ele>430.50000000000006</ele><time>2026-04-26T11:49:33.623Z</time></trkpt><trkpt lat="43.1797605" lon="11.3247832"><ele>431.0</ele><time>2026-04-26T11:49:34.623Z</time></trkpt><trkpt lat="43.1796779" lon="11.3247565"><ele>431.5</ele><time>2026-04-26T11:49:35.623Z</time></trkpt><trkpt lat="43.1795993" lon="11.3247361"><ele>432.0</ele><time>2026-04-26T11:49:36.623Z</time></trkpt><trkpt lat="43.1795255" lon="11.3247288"><ele>432.50000000000006</ele><time>2026-04-26T11:49:37.624Z</time></trkpt><trkpt lat="43.1794555" lon="11.3247256"><ele>433.0</ele><time>2026-04-26T11:49:38.623Z</time></trkpt><trkpt lat="43.1793913" lon="11.3247284"><ele>433.00000000000006</ele><time>2026-04-26T11:49:39.623Z</time></trkpt><trkpt lat="43.1792765" lon="11.3247517"><ele>433.0</ele><time>2026-04-26T11:49:41.623Z</time></trkpt><trkpt lat="43.1791753" lon="11.3247775"><ele>433.0</ele><time>2026-04-26T11:49:43.624Z</time></trkpt><trkpt lat="43.1791105" lon="11.324802"><ele>433.0</ele><time>2026-04-26T11:49:45.623Z</time></trkpt><trkpt lat="43.1790456" lon="11.3248174"><ele>433.00000000000006</ele><time>2026-04-26T11:49:48.623Z</time></trkpt><trkpt lat="43.178981" lon="11.3248672"><ele>433.0</ele><time>2026-04-26T11:49:51.623Z</time></trkpt><trkpt lat="43.1789005" lon="11.3248972"><ele>434.4</ele><time>2026-04-26T11:49:54.623Z</time></trkpt><trkpt lat="43.178817" lon="11.3250423"><ele>435.79999999999995</ele><time>2026-04-26T11:49:56.623Z</time></trkpt><trkpt lat="43.1787712" lon="11.3251387"><ele>437.2</ele><time>2026-04-26T11:49:57.623Z</time></trkpt><trkpt lat="43.1787172" lon="11.3252476"><ele>438.6</ele><time>2026-04-26T11:49:58.623Z</time></trkpt><trkpt lat="43.1786597" lon="11.32537"><ele>440.0</ele><time>2026-04-26T11:49:59.623Z</time></trkpt><trkpt lat="43.1786076" lon="11.3254998"><ele>440.8</ele><time>2026-04-26T11:50:00.623Z</time></trkpt><trkpt lat="43.1785593" lon="11.3256247"><ele>441.6</ele><time>2026-04-26T11:50:01.623Z</time></trkpt><trkpt lat="43.1785176" lon="11.3257326"><ele>442.4</ele><time>2026-04-26T11:50:02.623Z</time></trkpt><trkpt lat="43.1784751" lon="11.325825"><ele>443.2</ele><time>2026-04-26T11:50:03.623Z</time></trkpt><trkpt lat="43.178428" lon="11.325926"><ele>444.0</ele><time>2026-04-26T11:50:04.623Z</time></trkpt><trkpt lat="43.1783689" lon="11.3260455"><ele>444.0</ele><time>2026-04-26T11:50:05.623Z</time></trkpt><trkpt lat="43.1782963" lon="11.3261752"><ele>444.0</ele><time>2026-04-26T11:50:06.623Z</time></trkpt><trkpt lat="43.178216" lon="11.3263248"><ele>444.0</ele><time>2026-04-26T11:50:07.623Z</time></trkpt><trkpt lat="43.1781405" lon="11.326492"><ele>444.0</ele><time>2026-04-26T11:50:08.623Z</time></trkpt><trkpt lat="43.1780715" lon="11.3266683"><ele>446.25</ele><time>2026-04-26T11:50:09.623Z</time></trkpt><trkpt lat="43.1780111" lon="11.3268435"><ele>448.5</ele><time>2026-04-26T11:50:10.623Z</time></trkpt><trkpt lat="43.17795" lon="11.3270224"><ele>450.75</ele><time>2026-04-26T11:50:11.623Z</time></trkpt><trkpt lat="43.1778885" lon="11.3271956"><ele>453.0</ele><time>2026-04-26T11:50:12.623Z</time></trkpt><trkpt lat="43.1778305" lon="11.3273689"><ele>454.25</ele><time>2026-04-26T11:50:13.623Z</time></trkpt><trkpt lat="43.1777759" lon="11.3275448"><ele>455.5</ele><time>2026-04-26T11:50:14.622Z</time></trkpt><trkpt lat="43.1777331" lon="11.3277259"><ele>456.75</ele><time>2026-04-26T11:50:15.622Z</time></trkpt><trkpt lat="43.1776995" lon="11.3279141"><ele>458.0</ele><time>2026-04-26T11:50:16.622Z</time></trkpt><trkpt lat="43.1776743" lon="11.3281056"><ele>459.0</ele><time>2026-04-26T11:50:17.623Z</time></trkpt><trkpt lat="43.1776581" lon="11.328297"><ele>460.0</ele><time>2026-04-26T11:50:18.622Z</time></trkpt><trkpt lat="43.1776514" lon="11.3284991"><ele>461.0</ele><time>2026-04-26T11:50:19.622Z</time></trkpt><trkpt lat="43.177653" lon="11.3287075"><ele>462.0</ele><time>2026-04-26T11:50:20.622Z</time></trkpt><trkpt lat="43.1776542" lon="11.3289112"><ele>463.25</ele><time>2026-04-26T11:50:21.622Z</time></trkpt><trkpt lat="43.1776558" lon="11.3291112"><ele>464.5</ele><time>2026-04-26T11:50:22.622Z</time></trkpt><trkpt lat="43.1776531" lon="11.3292957"><ele>465.75</ele><time>2026-04-26T11:50:23.622Z</time></trkpt><trkpt lat="43.1776463" lon="11.3294806"><ele>467.0</ele><time>2026-04-26T11:50:24.622Z</time></trkpt><trkpt lat="43.1776383" lon="11.3296758"><ele>468.5</ele><time>2026-04-26T11:50:25.622Z</time></trkpt><trkpt lat="43.1776315" lon="11.3298748"><ele>470.0</ele><time>2026-04-26T11:50:26.622Z</time></trkpt><trkpt lat="43.1776222" lon="11.3300758"><ele>471.5</ele><time>2026-04-26T11:50:27.622Z</time></trkpt><trkpt lat="43.1776172" lon="11.3302753"><ele>473.0</ele><time>2026-04-26T11:50:28.622Z</time></trkpt><trkpt lat="43.1776215" lon="11.3304762"><ele>473.75</ele><time>2026-04-26T11:50:29.622Z</time></trkpt><trkpt lat="43.1776371" lon="11.3306674"><ele>474.5</ele><time>2026-04-26T11:50:30.622Z</time></trkpt><trkpt lat="43.1776671" lon="11.330843"><ele>475.25</ele><time>2026-04-26T11:50:31.622Z</time></trkpt><trkpt lat="43.1777043" lon="11.3309991"><ele>476.0</ele><time>2026-04-26T11:50:32.622Z</time></trkpt><trkpt lat="43.1777473" lon="11.3311351"><ele>475.99999999999994</ele><time>2026-04-26T11:50:33.622Z</time></trkpt><trkpt lat="43.1777932" lon="11.3312563"><ele>476.0</ele><time>2026-04-26T11:50:34.622Z</time></trkpt><trkpt lat="43.177842" lon="11.3313653"><ele>476.0</ele><time>2026-04-26T11:50:35.622Z</time></trkpt><trkpt lat="43.1778894" lon="11.3314611"><ele>476.0</ele><time>2026-04-26T11:50:36.622Z</time></trkpt><trkpt lat="43.1779286" lon="11.3315464"><ele>475.99999999999994</ele><time>2026-04-26T11:50:37.623Z</time></trkpt><trkpt lat="43.1779314" lon="11.3316446"><ele>476.0</ele><time>2026-04-26T11:50:39.622Z</time></trkpt><trkpt lat="43.1778572" lon="11.3316291"><ele>475.99999999999994</ele><time>2026-04-26T11:50:41.622Z</time></trkpt><trkpt lat="43.1777972" lon="11.3316024"><ele>476.0</ele><time>2026-04-26T11:50:42.622Z</time></trkpt><trkpt lat="43.1777267" lon="11.3315752"><ele>476.0</ele><time>2026-04-26T11:50:43.622Z</time></trkpt><trkpt lat="43.1776613" lon="11.3315829"><ele>476.0</ele><time>2026-04-26T11:50:44.622Z</time></trkpt><trkpt lat="43.1775854" lon="11.3316366"><ele>475.99999999999994</ele><time>2026-04-26T11:50:45.622Z</time></trkpt><trkpt lat="43.1775103" lon="11.331706"><ele>476.0</ele><time>2026-04-26T11:50:46.623Z</time></trkpt><trkpt lat="43.1774361" lon="11.3317556"><ele>475.99999999999994</ele><time>2026-04-26T11:50:47.622Z</time></trkpt><trkpt lat="43.1773653" lon="11.3317728"><ele>476.0</ele><time>2026-04-26T11:50:48.622Z</time></trkpt><trkpt lat="43.1772853" lon="11.3317729"><ele>476.0</ele><time>2026-04-26T11:50:49.622Z</time></trkpt><trkpt lat="43.1772008" lon="11.3317889"><ele>476.0</ele><time>2026-04-26T11:50:50.622Z</time></trkpt><trkpt lat="43.1771174" lon="11.3318236"><ele>475.99999999999994</ele><time>2026-04-26T11:50:51.622Z</time></trkpt><trkpt lat="43.1770346" lon="11.3318525"><ele>476.0</ele><time>2026-04-26T11:50:52.622Z</time></trkpt><trkpt lat="43.176948" lon="11.3318588"><ele>476.16666666666663</ele><time>2026-04-26T11:50:53.622Z</time></trkpt><trkpt lat="43.1768525" lon="11.3318512"><ele>476.3333333333333</ele><time>2026-04-26T11:50:54.622Z</time></trkpt><trkpt lat="43.1767591" lon="11.3318249"><ele>476.5</ele><time>2026-04-26T11:50:55.623Z</time></trkpt><trkpt lat="43.176692" lon="11.3317658"><ele>476.66666666666663</ele><time>2026-04-26T11:50:56.622Z</time></trkpt><trkpt lat="43.1766424" lon="11.3316865"><ele>476.8333333333333</ele><time>2026-04-26T11:50:57.623Z</time></trkpt><trkpt lat="43.1766072" lon="11.3315988"><ele>477.0</ele><time>2026-04-26T11:50:58.622Z</time></trkpt><trkpt lat="43.1765954" lon="11.3314994"><ele>477.0</ele><time>2026-04-26T11:50:59.623Z</time></trkpt><trkpt lat="43.1766072" lon="11.3313952"><ele>477.0</ele><time>2026-04-26T11:51:00.622Z</time></trkpt><trkpt lat="43.1766394" lon="11.3312975"><ele>477.0</ele><time>2026-04-26T11:51:01.623Z</time></trkpt><trkpt lat="43.1766943" lon="11.331204"><ele>477.0</ele><time>2026-04-26T11:51:02.622Z</time></trkpt><trkpt lat="43.1767467" lon="11.3311134"><ele>477.0</ele><time>2026-04-26T11:51:03.622Z</time></trkpt><trkpt lat="43.1767852" lon="11.3310338"><ele>477.0</ele><time>2026-04-26T11:51:04.622Z</time></trkpt><trkpt lat="43.1768129" lon="11.3309398"><ele>477.5</ele><time>2026-04-26T11:51:05.622Z</time></trkpt><trkpt lat="43.1768099" lon="11.3308358"><ele>478.0</ele><time>2026-04-26T11:51:06.622Z</time></trkpt><trkpt lat="43.1767604" lon="11.3307364"><ele>478.5</ele><time>2026-04-26T11:51:07.622Z</time></trkpt><trkpt lat="43.1766929" lon="11.3306369"><ele>479.0</ele><time>2026-04-26T11:51:08.622Z</time></trkpt><trkpt lat="43.1766261" lon="11.3305522"><ele>479.5</ele><time>2026-04-26T11:51:09.622Z</time></trkpt><trkpt lat="43.1765594" lon="11.3304797"><ele>480.0</ele><time>2026-04-26T11:51:10.622Z</time></trkpt><trkpt lat="43.1764942" lon="11.33042"><ele>480.0</ele><time>2026-04-26T11:51:11.622Z</time></trkpt><trkpt lat="43.1764294" lon="11.3303786"><ele>480.0</ele><time>2026-04-26T11:51:12.622Z</time></trkpt><trkpt lat="43.1763527" lon="11.3303545"><ele>480.0</ele><time>2026-04-26T11:51:13.623Z</time></trkpt><trkpt lat="43.1762736" lon="11.3303331"><ele>480.0</ele><time>2026-04-26T11:51:14.622Z</time></trkpt><trkpt lat="43.1761937" lon="11.3303053"><ele>480.0</ele><time>2026-04-26T11:51:15.622Z</time></trkpt><trkpt lat="43.1761166" lon="11.3302776"><ele>480.0</ele><time>2026-04-26T11:51:16.622Z</time></trkpt><trkpt lat="43.1760344" lon="11.3302367"><ele>480.0</ele><time>2026-04-26T11:51:17.622Z</time></trkpt><trkpt lat="43.1759444" lon="11.3301833"><ele>480.0</ele><time>2026-04-26T11:51:18.622Z</time></trkpt><trkpt lat="43.1758453" lon="11.3301241"><ele>480.0</ele><time>2026-04-26T11:51:19.623Z</time></trkpt><trkpt lat="43.1757477" lon="11.330069"><ele>480.0</ele><time>2026-04-26T11:51:20.623Z</time></trkpt><trkpt lat="43.1756536" lon="11.3300126"><ele>480.0</ele><time>2026-04-26T11:51:21.622Z</time></trkpt><trkpt lat="43.175551" lon="11.3299608"><ele>479.2</ele><time>2026-04-26T11:51:22.622Z</time></trkpt><trkpt lat="43.1754532" lon="11.3299133"><ele>478.4</ele><time>2026-04-26T11:51:23.622Z</time></trkpt><trkpt lat="43.1753668" lon="11.3298691"><ele>477.6</ele><time>2026-04-26T11:51:24.623Z</time></trkpt><trkpt lat="43.1752938" lon="11.3298292"><ele>476.8</ele><time>2026-04-26T11:51:25.622Z</time></trkpt><trkpt lat="43.1752334" lon="11.3298"><ele>476.0</ele><time>2026-04-26T11:51:26.622Z</time></trkpt><trkpt lat="43.1751318" lon="11.3297194"><ele>476.0</ele><time>2026-04-26T11:51:28.622Z</time></trkpt><trkpt lat="43.1750926" lon="11.3296421"><ele>476.0</ele><time>2026-04-26T11:51:29.622Z</time></trkpt><trkpt lat="43.175061" lon="11.3295609"><ele>476.0</ele><time>2026-04-26T11:51:30.622Z</time></trkpt><trkpt lat="43.1750216" lon="11.3294807"><ele>476.0</ele><time>2026-04-26T11:51:31.622Z</time></trkpt><trkpt lat="43.1749734" lon="11.3294055"><ele>476.0</ele><time>2026-04-26T11:51:32.623Z</time></trkpt><trkpt lat="43.1749254" lon="11.3293377"><ele>476.0</ele><time>2026-04-26T11:51:33.622Z</time></trkpt><trkpt lat="43.1748795" lon="11.3292628"><ele>476.0</ele><time>2026-04-26T11:51:34.622Z</time></trkpt><trkpt lat="43.1748397" lon="11.32919"><ele>475.0</ele><time>2026-04-26T11:51:35.622Z</time></trkpt><trkpt lat="43.174757" lon="11.3290641"><ele>474.0</ele><time>2026-04-26T11:51:37.623Z</time></trkpt><trkpt lat="43.1747167" lon="11.3289952"><ele>473.0</ele><time>2026-04-26T11:51:38.623Z</time></trkpt><trkpt lat="43.1746582" lon="11.3288514"><ele>472.0</ele><time>2026-04-26T11:51:40.622Z</time></trkpt><trkpt lat="43.1745999" lon="11.3287165"><ele>471.0</ele><time>2026-04-26T11:51:42.622Z</time></trkpt><trkpt lat="43.174537" lon="11.3285865"><ele>469.8</ele><time>2026-04-26T11:51:44.622Z</time></trkpt><trkpt lat="43.174457" lon="11.3284767"><ele>468.6</ele><time>2026-04-26T11:51:46.622Z</time></trkpt><trkpt lat="43.1743862" lon="11.3284291"><ele>467.4</ele><time>2026-04-26T11:51:49.622Z</time></trkpt><trkpt lat="43.1742838" lon="11.328469"><ele>466.2</ele><time>2026-04-26T11:51:51.623Z</time></trkpt><trkpt lat="43.1741723" lon="11.3284292"><ele>465.0</ele><time>2026-04-26T11:51:53.623Z</time></trkpt><trkpt lat="43.1741268" lon="11.3283677"><ele>465.0</ele><time>2026-04-26T11:51:54.622Z</time></trkpt><trkpt lat="43.1740768" lon="11.3282986"><ele>465.0</ele><time>2026-04-26T11:51:55.622Z</time></trkpt><trkpt lat="43.1740235" lon="11.3282212"><ele>465.0</ele><time>2026-04-26T11:51:56.623Z</time></trkpt><trkpt lat="43.1739582" lon="11.328145"><ele>465.0</ele><time>2026-04-26T11:51:57.622Z</time></trkpt><trkpt lat="43.1738925" lon="11.3280725"><ele>465.0</ele><time>2026-04-26T11:51:58.622Z</time></trkpt><trkpt lat="43.1738267" lon="11.3280188"><ele>465.0</ele><time>2026-04-26T11:51:59.622Z</time></trkpt><trkpt lat="43.1737627" lon="11.3279841"><ele>463.0</ele><time>2026-04-26T11:52:00.622Z</time></trkpt><trkpt lat="43.1736961" lon="11.327955"><ele>461.0</ele><time>2026-04-26T11:52:01.622Z</time></trkpt><trkpt lat="43.1736362" lon="11.3279172"><ele>459.0</ele><time>2026-04-26T11:52:02.622Z</time></trkpt><trkpt lat="43.1735364" lon="11.3278183"><ele>457.0</ele><time>2026-04-26T11:52:04.623Z</time></trkpt><trkpt lat="43.1734383" lon="11.327705"><ele>455.0</ele><time>2026-04-26T11:52:06.622Z</time></trkpt><trkpt lat="43.173383" lon="11.3276351"><ele>454.99999999999994</ele><time>2026-04-26T11:52:07.623Z</time></trkpt><trkpt lat="43.1733196" lon="11.327563"><ele>455.0</ele><time>2026-04-26T11:52:08.622Z</time></trkpt><trkpt lat="43.1732609" lon="11.3274997"><ele>455.0</ele><time>2026-04-26T11:52:09.622Z</time></trkpt><trkpt lat="43.1731998" lon="11.3274321"><ele>455.0</ele><time>2026-04-26T11:52:10.622Z</time></trkpt><trkpt lat="43.1731344" lon="11.3273665"><ele>454.99999999999994</ele><time>2026-04-26T11:52:11.622Z</time></trkpt><trkpt lat="43.1730816" lon="11.327302"><ele>455.0</ele><time>2026-04-26T11:52:12.622Z</time></trkpt><trkpt lat="43.173035" lon="11.3272155"><ele>453.49999999999994</ele><time>2026-04-26T11:52:13.622Z</time></trkpt><trkpt lat="43.1729906" lon="11.3271277"><ele>452.0</ele><time>2026-04-26T11:52:14.623Z</time></trkpt><trkpt lat="43.1729419" lon="11.3270333"><ele>450.5</ele><time>2026-04-26T11:52:15.622Z</time></trkpt><trkpt lat="43.1728978" lon="11.3269431"><ele>449.0</ele><time>2026-04-26T11:52:16.622Z</time></trkpt><trkpt lat="43.172851" lon="11.3268523"><ele>447.49999999999994</ele><time>2026-04-26T11:52:17.622Z</time></trkpt><trkpt lat="43.1727978" lon="11.3267651"><ele>446.0</ele><time>2026-04-26T11:52:18.623Z</time></trkpt><trkpt lat="43.1727538" lon="11.3266844"><ele>445.99999999999994</ele><time>2026-04-26T11:52:19.623Z</time></trkpt><trkpt lat="43.1727108" lon="11.3266105"><ele>446.0</ele><time>2026-04-26T11:52:20.622Z</time></trkpt><trkpt lat="43.1726649" lon="11.3265326"><ele>446.0</ele><time>2026-04-26T11:52:21.622Z</time></trkpt><trkpt lat="43.1726172" lon="11.3264665"><ele>446.0</ele><time>2026-04-26T11:52:22.622Z</time></trkpt><trkpt lat="43.1725711" lon="11.3263972"><ele>445.99999999999994</ele><time>2026-04-26T11:52:23.622Z</time></trkpt><trkpt lat="43.1725282" lon="11.3263303"><ele>446.0</ele><time>2026-04-26T11:52:24.622Z</time></trkpt><trkpt lat="43.1724582" lon="11.3261894"><ele>445.99999999999994</ele><time>2026-04-26T11:52:26.623Z</time></trkpt><trkpt lat="43.1724191" lon="11.3261033"><ele>446.0</ele><time>2026-04-26T11:52:27.623Z</time></trkpt><trkpt lat="43.1723847" lon="11.3260155"><ele>446.0</ele><time>2026-04-26T11:52:28.622Z</time></trkpt><trkpt lat="43.1723525" lon="11.3259207"><ele>446.0</ele><time>2026-04-26T11:52:29.622Z</time></trkpt><trkpt lat="43.1723158" lon="11.3258235"><ele>445.99999999999994</ele><time>2026-04-26T11:52:30.622Z</time></trkpt><trkpt lat="43.1722804" lon="11.3257338"><ele>446.0</ele><time>2026-04-26T11:52:31.622Z</time></trkpt><trkpt lat="43.1722437" lon="11.3256453"><ele>444.16666666666663</ele><time>2026-04-26T11:52:32.622Z</time></trkpt><trkpt lat="43.1722129" lon="11.3255582"><ele>442.3333333333333</ele><time>2026-04-26T11:52:33.623Z</time></trkpt><trkpt lat="43.1721836" lon="11.325475"><ele>440.5</ele><time>2026-04-26T11:52:34.622Z</time></trkpt><trkpt lat="43.1721548" lon="11.3253894"><ele>438.66666666666663</ele><time>2026-04-26T11:52:35.622Z</time></trkpt><trkpt lat="43.1721067" lon="11.3252475"><ele>436.8333333333333</ele><time>2026-04-26T11:52:37.622Z</time></trkpt><trkpt lat="43.1720804" lon="11.3251656"><ele>435.0</ele><time>2026-04-26T11:52:38.622Z</time></trkpt><trkpt lat="43.1720199" lon="11.3250106"><ele>435.0</ele><time>2026-04-26T11:52:40.622Z</time></trkpt><trkpt lat="43.1719437" lon="11.3249066"><ele>435.0</ele><time>2026-04-26T11:52:42.622Z</time></trkpt><trkpt lat="43.1718832" lon="11.3248826"><ele>435.0</ele><time>2026-04-26T11:52:43.622Z</time></trkpt><trkpt lat="43.1718211" lon="11.3248548"><ele>435.0</ele><time>2026-04-26T11:52:44.622Z</time></trkpt><trkpt lat="43.1716932" lon="11.3248039"><ele>435.0</ele><time>2026-04-26T11:52:46.622Z</time></trkpt><trkpt lat="43.1716206" lon="11.3247733"><ele>435.0</ele><time>2026-04-26T11:52:47.622Z</time></trkpt><trkpt lat="43.1715513" lon="11.3247302"><ele>432.8571428571429</ele><time>2026-04-26T11:52:48.623Z</time></trkpt><trkpt lat="43.1714944" lon="11.3246821"><ele>430.7142857142857</ele><time>2026-04-26T11:52:49.622Z</time></trkpt><trkpt lat="43.1714354" lon="11.324638"><ele>428.57142857142856</ele><time>2026-04-26T11:52:50.622Z</time></trkpt><trkpt lat="43.1713739" lon="11.3246007"><ele>426.42857142857144</ele><time>2026-04-26T11:52:51.622Z</time></trkpt><trkpt lat="43.1713082" lon="11.3245592"><ele>424.2857142857143</ele><time>2026-04-26T11:52:52.622Z</time></trkpt><trkpt lat="43.1712476" lon="11.3245102"><ele>422.14285714285717</ele><time>2026-04-26T11:52:53.622Z</time></trkpt><trkpt lat="43.1711861" lon="11.324459"><ele>420.0</ele><time>2026-04-26T11:52:54.622Z</time></trkpt><trkpt lat="43.171124" lon="11.3244094"><ele>420.0</ele><time>2026-04-26T11:52:55.622Z</time></trkpt><trkpt lat="43.1710637" lon="11.3243623"><ele>420.0</ele><time>2026-04-26T11:52:56.622Z</time></trkpt><trkpt lat="43.1710044" lon="11.3243142"><ele>420.0</ele><time>2026-04-26T11:52:57.622Z</time></trkpt><trkpt lat="43.170951" lon="11.3242565"><ele>420.0</ele><time>2026-04-26T11:52:58.622Z</time></trkpt><trkpt lat="43.1708708" lon="11.3241397"><ele>420.0</ele><time>2026-04-26T11:53:00.622Z</time></trkpt><trkpt lat="43.1708304" lon="11.3240062"><ele>420.0</ele><time>2026-04-26T11:53:02.622Z</time></trkpt><trkpt lat="43.1708263" lon="11.3239082"><ele>418.4</ele><time>2026-04-26T11:53:05.622Z</time></trkpt><trkpt lat="43.1709091" lon="11.3238364"><ele>416.8</ele><time>2026-04-26T11:53:35.622Z</time></trkpt><trkpt lat="43.1710413" lon="11.3237921"><ele>415.20000000000005</ele><time>2026-04-26T11:53:37.623Z</time></trkpt><trkpt lat="43.1711299" lon="11.323767"><ele>413.6</ele><time>2026-04-26T11:53:38.622Z</time></trkpt><trkpt lat="43.1712245" lon="11.3237328"><ele>412.0</ele><time>2026-04-26T11:53:39.622Z</time></trkpt><trkpt lat="43.1713332" lon="11.323675"><ele>412.0</ele><time>2026-04-26T11:53:40.623Z</time></trkpt><trkpt lat="43.1714781" lon="11.3236056"><ele>412.0</ele><time>2026-04-26T11:53:41.622Z</time></trkpt><trkpt lat="43.1716517" lon="11.3235395"><ele>412.0</ele><time>2026-04-26T11:53:42.623Z</time></trkpt><trkpt lat="43.1718377" lon="11.3234693"><ele>413.5</ele><time>2026-04-26T11:53:43.622Z</time></trkpt><trkpt lat="43.1720058" lon="11.3234113"><ele>415.0</ele><time>2026-04-26T11:53:44.622Z</time></trkpt><trkpt lat="43.1721474" lon="11.3233592"><ele>416.5</ele><time>2026-04-26T11:53:45.622Z</time></trkpt><trkpt lat="43.172257" lon="11.3233167"><ele>418.0</ele><time>2026-04-26T11:53:46.622Z</time></trkpt><trkpt lat="43.1723485" lon="11.3232865"><ele>418.00000000000006</ele><time>2026-04-26T11:53:47.622Z</time></trkpt><trkpt lat="43.1724147" lon="11.32326"><ele>418.0</ele><time>2026-04-26T11:53:48.622Z</time></trkpt><trkpt lat="43.1724926" lon="11.3231778"><ele>418.0</ele><time>2026-04-26T11:53:50.623Z</time></trkpt><trkpt lat="43.1725263" lon="11.3230664"><ele>418.0</ele><time>2026-04-26T11:53:52.622Z</time></trkpt><trkpt lat="43.1725602" lon="11.3229903"><ele>418.00000000000006</ele><time>2026-04-26T11:53:53.622Z</time></trkpt><trkpt lat="43.1725994" lon="11.3229033"><ele>418.0</ele><time>2026-04-26T11:53:54.622Z</time></trkpt><trkpt lat="43.1726367" lon="11.3228144"><ele>418.0</ele><time>2026-04-26T11:53:55.623Z</time></trkpt><trkpt lat="43.1726762" lon="11.3227424"><ele>418.0</ele><time>2026-04-26T11:53:56.622Z</time></trkpt><trkpt lat="43.1727554" lon="11.3226077"><ele>418.0</ele><time>2026-04-26T11:53:58.622Z</time></trkpt><trkpt lat="43.1727963" lon="11.3225416"><ele>418.0</ele><time>2026-04-26T11:53:59.622Z</time></trkpt><trkpt lat="43.1728826" lon="11.3224292"><ele>418.0</ele><time>2026-04-26T11:54:01.623Z</time></trkpt><trkpt lat="43.1729663" lon="11.3223228"><ele>418.0</ele><time>2026-04-26T11:54:03.622Z</time></trkpt><trkpt lat="43.1730238" lon="11.3222678"><ele>418.0</ele><time>2026-04-26T11:54:04.622Z</time></trkpt><trkpt lat="43.1730886" lon="11.3222118"><ele>418.0</ele><time>2026-04-26T11:54:05.622Z</time></trkpt><trkpt lat="43.1731553" lon="11.3221637"><ele>418.0</ele><time>2026-04-26T11:54:06.622Z</time></trkpt><trkpt lat="43.1732198" lon="11.3221041"><ele>418.0</ele><time>2026-04-26T11:54:07.622Z</time></trkpt><trkpt lat="43.1732795" lon="11.3220534"><ele>418.0</ele><time>2026-04-26T11:54:08.622Z</time></trkpt><trkpt lat="43.1733379" lon="11.3220014"><ele>418.0</ele><time>2026-04-26T11:54:09.623Z</time></trkpt><trkpt lat="43.1734413" lon="11.3219035"><ele>417.4</ele><time>2026-04-26T11:54:11.622Z</time></trkpt><trkpt lat="43.1735" lon="11.3217617"><ele>416.79999999999995</ele><time>2026-04-26T11:54:13.622Z</time></trkpt><trkpt lat="43.173511" lon="11.3215839"><ele>416.2</ele><time>2026-04-26T11:54:15.622Z</time></trkpt><trkpt lat="43.1735097" lon="11.3214958"><ele>415.6</ele><time>2026-04-26T11:54:16.622Z</time></trkpt><trkpt lat="43.1735028" lon="11.3213976"><ele>415.0</ele><time>2026-04-26T11:54:17.622Z</time></trkpt><trkpt lat="43.1734982" lon="11.321309"><ele>414.14285714285717</ele><time>2026-04-26T11:54:18.622Z</time></trkpt><trkpt lat="43.1734895" lon="11.3212114"><ele>413.28571428571433</ele><time>2026-04-26T11:54:19.622Z</time></trkpt><trkpt lat="43.1734865" lon="11.3211175"><ele>412.42857142857144</ele><time>2026-04-26T11:54:20.622Z</time></trkpt><trkpt lat="43.1734806" lon="11.3210236"><ele>411.57142857142856</ele><time>2026-04-26T11:54:21.622Z</time></trkpt><trkpt lat="43.1734771" lon="11.3209227"><ele>410.7142857142857</ele><time>2026-04-26T11:54:22.622Z</time></trkpt><trkpt lat="43.173472" lon="11.3208116"><ele>409.85714285714283</ele><time>2026-04-26T11:54:23.622Z</time></trkpt><trkpt lat="43.1734681" lon="11.3207012"><ele>409.0</ele><time>2026-04-26T11:54:24.622Z</time></trkpt><trkpt lat="43.1734649" lon="11.3206019"><ele>407.50000000000006</ele><time>2026-04-26T11:54:25.622Z</time></trkpt><trkpt lat="43.1734631" lon="11.3204938"><ele>406.0</ele><time>2026-04-26T11:54:26.622Z</time></trkpt><trkpt lat="43.1734642" lon="11.3203918"><ele>404.5</ele><time>2026-04-26T11:54:27.622Z</time></trkpt><trkpt lat="43.1734802" lon="11.3202911"><ele>403.0</ele><time>2026-04-26T11:54:28.622Z</time></trkpt><trkpt lat="43.1735031" lon="11.320182"><ele>401.50000000000006</ele><time>2026-04-26T11:54:29.622Z</time></trkpt><trkpt lat="43.1735292" lon="11.3200752"><ele>400.0</ele><time>2026-04-26T11:54:30.622Z</time></trkpt><trkpt lat="43.1735495" lon="11.3199691"><ele>400.00000000000006</ele><time>2026-04-26T11:54:31.622Z</time></trkpt><trkpt lat="43.173567" lon="11.3198721"><ele>400.0</ele><time>2026-04-26T11:54:32.622Z</time></trkpt><trkpt lat="43.1735709" lon="11.3197838"><ele>400.0</ele><time>2026-04-26T11:54:33.622Z</time></trkpt><trkpt lat="43.1735968" lon="11.3196214"><ele>400.0</ele><time>2026-04-26T11:54:35.622Z</time></trkpt><trkpt lat="43.1736193" lon="11.3194596"><ele>400.00000000000006</ele><time>2026-04-26T11:54:37.622Z</time></trkpt><trkpt lat="43.1736144" lon="11.3193711"><ele>400.0</ele><time>2026-04-26T11:54:38.623Z</time></trkpt><trkpt lat="43.1736076" lon="11.3192808"><ele>398.50000000000006</ele><time>2026-04-26T11:54:39.622Z</time></trkpt><trkpt lat="43.1735779" lon="11.319182"><ele>397.0</ele><time>2026-04-26T11:54:40.622Z</time></trkpt><trkpt lat="43.1735266" lon="11.319093"><ele>395.5</ele><time>2026-04-26T11:54:41.623Z</time></trkpt><trkpt lat="43.1734796" lon="11.3190028"><ele>394.0</ele><time>2026-04-26T11:54:42.622Z</time></trkpt><trkpt lat="43.1734295" lon="11.3189161"><ele>392.50000000000006</ele><time>2026-04-26T11:54:43.622Z</time></trkpt><trkpt lat="43.1733806" lon="11.3188319"><ele>391.0</ele><time>2026-04-26T11:54:44.623Z</time></trkpt><trkpt lat="43.1733318" lon="11.3187459"><ele>388.83333333333337</ele><time>2026-04-26T11:54:45.622Z</time></trkpt><trkpt lat="43.1732846" lon="11.3186698"><ele>386.6666666666667</ele><time>2026-04-26T11:54:46.622Z</time></trkpt><trkpt lat="43.173241" lon="11.3186009"><ele>384.5</ele><time>2026-04-26T11:54:47.623Z</time></trkpt><trkpt lat="43.1731706" lon="11.3184913"><ele>382.33333333333337</ele><time>2026-04-26T11:54:49.622Z</time></trkpt><trkpt lat="43.1731553" lon="11.3183971"><ele>380.1666666666667</ele><time>2026-04-26T11:54:51.622Z</time></trkpt><trkpt lat="43.1732244" lon="11.3183041"><ele>378.0</ele><time>2026-04-26T11:54:53.622Z</time></trkpt><trkpt lat="43.1733326" lon="11.3182212"><ele>378.0</ele><time>2026-04-26T11:54:55.623Z</time></trkpt><trkpt lat="43.1733971" lon="11.3181834"><ele>378.0</ele><time>2026-04-26T11:54:56.622Z</time></trkpt><trkpt lat="43.1734626" lon="11.3181445"><ele>378.0</ele><time>2026-04-26T11:54:57.622Z</time></trkpt><trkpt lat="43.1735352" lon="11.3180927"><ele>378.0</ele><time>2026-04-26T11:54:58.622Z</time></trkpt><trkpt lat="43.173605" lon="11.3180295"><ele>378.0</ele><time>2026-04-26T11:54:59.622Z</time></trkpt><trkpt lat="43.1736661" lon="11.3179644"><ele>378.0</ele><time>2026-04-26T11:55:00.622Z</time></trkpt><trkpt lat="43.1737278" lon="11.3179016"><ele>376.0</ele><time>2026-04-26T11:55:01.622Z</time></trkpt><trkpt lat="43.1737867" lon="11.3178189"><ele>374.0</ele><time>2026-04-26T11:55:02.622Z</time></trkpt><trkpt lat="43.1738463" lon="11.3177176"><ele>372.0</ele><time>2026-04-26T11:55:03.622Z</time></trkpt><trkpt lat="43.1739069" lon="11.3176102"><ele>370.0</ele><time>2026-04-26T11:55:04.622Z</time></trkpt><trkpt lat="43.1739703" lon="11.317506"><ele>368.0</ele><time>2026-04-26T11:55:05.622Z</time></trkpt><trkpt lat="43.1740331" lon="11.3174016"><ele>367.79999999999995</ele><time>2026-04-26T11:55:06.623Z</time></trkpt><trkpt lat="43.1741007" lon="11.317284"><ele>367.6</ele><time>2026-04-26T11:55:07.622Z</time></trkpt><trkpt lat="43.1741672" lon="11.3171673"><ele>367.4</ele><time>2026-04-26T11:55:08.622Z</time></trkpt><trkpt lat="43.1742302" lon="11.3170449"><ele>367.20000000000005</ele><time>2026-04-26T11:55:09.622Z</time></trkpt><trkpt lat="43.1742881" lon="11.3169335"><ele>367.0</ele><time>2026-04-26T11:55:10.622Z</time></trkpt><trkpt lat="43.1743467" lon="11.3168259"><ele>366.66666666666663</ele><time>2026-04-26T11:55:11.623Z</time></trkpt><trkpt lat="43.1743969" lon="11.31673"><ele>366.3333333333333</ele><time>2026-04-26T11:55:12.623Z</time></trkpt><trkpt lat="43.1744394" lon="11.3166388"><ele>366.0</ele><time>2026-04-26T11:55:13.622Z</time></trkpt><trkpt lat="43.1744669" lon="11.3165551"><ele>365.6666666666667</ele><time>2026-04-26T11:55:14.622Z</time></trkpt><trkpt lat="43.1744882" lon="11.3163825"><ele>365.33333333333337</ele><time>2026-04-26T11:55:16.622Z</time></trkpt><trkpt lat="43.1744863" lon="11.3162878"><ele>365.0</ele><time>2026-04-26T11:55:17.622Z</time></trkpt><trkpt lat="43.1744673" lon="11.3161921"><ele>364.5</ele><time>2026-04-26T11:55:18.622Z</time></trkpt><trkpt lat="43.1744411" lon="11.3160911"><ele>364.0</ele><time>2026-04-26T11:55:19.623Z</time></trkpt><trkpt lat="43.1744251" lon="11.31598"><ele>363.5</ele><time>2026-04-26T11:55:20.623Z</time></trkpt><trkpt lat="43.1744127" lon="11.3158589"><ele>363.0</ele><time>2026-04-26T11:55:21.622Z</time></trkpt><trkpt lat="43.1744122" lon="11.3157332"><ele>362.5</ele><time>2026-04-26T11:55:22.622Z</time></trkpt><trkpt lat="43.1744069" lon="11.315624"><ele>362.0</ele><time>2026-04-26T11:55:23.622Z</time></trkpt><trkpt lat="43.1744028" lon="11.3155095"><ele>362.0</ele><time>2026-04-26T11:55:24.622Z</time></trkpt><trkpt lat="43.1743918" lon="11.3154088"><ele>362.0</ele><time>2026-04-26T11:55:25.622Z</time></trkpt><trkpt lat="43.1743739" lon="11.3153231"><ele>362.0</ele><time>2026-04-26T11:55:26.622Z</time></trkpt><trkpt lat="43.1743608" lon="11.315234"><ele>362.0</ele><time>2026-04-26T11:55:27.623Z</time></trkpt><trkpt lat="43.1743531" lon="11.3151368"><ele>362.0</ele><time>2026-04-26T11:55:28.622Z</time></trkpt><trkpt lat="43.1743466" lon="11.3150275"><ele>362.0</ele><time>2026-04-26T11:55:29.622Z</time></trkpt><trkpt lat="43.1743393" lon="11.3149223"><ele>362.0</ele><time>2026-04-26T11:55:30.622Z</time></trkpt><trkpt lat="43.1743275" lon="11.3148169"><ele>361.57142857142856</ele><time>2026-04-26T11:55:31.622Z</time></trkpt><trkpt lat="43.1743238" lon="11.3147116"><ele>361.1428571428571</ele><time>2026-04-26T11:55:32.622Z</time></trkpt><trkpt lat="43.1743236" lon="11.3146079"><ele>360.7142857142857</ele><time>2026-04-26T11:55:33.622Z</time></trkpt><trkpt lat="43.1743289" lon="11.314508"><ele>360.2857142857143</ele><time>2026-04-26T11:55:34.622Z</time></trkpt><trkpt lat="43.1743334" lon="11.3144152"><ele>359.8571428571429</ele><time>2026-04-26T11:55:35.622Z</time></trkpt><trkpt lat="43.1743339" lon="11.3143278"><ele>359.42857142857144</ele><time>2026-04-26T11:55:36.622Z</time></trkpt><trkpt lat="43.1743108" lon="11.3142155"><ele>359.0</ele><time>2026-04-26T11:55:39.622Z</time></trkpt><trkpt lat="43.1742747" lon="11.3141303"><ele>359.0</ele><time>2026-04-26T11:55:42.622Z</time></trkpt><trkpt lat="43.1743334" lon="11.3140499"><ele>359.0</ele><time>2026-04-26T11:55:45.622Z</time></trkpt><trkpt lat="43.1743826" lon="11.3139771"><ele>359.0</ele><time>2026-04-26T11:55:47.622Z</time></trkpt><trkpt lat="43.1744137" lon="11.313858"><ele>359.0</ele><time>2026-04-26T11:55:50.623Z</time></trkpt><trkpt lat="43.1744196" lon="11.3137338"><ele>359.0</ele><time>2026-04-26T11:55:53.622Z</time></trkpt><trkpt lat="43.1744539" lon="11.3136339"><ele>359.0</ele><time>2026-04-26T11:55:56.622Z</time></trkpt><trkpt lat="43.1744376" lon="11.3134995"><ele>358.6666666666667</ele><time>2026-04-26T11:55:59.623Z</time></trkpt><trkpt lat="43.1743807" lon="11.3133821"><ele>358.33333333333337</ele><time>2026-04-26T11:56:01.623Z</time></trkpt><trkpt lat="43.1743393" lon="11.3133037"><ele>358.0</ele><time>2026-04-26T11:56:03.622Z</time></trkpt><trkpt lat="43.1743072" lon="11.3131797"><ele>357.6666666666667</ele><time>2026-04-26T11:56:06.622Z</time></trkpt><trkpt lat="43.1742813" lon="11.3130973"><ele>357.3333333333333</ele><time>2026-04-26T11:56:08.622Z</time></trkpt><trkpt lat="43.1742477" lon="11.313021"><ele>357.0</ele><time>2026-04-26T11:56:10.623Z</time></trkpt><trkpt lat="43.174221" lon="11.3129391"><ele>356.0</ele><time>2026-04-26T11:56:12.622Z</time></trkpt><trkpt lat="43.1741694" lon="11.312832"><ele>355.0</ele><time>2026-04-26T11:56:15.622Z</time></trkpt><trkpt lat="43.1741103" lon="11.3127777"><ele>354.0</ele><time>2026-04-26T11:56:17.622Z</time></trkpt><trkpt lat="43.1740738" lon="11.3126836"><ele>353.0</ele><time>2026-04-26T11:56:20.622Z</time></trkpt><trkpt lat="43.1740488" lon="11.3126025"><ele>352.0</ele><time>2026-04-26T11:56:24.622Z</time></trkpt><trkpt lat="43.174013" lon="11.3125204"><ele>351.0</ele><time>2026-04-26T11:56:27.623Z</time></trkpt><trkpt lat="43.1739806" lon="11.3124065"><ele>348.6666666666667</ele><time>2026-04-26T11:56:30.623Z</time></trkpt><trkpt lat="43.1739587" lon="11.3123109"><ele>346.3333333333333</ele><time>2026-04-26T11:56:32.622Z</time></trkpt><trkpt lat="43.1739273" lon="11.312223"><ele>344.0</ele><time>2026-04-26T11:56:34.623Z</time></trkpt><trkpt lat="43.1738936" lon="11.3121342"><ele>341.66666666666663</ele><time>2026-04-26T11:56:36.622Z</time></trkpt><trkpt lat="43.1738719" lon="11.3120482"><ele>339.3333333333333</ele><time>2026-04-26T11:56:44.623Z</time></trkpt><trkpt lat="43.173886" lon="11.3119583"><ele>337.0</ele><time>2026-04-26T11:58:22.621Z</time></trkpt><trkpt lat="43.1738851" lon="11.3117823"><ele>336.0</ele><time>2026-04-26T11:58:24.621Z</time></trkpt><trkpt lat="43.1738822" lon="11.3116597"><ele>335.0</ele><time>2026-04-26T11:58:25.621Z</time></trkpt><trkpt lat="43.173876" lon="11.3115382"><ele>334.0</ele><time>2026-04-26T11:58:26.621Z</time></trkpt><trkpt lat="43.1738657" lon="11.3114186"><ele>333.0</ele><time>2026-04-26T11:58:27.621Z</time></trkpt><trkpt lat="43.1738633" lon="11.3112964"><ele>332.0</ele><time>2026-04-26T11:58:28.621Z</time></trkpt><trkpt lat="43.1738755" lon="11.3111576"><ele>332.20000000000005</ele><time>2026-04-26T11:58:29.621Z</time></trkpt><trkpt lat="43.1738973" lon="11.3110128"><ele>332.4</ele><time>2026-04-26T11:58:30.621Z</time></trkpt><trkpt lat="43.1739183" lon="11.3108778"><ele>332.6</ele><time>2026-04-26T11:58:31.621Z</time></trkpt><trkpt lat="43.1739489" lon="11.3107589"><ele>332.79999999999995</ele><time>2026-04-26T11:58:32.621Z</time></trkpt><trkpt lat="43.173992" lon="11.310654"><ele>333.0</ele><time>2026-04-26T11:58:33.621Z</time></trkpt><trkpt lat="43.1740345" lon="11.3105499"><ele>333.0</ele><time>2026-04-26T11:58:34.621Z</time></trkpt><trkpt lat="43.1740737" lon="11.3104506"><ele>333.0</ele><time>2026-04-26T11:58:35.622Z</time></trkpt><trkpt lat="43.1740995" lon="11.3103461"><ele>333.0</ele><time>2026-04-26T11:58:36.622Z</time></trkpt><trkpt lat="43.174113" lon="11.3102342"><ele>333.0</ele><time>2026-04-26T11:58:37.621Z</time></trkpt><trkpt lat="43.1741133" lon="11.3101087"><ele>333.0</ele><time>2026-04-26T11:58:38.621Z</time></trkpt><trkpt lat="43.1740949" lon="11.3099747"><ele>333.0</ele><time>2026-04-26T11:58:39.621Z</time></trkpt><trkpt lat="43.1740871" lon="11.3098255"><ele>333.0</ele><time>2026-04-26T11:58:40.621Z</time></trkpt><trkpt lat="43.1740897" lon="11.3096897"><ele>333.0</ele><time>2026-04-26T11:58:41.621Z</time></trkpt><trkpt lat="43.1740955" lon="11.3095669"><ele>333.0</ele><time>2026-04-26T11:58:42.621Z</time></trkpt><trkpt lat="43.1741029" lon="11.3094505"><ele>333.0</ele><time>2026-04-26T11:58:43.621Z</time></trkpt><trkpt lat="43.1741277" lon="11.3093248"><ele>333.0</ele><time>2026-04-26T11:58:44.621Z</time></trkpt><trkpt lat="43.1741768" lon="11.309185"><ele>333.0</ele><time>2026-04-26T11:58:45.621Z</time></trkpt><trkpt lat="43.1742382" lon="11.3090345"><ele>333.0</ele><time>2026-04-26T11:58:46.621Z</time></trkpt><trkpt lat="43.1742995" lon="11.3088924"><ele>333.0</ele><time>2026-04-26T11:58:47.621Z</time></trkpt><trkpt lat="43.1743476" lon="11.3087679"><ele>333.0</ele><time>2026-04-26T11:58:48.621Z</time></trkpt><trkpt lat="43.1743878" lon="11.3086501"><ele>333.0</ele><time>2026-04-26T11:58:49.621Z</time></trkpt><trkpt lat="43.1744125" lon="11.30856"><ele>333.0</ele><time>2026-04-26T11:58:50.621Z</time></trkpt><trkpt lat="43.1744403" lon="11.3083971"><ele>333.0</ele><time>2026-04-26T11:58:52.621Z</time></trkpt><trkpt lat="43.174449" lon="11.3083083"><ele>333.0</ele><time>2026-04-26T11:58:53.622Z</time></trkpt><trkpt lat="43.1744501" lon="11.308211"><ele>333.0</ele><time>2026-04-26T11:58:54.621Z</time></trkpt><trkpt lat="43.1744345" lon="11.3081162"><ele>333.0</ele><time>2026-04-26T11:58:55.622Z</time></trkpt><trkpt lat="43.1744188" lon="11.3080201"><ele>333.0</ele><time>2026-04-26T11:58:56.621Z</time></trkpt><trkpt lat="43.1744018" lon="11.3079245"><ele>332.5</ele><time>2026-04-26T11:58:57.621Z</time></trkpt><trkpt lat="43.1743819" lon="11.3078147"><ele>332.0</ele><time>2026-04-26T11:58:58.621Z</time></trkpt><trkpt lat="43.1743678" lon="11.307692"><ele>331.5</ele><time>2026-04-26T11:58:59.621Z</time></trkpt><trkpt lat="43.1743576" lon="11.3075595"><ele>331.0</ele><time>2026-04-26T11:59:00.622Z</time></trkpt><trkpt lat="43.1743478" lon="11.3074395"><ele>330.5</ele><time>2026-04-26T11:59:01.621Z</time></trkpt><trkpt lat="43.1743304" lon="11.3073337"><ele>330.0</ele><time>2026-04-26T11:59:02.621Z</time></trkpt><trkpt lat="43.1743064" lon="11.3072244"><ele>329.0</ele><time>2026-04-26T11:59:03.621Z</time></trkpt><trkpt lat="43.1742838" lon="11.3071117"><ele>328.0</ele><time>2026-04-26T11:59:04.621Z</time></trkpt><trkpt lat="43.1742725" lon="11.3070031"><ele>327.0</ele><time>2026-04-26T11:59:05.621Z</time></trkpt><trkpt lat="43.1742673" lon="11.3068999"><ele>326.0</ele><time>2026-04-26T11:59:06.621Z</time></trkpt><trkpt lat="43.1742422" lon="11.3067972"><ele>325.0</ele><time>2026-04-26T11:59:07.621Z</time></trkpt><trkpt lat="43.1742131" lon="11.3066902"><ele>324.0</ele><time>2026-04-26T11:59:08.621Z</time></trkpt><trkpt lat="43.174182" lon="11.3065734"><ele>324.0</ele><time>2026-04-26T11:59:09.621Z</time></trkpt><trkpt lat="43.1741595" lon="11.3064597"><ele>324.0</ele><time>2026-04-26T11:59:10.621Z</time></trkpt><trkpt lat="43.1741384" lon="11.3063515"><ele>324.0</ele><time>2026-04-26T11:59:11.621Z</time></trkpt><trkpt lat="43.1741096" lon="11.306241"><ele>324.0</ele><time>2026-04-26T11:59:12.622Z</time></trkpt><trkpt lat="43.1740819" lon="11.3061334"><ele>324.0</ele><time>2026-04-26T11:59:13.621Z</time></trkpt><trkpt lat="43.1740554" lon="11.3060214"><ele>324.0</ele><time>2026-04-26T11:59:14.621Z</time></trkpt><trkpt lat="43.174034" lon="11.3059005"><ele>321.5</ele><time>2026-04-26T11:59:15.621Z</time></trkpt><trkpt lat="43.1740176" lon="11.3057754"><ele>319.0</ele><time>2026-04-26T11:59:16.621Z</time></trkpt><trkpt lat="43.1739996" lon="11.3056645"><ele>316.5</ele><time>2026-04-26T11:59:17.621Z</time></trkpt><trkpt lat="43.1739758" lon="11.3055638"><ele>314.0</ele><time>2026-04-26T11:59:18.621Z</time></trkpt><trkpt lat="43.1739526" lon="11.3054734"><ele>311.5</ele><time>2026-04-26T11:59:19.621Z</time></trkpt><trkpt lat="43.1739273" lon="11.3053843"><ele>309.0</ele><time>2026-04-26T11:59:20.621Z</time></trkpt><trkpt lat="43.1738993" lon="11.3052999"><ele>308.5</ele><time>2026-04-26T11:59:24.621Z</time></trkpt><trkpt lat="43.1739753" lon="11.3052352"><ele>308.0</ele><time>2026-04-26T11:59:28.621Z</time></trkpt><trkpt lat="43.1740461" lon="11.3052292"><ele>307.5</ele><time>2026-04-26T11:59:29.621Z</time></trkpt><trkpt lat="43.174129" lon="11.3052197"><ele>307.0</ele><time>2026-04-26T11:59:30.621Z</time></trkpt><trkpt lat="43.1742145" lon="11.3052139"><ele>306.5</ele><time>2026-04-26T11:59:31.621Z</time></trkpt><trkpt lat="43.1742987" lon="11.3052067"><ele>306.0</ele><time>2026-04-26T11:59:32.621Z</time></trkpt><trkpt lat="43.174386" lon="11.3051914"><ele>307.0</ele><time>2026-04-26T11:59:33.621Z</time></trkpt><trkpt lat="43.1744679" lon="11.3051797"><ele>308.0</ele><time>2026-04-26T11:59:34.621Z</time></trkpt><trkpt lat="43.1745465" lon="11.3051731"><ele>309.0</ele><time>2026-04-26T11:59:35.621Z</time></trkpt><trkpt lat="43.1746188" lon="11.3051688"><ele>310.0</ele><time>2026-04-26T11:59:36.621Z</time></trkpt><trkpt lat="43.1746868" lon="11.3051626"><ele>311.0</ele><time>2026-04-26T11:59:37.621Z</time></trkpt><trkpt lat="43.1747687" lon="11.3050829"><ele>312.0</ele><time>2026-04-26T11:59:39.621Z</time></trkpt><trkpt lat="43.1747882" lon="11.3049886"><ele>312.0</ele><time>2026-04-26T11:59:40.621Z</time></trkpt><trkpt lat="43.1748044" lon="11.3048694"><ele>312.0</ele><time>2026-04-26T11:59:41.622Z</time></trkpt><trkpt lat="43.1748137" lon="11.3047317"><ele>312.0</ele><time>2026-04-26T11:59:42.621Z</time></trkpt><trkpt lat="43.1748254" lon="11.3045964"><ele>312.0</ele><time>2026-04-26T11:59:43.622Z</time></trkpt><trkpt lat="43.1748341" lon="11.3044619"><ele>312.0</ele><time>2026-04-26T11:59:44.621Z</time></trkpt><trkpt lat="43.1748436" lon="11.3043275"><ele>311.2</ele><time>2026-04-26T11:59:45.621Z</time></trkpt><trkpt lat="43.1748541" lon="11.3041933"><ele>310.4</ele><time>2026-04-26T11:59:46.621Z</time></trkpt><trkpt lat="43.1748711" lon="11.3040536"><ele>309.6</ele><time>2026-04-26T11:59:47.621Z</time></trkpt><trkpt lat="43.1748846" lon="11.3039121"><ele>308.8</ele><time>2026-04-26T11:59:48.621Z</time></trkpt><trkpt lat="43.1748949" lon="11.3037717"><ele>308.0</ele><time>2026-04-26T11:59:49.621Z</time></trkpt><trkpt lat="43.1749027" lon="11.30364"><ele>305.4</ele><time>2026-04-26T11:59:50.621Z</time></trkpt><trkpt lat="43.1749157" lon="11.3035143"><ele>302.8</ele><time>2026-04-26T11:59:51.621Z</time></trkpt><trkpt lat="43.1749363" lon="11.303382"><ele>300.2</ele><time>2026-04-26T11:59:52.621Z</time></trkpt><trkpt lat="43.1749565" lon="11.3032712"><ele>297.6</ele><time>2026-04-26T11:59:53.621Z</time></trkpt><trkpt lat="43.1749881" lon="11.3031559"><ele>295.0</ele><time>2026-04-26T11:59:54.621Z</time></trkpt><trkpt lat="43.1750319" lon="11.303029"><ele>294.4</ele><time>2026-04-26T11:59:55.621Z</time></trkpt><trkpt lat="43.1750754" lon="11.3028994"><ele>293.8</ele><time>2026-04-26T11:59:56.621Z</time></trkpt><trkpt lat="43.1751127" lon="11.3027808"><ele>293.2</ele><time>2026-04-26T11:59:57.622Z</time></trkpt><trkpt lat="43.1751541" lon="11.3026646"><ele>292.6</ele><time>2026-04-26T11:59:58.621Z</time></trkpt><trkpt lat="43.1752059" lon="11.30256"><ele>292.0</ele><time>2026-04-26T11:59:59.621Z</time></trkpt><trkpt lat="43.1752587" lon="11.3024641"><ele>292.0</ele><time>2026-04-26T12:00:00.621Z</time></trkpt><trkpt lat="43.1753223" lon="11.3023627"><ele>292.0</ele><time>2026-04-26T12:00:01.621Z</time></trkpt><trkpt lat="43.1753915" lon="11.3022566"><ele>292.0</ele><time>2026-04-26T12:00:02.621Z</time></trkpt><trkpt lat="43.1754454" lon="11.3021652"><ele>292.0</ele><time>2026-04-26T12:00:03.621Z</time></trkpt><trkpt lat="43.1754743" lon="11.3020659"><ele>292.0</ele><time>2026-04-26T12:00:04.621Z</time></trkpt><trkpt lat="43.1755006" lon="11.3019661"><ele>292.0</ele><time>2026-04-26T12:00:05.621Z</time></trkpt><trkpt lat="43.1755428" lon="11.3018577"><ele>290.0</ele><time>2026-04-26T12:00:06.621Z</time></trkpt><trkpt lat="43.1755954" lon="11.3017516"><ele>288.0</ele><time>2026-04-26T12:00:07.621Z</time></trkpt><trkpt lat="43.1756537" lon="11.3016378"><ele>286.0</ele><time>2026-04-26T12:00:08.621Z</time></trkpt><trkpt lat="43.1757165" lon="11.3015206"><ele>284.0</ele><time>2026-04-26T12:00:09.621Z</time></trkpt><trkpt lat="43.1757724" lon="11.3014165"><ele>282.0</ele><time>2026-04-26T12:00:10.621Z</time></trkpt><trkpt lat="43.1758248" lon="11.3013186"><ele>281.5</ele><time>2026-04-26T12:00:11.621Z</time></trkpt><trkpt lat="43.175872" lon="11.3012289"><ele>281.0</ele><time>2026-04-26T12:00:12.621Z</time></trkpt><trkpt lat="43.1759172" lon="11.3011436"><ele>280.5</ele><time>2026-04-26T12:00:13.621Z</time></trkpt><trkpt lat="43.1759603" lon="11.3010582"><ele>280.0</ele><time>2026-04-26T12:00:14.621Z</time></trkpt><trkpt lat="43.1759963" lon="11.3009691"><ele>279.5</ele><time>2026-04-26T12:00:15.621Z</time></trkpt><trkpt lat="43.1760216" lon="11.3008863"><ele>279.0</ele><time>2026-04-26T12:00:16.621Z</time></trkpt><trkpt lat="43.17607" lon="11.3007504"><ele>279.0</ele><time>2026-04-26T12:00:18.621Z</time></trkpt><trkpt lat="43.1761504" lon="11.3006238"><ele>279.0</ele><time>2026-04-26T12:00:20.621Z</time></trkpt><trkpt lat="43.1761978" lon="11.3005538"><ele>279.0</ele><time>2026-04-26T12:00:21.621Z</time></trkpt><trkpt lat="43.1762443" lon="11.3004834"><ele>279.0</ele><time>2026-04-26T12:00:22.621Z</time></trkpt><trkpt lat="43.1762933" lon="11.3004136"><ele>279.0</ele><time>2026-04-26T12:00:23.622Z</time></trkpt><trkpt lat="43.1763448" lon="11.3003507"><ele>279.0</ele><time>2026-04-26T12:00:24.621Z</time></trkpt><trkpt lat="43.1764054" lon="11.3002873"><ele>277.8333333333333</ele><time>2026-04-26T12:00:25.622Z</time></trkpt><trkpt lat="43.1764711" lon="11.300218"><ele>276.6666666666667</ele><time>2026-04-26T12:00:26.621Z</time></trkpt><trkpt lat="43.1765257" lon="11.300154"><ele>275.5</ele><time>2026-04-26T12:00:27.621Z</time></trkpt><trkpt lat="43.1765743" lon="11.3000923"><ele>274.33333333333337</ele><time>2026-04-26T12:00:28.621Z</time></trkpt><trkpt lat="43.1766258" lon="11.3000256"><ele>273.1666666666667</ele><time>2026-04-26T12:00:29.621Z</time></trkpt><trkpt lat="43.1767064" lon="11.2999629"><ele>272.0</ele><time>2026-04-26T12:00:31.621Z</time></trkpt><trkpt lat="43.176822" lon="11.2999609"><ele>272.0</ele><time>2026-04-26T12:00:33.622Z</time></trkpt><trkpt lat="43.1769506" lon="11.2999756"><ele>272.0</ele><time>2026-04-26T12:00:35.622Z</time></trkpt><trkpt lat="43.1770746" lon="11.2999679"><ele>272.0</ele><time>2026-04-26T12:00:37.622Z</time></trkpt><trkpt lat="43.1771577" lon="11.2999367"><ele>272.0</ele><time>2026-04-26T12:00:38.621Z</time></trkpt><trkpt lat="43.1772368" lon="11.2998997"><ele>272.0</ele><time>2026-04-26T12:00:39.621Z</time></trkpt><trkpt lat="43.1773062" lon="11.2998663"><ele>269.4</ele><time>2026-04-26T12:00:40.621Z</time></trkpt><trkpt lat="43.177367" lon="11.2997778"><ele>266.79999999999995</ele><time>2026-04-26T12:00:42.621Z</time></trkpt><trkpt lat="43.1774209" lon="11.2996442"><ele>264.2</ele><time>2026-04-26T12:00:44.621Z</time></trkpt><trkpt lat="43.1774539" lon="11.2994889"><ele>261.59999999999997</ele><time>2026-04-26T12:00:46.622Z</time></trkpt><trkpt lat="43.1775223" lon="11.2993902"><ele>259.0</ele><time>2026-04-26T12:00:48.621Z</time></trkpt><trkpt lat="43.177626" lon="11.2993336"><ele>258.5</ele><time>2026-04-26T12:00:50.621Z</time></trkpt><trkpt lat="43.1777217" lon="11.2992605"><ele>258.0</ele><time>2026-04-26T12:00:52.621Z</time></trkpt><trkpt lat="43.1777815" lon="11.2991277"><ele>257.5</ele><time>2026-04-26T12:00:54.621Z</time></trkpt><trkpt lat="43.1778223" lon="11.2989824"><ele>257.0</ele><time>2026-04-26T12:00:56.621Z</time></trkpt><trkpt lat="43.1778407" lon="11.2988087"><ele>256.1666666666667</ele><time>2026-04-26T12:00:58.621Z</time></trkpt><trkpt lat="43.1778455" lon="11.2987099"><ele>255.33333333333334</ele><time>2026-04-26T12:00:59.621Z</time></trkpt><trkpt lat="43.1778458" lon="11.2986154"><ele>254.5</ele><time>2026-04-26T12:01:00.622Z</time></trkpt><trkpt lat="43.1778413" lon="11.2985164"><ele>253.66666666666669</ele><time>2026-04-26T12:01:01.622Z</time></trkpt><trkpt lat="43.177841" lon="11.2984224"><ele>252.83333333333334</ele><time>2026-04-26T12:01:02.621Z</time></trkpt><trkpt lat="43.1778473" lon="11.2983352"><ele>252.0</ele><time>2026-04-26T12:01:03.621Z</time></trkpt><trkpt lat="43.1778833" lon="11.2981845"><ele>250.39999999999998</ele><time>2026-04-26T12:01:05.621Z</time></trkpt><trkpt lat="43.1779103" lon="11.2980686"><ele>248.79999999999998</ele><time>2026-04-26T12:01:07.622Z</time></trkpt><trkpt lat="43.1779073" lon="11.2979433"><ele>247.2</ele><time>2026-04-26T12:01:09.621Z</time></trkpt><trkpt lat="43.177874" lon="11.2978077"><ele>245.6</ele><time>2026-04-26T12:01:11.621Z</time></trkpt><trkpt lat="43.177824" lon="11.2976419"><ele>244.0</ele><time>2026-04-26T12:01:13.621Z</time></trkpt><trkpt lat="43.1777975" lon="11.2975464"><ele>243.99999999999997</ele><time>2026-04-26T12:01:14.622Z</time></trkpt><trkpt lat="43.1777675" lon="11.2974496"><ele>244.0</ele><time>2026-04-26T12:01:15.621Z</time></trkpt><trkpt lat="43.1777339" lon="11.2973545"><ele>244.0</ele><time>2026-04-26T12:01:16.621Z</time></trkpt><trkpt lat="43.1776934" lon="11.2972714"><ele>244.0</ele><time>2026-04-26T12:01:17.622Z</time></trkpt><trkpt lat="43.1776332" lon="11.2971459"><ele>243.99999999999997</ele><time>2026-04-26T12:01:19.621Z</time></trkpt><trkpt lat="43.1776348" lon="11.2969932"><ele>244.0</ele><time>2026-04-26T12:01:21.621Z</time></trkpt><trkpt lat="43.1776458" lon="11.2968819"><ele>242.99999999999997</ele><time>2026-04-26T12:01:22.621Z</time></trkpt><trkpt lat="43.1776582" lon="11.2967623"><ele>242.0</ele><time>2026-04-26T12:01:23.622Z</time></trkpt><trkpt lat="43.1776675" lon="11.2966555"><ele>241.0</ele><time>2026-04-26T12:01:24.622Z</time></trkpt><trkpt lat="43.1776701" lon="11.2965511"><ele>240.0</ele><time>2026-04-26T12:01:25.621Z</time></trkpt><trkpt lat="43.1776679" lon="11.2964315"><ele>238.99999999999997</ele><time>2026-04-26T12:01:26.622Z</time></trkpt><trkpt lat="43.1776421" lon="11.2963071"><ele>238.0</ele><time>2026-04-26T12:01:27.621Z</time></trkpt><trkpt lat="43.1776119" lon="11.2962104"><ele>237.99999999999997</ele><time>2026-04-26T12:01:28.621Z</time></trkpt><trkpt lat="43.1775709" lon="11.2961237"><ele>238.0</ele><time>2026-04-26T12:01:29.621Z</time></trkpt><trkpt lat="43.1775265" lon="11.296027"><ele>238.0</ele><time>2026-04-26T12:01:30.621Z</time></trkpt><trkpt lat="43.1774766" lon="11.2959133"><ele>238.0</ele><time>2026-04-26T12:01:31.621Z</time></trkpt><trkpt lat="43.1774364" lon="11.2958143"><ele>237.99999999999997</ele><time>2026-04-26T12:01:32.622Z</time></trkpt><trkpt lat="43.1774057" lon="11.2957256"><ele>238.0</ele><time>2026-04-26T12:01:33.621Z</time></trkpt><trkpt lat="43.1773802" lon="11.2956194"><ele>237.83333333333331</ele><time>2026-04-26T12:01:34.622Z</time></trkpt><trkpt lat="43.1773569" lon="11.2955231"><ele>237.66666666666666</ele><time>2026-04-26T12:01:35.621Z</time></trkpt><trkpt lat="43.1773227" lon="11.2954313"><ele>237.5</ele><time>2026-04-26T12:01:36.621Z</time></trkpt><trkpt lat="43.1772708" lon="11.2953593"><ele>237.33333333333331</ele><time>2026-04-26T12:01:37.621Z</time></trkpt><trkpt lat="43.1771955" lon="11.2952916"><ele>237.16666666666666</ele><time>2026-04-26T12:01:38.621Z</time></trkpt><trkpt lat="43.1771182" lon="11.2952252"><ele>237.0</ele><time>2026-04-26T12:01:39.621Z</time></trkpt><trkpt lat="43.1770584" lon="11.2951614"><ele>237.0</ele><time>2026-04-26T12:01:40.621Z</time></trkpt><trkpt lat="43.1770177" lon="11.2950643"><ele>237.0</ele><time>2026-04-26T12:01:41.621Z</time></trkpt><trkpt lat="43.1770038" lon="11.2949565"><ele>237.0</ele><time>2026-04-26T12:01:42.621Z</time></trkpt><trkpt lat="43.176992" lon="11.2948404"><ele>237.0</ele><time>2026-04-26T12:01:43.622Z</time></trkpt><trkpt lat="43.1769675" lon="11.2947522"><ele>237.0</ele><time>2026-04-26T12:01:44.621Z</time></trkpt><trkpt lat="43.1769311" lon="11.2946745"><ele>237.0</ele><time>2026-04-26T12:01:45.622Z</time></trkpt><trkpt lat="43.176893" lon="11.2945904"><ele>238.39999999999998</ele><time>2026-04-26T12:01:46.622Z</time></trkpt><trkpt lat="43.1768532" lon="11.2944748"><ele>239.79999999999998</ele><time>2026-04-26T12:01:47.621Z</time></trkpt><trkpt lat="43.1767981" lon="11.2943221"><ele>241.2</ele><time>2026-04-26T12:01:48.622Z</time></trkpt><trkpt lat="43.1767517" lon="11.2942097"><ele>242.6</ele><time>2026-04-26T12:01:49.621Z</time></trkpt><trkpt lat="43.1767212" lon="11.2941035"><ele>244.0</ele><time>2026-04-26T12:01:50.621Z</time></trkpt><trkpt lat="43.176707" lon="11.2940008"><ele>244.99999999999997</ele><time>2026-04-26T12:01:51.621Z</time></trkpt><trkpt lat="43.1767118" lon="11.2938741"><ele>246.0</ele><time>2026-04-26T12:01:52.621Z</time></trkpt><trkpt lat="43.1767277" lon="11.293754"><ele>247.0</ele><time>2026-04-26T12:01:53.621Z</time></trkpt><trkpt lat="43.1767525" lon="11.2936439"><ele>248.0</ele><time>2026-04-26T12:01:54.621Z</time></trkpt><trkpt lat="43.1767911" lon="11.2935431"><ele>248.99999999999997</ele><time>2026-04-26T12:01:55.621Z</time></trkpt><trkpt lat="43.1768453" lon="11.2934613"><ele>250.0</ele><time>2026-04-26T12:01:56.621Z</time></trkpt><trkpt lat="43.1769079" lon="11.293386"><ele>249.99999999999997</ele><time>2026-04-26T12:01:57.621Z</time></trkpt><trkpt lat="43.1769735" lon="11.2933239"><ele>250.0</ele><time>2026-04-26T12:01:58.621Z</time></trkpt><trkpt lat="43.1770459" lon="11.2932686"><ele>250.0</ele><time>2026-04-26T12:01:59.622Z</time></trkpt><trkpt lat="43.1771071" lon="11.2932082"><ele>250.0</ele><time>2026-04-26T12:02:00.621Z</time></trkpt><trkpt lat="43.1771545" lon="11.293132"><ele>249.99999999999997</ele><time>2026-04-26T12:02:01.621Z</time></trkpt><trkpt lat="43.1771949" lon="11.2930395"><ele>250.0</ele><time>2026-04-26T12:02:02.621Z</time></trkpt><trkpt lat="43.1772015" lon="11.2929417"><ele>250.83333333333331</ele><time>2026-04-26T12:02:03.621Z</time></trkpt><trkpt lat="43.1771545" lon="11.2928352"><ele>251.66666666666666</ele><time>2026-04-26T12:02:04.621Z</time></trkpt><trkpt lat="43.1771052" lon="11.292723"><ele>252.5</ele><time>2026-04-26T12:02:05.621Z</time></trkpt><trkpt lat="43.1770576" lon="11.292633"><ele>253.33333333333331</ele><time>2026-04-26T12:02:06.621Z</time></trkpt><trkpt lat="43.1770117" lon="11.2925676"><ele>254.16666666666666</ele><time>2026-04-26T12:02:07.621Z</time></trkpt><trkpt lat="43.1769482" lon="11.2925277"><ele>255.0</ele><time>2026-04-26T12:02:08.621Z</time></trkpt><trkpt lat="43.1768789" lon="11.292492"><ele>255.0</ele><time>2026-04-26T12:02:09.621Z</time></trkpt><trkpt lat="43.1767934" lon="11.2923737"><ele>255.0</ele><time>2026-04-26T12:02:11.621Z</time></trkpt><trkpt lat="43.1767294" lon="11.2922882"><ele>255.0</ele><time>2026-04-26T12:02:13.621Z</time></trkpt><trkpt lat="43.1766584" lon="11.2921916"><ele>255.0</ele><time>2026-04-26T12:02:15.621Z</time></trkpt><trkpt lat="43.1766092" lon="11.292134"><ele>255.0</ele><time>2026-04-26T12:02:16.621Z</time></trkpt><trkpt lat="43.1765688" lon="11.2920619"><ele>255.0</ele><time>2026-04-26T12:02:17.621Z</time></trkpt><trkpt lat="43.1765259" lon="11.2919829"><ele>253.42857142857144</ele><time>2026-04-26T12:02:18.621Z</time></trkpt><trkpt lat="43.1764833" lon="11.2918958"><ele>251.8571428571429</ele><time>2026-04-26T12:02:19.621Z</time></trkpt><trkpt lat="43.1764492" lon="11.2918093"><ele>250.28571428571428</ele><time>2026-04-26T12:02:20.621Z</time></trkpt><trkpt lat="43.1764168" lon="11.2917305"><ele>248.71428571428572</ele><time>2026-04-26T12:02:21.621Z</time></trkpt><trkpt lat="43.1763844" lon="11.2916512"><ele>247.14285714285714</ele><time>2026-04-26T12:02:22.622Z</time></trkpt><trkpt lat="43.1763511" lon="11.2915668"><ele>245.57142857142856</ele><time>2026-04-26T12:02:23.621Z</time></trkpt><trkpt lat="43.1763215" lon="11.2914808"><ele>243.99999999999997</ele><time>2026-04-26T12:02:24.621Z</time></trkpt><trkpt lat="43.1762899" lon="11.291398"><ele>243.57142857142856</ele><time>2026-04-26T12:02:25.621Z</time></trkpt><trkpt lat="43.1762569" lon="11.2913138"><ele>243.14285714285714</ele><time>2026-04-26T12:02:26.621Z</time></trkpt><trkpt lat="43.1762194" lon="11.2912329"><ele>242.71428571428572</ele><time>2026-04-26T12:02:27.622Z</time></trkpt><trkpt lat="43.1761837" lon="11.2911459"><ele>242.28571428571428</ele><time>2026-04-26T12:02:28.621Z</time></trkpt><trkpt lat="43.1761469" lon="11.2910557"><ele>241.8571428571429</ele><time>2026-04-26T12:02:29.621Z</time></trkpt><trkpt lat="43.176109" lon="11.2909624"><ele>241.42857142857144</ele><time>2026-04-26T12:02:30.621Z</time></trkpt><trkpt lat="43.1760738" lon="11.2908632"><ele>241.0</ele><time>2026-04-26T12:02:31.622Z</time></trkpt><trkpt lat="43.1760369" lon="11.2907691"><ele>240.99999999999997</ele><time>2026-04-26T12:02:32.621Z</time></trkpt><trkpt lat="43.1759896" lon="11.2906813"><ele>241.0</ele><time>2026-04-26T12:02:33.621Z</time></trkpt><trkpt lat="43.1759373" lon="11.2906138"><ele>241.0</ele><time>2026-04-26T12:02:34.621Z</time></trkpt><trkpt lat="43.1758707" lon="11.2905657"><ele>241.0</ele><time>2026-04-26T12:02:35.621Z</time></trkpt><trkpt lat="43.1757943" lon="11.290529"><ele>240.99999999999997</ele><time>2026-04-26T12:02:36.621Z</time></trkpt><trkpt lat="43.1757195" lon="11.2904905"><ele>241.0</ele><time>2026-04-26T12:02:37.621Z</time></trkpt><trkpt lat="43.1756496" lon="11.2904457"><ele>239.85714285714286</ele><time>2026-04-26T12:02:38.621Z</time></trkpt><trkpt lat="43.1755813" lon="11.2904252"><ele>238.71428571428572</ele><time>2026-04-26T12:02:39.621Z</time></trkpt><trkpt lat="43.1755092" lon="11.2904168"><ele>237.57142857142858</ele><time>2026-04-26T12:02:40.621Z</time></trkpt><trkpt lat="43.1754419" lon="11.2904081"><ele>236.42857142857144</ele><time>2026-04-26T12:02:41.621Z</time></trkpt><trkpt lat="43.1753795" lon="11.2903833"><ele>235.28571428571428</ele><time>2026-04-26T12:02:42.621Z</time></trkpt><trkpt lat="43.175311" lon="11.2903576"><ele>234.14285714285717</ele><time>2026-04-26T12:02:43.621Z</time></trkpt><trkpt lat="43.1752401" lon="11.2903333"><ele>233.0</ele><time>2026-04-26T12:02:44.622Z</time></trkpt><trkpt lat="43.175178" lon="11.2903033"><ele>233.00000000000003</ele><time>2026-04-26T12:02:45.621Z</time></trkpt><trkpt lat="43.175103" lon="11.2902693"><ele>233.0</ele><time>2026-04-26T12:02:46.622Z</time></trkpt><trkpt lat="43.1750272" lon="11.2902451"><ele>233.0</ele><time>2026-04-26T12:02:47.621Z</time></trkpt><trkpt lat="43.174949" lon="11.2902331"><ele>233.0</ele><time>2026-04-26T12:02:48.621Z</time></trkpt><trkpt lat="43.1748685" lon="11.2902122"><ele>233.00000000000003</ele><time>2026-04-26T12:02:49.621Z</time></trkpt><trkpt lat="43.1747917" lon="11.2901792"><ele>233.0</ele><time>2026-04-26T12:02:50.621Z</time></trkpt><trkpt lat="43.1747201" lon="11.290151"><ele>231.33333333333334</ele><time>2026-04-26T12:02:51.622Z</time></trkpt><trkpt lat="43.1746482" lon="11.2901363"><ele>229.66666666666669</ele><time>2026-04-26T12:02:52.621Z</time></trkpt><trkpt lat="43.1745745" lon="11.2901356"><ele>228.0</ele><time>2026-04-26T12:02:53.621Z</time></trkpt><trkpt lat="43.1744995" lon="11.2901473"><ele>226.33333333333331</ele><time>2026-04-26T12:02:54.621Z</time></trkpt><trkpt lat="43.1744169" lon="11.2901491"><ele>224.66666666666666</ele><time>2026-04-26T12:02:55.621Z</time></trkpt><trkpt lat="43.1743331" lon="11.2901492"><ele>223.0</ele><time>2026-04-26T12:02:56.621Z</time></trkpt><trkpt lat="43.1742603" lon="11.2901437"><ele>222.99999999999997</ele><time>2026-04-26T12:02:57.621Z</time></trkpt><trkpt lat="43.1741866" lon="11.2901322"><ele>223.0</ele><time>2026-04-26T12:02:58.621Z</time></trkpt><trkpt lat="43.1741141" lon="11.2901188"><ele>223.0</ele><time>2026-04-26T12:02:59.621Z</time></trkpt><trkpt lat="43.1740379" lon="11.2901041"><ele>223.0</ele><time>2026-04-26T12:03:00.621Z</time></trkpt><trkpt lat="43.1739551" lon="11.2900859"><ele>222.99999999999997</ele><time>2026-04-26T12:03:01.621Z</time></trkpt><trkpt lat="43.1738702" lon="11.29006"><ele>223.0</ele><time>2026-04-26T12:03:02.621Z</time></trkpt><trkpt lat="43.1737917" lon="11.2900284"><ele>221.49999999999997</ele><time>2026-04-26T12:03:03.621Z</time></trkpt><trkpt lat="43.1737105" lon="11.28998"><ele>220.0</ele><time>2026-04-26T12:03:04.621Z</time></trkpt><trkpt lat="43.1736284" lon="11.2899441"><ele>218.5</ele><time>2026-04-26T12:03:05.621Z</time></trkpt><trkpt lat="43.1735455" lon="11.2899067"><ele>217.0</ele><time>2026-04-26T12:03:06.621Z</time></trkpt><trkpt lat="43.1734786" lon="11.2898622"><ele>215.49999999999997</ele><time>2026-04-26T12:03:07.622Z</time></trkpt><trkpt lat="43.1734217" lon="11.2898145"><ele>214.0</ele><time>2026-04-26T12:03:08.621Z</time></trkpt><trkpt lat="43.1733593" lon="11.2897656"><ele>212.49999999999997</ele><time>2026-04-26T12:03:09.621Z</time></trkpt><trkpt lat="43.1732989" lon="11.2897125"><ele>211.0</ele><time>2026-04-26T12:03:10.621Z</time></trkpt><trkpt lat="43.1732264" lon="11.2896475"><ele>209.5</ele><time>2026-04-26T12:03:11.621Z</time></trkpt><trkpt lat="43.173139" lon="11.2895829"><ele>208.0</ele><time>2026-04-26T12:03:12.621Z</time></trkpt><trkpt lat="43.1730529" lon="11.2895286"><ele>206.49999999999997</ele><time>2026-04-26T12:03:13.621Z</time></trkpt><trkpt lat="43.1729761" lon="11.2894746"><ele>205.0</ele><time>2026-04-26T12:03:14.621Z</time></trkpt><trkpt lat="43.1729052" lon="11.2894193"><ele>204.99999999999997</ele><time>2026-04-26T12:03:15.621Z</time></trkpt><trkpt lat="43.1728384" lon="11.2893707"><ele>205.0</ele><time>2026-04-26T12:03:16.622Z</time></trkpt><trkpt lat="43.1727804" lon="11.28931"><ele>205.0</ele><time>2026-04-26T12:03:17.621Z</time></trkpt><trkpt lat="43.1727283" lon="11.2892315"><ele>205.0</ele><time>2026-04-26T12:03:18.621Z</time></trkpt><trkpt lat="43.1726867" lon="11.2891359"><ele>204.99999999999997</ele><time>2026-04-26T12:03:19.621Z</time></trkpt><trkpt lat="43.1726467" lon="11.2890457"><ele>205.0</ele><time>2026-04-26T12:03:20.622Z</time></trkpt><trkpt lat="43.1726023" lon="11.2889588"><ele>203.85714285714286</ele><time>2026-04-26T12:03:21.621Z</time></trkpt><trkpt lat="43.1725556" lon="11.2888743"><ele>202.7142857142857</ele><time>2026-04-26T12:03:22.621Z</time></trkpt><trkpt lat="43.172503" lon="11.2888002"><ele>201.57142857142856</ele><time>2026-04-26T12:03:23.621Z</time></trkpt><trkpt lat="43.1724423" lon="11.2887389"><ele>200.42857142857144</ele><time>2026-04-26T12:03:24.622Z</time></trkpt><trkpt lat="43.1723791" lon="11.2886863"><ele>199.28571428571428</ele><time>2026-04-26T12:03:25.621Z</time></trkpt><trkpt lat="43.1723143" lon="11.288645"><ele>198.14285714285714</ele><time>2026-04-26T12:03:26.621Z</time></trkpt><trkpt lat="43.1722442" lon="11.288614"><ele>197.0</ele><time>2026-04-26T12:03:27.621Z</time></trkpt><trkpt lat="43.1721733" lon="11.2885756"><ele>196.66666666666669</ele><time>2026-04-26T12:03:28.621Z</time></trkpt><trkpt lat="43.1721031" lon="11.2885233"><ele>196.33333333333334</ele><time>2026-04-26T12:03:29.621Z</time></trkpt><trkpt lat="43.1720346" lon="11.2884592"><ele>196.0</ele><time>2026-04-26T12:03:30.621Z</time></trkpt><trkpt lat="43.1719699" lon="11.2883821"><ele>195.66666666666669</ele><time>2026-04-26T12:03:31.621Z</time></trkpt><trkpt lat="43.171904" lon="11.2882966"><ele>195.33333333333334</ele><time>2026-04-26T12:03:32.621Z</time></trkpt><trkpt lat="43.1718516" lon="11.2882005"><ele>195.0</ele><time>2026-04-26T12:03:33.621Z</time></trkpt><trkpt lat="43.171807" lon="11.2880795"><ele>194.4</ele><time>2026-04-26T12:03:34.621Z</time></trkpt><trkpt lat="43.1717688" lon="11.2879543"><ele>193.8</ele><time>2026-04-26T12:03:35.621Z</time></trkpt><trkpt lat="43.1717397" lon="11.2878208"><ele>193.2</ele><time>2026-04-26T12:03:36.621Z</time></trkpt><trkpt lat="43.1717151" lon="11.2876901"><ele>192.6</ele><time>2026-04-26T12:03:37.621Z</time></trkpt><trkpt lat="43.1717007" lon="11.2875583"><ele>192.0</ele><time>2026-04-26T12:03:38.621Z</time></trkpt><trkpt lat="43.1716934" lon="11.2874379"><ele>192.0</ele><time>2026-04-26T12:03:39.621Z</time></trkpt><trkpt lat="43.1716819" lon="11.2873281"><ele>192.0</ele><time>2026-04-26T12:03:40.621Z</time></trkpt><trkpt lat="43.1716715" lon="11.2872284"><ele>192.0</ele><time>2026-04-26T12:03:41.622Z</time></trkpt><trkpt lat="43.171674" lon="11.2871302"><ele>192.0</ele><time>2026-04-26T12:03:43.621Z</time></trkpt><trkpt lat="43.171775" lon="11.2870182"><ele>192.0</ele><time>2026-04-26T12:03:46.62Z</time></trkpt><trkpt lat="43.1718348" lon="11.2869475"><ele>192.0</ele><time>2026-04-26T12:03:47.62Z</time></trkpt><trkpt lat="43.1718943" lon="11.2868721"><ele>191.66666666666666</ele><time>2026-04-26T12:03:48.621Z</time></trkpt><trkpt lat="43.1719571" lon="11.2868082"><ele>191.33333333333334</ele><time>2026-04-26T12:03:49.62Z</time></trkpt><trkpt lat="43.1720258" lon="11.2867525"><ele>191.0</ele><time>2026-04-26T12:03:50.621Z</time></trkpt><trkpt lat="43.1720938" lon="11.2867058"><ele>190.66666666666669</ele><time>2026-04-26T12:03:51.62Z</time></trkpt><trkpt lat="43.1721648" lon="11.2866498"><ele>190.33333333333334</ele><time>2026-04-26T12:03:52.62Z</time></trkpt><trkpt lat="43.1722526" lon="11.2865692"><ele>190.0</ele><time>2026-04-26T12:03:53.62Z</time></trkpt><trkpt lat="43.1723465" lon="11.2864798"><ele>189.0</ele><time>2026-04-26T12:03:54.62Z</time></trkpt><trkpt lat="43.1724379" lon="11.2863859"><ele>188.0</ele><time>2026-04-26T12:03:55.62Z</time></trkpt><trkpt lat="43.1725235" lon="11.286303"><ele>187.0</ele><time>2026-04-26T12:03:56.62Z</time></trkpt><trkpt lat="43.1726037" lon="11.2862274"><ele>186.0</ele><time>2026-04-26T12:03:57.62Z</time></trkpt><trkpt lat="43.1726888" lon="11.2861595"><ele>185.0</ele><time>2026-04-26T12:03:58.62Z</time></trkpt><trkpt lat="43.1727785" lon="11.2861018"><ele>185.0</ele><time>2026-04-26T12:03:59.621Z</time></trkpt><trkpt lat="43.1728729" lon="11.2860586"><ele>185.0</ele><time>2026-04-26T12:04:00.621Z</time></trkpt><trkpt lat="43.1729667" lon="11.2860253"><ele>185.0</ele><time>2026-04-26T12:04:01.62Z</time></trkpt><trkpt lat="43.1730553" lon="11.2860008"><ele>185.0</ele><time>2026-04-26T12:04:02.62Z</time></trkpt><trkpt lat="43.1731357" lon="11.2859771"><ele>185.0</ele><time>2026-04-26T12:04:03.62Z</time></trkpt><trkpt lat="43.1732097" lon="11.2859508"><ele>185.0</ele><time>2026-04-26T12:04:04.62Z</time></trkpt><trkpt lat="43.1732646" lon="11.2858934"><ele>184.83333333333331</ele><time>2026-04-26T12:04:05.62Z</time></trkpt><trkpt lat="43.1733046" lon="11.2858111"><ele>184.66666666666666</ele><time>2026-04-26T12:04:06.62Z</time></trkpt><trkpt lat="43.1733331" lon="11.2856944"><ele>184.5</ele><time>2026-04-26T12:04:07.62Z</time></trkpt><trkpt lat="43.1733588" lon="11.2855795"><ele>184.33333333333334</ele><time>2026-04-26T12:04:08.62Z</time></trkpt><trkpt lat="43.1733829" lon="11.2854697"><ele>184.16666666666669</ele><time>2026-04-26T12:04:09.62Z</time></trkpt><trkpt lat="43.1733999" lon="11.2853627"><ele>184.0</ele><time>2026-04-26T12:04:10.62Z</time></trkpt><trkpt lat="43.1734141" lon="11.2852513"><ele>183.83333333333334</ele><time>2026-04-26T12:04:11.62Z</time></trkpt><trkpt lat="43.17343" lon="11.2851398"><ele>183.66666666666669</ele><time>2026-04-26T12:04:12.62Z</time></trkpt><trkpt lat="43.1734445" lon="11.2850315"><ele>183.5</ele><time>2026-04-26T12:04:13.62Z</time></trkpt><trkpt lat="43.1734623" lon="11.2849178"><ele>183.33333333333334</ele><time>2026-04-26T12:04:14.62Z</time></trkpt><trkpt lat="43.1734823" lon="11.2847978"><ele>183.16666666666666</ele><time>2026-04-26T12:04:15.62Z</time></trkpt><trkpt lat="43.1734983" lon="11.2846733"><ele>183.0</ele><time>2026-04-26T12:04:16.621Z</time></trkpt><trkpt lat="43.1735067" lon="11.2845465"><ele>183.0</ele><time>2026-04-26T12:04:17.621Z</time></trkpt><trkpt lat="43.1735113" lon="11.2844278"><ele>183.0</ele><time>2026-04-26T12:04:18.62Z</time></trkpt><trkpt lat="43.1735127" lon="11.2843164"><ele>183.0</ele><time>2026-04-26T12:04:19.62Z</time></trkpt><trkpt lat="43.1735147" lon="11.2842023"><ele>183.0</ele><time>2026-04-26T12:04:20.62Z</time></trkpt><trkpt lat="43.1735222" lon="11.2840878"><ele>183.0</ele><time>2026-04-26T12:04:21.62Z</time></trkpt><trkpt lat="43.1735302" lon="11.2839811"><ele>183.0</ele><time>2026-04-26T12:04:22.62Z</time></trkpt><trkpt lat="43.1735398" lon="11.2838752"><ele>183.2</ele><time>2026-04-26T12:04:23.62Z</time></trkpt><trkpt lat="43.1735525" lon="11.2837637"><ele>183.4</ele><time>2026-04-26T12:04:24.62Z</time></trkpt><trkpt lat="43.1735587" lon="11.2836724"><ele>183.6</ele><time>2026-04-26T12:04:25.62Z</time></trkpt><trkpt lat="43.1735728" lon="11.2835111"><ele>183.79999999999998</ele><time>2026-04-26T12:04:27.62Z</time></trkpt><trkpt lat="43.1735842" lon="11.2833622"><ele>184.0</ele><time>2026-04-26T12:04:29.62Z</time></trkpt><trkpt lat="43.1735968" lon="11.2832638"><ele>184.0</ele><time>2026-04-26T12:04:31.62Z</time></trkpt><trkpt lat="43.1735888" lon="11.2834311"><ele>184.0</ele><time>2026-04-26T12:04:36.62Z</time></trkpt><trkpt lat="43.1735883" lon="11.2835342"><ele>184.0</ele><time>2026-04-26T12:04:37.62Z</time></trkpt><trkpt lat="43.1735791" lon="11.2836453"><ele>184.0</ele><time>2026-04-26T12:04:38.62Z</time></trkpt><trkpt lat="43.1735679" lon="11.2837382"><ele>184.0</ele><time>2026-04-26T12:04:39.62Z</time></trkpt><trkpt lat="43.1735619" lon="11.2838266"><ele>184.0</ele><time>2026-04-26T12:04:41.62Z</time></trkpt><trkpt lat="43.1736235" lon="11.2837857"><ele>184.0</ele><time>2026-04-26T12:04:44.62Z</time></trkpt><trkpt lat="43.1736923" lon="11.2837181"><ele>184.0</ele><time>2026-04-26T12:04:46.62Z</time></trkpt><trkpt lat="43.173747" lon="11.2836434"><ele>184.0</ele><time>2026-04-26T12:04:48.62Z</time></trkpt><trkpt lat="43.1738076" lon="11.2835941"><ele>184.0</ele><time>2026-04-26T12:04:49.62Z</time></trkpt><trkpt lat="43.1738787" lon="11.2835462"><ele>184.0</ele><time>2026-04-26T12:04:50.62Z</time></trkpt><trkpt lat="43.1739397" lon="11.2835004"><ele>184.0</ele><time>2026-04-26T12:04:51.62Z</time></trkpt><trkpt lat="43.1740035" lon="11.2834496"><ele>182.66666666666669</ele><time>2026-04-26T12:04:52.62Z</time></trkpt><trkpt lat="43.1740653" lon="11.2833714"><ele>181.33333333333334</ele><time>2026-04-26T12:04:53.62Z</time></trkpt><trkpt lat="43.1741293" lon="11.2832905"><ele>180.0</ele><time>2026-04-26T12:04:54.62Z</time></trkpt><trkpt lat="43.1741917" lon="11.2832042"><ele>178.66666666666666</ele><time>2026-04-26T12:04:55.62Z</time></trkpt><trkpt lat="43.1742429" lon="11.2831224"><ele>177.33333333333331</ele><time>2026-04-26T12:04:56.62Z</time></trkpt><trkpt lat="43.1742992" lon="11.2830415"><ele>176.0</ele><time>2026-04-26T12:04:57.62Z</time></trkpt><trkpt lat="43.1743481" lon="11.2829649"><ele>176.0</ele><time>2026-04-26T12:04:58.621Z</time></trkpt><trkpt lat="43.1743924" lon="11.2828966"><ele>176.0</ele><time>2026-04-26T12:04:59.62Z</time></trkpt><trkpt lat="43.1744481" lon="11.2828329"><ele>176.0</ele><time>2026-04-26T12:05:00.62Z</time></trkpt><trkpt lat="43.1745073" lon="11.2827797"><ele>176.0</ele><time>2026-04-26T12:05:01.62Z</time></trkpt><trkpt lat="43.1745594" lon="11.2827308"><ele>176.0</ele><time>2026-04-26T12:05:02.62Z</time></trkpt><trkpt lat="43.1746411" lon="11.2826346"><ele>176.0</ele><time>2026-04-26T12:05:04.62Z</time></trkpt><trkpt lat="43.1747158" lon="11.282565"><ele>176.0</ele><time>2026-04-26T12:05:06.62Z</time></trkpt><trkpt lat="43.1748198" lon="11.2824878"><ele>176.0</ele><time>2026-04-26T12:05:08.62Z</time></trkpt><trkpt lat="43.1748867" lon="11.2824488"><ele>176.0</ele><time>2026-04-26T12:05:09.62Z</time></trkpt><trkpt lat="43.1749474" lon="11.2824054"><ele>176.0</ele><time>2026-04-26T12:05:10.621Z</time></trkpt><trkpt lat="43.1750083" lon="11.2823619"><ele>176.0</ele><time>2026-04-26T12:05:11.62Z</time></trkpt><trkpt lat="43.175077" lon="11.2823128"><ele>176.0</ele><time>2026-04-26T12:05:12.62Z</time></trkpt><trkpt lat="43.175144" lon="11.2822587"><ele>175.33333333333331</ele><time>2026-04-26T12:05:13.62Z</time></trkpt><trkpt lat="43.1752122" lon="11.2822"><ele>174.66666666666666</ele><time>2026-04-26T12:05:14.62Z</time></trkpt><trkpt lat="43.175281" lon="11.2821431"><ele>174.0</ele><time>2026-04-26T12:05:15.62Z</time></trkpt><trkpt lat="43.1753477" lon="11.2820913"><ele>173.33333333333334</ele><time>2026-04-26T12:05:16.62Z</time></trkpt><trkpt lat="43.1754154" lon="11.2820371"><ele>172.66666666666669</ele><time>2026-04-26T12:05:17.62Z</time></trkpt><trkpt lat="43.1754825" lon="11.2819839"><ele>172.0</ele><time>2026-04-26T12:05:18.621Z</time></trkpt><trkpt lat="43.1755538" lon="11.2819237"><ele>172.0</ele><time>2026-04-26T12:05:19.62Z</time></trkpt><trkpt lat="43.1756258" lon="11.2818607"><ele>172.0</ele><time>2026-04-26T12:05:20.621Z</time></trkpt><trkpt lat="43.1756812" lon="11.2817936"><ele>172.0</ele><time>2026-04-26T12:05:21.62Z</time></trkpt><trkpt lat="43.1757228" lon="11.2817227"><ele>172.0</ele><time>2026-04-26T12:05:22.62Z</time></trkpt><trkpt lat="43.1757654" lon="11.2815947"><ele>172.0</ele><time>2026-04-26T12:05:24.62Z</time></trkpt><trkpt lat="43.1757764" lon="11.2814984"><ele>172.0</ele><time>2026-04-26T12:05:25.62Z</time></trkpt><trkpt lat="43.1757856" lon="11.2813847"><ele>172.39999999999998</ele><time>2026-04-26T12:05:26.62Z</time></trkpt><trkpt lat="43.1757975" lon="11.2812536"><ele>172.79999999999998</ele><time>2026-04-26T12:05:27.62Z</time></trkpt><trkpt lat="43.1758129" lon="11.2811123"><ele>173.2</ele><time>2026-04-26T12:05:28.62Z</time></trkpt><trkpt lat="43.1758195" lon="11.2809729"><ele>173.6</ele><time>2026-04-26T12:05:29.62Z</time></trkpt><trkpt lat="43.1758306" lon="11.2808452"><ele>174.0</ele><time>2026-04-26T12:05:30.621Z</time></trkpt><trkpt lat="43.1758414" lon="11.2807233"><ele>174.0</ele><time>2026-04-26T12:05:31.62Z</time></trkpt><trkpt lat="43.1758534" lon="11.2806051"><ele>174.0</ele><time>2026-04-26T12:05:32.62Z</time></trkpt><trkpt lat="43.1758669" lon="11.2804846"><ele>174.0</ele><time>2026-04-26T12:05:33.62Z</time></trkpt><trkpt lat="43.1758798" lon="11.2803718"><ele>174.0</ele><time>2026-04-26T12:05:34.62Z</time></trkpt><trkpt lat="43.1758868" lon="11.2802578"><ele>174.0</ele><time>2026-04-26T12:05:35.62Z</time></trkpt><trkpt lat="43.1758928" lon="11.2801469"><ele>174.0</ele><time>2026-04-26T12:05:36.62Z</time></trkpt><trkpt lat="43.1758855" lon="11.2800329"><ele>173.83333333333334</ele><time>2026-04-26T12:05:37.62Z</time></trkpt><trkpt lat="43.1758774" lon="11.2799346"><ele>173.66666666666666</ele><time>2026-04-26T12:05:38.62Z</time></trkpt><trkpt lat="43.1758717" lon="11.2798471"><ele>173.5</ele><time>2026-04-26T12:05:39.62Z</time></trkpt><trkpt lat="43.1758547" lon="11.2796881"><ele>173.33333333333331</ele><time>2026-04-26T12:05:41.62Z</time></trkpt><trkpt lat="43.1758485" lon="11.2795486"><ele>173.16666666666666</ele><time>2026-04-26T12:05:43.621Z</time></trkpt><trkpt lat="43.1758442" lon="11.2794228"><ele>173.0</ele><time>2026-04-26T12:05:45.62Z</time></trkpt><trkpt lat="43.1758378" lon="11.2792893"><ele>173.0</ele><time>2026-04-26T12:05:47.62Z</time></trkpt><trkpt lat="43.1758365" lon="11.2791533"><ele>173.0</ele><time>2026-04-26T12:05:49.62Z</time></trkpt><trkpt lat="43.1758409" lon="11.2790266"><ele>173.0</ele><time>2026-04-26T12:05:51.62Z</time></trkpt><trkpt lat="43.1758713" lon="11.278942"><ele>173.0</ele><time>2026-04-26T12:05:54.62Z</time></trkpt><trkpt lat="43.175921" lon="11.2788826"><ele>173.0</ele><time>2026-04-26T12:05:58.62Z</time></trkpt><trkpt lat="43.1760425" lon="11.2787964"><ele>172.8</ele><time>2026-04-26T12:06:00.62Z</time></trkpt><trkpt lat="43.1761242" lon="11.2787583"><ele>172.60000000000002</ele><time>2026-04-26T12:06:01.62Z</time></trkpt><trkpt lat="43.1761989" lon="11.2787272"><ele>172.39999999999998</ele><time>2026-04-26T12:06:02.62Z</time></trkpt><trkpt lat="43.1762765" lon="11.278686"><ele>172.2</ele><time>2026-04-26T12:06:03.62Z</time></trkpt><trkpt lat="43.1763599" lon="11.2786417"><ele>172.0</ele><time>2026-04-26T12:06:04.62Z</time></trkpt><trkpt lat="43.1764689" lon="11.2785858"><ele>173.5</ele><time>2026-04-26T12:06:05.62Z</time></trkpt><trkpt lat="43.1765927" lon="11.278527"><ele>175.0</ele><time>2026-04-26T12:06:06.621Z</time></trkpt><trkpt lat="43.1767006" lon="11.2784794"><ele>176.5</ele><time>2026-04-26T12:06:07.62Z</time></trkpt><trkpt lat="43.1767923" lon="11.2784367"><ele>178.0</ele><time>2026-04-26T12:06:08.62Z</time></trkpt><trkpt lat="43.1768981" lon="11.2783919"><ele>178.0</ele><time>2026-04-26T12:06:09.62Z</time></trkpt><trkpt lat="43.177012" lon="11.2783365"><ele>178.0</ele><time>2026-04-26T12:06:10.62Z</time></trkpt><trkpt lat="43.177121" lon="11.2782736"><ele>178.0</ele><time>2026-04-26T12:06:11.62Z</time></trkpt><trkpt lat="43.1772388" lon="11.278208"><ele>178.0</ele><time>2026-04-26T12:06:12.62Z</time></trkpt><trkpt lat="43.1773567" lon="11.2781474"><ele>179.2</ele><time>2026-04-26T12:06:13.621Z</time></trkpt><trkpt lat="43.177478" lon="11.2780889"><ele>180.4</ele><time>2026-04-26T12:06:14.621Z</time></trkpt><trkpt lat="43.1775854" lon="11.2780408"><ele>181.6</ele><time>2026-04-26T12:06:15.62Z</time></trkpt><trkpt lat="43.1776756" lon="11.2779935"><ele>182.79999999999998</ele><time>2026-04-26T12:06:16.62Z</time></trkpt><trkpt lat="43.1777552" lon="11.2779508"><ele>184.0</ele><time>2026-04-26T12:06:17.62Z</time></trkpt><trkpt lat="43.1778175" lon="11.2779196"><ele>184.0</ele><time>2026-04-26T12:06:18.62Z</time></trkpt><trkpt lat="43.1779033" lon="11.2778785"><ele>184.0</ele><time>2026-04-26T12:06:20.62Z</time></trkpt><trkpt lat="43.1779698" lon="11.2778275"><ele>184.0</ele><time>2026-04-26T12:06:23.62Z</time></trkpt><trkpt lat="43.1779144" lon="11.2777443"><ele>184.0</ele><time>2026-04-26T12:06:25.62Z</time></trkpt><trkpt lat="43.177816" lon="11.2776548"><ele>184.0</ele><time>2026-04-26T12:06:27.62Z</time></trkpt><trkpt lat="43.1777785" lon="11.2775803"><ele>184.0</ele><time>2026-04-26T12:06:28.62Z</time></trkpt><trkpt lat="43.17774" lon="11.2774899"><ele>184.0</ele><time>2026-04-26T12:06:29.62Z</time></trkpt><trkpt lat="43.1777031" lon="11.2774002"><ele>184.0</ele><time>2026-04-26T12:06:30.62Z</time></trkpt><trkpt lat="43.1776688" lon="11.2773162"><ele>184.0</ele><time>2026-04-26T12:06:31.621Z</time></trkpt><trkpt lat="43.1776378" lon="11.2772308"><ele>184.0</ele><time>2026-04-26T12:06:32.62Z</time></trkpt><trkpt lat="43.1776033" lon="11.2771582"><ele>184.0</ele><time>2026-04-26T12:06:33.62Z</time></trkpt><trkpt lat="43.1775672" lon="11.2770854"><ele>184.0</ele><time>2026-04-26T12:06:34.62Z</time></trkpt><trkpt lat="43.1775266" lon="11.2770103"><ele>184.0</ele><time>2026-04-26T12:06:35.62Z</time></trkpt><trkpt lat="43.1774768" lon="11.2769409"><ele>183.0</ele><time>2026-04-26T12:06:36.62Z</time></trkpt><trkpt lat="43.1774176" lon="11.2768739"><ele>182.0</ele><time>2026-04-26T12:06:37.62Z</time></trkpt><trkpt lat="43.1773533" lon="11.2768057"><ele>181.0</ele><time>2026-04-26T12:06:38.62Z</time></trkpt><trkpt lat="43.1772912" lon="11.2767374"><ele>180.0</ele><time>2026-04-26T12:06:39.62Z</time></trkpt><trkpt lat="43.1772344" lon="11.2766727"><ele>179.0</ele><time>2026-04-26T12:06:40.62Z</time></trkpt><trkpt lat="43.1771906" lon="11.2765967"><ele>178.0</ele><time>2026-04-26T12:06:41.621Z</time></trkpt><trkpt lat="43.1771598" lon="11.2764959"><ele>177.0</ele><time>2026-04-26T12:06:42.62Z</time></trkpt><trkpt lat="43.1771498" lon="11.2764006"><ele>176.0</ele><time>2026-04-26T12:06:43.62Z</time></trkpt><trkpt lat="43.1771771" lon="11.2763036"><ele>175.0</ele><time>2026-04-26T12:06:44.62Z</time></trkpt><trkpt lat="43.1772255" lon="11.2762105"><ele>174.0</ele><time>2026-04-26T12:06:45.62Z</time></trkpt><trkpt lat="43.1772997" lon="11.2761401"><ele>173.0</ele><time>2026-04-26T12:06:46.62Z</time></trkpt><trkpt lat="43.1773689" lon="11.2760816"><ele>172.0</ele><time>2026-04-26T12:06:47.62Z</time></trkpt><trkpt lat="43.177434" lon="11.276028"><ele>172.0</ele><time>2026-04-26T12:06:48.62Z</time></trkpt><trkpt lat="43.1774852" lon="11.2759733"><ele>172.0</ele><time>2026-04-26T12:06:49.62Z</time></trkpt><trkpt lat="43.177531" lon="11.27584"><ele>172.0</ele><time>2026-04-26T12:06:51.62Z</time></trkpt><trkpt lat="43.177516" lon="11.2757542"><ele>172.0</ele><time>2026-04-26T12:06:52.62Z</time></trkpt><trkpt lat="43.1774758" lon="11.2756745"><ele>172.0</ele><time>2026-04-26T12:06:53.62Z</time></trkpt><trkpt lat="43.1774265" lon="11.2755854"><ele>172.0</ele><time>2026-04-26T12:06:54.62Z</time></trkpt><trkpt lat="43.1773744" lon="11.275492"><ele>171.16666666666669</ele><time>2026-04-26T12:06:55.62Z</time></trkpt><trkpt lat="43.1773268" lon="11.2754185"><ele>170.33333333333334</ele><time>2026-04-26T12:06:56.62Z</time></trkpt><trkpt lat="43.1772525" lon="11.2753241"><ele>169.5</ele><time>2026-04-26T12:06:58.62Z</time></trkpt><trkpt lat="43.1771954" lon="11.2752499"><ele>168.66666666666666</ele><time>2026-04-26T12:07:00.62Z</time></trkpt><trkpt lat="43.1771394" lon="11.2751983"><ele>167.83333333333331</ele><time>2026-04-26T12:07:03.62Z</time></trkpt><trkpt lat="43.1771838" lon="11.2752704"><ele>167.0</ele><time>2026-04-26T12:07:12.62Z</time></trkpt><trkpt lat="43.1772701" lon="11.2753705"><ele>167.0</ele><time>2026-04-26T12:07:14.62Z</time></trkpt><trkpt lat="43.17732" lon="11.2754363"><ele>167.0</ele><time>2026-04-26T12:07:15.62Z</time></trkpt><trkpt lat="43.177366" lon="11.2755094"><ele>167.0</ele><time>2026-04-26T12:07:16.62Z</time></trkpt><trkpt lat="43.1774046" lon="11.2755858"><ele>167.0</ele><time>2026-04-26T12:07:17.62Z</time></trkpt><trkpt lat="43.177434" lon="11.2757127"><ele>167.0</ele><time>2026-04-26T12:07:19.62Z</time></trkpt><trkpt lat="43.1773564" lon="11.2757414"><ele>167.0</ele><time>2026-04-26T12:07:22.62Z</time></trkpt><trkpt lat="43.1772901" lon="11.2756164"><ele>167.0</ele><time>2026-04-26T12:07:24.62Z</time></trkpt><trkpt lat="43.1772334" lon="11.2755282"><ele>167.0</ele><time>2026-04-26T12:07:25.62Z</time></trkpt><trkpt lat="43.1771647" lon="11.2754371"><ele>167.0</ele><time>2026-04-26T12:07:26.62Z</time></trkpt><trkpt lat="43.1770818" lon="11.2753412"><ele>167.0</ele><time>2026-04-26T12:07:27.62Z</time></trkpt><trkpt lat="43.1769978" lon="11.2752602"><ele>167.0</ele><time>2026-04-26T12:07:28.62Z</time></trkpt><trkpt lat="43.1769276" lon="11.2751895"><ele>167.0</ele><time>2026-04-26T12:07:29.62Z</time></trkpt><trkpt lat="43.1768741" lon="11.2751322"><ele>167.0</ele><time>2026-04-26T12:07:30.62Z</time></trkpt><trkpt lat="43.1768702" lon="11.2750332"><ele>167.0</ele><time>2026-04-26T12:07:32.62Z</time></trkpt><trkpt lat="43.1768758" lon="11.2748944"><ele>167.0</ele><time>2026-04-26T12:07:34.62Z</time></trkpt><trkpt lat="43.1768345" lon="11.2748122"><ele>167.0</ele><time>2026-04-26T12:07:35.62Z</time></trkpt><trkpt lat="43.1767515" lon="11.2747277"><ele>167.0</ele><time>2026-04-26T12:07:36.62Z</time></trkpt><trkpt lat="43.1766569" lon="11.2746162"><ele>167.0</ele><time>2026-04-26T12:07:37.62Z</time></trkpt><trkpt lat="43.1765426" lon="11.2744793"><ele>167.0</ele><time>2026-04-26T12:07:38.62Z</time></trkpt><trkpt lat="43.1764211" lon="11.2743384"><ele>167.0</ele><time>2026-04-26T12:07:39.62Z</time></trkpt><trkpt lat="43.1763095" lon="11.2742132"><ele>167.0</ele><time>2026-04-26T12:07:40.621Z</time></trkpt><trkpt lat="43.1762031" lon="11.2740916"><ele>167.0</ele><time>2026-04-26T12:07:41.62Z</time></trkpt><trkpt lat="43.1760985" lon="11.2739698"><ele>167.0</ele><time>2026-04-26T12:07:42.62Z</time></trkpt><trkpt lat="43.1759942" lon="11.2738406"><ele>167.0</ele><time>2026-04-26T12:07:43.621Z</time></trkpt><trkpt lat="43.1758895" lon="11.2737137"><ele>167.0</ele><time>2026-04-26T12:07:44.62Z</time></trkpt><trkpt lat="43.1757911" lon="11.2735962"><ele>167.0</ele><time>2026-04-26T12:07:45.62Z</time></trkpt><trkpt lat="43.1756934" lon="11.2734796"><ele>167.0</ele><time>2026-04-26T12:07:46.62Z</time></trkpt><trkpt lat="43.1755949" lon="11.2733584"><ele>167.0</ele><time>2026-04-26T12:07:47.62Z</time></trkpt><trkpt lat="43.175493" lon="11.2732318"><ele>167.25</ele><time>2026-04-26T12:07:48.62Z</time></trkpt><trkpt lat="43.1753882" lon="11.273103"><ele>167.5</ele><time>2026-04-26T12:07:49.62Z</time></trkpt><trkpt lat="43.1752852" lon="11.2729759"><ele>167.75</ele><time>2026-04-26T12:07:50.621Z</time></trkpt><trkpt lat="43.1751894" lon="11.2728673"><ele>168.0</ele><time>2026-04-26T12:07:51.62Z</time></trkpt><trkpt lat="43.1750962" lon="11.272756"><ele>168.0</ele><time>2026-04-26T12:07:52.62Z</time></trkpt><trkpt lat="43.1750024" lon="11.2726398"><ele>168.0</ele><time>2026-04-26T12:07:53.62Z</time></trkpt><trkpt lat="43.1749106" lon="11.2725213"><ele>168.0</ele><time>2026-04-26T12:07:54.62Z</time></trkpt><trkpt lat="43.1748205" lon="11.2724095"><ele>168.0</ele><time>2026-04-26T12:07:55.621Z</time></trkpt><trkpt lat="43.1747377" lon="11.2723043"><ele>168.0</ele><time>2026-04-26T12:07:56.62Z</time></trkpt><trkpt lat="43.1746566" lon="11.2722019"><ele>168.0</ele><time>2026-04-26T12:07:57.62Z</time></trkpt><trkpt lat="43.1745784" lon="11.2721086"><ele>168.0</ele><time>2026-04-26T12:07:58.62Z</time></trkpt><trkpt lat="43.174503" lon="11.2720185"><ele>168.0</ele><time>2026-04-26T12:07:59.62Z</time></trkpt><trkpt lat="43.1744413" lon="11.2719373"><ele>168.0</ele><time>2026-04-26T12:08:00.62Z</time></trkpt><trkpt lat="43.1743901" lon="11.271809"><ele>168.0</ele><time>2026-04-26T12:08:02.621Z</time></trkpt><trkpt lat="43.1744396" lon="11.2716533"><ele>168.0</ele><time>2026-04-26T12:08:04.62Z</time></trkpt><trkpt lat="43.1744871" lon="11.271593"><ele>168.0</ele><time>2026-04-26T12:08:05.621Z</time></trkpt><trkpt lat="43.1745567" lon="11.2715271"><ele>168.0</ele><time>2026-04-26T12:08:06.62Z</time></trkpt><trkpt lat="43.1746508" lon="11.271446"><ele>168.0</ele><time>2026-04-26T12:08:07.62Z</time></trkpt><trkpt lat="43.1747371" lon="11.2713635"><ele>168.0</ele><time>2026-04-26T12:08:08.62Z</time></trkpt><trkpt lat="43.1748218" lon="11.2712786"><ele>168.0</ele><time>2026-04-26T12:08:09.62Z</time></trkpt><trkpt lat="43.174903" lon="11.2711925"><ele>168.0</ele><time>2026-04-26T12:08:10.62Z</time></trkpt><trkpt lat="43.1749775" lon="11.2711149"><ele>168.0</ele><time>2026-04-26T12:08:11.62Z</time></trkpt><trkpt lat="43.1750546" lon="11.2710385"><ele>168.0</ele><time>2026-04-26T12:08:12.62Z</time></trkpt><trkpt lat="43.1751306" lon="11.2709584"><ele>167.66666666666666</ele><time>2026-04-26T12:08:13.621Z</time></trkpt><trkpt lat="43.1752071" lon="11.2708873"><ele>167.33333333333334</ele><time>2026-04-26T12:08:14.62Z</time></trkpt><trkpt lat="43.1752829" lon="11.270812"><ele>167.0</ele><time>2026-04-26T12:08:15.621Z</time></trkpt><trkpt lat="43.1753541" lon="11.2707383"><ele>166.66666666666669</ele><time>2026-04-26T12:08:16.62Z</time></trkpt><trkpt lat="43.1754175" lon="11.2706758"><ele>166.33333333333334</ele><time>2026-04-26T12:08:17.62Z</time></trkpt><trkpt lat="43.1754831" lon="11.2706088"><ele>166.0</ele><time>2026-04-26T12:08:18.621Z</time></trkpt><trkpt lat="43.1755437" lon="11.2705422"><ele>166.33333333333334</ele><time>2026-04-26T12:08:19.62Z</time></trkpt><trkpt lat="43.1756069" lon="11.2704765"><ele>166.66666666666669</ele><time>2026-04-26T12:08:20.62Z</time></trkpt><trkpt lat="43.1756662" lon="11.2704222"><ele>167.0</ele><time>2026-04-26T12:08:21.62Z</time></trkpt><trkpt lat="43.1757638" lon="11.2703269"><ele>167.33333333333334</ele><time>2026-04-26T12:08:23.621Z</time></trkpt><trkpt lat="43.1757885" lon="11.2702341"><ele>167.66666666666666</ele><time>2026-04-26T12:08:25.621Z</time></trkpt><trkpt lat="43.1757275" lon="11.2701964"><ele>168.0</ele><time>2026-04-26T12:08:28.621Z</time></trkpt><trkpt lat="43.1756385" lon="11.2702627"><ele>168.57142857142858</ele><time>2026-04-26T12:08:30.62Z</time></trkpt><trkpt lat="43.1755847" lon="11.2703109"><ele>169.14285714285714</ele><time>2026-04-26T12:08:31.62Z</time></trkpt><trkpt lat="43.1755254" lon="11.2703607"><ele>169.71428571428572</ele><time>2026-04-26T12:08:33.62Z</time></trkpt><trkpt lat="43.175461" lon="11.2703807"><ele>170.28571428571428</ele><time>2026-04-26T12:08:36.621Z</time></trkpt><trkpt lat="43.175402" lon="11.2703377"><ele>170.85714285714286</ele><time>2026-04-26T12:08:45.62Z</time></trkpt><trkpt lat="43.1753282" lon="11.2702982"><ele>171.42857142857144</ele><time>2026-04-26T12:08:48.62Z</time></trkpt><trkpt lat="43.1752774" lon="11.2702438"><ele>172.0</ele><time>2026-04-26T12:08:51.621Z</time></trkpt><trkpt lat="43.1752017" lon="11.2701562"><ele>172.0</ele><time>2026-04-26T12:08:57.62Z</time></trkpt><trkpt lat="43.1751453" lon="11.2700207"><ele>172.0</ele><time>2026-04-26T12:08:59.62Z</time></trkpt><trkpt lat="43.1751184" lon="11.2699399"><ele>172.0</ele><time>2026-04-26T12:09:00.62Z</time></trkpt><trkpt lat="43.1750635" lon="11.2698275"><ele>172.0</ele><time>2026-04-26T12:09:02.62Z</time></trkpt><trkpt lat="43.1749981" lon="11.2697406"><ele>172.0</ele><time>2026-04-26T12:09:04.62Z</time></trkpt><trkpt lat="43.1749358" lon="11.2697068"><ele>172.0</ele><time>2026-04-26T12:09:06.62Z</time></trkpt><trkpt lat="43.1748698" lon="11.2697049"><ele>174.5</ele><time>2026-04-26T12:09:08.62Z</time></trkpt><trkpt lat="43.1747753" lon="11.2697067"><ele>177.0</ele><time>2026-04-26T12:09:10.62Z</time></trkpt><trkpt lat="43.1746867" lon="11.2697034"><ele>179.5</ele><time>2026-04-26T12:09:12.62Z</time></trkpt><trkpt lat="43.1747928" lon="11.2697496"><ele>182.0</ele><time>2026-04-26T12:09:19.62Z</time></trkpt><trkpt lat="43.174862" lon="11.2697289"><ele>184.5</ele><time>2026-04-26T12:09:20.621Z</time></trkpt><trkpt lat="43.1749288" lon="11.269713"><ele>187.0</ele><time>2026-04-26T12:09:21.62Z</time></trkpt><trkpt lat="43.1750335" lon="11.2696852"><ele>187.0</ele><time>2026-04-26T12:09:23.62Z</time></trkpt><trkpt lat="43.1751178" lon="11.2696473"><ele>187.0</ele><time>2026-04-26T12:09:25.62Z</time></trkpt><trkpt lat="43.1751876" lon="11.2696207"><ele>187.0</ele><time>2026-04-26T12:09:27.621Z</time></trkpt><trkpt lat="43.1752518" lon="11.2695797"><ele>187.0</ele><time>2026-04-26T12:09:30.621Z</time></trkpt><trkpt lat="43.1751582" lon="11.2696018"><ele>187.0</ele><time>2026-04-26T12:09:34.62Z</time></trkpt><trkpt lat="43.1750942" lon="11.2696331"><ele>187.0</ele><time>2026-04-26T12:09:37.62Z</time></trkpt><trkpt lat="43.1750223" lon="11.2696637"><ele>187.0</ele><time>2026-04-26T12:09:57.62Z</time></trkpt><trkpt lat="43.174956" lon="11.2696985"><ele>187.0</ele><time>2026-04-26T12:09:59.62Z</time></trkpt><trkpt lat="43.1748792" lon="11.2697183"><ele>187.0</ele><time>2026-04-26T12:10:02.62Z</time></trkpt><trkpt lat="43.1748128" lon="11.2696979"><ele>190.0</ele><time>2026-04-26T12:10:06.62Z</time></trkpt></trkseg><trkseg><trkpt lat="43.1748433" lon="11.2697245"><ele>189.5</ele><time>2026-04-26T12:20:30.618Z</time></trkpt><trkpt lat="43.1749669" lon="11.2696949"><ele>189.0</ele><time>2026-04-26T12:20:32.618Z</time></trkpt><trkpt lat="43.1750297" lon="11.2696706"><ele>188.5</ele><time>2026-04-26T12:20:33.618Z</time></trkpt><trkpt lat="43.1751035" lon="11.2696342"><ele>188.0</ele><time>2026-04-26T12:20:34.618Z</time></trkpt><trkpt lat="43.1751826" lon="11.2695973"><ele>187.5</ele><time>2026-04-26T12:20:35.618Z</time></trkpt><trkpt lat="43.1752558" lon="11.2695628"><ele>187.0</ele><time>2026-04-26T12:20:36.618Z</time></trkpt><trkpt lat="43.175323" lon="11.2695211"><ele>187.0</ele><time>2026-04-26T12:20:37.618Z</time></trkpt><trkpt lat="43.1753857" lon="11.2694732"><ele>187.0</ele><time>2026-04-26T12:20:38.618Z</time></trkpt><trkpt lat="43.1754498" lon="11.2694287"><ele>187.0</ele><time>2026-04-26T12:20:39.619Z</time></trkpt><trkpt lat="43.1755177" lon="11.269382"><ele>187.0</ele><time>2026-04-26T12:20:40.618Z</time></trkpt><trkpt lat="43.175584" lon="11.2693197"><ele>187.0</ele><time>2026-04-26T12:20:41.619Z</time></trkpt><trkpt lat="43.1756546" lon="11.2692578"><ele>187.0</ele><time>2026-04-26T12:20:42.618Z</time></trkpt><trkpt lat="43.1757252" lon="11.2691975"><ele>187.83333333333334</ele><time>2026-04-26T12:20:43.618Z</time></trkpt><trkpt lat="43.1757893" lon="11.2691426"><ele>188.66666666666669</ele><time>2026-04-26T12:20:44.618Z</time></trkpt><trkpt lat="43.1758547" lon="11.2690853"><ele>189.5</ele><time>2026-04-26T12:20:45.618Z</time></trkpt><trkpt lat="43.1759174" lon="11.2690216"><ele>190.33333333333334</ele><time>2026-04-26T12:20:46.618Z</time></trkpt><trkpt lat="43.1759824" lon="11.2689414"><ele>191.16666666666666</ele><time>2026-04-26T12:20:47.618Z</time></trkpt><trkpt lat="43.1760486" lon="11.2688476"><ele>192.0</ele><time>2026-04-26T12:20:48.619Z</time></trkpt><trkpt lat="43.1761166" lon="11.2687358"><ele>192.0</ele><time>2026-04-26T12:20:49.618Z</time></trkpt><trkpt lat="43.1761995" lon="11.2685834"><ele>192.0</ele><time>2026-04-26T12:20:50.618Z</time></trkpt><trkpt lat="43.1762709" lon="11.2684164"><ele>192.0</ele><time>2026-04-26T12:20:51.618Z</time></trkpt><trkpt lat="43.1763382" lon="11.2682666"><ele>192.0</ele><time>2026-04-26T12:20:52.618Z</time></trkpt><trkpt lat="43.1763977" lon="11.2681276"><ele>193.2</ele><time>2026-04-26T12:20:53.618Z</time></trkpt><trkpt lat="43.1764565" lon="11.2679995"><ele>194.39999999999998</ele><time>2026-04-26T12:20:54.618Z</time></trkpt><trkpt lat="43.1765294" lon="11.267904"><ele>195.60000000000002</ele><time>2026-04-26T12:20:55.618Z</time></trkpt><trkpt lat="43.1766045" lon="11.2678437"><ele>196.8</ele><time>2026-04-26T12:20:56.618Z</time></trkpt><trkpt lat="43.1766729" lon="11.2677783"><ele>198.0</ele><time>2026-04-26T12:20:57.619Z</time></trkpt><trkpt lat="43.1767443" lon="11.2677279"><ele>195.33333333333334</ele><time>2026-04-26T12:20:58.618Z</time></trkpt><trkpt lat="43.176809" lon="11.2676841"><ele>192.66666666666666</ele><time>2026-04-26T12:20:59.618Z</time></trkpt><trkpt lat="43.1768737" lon="11.2676447"><ele>190.0</ele><time>2026-04-26T12:21:00.618Z</time></trkpt><trkpt lat="43.1769427" lon="11.2675965"><ele>187.33333333333331</ele><time>2026-04-26T12:21:01.618Z</time></trkpt><trkpt lat="43.1770178" lon="11.2675512"><ele>184.66666666666666</ele><time>2026-04-26T12:21:02.618Z</time></trkpt><trkpt lat="43.1770939" lon="11.2674903"><ele>182.0</ele><time>2026-04-26T12:21:03.618Z</time></trkpt><trkpt lat="43.1771709" lon="11.2674111"><ele>182.0</ele><time>2026-04-26T12:21:04.618Z</time></trkpt><trkpt lat="43.1772472" lon="11.2673119"><ele>182.0</ele><time>2026-04-26T12:21:05.618Z</time></trkpt><trkpt lat="43.1773335" lon="11.2672051"><ele>182.0</ele><time>2026-04-26T12:21:06.618Z</time></trkpt><trkpt lat="43.1774196" lon="11.2670849"><ele>182.0</ele><time>2026-04-26T12:21:07.618Z</time></trkpt><trkpt lat="43.1775079" lon="11.2669773"><ele>183.0</ele><time>2026-04-26T12:21:08.618Z</time></trkpt><trkpt lat="43.1776028" lon="11.2668782"><ele>184.0</ele><time>2026-04-26T12:21:09.618Z</time></trkpt><trkpt lat="43.1776896" lon="11.2667881"><ele>185.0</ele><time>2026-04-26T12:21:10.618Z</time></trkpt><trkpt lat="43.1777628" lon="11.2667118"><ele>186.0</ele><time>2026-04-26T12:21:11.619Z</time></trkpt><trkpt lat="43.177831" lon="11.2666284"><ele>187.0</ele><time>2026-04-26T12:21:12.618Z</time></trkpt><trkpt lat="43.1778907" lon="11.2665385"><ele>188.33333333333334</ele><time>2026-04-26T12:21:13.618Z</time></trkpt><trkpt lat="43.17794" lon="11.2664406"><ele>189.66666666666669</ele><time>2026-04-26T12:21:14.618Z</time></trkpt><trkpt lat="43.1779763" lon="11.2663415"><ele>191.0</ele><time>2026-04-26T12:21:15.618Z</time></trkpt><trkpt lat="43.177994" lon="11.2662314"><ele>192.33333333333334</ele><time>2026-04-26T12:21:16.619Z</time></trkpt><trkpt lat="43.1779952" lon="11.2661269"><ele>193.66666666666666</ele><time>2026-04-26T12:21:17.618Z</time></trkpt><trkpt lat="43.1779953" lon="11.2660283"><ele>195.0</ele><time>2026-04-26T12:21:18.619Z</time></trkpt><trkpt lat="43.1779798" lon="11.2659251"><ele>195.0</ele><time>2026-04-26T12:21:19.618Z</time></trkpt><trkpt lat="43.1779556" lon="11.2658249"><ele>195.0</ele><time>2026-04-26T12:21:20.618Z</time></trkpt><trkpt lat="43.1779225" lon="11.265726"><ele>195.0</ele><time>2026-04-26T12:21:21.618Z</time></trkpt><trkpt lat="43.177875" lon="11.2656154"><ele>195.0</ele><time>2026-04-26T12:21:22.619Z</time></trkpt><trkpt lat="43.1778322" lon="11.2654945"><ele>195.0</ele><time>2026-04-26T12:21:23.618Z</time></trkpt><trkpt lat="43.1777965" lon="11.2653621"><ele>194.5</ele><time>2026-04-26T12:21:24.618Z</time></trkpt><trkpt lat="43.1777657" lon="11.2652271"><ele>194.0</ele><time>2026-04-26T12:21:25.618Z</time></trkpt><trkpt lat="43.1777343" lon="11.2650638"><ele>193.5</ele><time>2026-04-26T12:21:26.618Z</time></trkpt><trkpt lat="43.1777054" lon="11.26485"><ele>193.0</ele><time>2026-04-26T12:21:27.618Z</time></trkpt><trkpt lat="43.1776672" lon="11.2646018"><ele>193.0</ele><time>2026-04-26T12:21:28.619Z</time></trkpt><trkpt lat="43.1776288" lon="11.2643361"><ele>193.0</ele><time>2026-04-26T12:21:29.619Z</time></trkpt><trkpt lat="43.1775909" lon="11.2640943"><ele>193.0</ele><time>2026-04-26T12:21:30.619Z</time></trkpt><trkpt lat="43.1775653" lon="11.2638895"><ele>194.0</ele><time>2026-04-26T12:21:31.619Z</time></trkpt><trkpt lat="43.1775518" lon="11.2637073"><ele>195.0</ele><time>2026-04-26T12:21:32.618Z</time></trkpt><trkpt lat="43.177551" lon="11.2635171"><ele>196.0</ele><time>2026-04-26T12:21:33.618Z</time></trkpt><trkpt lat="43.1775637" lon="11.2633152"><ele>197.0</ele><time>2026-04-26T12:21:34.618Z</time></trkpt><trkpt lat="43.1775887" lon="11.2631163"><ele>197.0</ele><time>2026-04-26T12:21:35.618Z</time></trkpt><trkpt lat="43.177645" lon="11.2628873"><ele>197.0</ele><time>2026-04-26T12:21:36.619Z</time></trkpt><trkpt lat="43.1777116" lon="11.2626217"><ele>197.0</ele><time>2026-04-26T12:21:37.618Z</time></trkpt><trkpt lat="43.1777784" lon="11.2623709"><ele>196.25</ele><time>2026-04-26T12:21:38.619Z</time></trkpt><trkpt lat="43.1778124" lon="11.2621637"><ele>195.5</ele><time>2026-04-26T12:21:39.619Z</time></trkpt><trkpt lat="43.1778404" lon="11.2619855"><ele>194.75</ele><time>2026-04-26T12:21:40.618Z</time></trkpt><trkpt lat="43.1778577" lon="11.2618313"><ele>194.0</ele><time>2026-04-26T12:21:41.618Z</time></trkpt><trkpt lat="43.1778776" lon="11.2616895"><ele>194.0</ele><time>2026-04-26T12:21:42.618Z</time></trkpt><trkpt lat="43.177892" lon="11.2615622"><ele>194.0</ele><time>2026-04-26T12:21:43.619Z</time></trkpt><trkpt lat="43.1779054" lon="11.2614377"><ele>194.0</ele><time>2026-04-26T12:21:44.618Z</time></trkpt><trkpt lat="43.1779154" lon="11.2612996"><ele>194.0</ele><time>2026-04-26T12:21:45.618Z</time></trkpt><trkpt lat="43.1779266" lon="11.2611312"><ele>194.0</ele><time>2026-04-26T12:21:46.618Z</time></trkpt><trkpt lat="43.1779397" lon="11.2609318"><ele>195.66666666666669</ele><time>2026-04-26T12:21:47.618Z</time></trkpt><trkpt lat="43.1779555" lon="11.2607126"><ele>197.33333333333331</ele><time>2026-04-26T12:21:48.618Z</time></trkpt><trkpt lat="43.1779816" lon="11.2604932"><ele>199.0</ele><time>2026-04-26T12:21:49.618Z</time></trkpt><trkpt lat="43.1780059" lon="11.2602936"><ele>200.0</ele><time>2026-04-26T12:21:50.618Z</time></trkpt><trkpt lat="43.178038" lon="11.2601286"><ele>201.0</ele><time>2026-04-26T12:21:51.618Z</time></trkpt><trkpt lat="43.1780891" lon="11.2599624"><ele>202.0</ele><time>2026-04-26T12:21:52.618Z</time></trkpt><trkpt lat="43.1781592" lon="11.2597651"><ele>203.0</ele><time>2026-04-26T12:21:53.618Z</time></trkpt><trkpt lat="43.1782449" lon="11.259541"><ele>203.0</ele><time>2026-04-26T12:21:54.618Z</time></trkpt><trkpt lat="43.1783351" lon="11.259276"><ele>203.0</ele><time>2026-04-26T12:21:55.618Z</time></trkpt><trkpt lat="43.1784517" lon="11.2589727"><ele>205.0</ele><time>2026-04-26T12:21:56.618Z</time></trkpt><trkpt lat="43.178579" lon="11.2586586"><ele>207.0</ele><time>2026-04-26T12:21:57.618Z</time></trkpt><trkpt lat="43.1786919" lon="11.2583873"><ele>207.0</ele><time>2026-04-26T12:21:58.618Z</time></trkpt><trkpt lat="43.1787806" lon="11.258147"><ele>207.0</ele><time>2026-04-26T12:21:59.618Z</time></trkpt><trkpt lat="43.1788674" lon="11.2579097"><ele>207.0</ele><time>2026-04-26T12:22:00.618Z</time></trkpt><trkpt lat="43.1789536" lon="11.2576926"><ele>207.33333333333331</ele><time>2026-04-26T12:22:01.618Z</time></trkpt><trkpt lat="43.1790332" lon="11.2574948"><ele>207.66666666666666</ele><time>2026-04-26T12:22:02.618Z</time></trkpt><trkpt lat="43.179111" lon="11.2573152"><ele>208.0</ele><time>2026-04-26T12:22:03.618Z</time></trkpt><trkpt lat="43.1791905" lon="11.2571587"><ele>208.25</ele><time>2026-04-26T12:22:04.618Z</time></trkpt><trkpt lat="43.1792893" lon="11.2570105"><ele>208.5</ele><time>2026-04-26T12:22:05.618Z</time></trkpt><trkpt lat="43.1793956" lon="11.2568632"><ele>208.75</ele><time>2026-04-26T12:22:06.618Z</time></trkpt><trkpt lat="43.1794937" lon="11.2567278"><ele>209.0</ele><time>2026-04-26T12:22:07.619Z</time></trkpt><trkpt lat="43.1795749" lon="11.2566091"><ele>209.0</ele><time>2026-04-26T12:22:08.618Z</time></trkpt><trkpt lat="43.1796464" lon="11.2564827"><ele>209.0</ele><time>2026-04-26T12:22:09.619Z</time></trkpt><trkpt lat="43.1796904" lon="11.2563436"><ele>209.0</ele><time>2026-04-26T12:22:10.619Z</time></trkpt><trkpt lat="43.1797023" lon="11.2561537"><ele>209.0</ele><time>2026-04-26T12:22:11.618Z</time></trkpt><trkpt lat="43.1797138" lon="11.255938"><ele>210.5</ele><time>2026-04-26T12:22:12.619Z</time></trkpt><trkpt lat="43.1797305" lon="11.255714"><ele>212.0</ele><time>2026-04-26T12:22:13.618Z</time></trkpt><trkpt lat="43.1797583" lon="11.2555141"><ele>213.5</ele><time>2026-04-26T12:22:14.619Z</time></trkpt><trkpt lat="43.1797866" lon="11.2553497"><ele>215.0</ele><time>2026-04-26T12:22:15.618Z</time></trkpt><trkpt lat="43.1798329" lon="11.255192"><ele>215.25</ele><time>2026-04-26T12:22:16.619Z</time></trkpt><trkpt lat="43.1798963" lon="11.2550253"><ele>215.5</ele><time>2026-04-26T12:22:17.618Z</time></trkpt><trkpt lat="43.1799399" lon="11.2548751"><ele>215.75</ele><time>2026-04-26T12:22:18.618Z</time></trkpt><trkpt lat="43.1799561" lon="11.2547257"><ele>216.0</ele><time>2026-04-26T12:22:19.618Z</time></trkpt><trkpt lat="43.1799508" lon="11.2545622"><ele>217.66666666666669</ele><time>2026-04-26T12:22:20.619Z</time></trkpt><trkpt lat="43.1799211" lon="11.254365"><ele>219.33333333333334</ele><time>2026-04-26T12:22:21.618Z</time></trkpt><trkpt lat="43.1798754" lon="11.2541125"><ele>221.0</ele><time>2026-04-26T12:22:22.619Z</time></trkpt><trkpt lat="43.179819" lon="11.2538367"><ele>225.25</ele><time>2026-04-26T12:22:23.618Z</time></trkpt><trkpt lat="43.1797828" lon="11.2536206"><ele>229.5</ele><time>2026-04-26T12:22:24.618Z</time></trkpt><trkpt lat="43.1797623" lon="11.2534383"><ele>233.75</ele><time>2026-04-26T12:22:25.618Z</time></trkpt><trkpt lat="43.1797259" lon="11.2532502"><ele>238.0</ele><time>2026-04-26T12:22:26.619Z</time></trkpt><trkpt lat="43.179673" lon="11.2530633"><ele>238.16666666666666</ele><time>2026-04-26T12:22:27.618Z</time></trkpt><trkpt lat="43.1796307" lon="11.252928"><ele>238.33333333333331</ele><time>2026-04-26T12:22:28.618Z</time></trkpt><trkpt lat="43.1796021" lon="11.2528371"><ele>238.5</ele><time>2026-04-26T12:22:29.618Z</time></trkpt><trkpt lat="43.1795774" lon="11.2527276"><ele>238.66666666666669</ele><time>2026-04-26T12:22:30.618Z</time></trkpt><trkpt lat="43.1795379" lon="11.2526183"><ele>238.83333333333334</ele><time>2026-04-26T12:22:31.618Z</time></trkpt><trkpt lat="43.1795033" lon="11.2525305"><ele>239.0</ele><time>2026-04-26T12:22:32.618Z</time></trkpt><trkpt lat="43.179465" lon="11.2524582"><ele>239.00000000000003</ele><time>2026-04-26T12:22:34.618Z</time></trkpt><trkpt lat="43.1794957" lon="11.2525853"><ele>239.0</ele><time>2026-04-26T12:22:55.618Z</time></trkpt><trkpt lat="43.1795357" lon="11.2526712"><ele>239.0</ele><time>2026-04-26T12:22:56.618Z</time></trkpt><trkpt lat="43.1795737" lon="11.2527649"><ele>239.0</ele><time>2026-04-26T12:22:57.618Z</time></trkpt><trkpt lat="43.1796134" lon="11.2528785"><ele>239.00000000000003</ele><time>2026-04-26T12:22:58.618Z</time></trkpt><trkpt lat="43.1796537" lon="11.2530044"><ele>239.0</ele><time>2026-04-26T12:22:59.618Z</time></trkpt><trkpt lat="43.1796897" lon="11.2531401"><ele>238.75</ele><time>2026-04-26T12:23:00.618Z</time></trkpt><trkpt lat="43.1797262" lon="11.2532857"><ele>238.5</ele><time>2026-04-26T12:23:01.618Z</time></trkpt><trkpt lat="43.1797583" lon="11.25343"><ele>238.25</ele><time>2026-04-26T12:23:02.619Z</time></trkpt><trkpt lat="43.1797877" lon="11.253588"><ele>238.0</ele><time>2026-04-26T12:23:03.618Z</time></trkpt><trkpt lat="43.1798106" lon="11.2537538"><ele>238.0</ele><time>2026-04-26T12:23:04.618Z</time></trkpt><trkpt lat="43.1798375" lon="11.2539288"><ele>238.0</ele><time>2026-04-26T12:23:05.618Z</time></trkpt><trkpt lat="43.1798685" lon="11.2540909"><ele>238.0</ele><time>2026-04-26T12:23:06.618Z</time></trkpt><trkpt lat="43.179896" lon="11.2542481"><ele>238.0</ele><time>2026-04-26T12:23:07.618Z</time></trkpt><trkpt lat="43.1799163" lon="11.2543878"><ele>234.60000000000002</ele><time>2026-04-26T12:23:08.619Z</time></trkpt><trkpt lat="43.1799362" lon="11.2545218"><ele>231.20000000000002</ele><time>2026-04-26T12:23:09.618Z</time></trkpt><trkpt lat="43.1799459" lon="11.2546393"><ele>227.8</ele><time>2026-04-26T12:23:10.619Z</time></trkpt><trkpt lat="43.1799432" lon="11.2547591"><ele>224.4</ele><time>2026-04-26T12:23:11.618Z</time></trkpt><trkpt lat="43.179935" lon="11.2548796"><ele>221.0</ele><time>2026-04-26T12:23:12.619Z</time></trkpt><trkpt lat="43.179909" lon="11.2549976"><ele>221.0</ele><time>2026-04-26T12:23:13.618Z</time></trkpt><trkpt lat="43.1798662" lon="11.255112"><ele>221.00000000000003</ele><time>2026-04-26T12:23:14.618Z</time></trkpt><trkpt lat="43.1798178" lon="11.2552254"><ele>221.00000000000003</ele><time>2026-04-26T12:23:15.618Z</time></trkpt><trkpt lat="43.1797724" lon="11.2553378"><ele>221.0</ele><time>2026-04-26T12:23:16.618Z</time></trkpt><trkpt lat="43.1797326" lon="11.2554565"><ele>221.0</ele><time>2026-04-26T12:23:17.618Z</time></trkpt><trkpt lat="43.1797027" lon="11.2555857"><ele>219.8</ele><time>2026-04-26T12:23:18.618Z</time></trkpt><trkpt lat="43.1796815" lon="11.2557316"><ele>218.60000000000002</ele><time>2026-04-26T12:23:19.618Z</time></trkpt><trkpt lat="43.1796766" lon="11.255892"><ele>217.4</ele><time>2026-04-26T12:23:20.618Z</time></trkpt><trkpt lat="43.1796727" lon="11.2560358"><ele>216.2</ele><time>2026-04-26T12:23:21.618Z</time></trkpt><trkpt lat="43.1796646" lon="11.2561696"><ele>215.0</ele><time>2026-04-26T12:23:22.619Z</time></trkpt><trkpt lat="43.1796547" lon="11.2562896"><ele>215.0</ele><time>2026-04-26T12:23:23.619Z</time></trkpt><trkpt lat="43.1796347" lon="11.2563991"><ele>215.0</ele><time>2026-04-26T12:23:24.619Z</time></trkpt><trkpt lat="43.1796072" lon="11.2565059"><ele>215.0</ele><time>2026-04-26T12:23:25.618Z</time></trkpt><trkpt lat="43.1795604" lon="11.2566178"><ele>215.0</ele><time>2026-04-26T12:23:26.617Z</time></trkpt><trkpt lat="43.1794941" lon="11.2567256"><ele>215.0</ele><time>2026-04-26T12:23:27.617Z</time></trkpt><trkpt lat="43.1794138" lon="11.256835"><ele>213.8</ele><time>2026-04-26T12:23:28.618Z</time></trkpt><trkpt lat="43.1793305" lon="11.2569328"><ele>212.6</ele><time>2026-04-26T12:23:29.617Z</time></trkpt><trkpt lat="43.1792569" lon="11.2570268"><ele>211.39999999999998</ele><time>2026-04-26T12:23:30.617Z</time></trkpt><trkpt lat="43.17919" lon="11.2571258"><ele>210.2</ele><time>2026-04-26T12:23:31.617Z</time></trkpt><trkpt lat="43.1791303" lon="11.2572219"><ele>209.0</ele><time>2026-04-26T12:23:32.617Z</time></trkpt><trkpt lat="43.1790812" lon="11.257324"><ele>208.75</ele><time>2026-04-26T12:23:33.617Z</time></trkpt><trkpt lat="43.1790269" lon="11.2574415"><ele>208.5</ele><time>2026-04-26T12:23:34.617Z</time></trkpt><trkpt lat="43.1789714" lon="11.2575816"><ele>208.25</ele><time>2026-04-26T12:23:35.617Z</time></trkpt><trkpt lat="43.1789095" lon="11.2577326"><ele>208.0</ele><time>2026-04-26T12:23:36.617Z</time></trkpt><trkpt lat="43.1788477" lon="11.2578963"><ele>207.75</ele><time>2026-04-26T12:23:37.618Z</time></trkpt><trkpt lat="43.1787863" lon="11.2580614"><ele>207.5</ele><time>2026-04-26T12:23:38.617Z</time></trkpt><trkpt lat="43.1787291" lon="11.2582258"><ele>207.25</ele><time>2026-04-26T12:23:39.617Z</time></trkpt><trkpt lat="43.178675" lon="11.2583905"><ele>207.0</ele><time>2026-04-26T12:23:40.617Z</time></trkpt><trkpt lat="43.1786165" lon="11.2585641"><ele>207.0</ele><time>2026-04-26T12:23:41.617Z</time></trkpt><trkpt lat="43.1785541" lon="11.2587379"><ele>207.0</ele><time>2026-04-26T12:23:42.617Z</time></trkpt><trkpt lat="43.1784935" lon="11.2589054"><ele>207.0</ele><time>2026-04-26T12:23:43.617Z</time></trkpt><trkpt lat="43.1784332" lon="11.2590689"><ele>207.0</ele><time>2026-04-26T12:23:44.617Z</time></trkpt><trkpt lat="43.1783708" lon="11.2592154"><ele>206.2</ele><time>2026-04-26T12:23:45.617Z</time></trkpt><trkpt lat="43.1783142" lon="11.2593541"><ele>205.39999999999998</ele><time>2026-04-26T12:23:46.617Z</time></trkpt><trkpt lat="43.1782653" lon="11.2594885"><ele>204.60000000000002</ele><time>2026-04-26T12:23:47.617Z</time></trkpt><trkpt lat="43.1782183" lon="11.2596265"><ele>203.8</ele><time>2026-04-26T12:23:48.618Z</time></trkpt><trkpt lat="43.1781707" lon="11.2597635"><ele>203.0</ele><time>2026-04-26T12:23:49.618Z</time></trkpt><trkpt lat="43.1781241" lon="11.2599119"><ele>205.75</ele><time>2026-04-26T12:23:50.617Z</time></trkpt><trkpt lat="43.178077" lon="11.260053"><ele>208.5</ele><time>2026-04-26T12:23:51.617Z</time></trkpt><trkpt lat="43.1780363" lon="11.2601962"><ele>211.25</ele><time>2026-04-26T12:23:52.617Z</time></trkpt><trkpt lat="43.1780032" lon="11.2603585"><ele>214.0</ele><time>2026-04-26T12:23:53.617Z</time></trkpt><trkpt lat="43.1779724" lon="11.2605419"><ele>210.25</ele><time>2026-04-26T12:23:54.617Z</time></trkpt><trkpt lat="43.1779468" lon="11.2607407"><ele>206.5</ele><time>2026-04-26T12:23:55.618Z</time></trkpt><trkpt lat="43.1779284" lon="11.2609432"><ele>202.75</ele><time>2026-04-26T12:23:56.617Z</time></trkpt><trkpt lat="43.1779127" lon="11.2611303"><ele>199.0</ele><time>2026-04-26T12:23:57.617Z</time></trkpt><trkpt lat="43.1778949" lon="11.2613089"><ele>197.75</ele><time>2026-04-26T12:23:58.617Z</time></trkpt><trkpt lat="43.1778741" lon="11.2614841"><ele>196.5</ele><time>2026-04-26T12:23:59.617Z</time></trkpt><trkpt lat="43.1778579" lon="11.2616546"><ele>195.25</ele><time>2026-04-26T12:24:00.617Z</time></trkpt><trkpt lat="43.1778432" lon="11.2618227"><ele>194.0</ele><time>2026-04-26T12:24:01.618Z</time></trkpt><trkpt lat="43.1778265" lon="11.2619859"><ele>194.0</ele><time>2026-04-26T12:24:02.617Z</time></trkpt><trkpt lat="43.177808" lon="11.2621427"><ele>194.0</ele><time>2026-04-26T12:24:03.617Z</time></trkpt><trkpt lat="43.1777879" lon="11.2622925"><ele>194.0</ele><time>2026-04-26T12:24:04.617Z</time></trkpt><trkpt lat="43.1777598" lon="11.2624356"><ele>194.0</ele><time>2026-04-26T12:24:05.618Z</time></trkpt><trkpt lat="43.1777287" lon="11.2625897"><ele>194.75</ele><time>2026-04-26T12:24:06.617Z</time></trkpt><trkpt lat="43.1776905" lon="11.2627477"><ele>195.5</ele><time>2026-04-26T12:24:07.617Z</time></trkpt><trkpt lat="43.1776524" lon="11.2629003"><ele>196.25</ele><time>2026-04-26T12:24:08.617Z</time></trkpt><trkpt lat="43.1776145" lon="11.2630508"><ele>197.0</ele><time>2026-04-26T12:24:09.617Z</time></trkpt><trkpt lat="43.1775828" lon="11.2631904"><ele>197.0</ele><time>2026-04-26T12:24:10.617Z</time></trkpt><trkpt lat="43.1775601" lon="11.263337"><ele>197.0</ele><time>2026-04-26T12:24:11.617Z</time></trkpt><trkpt lat="43.1775477" lon="11.2634894"><ele>197.0</ele><time>2026-04-26T12:24:12.617Z</time></trkpt><trkpt lat="43.1775432" lon="11.263654"><ele>197.0</ele><time>2026-04-26T12:24:13.617Z</time></trkpt><trkpt lat="43.1775492" lon="11.2638137"><ele>196.2</ele><time>2026-04-26T12:24:14.617Z</time></trkpt><trkpt lat="43.1775618" lon="11.2639612"><ele>195.39999999999998</ele><time>2026-04-26T12:24:15.617Z</time></trkpt><trkpt lat="43.1775785" lon="11.2641008"><ele>194.60000000000002</ele><time>2026-04-26T12:24:16.617Z</time></trkpt><trkpt lat="43.1776016" lon="11.2642403"><ele>193.8</ele><time>2026-04-26T12:24:17.617Z</time></trkpt><trkpt lat="43.177625" lon="11.2643914"><ele>193.0</ele><time>2026-04-26T12:24:18.617Z</time></trkpt><trkpt lat="43.1776474" lon="11.2645503"><ele>193.0</ele><time>2026-04-26T12:24:19.617Z</time></trkpt><trkpt lat="43.1776725" lon="11.2647102"><ele>193.0</ele><time>2026-04-26T12:24:20.617Z</time></trkpt><trkpt lat="43.1776957" lon="11.2648631"><ele>193.0</ele><time>2026-04-26T12:24:21.617Z</time></trkpt><trkpt lat="43.1777215" lon="11.2650063"><ele>193.0</ele><time>2026-04-26T12:24:22.617Z</time></trkpt><trkpt lat="43.1777401" lon="11.2651427"><ele>193.0</ele><time>2026-04-26T12:24:23.617Z</time></trkpt><trkpt lat="43.1777553" lon="11.2652663"><ele>192.83333333333331</ele><time>2026-04-26T12:24:24.618Z</time></trkpt><trkpt lat="43.1777758" lon="11.2653887"><ele>192.66666666666666</ele><time>2026-04-26T12:24:25.617Z</time></trkpt><trkpt lat="43.1777957" lon="11.2654995"><ele>192.5</ele><time>2026-04-26T12:24:26.617Z</time></trkpt><trkpt lat="43.1778266" lon="11.2655988"><ele>192.33333333333331</ele><time>2026-04-26T12:24:27.617Z</time></trkpt><trkpt lat="43.1778663" lon="11.2656736"><ele>192.16666666666666</ele><time>2026-04-26T12:24:28.617Z</time></trkpt><trkpt lat="43.177972" lon="11.2657011"><ele>192.0</ele><time>2026-04-26T12:24:30.617Z</time></trkpt><trkpt lat="43.1780821" lon="11.2656105"><ele>191.99999999999997</ele><time>2026-04-26T12:24:32.617Z</time></trkpt><trkpt lat="43.178137" lon="11.2655662"><ele>192.0</ele><time>2026-04-26T12:24:33.617Z</time></trkpt><trkpt lat="43.178187" lon="11.2655026"><ele>192.0</ele><time>2026-04-26T12:24:35.617Z</time></trkpt><trkpt lat="43.1781019" lon="11.2655695"><ele>192.0</ele><time>2026-04-26T12:24:39.618Z</time></trkpt><trkpt lat="43.1780441" lon="11.2656356"><ele>192.0</ele><time>2026-04-26T12:24:40.618Z</time></trkpt><trkpt lat="43.1779909" lon="11.2657093"><ele>191.99999999999997</ele><time>2026-04-26T12:24:41.617Z</time></trkpt><trkpt lat="43.1779618" lon="11.2657944"><ele>192.0</ele><time>2026-04-26T12:24:42.618Z</time></trkpt><trkpt lat="43.1779464" lon="11.2658959"><ele>192.5</ele><time>2026-04-26T12:24:43.617Z</time></trkpt><trkpt lat="43.177954" lon="11.2660185"><ele>193.0</ele><time>2026-04-26T12:24:44.617Z</time></trkpt><trkpt lat="43.1779615" lon="11.2661494"><ele>193.5</ele><time>2026-04-26T12:24:45.617Z</time></trkpt><trkpt lat="43.1779533" lon="11.2662687"><ele>194.0</ele><time>2026-04-26T12:24:46.617Z</time></trkpt><trkpt lat="43.1779326" lon="11.2663809"><ele>194.5</ele><time>2026-04-26T12:24:47.617Z</time></trkpt><trkpt lat="43.1778994" lon="11.2664916"><ele>195.0</ele><time>2026-04-26T12:24:48.617Z</time></trkpt><trkpt lat="43.1778487" lon="11.2666075"><ele>193.0</ele><time>2026-04-26T12:24:49.617Z</time></trkpt><trkpt lat="43.1777867" lon="11.2667235"><ele>191.0</ele><time>2026-04-26T12:24:50.617Z</time></trkpt><trkpt lat="43.1777081" lon="11.266832"><ele>189.0</ele><time>2026-04-26T12:24:51.618Z</time></trkpt><trkpt lat="43.1775955" lon="11.2669465"><ele>187.0</ele><time>2026-04-26T12:24:52.617Z</time></trkpt><trkpt lat="43.1774692" lon="11.2670739"><ele>187.0</ele><time>2026-04-26T12:24:53.617Z</time></trkpt><trkpt lat="43.1773529" lon="11.2672083"><ele>187.0</ele><time>2026-04-26T12:24:54.618Z</time></trkpt><trkpt lat="43.1772496" lon="11.2673249"><ele>187.0</ele><time>2026-04-26T12:24:55.617Z</time></trkpt><trkpt lat="43.1771521" lon="11.2674277"><ele>187.0</ele><time>2026-04-26T12:24:56.617Z</time></trkpt><trkpt lat="43.1770614" lon="11.2675155"><ele>186.0</ele><time>2026-04-26T12:24:57.617Z</time></trkpt><trkpt lat="43.1769738" lon="11.2675917"><ele>185.0</ele><time>2026-04-26T12:24:58.617Z</time></trkpt><trkpt lat="43.176892" lon="11.2676598"><ele>184.0</ele><time>2026-04-26T12:24:59.617Z</time></trkpt><trkpt lat="43.176825" lon="11.2676979"><ele>183.0</ele><time>2026-04-26T12:25:01.617Z</time></trkpt><trkpt lat="43.1767287" lon="11.2676913"><ele>182.0</ele><time>2026-04-26T12:25:03.617Z</time></trkpt><trkpt lat="43.1766267" lon="11.2676411"><ele>182.0</ele><time>2026-04-26T12:25:05.617Z</time></trkpt><trkpt lat="43.1765593" lon="11.2675973"><ele>182.0</ele><time>2026-04-26T12:25:11.617Z</time></trkpt><trkpt lat="43.1764689" lon="11.2675166"><ele>182.0</ele><time>2026-04-26T12:25:13.617Z</time></trkpt><trkpt lat="43.1763712" lon="11.2674313"><ele>182.0</ele><time>2026-04-26T12:25:15.617Z</time></trkpt><trkpt lat="43.1762769" lon="11.2673575"><ele>182.0</ele><time>2026-04-26T12:25:17.617Z</time></trkpt><trkpt lat="43.1762236" lon="11.267308"><ele>186.0</ele><time>2026-04-26T12:25:18.617Z</time></trkpt><trkpt lat="43.1761688" lon="11.2672419"><ele>190.0</ele><time>2026-04-26T12:25:19.618Z</time></trkpt><trkpt lat="43.1761099" lon="11.2671716"><ele>194.0</ele><time>2026-04-26T12:25:20.617Z</time></trkpt><trkpt lat="43.1760565" lon="11.2671027"><ele>198.0</ele><time>2026-04-26T12:25:21.617Z</time></trkpt><trkpt lat="43.1759931" lon="11.2670321"><ele>202.00000000000003</ele><time>2026-04-26T12:25:22.617Z</time></trkpt><trkpt lat="43.1759207" lon="11.2669572"><ele>206.0</ele><time>2026-04-26T12:25:23.617Z</time></trkpt><trkpt lat="43.1758725" lon="11.2668838"><ele>206.0</ele><time>2026-04-26T12:25:24.617Z</time></trkpt><trkpt lat="43.1758497" lon="11.2667787"><ele>206.0</ele><time>2026-04-26T12:25:26.617Z</time></trkpt><trkpt lat="43.1759375" lon="11.266729"><ele>206.0</ele><time>2026-04-26T12:25:29.617Z</time></trkpt><trkpt lat="43.1760262" lon="11.2667155"><ele>206.0</ele><time>2026-04-26T12:25:31.618Z</time></trkpt><trkpt lat="43.1761114" lon="11.266722"><ele>206.0</ele><time>2026-04-26T12:25:33.617Z</time></trkpt><trkpt lat="43.1762213" lon="11.2667241"><ele>206.00000000000003</ele><time>2026-04-26T12:25:35.617Z</time></trkpt><trkpt lat="43.17631" lon="11.2666955"><ele>206.0</ele><time>2026-04-26T12:25:37.617Z</time></trkpt><trkpt lat="43.1763778" lon="11.2666276"><ele>206.0</ele><time>2026-04-26T12:25:39.618Z</time></trkpt><trkpt lat="43.1764481" lon="11.2664842"><ele>206.0</ele><time>2026-04-26T12:25:41.617Z</time></trkpt><trkpt lat="43.176485" lon="11.2663942"><ele>206.00000000000003</ele><time>2026-04-26T12:25:42.617Z</time></trkpt><trkpt lat="43.176515" lon="11.26631"><ele>206.0</ele><time>2026-04-26T12:25:43.617Z</time></trkpt><trkpt lat="43.1765512" lon="11.2662295"><ele>207.33333333333334</ele><time>2026-04-26T12:25:44.617Z</time></trkpt><trkpt lat="43.1765902" lon="11.2661153"><ele>208.66666666666669</ele><time>2026-04-26T12:25:46.617Z</time></trkpt><trkpt lat="43.1765919" lon="11.2659971"><ele>210.0</ele><time>2026-04-26T12:25:48.618Z</time></trkpt><trkpt lat="43.1765759" lon="11.2658802"><ele>211.33333333333331</ele><time>2026-04-26T12:25:50.617Z</time></trkpt><trkpt lat="43.1765116" lon="11.2658388"><ele>212.66666666666666</ele><time>2026-04-26T12:25:57.617Z</time></trkpt><trkpt lat="43.176428" lon="11.2658102"><ele>214.0</ele><time>2026-04-26T12:25:59.617Z</time></trkpt><trkpt lat="43.1763646" lon="11.2657961"><ele>215.79999999999998</ele><time>2026-04-26T12:26:00.618Z</time></trkpt><trkpt lat="43.1763026" lon="11.2657775"><ele>217.59999999999997</ele><time>2026-04-26T12:26:01.617Z</time></trkpt><trkpt lat="43.1761924" lon="11.2657108"><ele>219.4</ele><time>2026-04-26T12:26:03.617Z</time></trkpt><trkpt lat="43.1760954" lon="11.2656429"><ele>221.2</ele><time>2026-04-26T12:26:05.617Z</time></trkpt><trkpt lat="43.176035" lon="11.265555"><ele>223.0</ele><time>2026-04-26T12:26:07.617Z</time></trkpt><trkpt lat="43.1760071" lon="11.2654162"><ele>225.66666666666666</ele><time>2026-04-26T12:26:09.617Z</time></trkpt><trkpt lat="43.1760047" lon="11.2652933"><ele>228.33333333333331</ele><time>2026-04-26T12:26:11.617Z</time></trkpt><trkpt lat="43.1760716" lon="11.2651619"><ele>231.0</ele><time>2026-04-26T12:26:13.617Z</time></trkpt><trkpt lat="43.1761156" lon="11.2650878"><ele>233.66666666666669</ele><time>2026-04-26T12:26:14.618Z</time></trkpt><trkpt lat="43.1761506" lon="11.2650115"><ele>236.33333333333334</ele><time>2026-04-26T12:26:15.617Z</time></trkpt><trkpt lat="43.1761599" lon="11.2649234"><ele>239.0</ele><time>2026-04-26T12:26:16.617Z</time></trkpt><trkpt lat="43.1761529" lon="11.2648289"><ele>239.83333333333334</ele><time>2026-04-26T12:26:17.618Z</time></trkpt><trkpt lat="43.1761376" lon="11.264734"><ele>240.66666666666669</ele><time>2026-04-26T12:26:18.617Z</time></trkpt><trkpt lat="43.1761177" lon="11.2646473"><ele>241.5</ele><time>2026-04-26T12:26:19.617Z</time></trkpt><trkpt lat="43.1760918" lon="11.2645683"><ele>242.33333333333331</ele><time>2026-04-26T12:26:20.617Z</time></trkpt><trkpt lat="43.1760541" lon="11.2644386"><ele>243.16666666666666</ele><time>2026-04-26T12:26:22.617Z</time></trkpt><trkpt lat="43.1760389" lon="11.2643078"><ele>244.0</ele><time>2026-04-26T12:26:24.618Z</time></trkpt><trkpt lat="43.1760299" lon="11.2642212"><ele>243.99999999999997</ele><time>2026-04-26T12:26:25.617Z</time></trkpt><trkpt lat="43.176016" lon="11.2641363"><ele>244.0</ele><time>2026-04-26T12:26:26.617Z</time></trkpt><trkpt lat="43.1759892" lon="11.264058"><ele>244.0</ele><time>2026-04-26T12:26:27.617Z</time></trkpt><trkpt lat="43.1759398" lon="11.2639427"><ele>244.0</ele><time>2026-04-26T12:26:29.617Z</time></trkpt><trkpt lat="43.1759006" lon="11.2638739"><ele>243.99999999999997</ele><time>2026-04-26T12:26:30.617Z</time></trkpt><trkpt lat="43.1758307" lon="11.2637899"><ele>244.0</ele><time>2026-04-26T12:26:32.617Z</time></trkpt><trkpt lat="43.1757905" lon="11.2637072"><ele>244.33333333333331</ele><time>2026-04-26T12:26:34.617Z</time></trkpt><trkpt lat="43.1757558" lon="11.2636152"><ele>244.66666666666666</ele><time>2026-04-26T12:26:36.617Z</time></trkpt><trkpt lat="43.1756815" lon="11.2635701"><ele>245.0</ele><time>2026-04-26T12:26:38.617Z</time></trkpt><trkpt lat="43.1756051" lon="11.2635909"><ele>245.33333333333331</ele><time>2026-04-26T12:28:24.618Z</time></trkpt><trkpt lat="43.1755328" lon="11.2636187"><ele>245.66666666666666</ele><time>2026-04-26T12:28:26.617Z</time></trkpt><trkpt lat="43.175449" lon="11.2636452"><ele>246.0</ele><time>2026-04-26T12:28:28.618Z</time></trkpt><trkpt lat="43.1753876" lon="11.2636844"><ele>247.20000000000002</ele><time>2026-04-26T12:28:30.617Z</time></trkpt><trkpt lat="43.1753272" lon="11.2637641"><ele>248.40000000000003</ele><time>2026-04-26T12:28:33.617Z</time></trkpt><trkpt lat="43.1752493" lon="11.2638288"><ele>249.6</ele><time>2026-04-26T12:28:35.617Z</time></trkpt><trkpt lat="43.1751522" lon="11.2638458"><ele>250.8</ele><time>2026-04-26T12:28:37.617Z</time></trkpt><trkpt lat="43.1750327" lon="11.2638296"><ele>252.0</ele><time>2026-04-26T12:28:39.618Z</time></trkpt><trkpt lat="43.1749117" lon="11.2638495"><ele>254.39999999999998</ele><time>2026-04-26T12:28:41.617Z</time></trkpt><trkpt lat="43.1748199" lon="11.2638995"><ele>256.79999999999995</ele><time>2026-04-26T12:28:43.617Z</time></trkpt><trkpt lat="43.1747295" lon="11.263967"><ele>259.2</ele><time>2026-04-26T12:28:45.617Z</time></trkpt><trkpt lat="43.1746412" lon="11.264025"><ele>261.59999999999997</ele><time>2026-04-26T12:28:47.618Z</time></trkpt><trkpt lat="43.1745603" lon="11.264042"><ele>264.0</ele><time>2026-04-26T12:28:49.617Z</time></trkpt><trkpt lat="43.1744883" lon="11.2641169"><ele>264.8</ele><time>2026-04-26T12:29:17.617Z</time></trkpt><trkpt lat="43.1743874" lon="11.2641875"><ele>265.59999999999997</ele><time>2026-04-26T12:29:19.617Z</time></trkpt><trkpt lat="43.1743072" lon="11.2642479"><ele>266.4</ele><time>2026-04-26T12:29:21.617Z</time></trkpt><trkpt lat="43.174219" lon="11.2642449"><ele>267.2</ele><time>2026-04-26T12:29:23.617Z</time></trkpt><trkpt lat="43.1741306" lon="11.2641935"><ele>268.0</ele><time>2026-04-26T12:29:25.617Z</time></trkpt><trkpt lat="43.1740114" lon="11.2642159"><ele>271.8</ele><time>2026-04-26T12:29:27.618Z</time></trkpt><trkpt lat="43.1739449" lon="11.264242"><ele>275.6</ele><time>2026-04-26T12:29:28.617Z</time></trkpt><trkpt lat="43.1738453" lon="11.2642901"><ele>279.4</ele><time>2026-04-26T12:29:30.617Z</time></trkpt><trkpt lat="43.1737581" lon="11.2643524"><ele>283.2</ele><time>2026-04-26T12:29:32.617Z</time></trkpt><trkpt lat="43.1736664" lon="11.2644254"><ele>287.0</ele><time>2026-04-26T12:29:34.617Z</time></trkpt><trkpt lat="43.1735679" lon="11.264521"><ele>287.0</ele><time>2026-04-26T12:29:36.617Z</time></trkpt><trkpt lat="43.1735181" lon="11.2645739"><ele>287.0</ele><time>2026-04-26T12:29:37.617Z</time></trkpt><trkpt lat="43.1734128" lon="11.2646781"><ele>287.0</ele><time>2026-04-26T12:29:39.617Z</time></trkpt><trkpt lat="43.1733695" lon="11.2647418"><ele>287.0</ele><time>2026-04-26T12:29:40.617Z</time></trkpt><trkpt lat="43.1733314" lon="11.2648466"><ele>287.0</ele><time>2026-04-26T12:29:42.618Z</time></trkpt><trkpt lat="43.1733118" lon="11.2649515"><ele>287.0</ele><time>2026-04-26T12:29:44.618Z</time></trkpt><trkpt lat="43.173295" lon="11.265089"><ele>287.0</ele><time>2026-04-26T12:29:46.618Z</time></trkpt><trkpt lat="43.1732668" lon="11.2652289"><ele>287.0</ele><time>2026-04-26T12:29:48.618Z</time></trkpt><trkpt lat="43.1732556" lon="11.2653747"><ele>287.0</ele><time>2026-04-26T12:29:50.618Z</time></trkpt><trkpt lat="43.1732494" lon="11.2655395"><ele>287.0</ele><time>2026-04-26T12:29:52.617Z</time></trkpt><trkpt lat="43.1732021" lon="11.26566"><ele>287.0</ele><time>2026-04-26T12:29:54.617Z</time></trkpt><trkpt lat="43.1731355" lon="11.2657813"><ele>287.5</ele><time>2026-04-26T12:29:56.617Z</time></trkpt><trkpt lat="43.1731103" lon="11.2658606"><ele>288.0</ele><time>2026-04-26T12:29:57.617Z</time></trkpt><trkpt lat="43.1730611" lon="11.2659855"><ele>288.5</ele><time>2026-04-26T12:29:59.617Z</time></trkpt><trkpt lat="43.1730257" lon="11.2660589"><ele>289.0</ele><time>2026-04-26T12:30:02.617Z</time></trkpt><trkpt lat="43.1730878" lon="11.2659109"><ele>289.5</ele><time>2026-04-26T12:30:42.616Z</time></trkpt><trkpt lat="43.1731174" lon="11.2658168"><ele>290.0</ele><time>2026-04-26T12:30:43.616Z</time></trkpt><trkpt lat="43.1731497" lon="11.2657182"><ele>290.0</ele><time>2026-04-26T12:30:44.616Z</time></trkpt><trkpt lat="43.1731829" lon="11.2656404"><ele>290.0</ele><time>2026-04-26T12:30:45.616Z</time></trkpt><trkpt lat="43.173244" lon="11.2655212"><ele>290.0</ele><time>2026-04-26T12:30:47.616Z</time></trkpt><trkpt lat="43.1732891" lon="11.2653991"><ele>290.0</ele><time>2026-04-26T12:30:49.616Z</time></trkpt><trkpt lat="43.1733103" lon="11.2652511"><ele>290.0</ele><time>2026-04-26T12:30:51.616Z</time></trkpt><trkpt lat="43.1733302" lon="11.2650911"><ele>289.6666666666667</ele><time>2026-04-26T12:30:53.616Z</time></trkpt><trkpt lat="43.1733385" lon="11.2649956"><ele>289.33333333333337</ele><time>2026-04-26T12:30:54.616Z</time></trkpt><trkpt lat="43.1733398" lon="11.2648884"><ele>289.0</ele><time>2026-04-26T12:30:55.616Z</time></trkpt><trkpt lat="43.1733479" lon="11.2647898"><ele>288.6666666666667</ele><time>2026-04-26T12:30:56.616Z</time></trkpt><trkpt lat="43.1733705" lon="11.264705"><ele>288.3333333333333</ele><time>2026-04-26T12:30:57.616Z</time></trkpt><trkpt lat="43.1734466" lon="11.2645963"><ele>288.0</ele><time>2026-04-26T12:30:59.617Z</time></trkpt><trkpt lat="43.1735553" lon="11.264495"><ele>287.8571428571429</ele><time>2026-04-26T12:31:01.616Z</time></trkpt><trkpt lat="43.1736193" lon="11.2644396"><ele>287.7142857142857</ele><time>2026-04-26T12:31:02.617Z</time></trkpt><trkpt lat="43.1736821" lon="11.2643804"><ele>287.57142857142856</ele><time>2026-04-26T12:31:03.616Z</time></trkpt><trkpt lat="43.1737463" lon="11.2643321"><ele>287.42857142857144</ele><time>2026-04-26T12:31:04.616Z</time></trkpt><trkpt lat="43.1738063" lon="11.2642933"><ele>287.2857142857143</ele><time>2026-04-26T12:31:05.616Z</time></trkpt><trkpt lat="43.1738737" lon="11.26424"><ele>287.14285714285717</ele><time>2026-04-26T12:31:08.616Z</time></trkpt><trkpt lat="43.1739498" lon="11.2642136"><ele>287.0</ele><time>2026-04-26T12:31:11.616Z</time></trkpt><trkpt lat="43.1740509" lon="11.2641946"><ele>283.83333333333337</ele><time>2026-04-26T12:31:13.616Z</time></trkpt><trkpt lat="43.1741282" lon="11.2641816"><ele>280.6666666666667</ele><time>2026-04-26T12:31:15.616Z</time></trkpt><trkpt lat="43.1742055" lon="11.2642207"><ele>277.5</ele><time>2026-04-26T12:31:19.616Z</time></trkpt><trkpt lat="43.1742878" lon="11.2642551"><ele>274.3333333333333</ele><time>2026-04-26T12:31:21.616Z</time></trkpt><trkpt lat="43.174345" lon="11.2642151"><ele>271.16666666666663</ele><time>2026-04-26T12:31:23.616Z</time></trkpt><trkpt lat="43.1744412" lon="11.2641326"><ele>268.0</ele><time>2026-04-26T12:31:25.616Z</time></trkpt><trkpt lat="43.1745364" lon="11.2640675"><ele>268.0</ele><time>2026-04-26T12:31:27.617Z</time></trkpt><trkpt lat="43.1746052" lon="11.2640392"><ele>268.0</ele><time>2026-04-26T12:31:29.616Z</time></trkpt><trkpt lat="43.1746733" lon="11.2639993"><ele>268.0</ele><time>2026-04-26T12:31:31.616Z</time></trkpt><trkpt lat="43.1747678" lon="11.2639363"><ele>268.0</ele><time>2026-04-26T12:31:33.616Z</time></trkpt><trkpt lat="43.1748295" lon="11.2639002"><ele>268.0</ele><time>2026-04-26T12:31:34.616Z</time></trkpt><trkpt lat="43.1748926" lon="11.2638672"><ele>268.0</ele><time>2026-04-26T12:31:35.616Z</time></trkpt><trkpt lat="43.1749549" lon="11.2638344"><ele>264.8</ele><time>2026-04-26T12:31:36.616Z</time></trkpt><trkpt lat="43.1750745" lon="11.2638109"><ele>261.6</ele><time>2026-04-26T12:31:38.616Z</time></trkpt><trkpt lat="43.1751821" lon="11.2638203"><ele>258.4</ele><time>2026-04-26T12:31:40.617Z</time></trkpt><trkpt lat="43.1752842" lon="11.2637855"><ele>255.2</ele><time>2026-04-26T12:31:42.616Z</time></trkpt><trkpt lat="43.1753528" lon="11.2637214"><ele>252.0</ele><time>2026-04-26T12:31:44.616Z</time></trkpt><trkpt lat="43.1754105" lon="11.2636773"><ele>252.0</ele><time>2026-04-26T12:31:46.616Z</time></trkpt><trkpt lat="43.1754849" lon="11.2636327"><ele>252.0</ele><time>2026-04-26T12:31:56.617Z</time></trkpt><trkpt lat="43.1755633" lon="11.2635853"><ele>252.0</ele><time>2026-04-26T12:31:59.616Z</time></trkpt><trkpt lat="43.1756294" lon="11.2635794"><ele>252.0</ele><time>2026-04-26T12:32:02.617Z</time></trkpt><trkpt lat="43.1756841" lon="11.2635228"><ele>252.0</ele><time>2026-04-26T12:32:10.616Z</time></trkpt><trkpt lat="43.175679" lon="11.2634349"><ele>252.0</ele><time>2026-04-26T12:32:13.616Z</time></trkpt><trkpt lat="43.1756424" lon="11.2633588"><ele>252.0</ele><time>2026-04-26T12:32:15.617Z</time></trkpt><trkpt lat="43.1756053" lon="11.2632859"><ele>252.0</ele><time>2026-04-26T12:32:17.616Z</time></trkpt><trkpt lat="43.1755598" lon="11.2632129"><ele>252.0</ele><time>2026-04-26T12:32:20.616Z</time></trkpt><trkpt lat="43.1754737" lon="11.2631485"><ele>252.0</ele><time>2026-04-26T12:32:23.616Z</time></trkpt><trkpt lat="43.1753768" lon="11.2631155"><ele>252.0</ele><time>2026-04-26T12:32:25.616Z</time></trkpt><trkpt lat="43.1752761" lon="11.2630885"><ele>252.0</ele><time>2026-04-26T12:32:27.616Z</time></trkpt><trkpt lat="43.1751639" lon="11.2630572"><ele>251.0</ele><time>2026-04-26T12:32:29.616Z</time></trkpt><trkpt lat="43.1750591" lon="11.2630368"><ele>250.0</ele><time>2026-04-26T12:32:31.617Z</time></trkpt><trkpt lat="43.1749459" lon="11.2630354"><ele>249.0</ele><time>2026-04-26T12:32:33.616Z</time></trkpt><trkpt lat="43.1748436" lon="11.2630453"><ele>248.0</ele><time>2026-04-26T12:32:35.616Z</time></trkpt><trkpt lat="43.1747336" lon="11.2630381"><ele>247.0</ele><time>2026-04-26T12:32:37.616Z</time></trkpt><trkpt lat="43.1746645" lon="11.26295"><ele>252.0</ele><time>2026-04-26T12:32:39.616Z</time></trkpt><trkpt lat="43.174632" lon="11.262806"><ele>257.0</ele><time>2026-04-26T12:32:41.616Z</time></trkpt><trkpt lat="43.1746186" lon="11.2626522"><ele>262.0</ele><time>2026-04-26T12:32:43.616Z</time></trkpt><trkpt lat="43.1746163" lon="11.262531"><ele>267.0</ele><time>2026-04-26T12:32:45.617Z</time></trkpt><trkpt lat="43.1745901" lon="11.2624408"><ele>272.0</ele><time>2026-04-26T12:32:46.616Z</time></trkpt><trkpt lat="43.1745548" lon="11.2623538"><ele>273.8</ele><time>2026-04-26T12:32:47.616Z</time></trkpt><trkpt lat="43.1745266" lon="11.2622726"><ele>275.6</ele><time>2026-04-26T12:32:48.616Z</time></trkpt><trkpt lat="43.1744988" lon="11.2621287"><ele>277.40000000000003</ele><time>2026-04-26T12:32:50.616Z</time></trkpt><trkpt lat="43.1744901" lon="11.2619868"><ele>279.2</ele><time>2026-04-26T12:32:52.616Z</time></trkpt><trkpt lat="43.1745228" lon="11.2618197"><ele>281.0</ele><time>2026-04-26T12:32:54.616Z</time></trkpt><trkpt lat="43.1745507" lon="11.2617366"><ele>281.0</ele><time>2026-04-26T12:32:55.616Z</time></trkpt><trkpt lat="43.1746087" lon="11.261607"><ele>281.0</ele><time>2026-04-26T12:32:57.616Z</time></trkpt><trkpt lat="43.1746646" lon="11.2614903"><ele>281.0</ele><time>2026-04-26T12:32:59.616Z</time></trkpt><trkpt lat="43.1746557" lon="11.2613517"><ele>281.0</ele><time>2026-04-26T12:33:01.616Z</time></trkpt><trkpt lat="43.1746118" lon="11.2612452"><ele>281.0</ele><time>2026-04-26T12:33:03.616Z</time></trkpt><trkpt lat="43.1745256" lon="11.2612162"><ele>281.0</ele><time>2026-04-26T12:33:14.616Z</time></trkpt><trkpt lat="43.1744495" lon="11.2611778"><ele>281.0</ele><time>2026-04-26T12:33:16.616Z</time></trkpt><trkpt lat="43.1743389" lon="11.2611443"><ele>281.0</ele><time>2026-04-26T12:33:18.616Z</time></trkpt><trkpt lat="43.1742411" lon="11.2610942"><ele>281.0</ele><time>2026-04-26T12:33:20.616Z</time></trkpt><trkpt lat="43.1741556" lon="11.2610129"><ele>281.0</ele><time>2026-04-26T12:33:22.616Z</time></trkpt><trkpt lat="43.1740702" lon="11.2609207"><ele>282.6</ele><time>2026-04-26T12:33:24.616Z</time></trkpt><trkpt lat="43.1739761" lon="11.2608264"><ele>284.20000000000005</ele><time>2026-04-26T12:33:26.616Z</time></trkpt><trkpt lat="43.1739287" lon="11.2607663"><ele>285.79999999999995</ele><time>2026-04-26T12:33:27.616Z</time></trkpt><trkpt lat="43.1738427" lon="11.2606581"><ele>287.4</ele><time>2026-04-26T12:33:29.616Z</time></trkpt><trkpt lat="43.173763" lon="11.2605499"><ele>289.0</ele><time>2026-04-26T12:33:31.616Z</time></trkpt><trkpt lat="43.1737072" lon="11.2604203"><ele>289.0</ele><time>2026-04-26T12:33:33.616Z</time></trkpt><trkpt lat="43.1736748" lon="11.2602843"><ele>289.0</ele><time>2026-04-26T12:33:35.616Z</time></trkpt><trkpt lat="43.1736534" lon="11.2601469"><ele>289.0</ele><time>2026-04-26T12:33:37.616Z</time></trkpt><trkpt lat="43.1736445" lon="11.260057"><ele>289.0</ele><time>2026-04-26T12:33:38.616Z</time></trkpt><trkpt lat="43.1736516" lon="11.2599499"><ele>289.0</ele><time>2026-04-26T12:33:39.616Z</time></trkpt><trkpt lat="43.1736556" lon="11.25985"><ele>289.0</ele><time>2026-04-26T12:33:40.616Z</time></trkpt><trkpt lat="43.1736355" lon="11.259684"><ele>287.8333333333333</ele><time>2026-04-26T12:33:42.616Z</time></trkpt><trkpt lat="43.1736085" lon="11.2595172"><ele>286.66666666666663</ele><time>2026-04-26T12:33:44.616Z</time></trkpt><trkpt lat="43.1735982" lon="11.259427"><ele>285.5</ele><time>2026-04-26T12:33:45.616Z</time></trkpt><trkpt lat="43.1735655" lon="11.2592752"><ele>284.3333333333333</ele><time>2026-04-26T12:33:47.616Z</time></trkpt><trkpt lat="43.1735749" lon="11.2591743"><ele>283.1666666666667</ele><time>2026-04-26T12:33:50.617Z</time></trkpt><trkpt lat="43.1736306" lon="11.259124"><ele>282.0</ele><time>2026-04-26T12:34:21.616Z</time></trkpt><trkpt lat="43.1736467" lon="11.2590397"><ele>280.8333333333333</ele><time>2026-04-26T12:34:26.616Z</time></trkpt><trkpt lat="43.1736743" lon="11.2589473"><ele>279.6666666666667</ele><time>2026-04-26T12:34:28.616Z</time></trkpt><trkpt lat="43.1737088" lon="11.2588595"><ele>278.5</ele><time>2026-04-26T12:34:30.616Z</time></trkpt><trkpt lat="43.1737462" lon="11.2587653"><ele>277.33333333333337</ele><time>2026-04-26T12:34:32.616Z</time></trkpt><trkpt lat="43.1738044" lon="11.2586829"><ele>276.1666666666667</ele><time>2026-04-26T12:34:34.617Z</time></trkpt><trkpt lat="43.1738565" lon="11.2586195"><ele>275.0</ele><time>2026-04-26T12:34:36.616Z</time></trkpt><trkpt lat="43.1739258" lon="11.2585439"><ele>275.0</ele><time>2026-04-26T12:34:39.616Z</time></trkpt><trkpt lat="43.1739814" lon="11.2584712"><ele>275.0</ele><time>2026-04-26T12:34:42.617Z</time></trkpt><trkpt lat="43.1740415" lon="11.2584063"><ele>275.0</ele><time>2026-04-26T12:34:45.616Z</time></trkpt><trkpt lat="43.1741052" lon="11.2583675"><ele>275.0</ele><time>2026-04-26T12:34:47.616Z</time></trkpt><trkpt lat="43.1741764" lon="11.2583559"><ele>275.0</ele><time>2026-04-26T12:34:49.617Z</time></trkpt><trkpt lat="43.1742526" lon="11.2583506"><ele>275.0</ele><time>2026-04-26T12:34:51.616Z</time></trkpt><trkpt lat="43.1743225" lon="11.2583268"><ele>275.0</ele><time>2026-04-26T12:34:53.617Z</time></trkpt><trkpt lat="43.1743939" lon="11.2583206"><ele>274.1666666666667</ele><time>2026-04-26T12:34:55.616Z</time></trkpt><trkpt lat="43.1744938" lon="11.2582715"><ele>273.33333333333337</ele><time>2026-04-26T12:34:57.616Z</time></trkpt><trkpt lat="43.1745785" lon="11.2582201"><ele>272.5</ele><time>2026-04-26T12:34:59.616Z</time></trkpt><trkpt lat="43.1746371" lon="11.2581778"><ele>271.6666666666667</ele><time>2026-04-26T12:35:01.616Z</time></trkpt><trkpt lat="43.1746969" lon="11.2581315"><ele>270.8333333333333</ele><time>2026-04-26T12:35:03.616Z</time></trkpt><trkpt lat="43.174772" lon="11.258077"><ele>270.0</ele><time>2026-04-26T12:35:05.616Z</time></trkpt><trkpt lat="43.1748452" lon="11.2580125"><ele>271.8333333333333</ele><time>2026-04-26T12:35:07.616Z</time></trkpt><trkpt lat="43.1749037" lon="11.257952"><ele>273.6666666666667</ele><time>2026-04-26T12:35:09.616Z</time></trkpt><trkpt lat="43.1749646" lon="11.2578702"><ele>275.5</ele><time>2026-04-26T12:35:11.617Z</time></trkpt><trkpt lat="43.1750355" lon="11.257787"><ele>277.33333333333337</ele><time>2026-04-26T12:35:13.616Z</time></trkpt><trkpt lat="43.1751145" lon="11.2577012"><ele>279.1666666666667</ele><time>2026-04-26T12:35:15.617Z</time></trkpt><trkpt lat="43.1751687" lon="11.2576155"><ele>281.0</ele><time>2026-04-26T12:35:17.617Z</time></trkpt><trkpt lat="43.1752341" lon="11.2575264"><ele>281.0</ele><time>2026-04-26T12:35:19.616Z</time></trkpt><trkpt lat="43.1752965" lon="11.2574447"><ele>281.0</ele><time>2026-04-26T12:35:21.616Z</time></trkpt><trkpt lat="43.1753725" lon="11.2573707"><ele>281.0</ele><time>2026-04-26T12:35:23.616Z</time></trkpt><trkpt lat="43.1754435" lon="11.2572956"><ele>281.0</ele><time>2026-04-26T12:35:25.616Z</time></trkpt><trkpt lat="43.1755188" lon="11.2572271"><ele>281.0</ele><time>2026-04-26T12:35:27.617Z</time></trkpt><trkpt lat="43.1755868" lon="11.2571467"><ele>281.0</ele><time>2026-04-26T12:35:29.616Z</time></trkpt><trkpt lat="43.1756509" lon="11.2570654"><ele>281.6666666666667</ele><time>2026-04-26T12:35:31.616Z</time></trkpt><trkpt lat="43.1757197" lon="11.2570065"><ele>282.33333333333337</ele><time>2026-04-26T12:35:33.616Z</time></trkpt><trkpt lat="43.1757889" lon="11.2569341"><ele>283.0</ele><time>2026-04-26T12:35:35.616Z</time></trkpt><trkpt lat="43.1758537" lon="11.2568479"><ele>283.6666666666667</ele><time>2026-04-26T12:35:37.616Z</time></trkpt><trkpt lat="43.1759154" lon="11.2567703"><ele>284.3333333333333</ele><time>2026-04-26T12:35:39.616Z</time></trkpt><trkpt lat="43.1759785" lon="11.2567077"><ele>285.0</ele><time>2026-04-26T12:35:41.616Z</time></trkpt><trkpt lat="43.1760507" lon="11.2566714"><ele>285.0</ele><time>2026-04-26T12:35:43.617Z</time></trkpt><trkpt lat="43.1761232" lon="11.2566373"><ele>285.0</ele><time>2026-04-26T12:35:45.617Z</time></trkpt><trkpt lat="43.1761886" lon="11.2565531"><ele>285.0</ele><time>2026-04-26T12:35:47.616Z</time></trkpt><trkpt lat="43.1762422" lon="11.2564694"><ele>285.0</ele><time>2026-04-26T12:35:49.616Z</time></trkpt><trkpt lat="43.1763033" lon="11.2563774"><ele>285.0</ele><time>2026-04-26T12:35:51.616Z</time></trkpt><trkpt lat="43.176369" lon="11.2562828"><ele>285.0</ele><time>2026-04-26T12:35:53.616Z</time></trkpt><trkpt lat="43.1764311" lon="11.2561793"><ele>284.8</ele><time>2026-04-26T12:35:55.616Z</time></trkpt><trkpt lat="43.1765069" lon="11.2560747"><ele>284.6</ele><time>2026-04-26T12:35:57.616Z</time></trkpt><trkpt lat="43.1765728" lon="11.2559704"><ele>284.4</ele><time>2026-04-26T12:35:59.616Z</time></trkpt><trkpt lat="43.1766212" lon="11.2558815"><ele>284.2</ele><time>2026-04-26T12:36:01.616Z</time></trkpt><trkpt lat="43.1766803" lon="11.2557862"><ele>284.0</ele><time>2026-04-26T12:36:04.616Z</time></trkpt><trkpt lat="43.1766727" lon="11.255688"><ele>284.33333333333337</ele><time>2026-04-26T12:36:07.616Z</time></trkpt><trkpt lat="43.1766713" lon="11.2555895"><ele>284.6666666666667</ele><time>2026-04-26T12:36:10.616Z</time></trkpt><trkpt lat="43.1766403" lon="11.2554716"><ele>285.0</ele><time>2026-04-26T12:36:13.616Z</time></trkpt><trkpt lat="43.1766015" lon="11.2553839"><ele>285.3333333333333</ele><time>2026-04-26T12:36:15.616Z</time></trkpt><trkpt lat="43.176556" lon="11.2553202"><ele>285.66666666666663</ele><time>2026-04-26T12:36:17.616Z</time></trkpt><trkpt lat="43.1765004" lon="11.2552237"><ele>286.0</ele><time>2026-04-26T12:36:20.617Z</time></trkpt><trkpt lat="43.1764704" lon="11.2551436"><ele>282.85714285714283</ele><time>2026-04-26T12:36:22.616Z</time></trkpt><trkpt lat="43.176438" lon="11.2550567"><ele>279.7142857142857</ele><time>2026-04-26T12:36:25.616Z</time></trkpt><trkpt lat="43.1764075" lon="11.2549661"><ele>276.57142857142856</ele><time>2026-04-26T12:36:27.616Z</time></trkpt><trkpt lat="43.1763863" lon="11.2548812"><ele>273.42857142857144</ele><time>2026-04-26T12:36:29.616Z</time></trkpt><trkpt lat="43.1763616" lon="11.2547943"><ele>270.2857142857143</ele><time>2026-04-26T12:36:38.617Z</time></trkpt><trkpt lat="43.1763791" lon="11.2547064"><ele>267.1428571428571</ele><time>2026-04-26T12:36:47.616Z</time></trkpt><trkpt lat="43.1764106" lon="11.2546287"><ele>264.0</ele><time>2026-04-26T12:36:50.615Z</time></trkpt><trkpt lat="43.176429" lon="11.2545303"><ele>262.85714285714283</ele><time>2026-04-26T12:36:54.615Z</time></trkpt><trkpt lat="43.1764543" lon="11.2544185"><ele>261.7142857142857</ele><time>2026-04-26T12:36:57.616Z</time></trkpt><trkpt lat="43.1764587" lon="11.2543211"><ele>260.57142857142856</ele><time>2026-04-26T12:36:59.615Z</time></trkpt><trkpt lat="43.1764543" lon="11.254217"><ele>259.42857142857144</ele><time>2026-04-26T12:37:01.615Z</time></trkpt><trkpt lat="43.1764526" lon="11.2541257"><ele>258.2857142857143</ele><time>2026-04-26T12:37:03.615Z</time></trkpt><trkpt lat="43.1764488" lon="11.2540256"><ele>257.1428571428571</ele><time>2026-04-26T12:37:06.616Z</time></trkpt><trkpt lat="43.1764621" lon="11.2539364"><ele>256.0</ele><time>2026-04-26T12:37:14.615Z</time></trkpt><trkpt lat="43.1764918" lon="11.2538451"><ele>254.99999999999997</ele><time>2026-04-26T12:37:20.615Z</time></trkpt><trkpt lat="43.1765154" lon="11.2537628"><ele>254.0</ele><time>2026-04-26T12:37:53.615Z</time></trkpt><trkpt lat="43.1765398" lon="11.2536786"><ele>253.0</ele><time>2026-04-26T12:37:58.615Z</time></trkpt><trkpt lat="43.17658" lon="11.253588"><ele>252.0</ele><time>2026-04-26T12:38:02.615Z</time></trkpt><trkpt lat="43.1766188" lon="11.2534978"><ele>250.99999999999997</ele><time>2026-04-26T12:38:10.615Z</time></trkpt><trkpt lat="43.1766831" lon="11.2534357"><ele>250.0</ele><time>2026-04-26T12:38:13.615Z</time></trkpt><trkpt lat="43.1767683" lon="11.2533884"><ele>252.14285714285714</ele><time>2026-04-26T12:38:16.615Z</time></trkpt><trkpt lat="43.1768319" lon="11.2533504"><ele>254.28571428571428</ele><time>2026-04-26T12:38:18.615Z</time></trkpt><trkpt lat="43.176897" lon="11.253304"><ele>256.42857142857144</ele><time>2026-04-26T12:38:21.615Z</time></trkpt><trkpt lat="43.1769541" lon="11.2532539"><ele>258.57142857142856</ele><time>2026-04-26T12:38:27.616Z</time></trkpt><trkpt lat="43.1769926" lon="11.2531844"><ele>260.7142857142857</ele><time>2026-04-26T12:38:56.615Z</time></trkpt><trkpt lat="43.177022" lon="11.2530745"><ele>262.85714285714283</ele><time>2026-04-26T12:38:59.615Z</time></trkpt><trkpt lat="43.1770325" lon="11.2529544"><ele>265.0</ele><time>2026-04-26T12:39:02.615Z</time></trkpt><trkpt lat="43.1770282" lon="11.2528509"><ele>265.0</ele><time>2026-04-26T12:39:04.615Z</time></trkpt><trkpt lat="43.1770183" lon="11.2527224"><ele>265.0</ele><time>2026-04-26T12:39:06.615Z</time></trkpt><trkpt lat="43.1770178" lon="11.2526077"><ele>265.0</ele><time>2026-04-26T12:39:08.615Z</time></trkpt><trkpt lat="43.1770159" lon="11.2525167"><ele>265.0</ele><time>2026-04-26T12:39:10.616Z</time></trkpt><trkpt lat="43.177021" lon="11.2524183"><ele>265.0</ele><time>2026-04-26T12:39:13.615Z</time></trkpt><trkpt lat="43.1770034" lon="11.252287"><ele>265.0</ele><time>2026-04-26T12:39:17.615Z</time></trkpt><trkpt lat="43.1770143" lon="11.2521478"><ele>265.5</ele><time>2026-04-26T12:39:19.615Z</time></trkpt><trkpt lat="43.1770228" lon="11.252034"><ele>266.0</ele><time>2026-04-26T12:39:21.615Z</time></trkpt><trkpt lat="43.177043" lon="11.2519298"><ele>266.5</ele><time>2026-04-26T12:39:23.615Z</time></trkpt><trkpt lat="43.1770017" lon="11.2518237"><ele>267.0</ele><time>2026-04-26T12:39:25.615Z</time></trkpt><trkpt lat="43.1769709" lon="11.2516951"><ele>267.5</ele><time>2026-04-26T12:39:27.615Z</time></trkpt><trkpt lat="43.1770131" lon="11.2516187"><ele>268.0</ele><time>2026-04-26T12:39:29.615Z</time></trkpt><trkpt lat="43.1770297" lon="11.2515318"><ele>268.6</ele><time>2026-04-26T12:39:33.615Z</time></trkpt><trkpt lat="43.1770643" lon="11.2514448"><ele>269.20000000000005</ele><time>2026-04-26T12:39:38.615Z</time></trkpt><trkpt lat="43.1770943" lon="11.2513519"><ele>269.8</ele><time>2026-04-26T12:39:40.615Z</time></trkpt><trkpt lat="43.1771011" lon="11.2512305"><ele>270.40000000000003</ele><time>2026-04-26T12:39:42.615Z</time></trkpt><trkpt lat="43.1771395" lon="11.2510781"><ele>271.0</ele><time>2026-04-26T12:39:44.616Z</time></trkpt><trkpt lat="43.1771796" lon="11.2509406"><ele>271.0</ele><time>2026-04-26T12:39:46.615Z</time></trkpt><trkpt lat="43.1772034" lon="11.2508368"><ele>271.0</ele><time>2026-04-26T12:39:48.615Z</time></trkpt><trkpt lat="43.177224" lon="11.2507451"><ele>271.0</ele><time>2026-04-26T12:39:54.616Z</time></trkpt><trkpt lat="43.1771382" lon="11.2507358"><ele>271.0</ele><time>2026-04-26T12:39:57.615Z</time></trkpt><trkpt lat="43.1770221" lon="11.2507108"><ele>271.0</ele><time>2026-04-26T12:39:59.615Z</time></trkpt><trkpt lat="43.1769465" lon="11.25068"><ele>271.0</ele><time>2026-04-26T12:40:00.615Z</time></trkpt><trkpt lat="43.176872" lon="11.2506427"><ele>273.6</ele><time>2026-04-26T12:40:01.615Z</time></trkpt><trkpt lat="43.1767979" lon="11.2506039"><ele>276.20000000000005</ele><time>2026-04-26T12:40:02.616Z</time></trkpt><trkpt lat="43.1767196" lon="11.2505385"><ele>278.79999999999995</ele><time>2026-04-26T12:40:03.616Z</time></trkpt><trkpt lat="43.1766387" lon="11.2504612"><ele>281.4</ele><time>2026-04-26T12:40:04.615Z</time></trkpt><trkpt lat="43.1765479" lon="11.2503814"><ele>284.0</ele><time>2026-04-26T12:40:05.615Z</time></trkpt><trkpt lat="43.1764601" lon="11.2503047"><ele>284.4</ele><time>2026-04-26T12:40:06.615Z</time></trkpt><trkpt lat="43.1763814" lon="11.2502451"><ele>284.79999999999995</ele><time>2026-04-26T12:40:07.615Z</time></trkpt><trkpt lat="43.1763024" lon="11.2502014"><ele>285.20000000000005</ele><time>2026-04-26T12:40:08.615Z</time></trkpt><trkpt lat="43.1762159" lon="11.2501673"><ele>285.6</ele><time>2026-04-26T12:40:09.615Z</time></trkpt><trkpt lat="43.1761187" lon="11.250157"><ele>286.0</ele><time>2026-04-26T12:40:10.615Z</time></trkpt><trkpt lat="43.1760161" lon="11.2501541"><ele>286.0</ele><time>2026-04-26T12:40:11.615Z</time></trkpt><trkpt lat="43.1759068" lon="11.2501696"><ele>286.0</ele><time>2026-04-26T12:40:12.616Z</time></trkpt><trkpt lat="43.1757942" lon="11.250194"><ele>286.0</ele><time>2026-04-26T12:40:13.615Z</time></trkpt><trkpt lat="43.175682" lon="11.2502194"><ele>286.0</ele><time>2026-04-26T12:40:14.615Z</time></trkpt><trkpt lat="43.1755875" lon="11.2502412"><ele>286.0</ele><time>2026-04-26T12:40:15.615Z</time></trkpt><trkpt lat="43.1755129" lon="11.2502556"><ele>287.0</ele><time>2026-04-26T12:40:16.615Z</time></trkpt><trkpt lat="43.1754465" lon="11.2502628"><ele>288.0</ele><time>2026-04-26T12:40:17.616Z</time></trkpt><trkpt lat="43.1753433" lon="11.2502088"><ele>289.0</ele><time>2026-04-26T12:40:19.615Z</time></trkpt><trkpt lat="43.1753194" lon="11.2500846"><ele>290.0</ele><time>2026-04-26T12:40:21.615Z</time></trkpt><trkpt lat="43.1753555" lon="11.2500028"><ele>291.0</ele><time>2026-04-26T12:40:22.615Z</time></trkpt><trkpt lat="43.1753956" lon="11.2499128"><ele>292.0</ele><time>2026-04-26T12:40:23.615Z</time></trkpt><trkpt lat="43.1754391" lon="11.2498112"><ele>293.5</ele><time>2026-04-26T12:40:24.615Z</time></trkpt><trkpt lat="43.1754668" lon="11.2497142"><ele>295.0</ele><time>2026-04-26T12:40:25.615Z</time></trkpt><trkpt lat="43.1754883" lon="11.2496005"><ele>296.5</ele><time>2026-04-26T12:40:26.615Z</time></trkpt><trkpt lat="43.175494" lon="11.2494801"><ele>298.0</ele><time>2026-04-26T12:40:27.616Z</time></trkpt><trkpt lat="43.175507" lon="11.2493568"><ele>299.5</ele><time>2026-04-26T12:40:28.616Z</time></trkpt><trkpt lat="43.1755202" lon="11.2492355"><ele>301.0</ele><time>2026-04-26T12:40:29.615Z</time></trkpt><trkpt lat="43.175538" lon="11.2491365"><ele>301.0</ele><time>2026-04-26T12:40:30.616Z</time></trkpt><trkpt lat="43.1755618" lon="11.2490506"><ele>301.0</ele><time>2026-04-26T12:40:31.615Z</time></trkpt><trkpt lat="43.1755893" lon="11.2489724"><ele>301.0</ele><time>2026-04-26T12:40:32.615Z</time></trkpt><trkpt lat="43.175622" lon="11.2488925"><ele>301.0</ele><time>2026-04-26T12:40:33.615Z</time></trkpt><trkpt lat="43.1756556" lon="11.2488193"><ele>301.0</ele><time>2026-04-26T12:40:34.615Z</time></trkpt><trkpt lat="43.1757228" lon="11.2486819"><ele>301.0</ele><time>2026-04-26T12:40:36.616Z</time></trkpt><trkpt lat="43.1757685" lon="11.248575"><ele>303.2</ele><time>2026-04-26T12:40:46.615Z</time></trkpt><trkpt lat="43.1758227" lon="11.2484448"><ele>305.40000000000003</ele><time>2026-04-26T12:40:48.615Z</time></trkpt><trkpt lat="43.1758537" lon="11.2483095"><ele>307.6</ele><time>2026-04-26T12:40:50.616Z</time></trkpt><trkpt lat="43.175829" lon="11.2481833"><ele>309.8</ele><time>2026-04-26T12:40:52.615Z</time></trkpt><trkpt lat="43.1757824" lon="11.2480643"><ele>312.0</ele><time>2026-04-26T12:40:54.615Z</time></trkpt><trkpt lat="43.1756877" lon="11.247934"><ele>313.4</ele><time>2026-04-26T12:40:56.615Z</time></trkpt><trkpt lat="43.1756098" lon="11.2478653"><ele>314.79999999999995</ele><time>2026-04-26T12:40:57.615Z</time></trkpt><trkpt lat="43.175525" lon="11.2478031"><ele>316.2</ele><time>2026-04-26T12:40:58.616Z</time></trkpt><trkpt lat="43.1754398" lon="11.2477323"><ele>317.59999999999997</ele><time>2026-04-26T12:40:59.615Z</time></trkpt><trkpt lat="43.1753598" lon="11.2476443"><ele>319.0</ele><time>2026-04-26T12:41:00.615Z</time></trkpt><trkpt lat="43.1752857" lon="11.2475518"><ele>319.0</ele><time>2026-04-26T12:41:01.615Z</time></trkpt><trkpt lat="43.175224" lon="11.2474605"><ele>319.0</ele><time>2026-04-26T12:41:02.615Z</time></trkpt><trkpt lat="43.1751734" lon="11.2473591"><ele>319.0</ele><time>2026-04-26T12:41:03.615Z</time></trkpt><trkpt lat="43.1751345" lon="11.2472424"><ele>319.0</ele><time>2026-04-26T12:41:04.616Z</time></trkpt><trkpt lat="43.1750941" lon="11.247109"><ele>319.0</ele><time>2026-04-26T12:41:05.616Z</time></trkpt><trkpt lat="43.1750451" lon="11.2469753"><ele>321.0</ele><time>2026-04-26T12:41:06.615Z</time></trkpt><trkpt lat="43.1749932" lon="11.2468449"><ele>323.0</ele><time>2026-04-26T12:41:07.615Z</time></trkpt><trkpt lat="43.1749497" lon="11.2467285"><ele>325.0</ele><time>2026-04-26T12:41:08.615Z</time></trkpt><trkpt lat="43.1749144" lon="11.2466082"><ele>327.0</ele><time>2026-04-26T12:41:09.615Z</time></trkpt><trkpt lat="43.1748994" lon="11.2464734"><ele>329.0</ele><time>2026-04-26T12:41:10.615Z</time></trkpt><trkpt lat="43.1749052" lon="11.2463136"><ele>330.4</ele><time>2026-04-26T12:41:11.615Z</time></trkpt><trkpt lat="43.1749138" lon="11.2461549"><ele>331.79999999999995</ele><time>2026-04-26T12:41:12.616Z</time></trkpt><trkpt lat="43.1749193" lon="11.246024"><ele>333.20000000000005</ele><time>2026-04-26T12:41:13.615Z</time></trkpt><trkpt lat="43.1749413" lon="11.2459159"><ele>334.6</ele><time>2026-04-26T12:41:14.615Z</time></trkpt><trkpt lat="43.174976" lon="11.2458261"><ele>336.0</ele><time>2026-04-26T12:41:15.615Z</time></trkpt><trkpt lat="43.1750391" lon="11.24575"><ele>336.0</ele><time>2026-04-26T12:41:16.615Z</time></trkpt><trkpt lat="43.1751377" lon="11.2457031"><ele>336.0</ele><time>2026-04-26T12:41:17.615Z</time></trkpt><trkpt lat="43.1752672" lon="11.2456632"><ele>336.0</ele><time>2026-04-26T12:41:18.615Z</time></trkpt><trkpt lat="43.1754063" lon="11.2456169"><ele>336.0</ele><time>2026-04-26T12:41:19.615Z</time></trkpt><trkpt lat="43.1755328" lon="11.2455787"><ele>338.0</ele><time>2026-04-26T12:41:20.615Z</time></trkpt><trkpt lat="43.1756376" lon="11.2455521"><ele>340.0</ele><time>2026-04-26T12:41:21.615Z</time></trkpt><trkpt lat="43.1757226" lon="11.2455112"><ele>342.0</ele><time>2026-04-26T12:41:22.615Z</time></trkpt><trkpt lat="43.1757908" lon="11.2454386"><ele>344.0</ele><time>2026-04-26T12:41:23.615Z</time></trkpt><trkpt lat="43.1758294" lon="11.2453277"><ele>346.0</ele><time>2026-04-26T12:41:24.615Z</time></trkpt><trkpt lat="43.1758346" lon="11.24521"><ele>346.0</ele><time>2026-04-26T12:41:25.615Z</time></trkpt><trkpt lat="43.1758273" lon="11.2451151"><ele>346.0</ele><time>2026-04-26T12:41:26.615Z</time></trkpt><trkpt lat="43.1757772" lon="11.2449945"><ele>346.0</ele><time>2026-04-26T12:41:28.615Z</time></trkpt><trkpt lat="43.175726" lon="11.2449398"><ele>346.0</ele><time>2026-04-26T12:41:31.615Z</time></trkpt><trkpt lat="43.175666" lon="11.2448992"><ele>346.0</ele><time>2026-04-26T12:41:35.615Z</time></trkpt><trkpt lat="43.1755602" lon="11.2448366"><ele>346.0</ele><time>2026-04-26T12:41:37.615Z</time></trkpt><trkpt lat="43.175459" lon="11.2448059"><ele>348.0</ele><time>2026-04-26T12:41:39.616Z</time></trkpt><trkpt lat="43.1753969" lon="11.2447745"><ele>350.0</ele><time>2026-04-26T12:41:40.615Z</time></trkpt><trkpt lat="43.1753353" lon="11.2447322"><ele>352.0</ele><time>2026-04-26T12:41:41.616Z</time></trkpt><trkpt lat="43.175281" lon="11.2446612"><ele>354.0</ele><time>2026-04-26T12:41:42.615Z</time></trkpt><trkpt lat="43.1752243" lon="11.2445498"><ele>356.0</ele><time>2026-04-26T12:41:43.615Z</time></trkpt><trkpt lat="43.1751577" lon="11.2444358"><ele>358.0</ele><time>2026-04-26T12:41:44.615Z</time></trkpt><trkpt lat="43.1750865" lon="11.2443278"><ele>358.0</ele><time>2026-04-26T12:41:45.616Z</time></trkpt><trkpt lat="43.1750192" lon="11.2442314"><ele>358.0</ele><time>2026-04-26T12:41:46.615Z</time></trkpt><trkpt lat="43.1749685" lon="11.2441489"><ele>358.0</ele><time>2026-04-26T12:41:47.615Z</time></trkpt><trkpt lat="43.1748825" lon="11.2440368"><ele>358.0</ele><time>2026-04-26T12:41:49.616Z</time></trkpt><trkpt lat="43.1748361" lon="11.2439704"><ele>358.0</ele><time>2026-04-26T12:41:50.615Z</time></trkpt><trkpt lat="43.1747866" lon="11.2438992"><ele>358.0</ele><time>2026-04-26T12:41:51.615Z</time></trkpt><trkpt lat="43.1747425" lon="11.243832"><ele>358.0</ele><time>2026-04-26T12:41:52.616Z</time></trkpt><trkpt lat="43.174683" lon="11.243728"><ele>358.0</ele><time>2026-04-26T12:41:54.615Z</time></trkpt><trkpt lat="43.17475" lon="11.2438736"><ele>358.0</ele><time>2026-04-26T12:42:04.615Z</time></trkpt><trkpt lat="43.1747973" lon="11.2439531"><ele>358.0</ele><time>2026-04-26T12:42:05.616Z</time></trkpt><trkpt lat="43.174857" lon="11.2440312"><ele>358.0</ele><time>2026-04-26T12:42:06.615Z</time></trkpt><trkpt lat="43.1749235" lon="11.2441157"><ele>358.0</ele><time>2026-04-26T12:42:07.615Z</time></trkpt><trkpt lat="43.174983" lon="11.2442006"><ele>358.0</ele><time>2026-04-26T12:42:08.615Z</time></trkpt><trkpt lat="43.1750379" lon="11.2442859"><ele>358.0</ele><time>2026-04-26T12:42:09.615Z</time></trkpt><trkpt lat="43.1750903" lon="11.2443682"><ele>358.0</ele><time>2026-04-26T12:42:10.615Z</time></trkpt><trkpt lat="43.1751415" lon="11.24445"><ele>358.0</ele><time>2026-04-26T12:42:11.616Z</time></trkpt><trkpt lat="43.1751882" lon="11.2445262"><ele>358.0</ele><time>2026-04-26T12:42:12.615Z</time></trkpt><trkpt lat="43.1752328" lon="11.2445965"><ele>358.00000000000006</ele><time>2026-04-26T12:42:13.616Z</time></trkpt><trkpt lat="43.1752748" lon="11.2446663"><ele>358.0</ele><time>2026-04-26T12:42:14.615Z</time></trkpt><trkpt lat="43.1753238" lon="11.2447291"><ele>358.0</ele><time>2026-04-26T12:42:15.615Z</time></trkpt><trkpt lat="43.1753772" lon="11.2447762"><ele>358.0</ele><time>2026-04-26T12:42:16.615Z</time></trkpt><trkpt lat="43.1754411" lon="11.2448103"><ele>358.0</ele><time>2026-04-26T12:42:17.615Z</time></trkpt><trkpt lat="43.175505" lon="11.2448308"><ele>358.00000000000006</ele><time>2026-04-26T12:42:18.616Z</time></trkpt><trkpt lat="43.1755697" lon="11.2448461"><ele>358.0</ele><time>2026-04-26T12:42:19.615Z</time></trkpt><trkpt lat="43.1756337" lon="11.2448742"><ele>357.3333333333333</ele><time>2026-04-26T12:42:20.615Z</time></trkpt><trkpt lat="43.1756933" lon="11.244917"><ele>356.66666666666663</ele><time>2026-04-26T12:42:21.615Z</time></trkpt><trkpt lat="43.1757404" lon="11.2449771"><ele>356.0</ele><time>2026-04-26T12:42:22.615Z</time></trkpt><trkpt lat="43.1757826" lon="11.2450473"><ele>355.3333333333333</ele><time>2026-04-26T12:42:23.616Z</time></trkpt><trkpt lat="43.1758215" lon="11.2451791"><ele>354.6666666666667</ele><time>2026-04-26T12:42:25.615Z</time></trkpt><trkpt lat="43.1757866" lon="11.2452762"><ele>354.0</ele><time>2026-04-26T12:42:28.615Z</time></trkpt><trkpt lat="43.1758752" lon="11.2453294"><ele>354.0</ele><time>2026-04-26T12:42:42.615Z</time></trkpt><trkpt lat="43.1759385" lon="11.2452867"><ele>354.0</ele><time>2026-04-26T12:42:43.615Z</time></trkpt><trkpt lat="43.176008" lon="11.2452116"><ele>354.0</ele><time>2026-04-26T12:42:44.615Z</time></trkpt><trkpt lat="43.1760813" lon="11.2451429"><ele>354.0</ele><time>2026-04-26T12:42:45.615Z</time></trkpt><trkpt lat="43.1761524" lon="11.2450885"><ele>354.0</ele><time>2026-04-26T12:42:46.615Z</time></trkpt><trkpt lat="43.1762202" lon="11.2450316"><ele>354.0</ele><time>2026-04-26T12:42:47.616Z</time></trkpt><trkpt lat="43.1762752" lon="11.24495"><ele>354.0</ele><time>2026-04-26T12:42:48.615Z</time></trkpt><trkpt lat="43.176329" lon="11.2448466"><ele>354.0</ele><time>2026-04-26T12:42:49.615Z</time></trkpt><trkpt lat="43.1763863" lon="11.2447396"><ele>354.0</ele><time>2026-04-26T12:42:50.615Z</time></trkpt><trkpt lat="43.17645" lon="11.2446254"><ele>354.0</ele><time>2026-04-26T12:42:51.615Z</time></trkpt><trkpt lat="43.1765178" lon="11.2445216"><ele>354.0</ele><time>2026-04-26T12:42:52.615Z</time></trkpt><trkpt lat="43.1765859" lon="11.2444332"><ele>356.1666666666667</ele><time>2026-04-26T12:42:53.615Z</time></trkpt><trkpt lat="43.1766586" lon="11.2443493"><ele>358.3333333333333</ele><time>2026-04-26T12:42:54.615Z</time></trkpt><trkpt lat="43.17672" lon="11.2442818"><ele>360.5</ele><time>2026-04-26T12:42:55.615Z</time></trkpt><trkpt lat="43.1767583" lon="11.2442123"><ele>362.66666666666663</ele><time>2026-04-26T12:42:56.615Z</time></trkpt><trkpt lat="43.1767886" lon="11.2441203"><ele>364.8333333333333</ele><time>2026-04-26T12:42:57.615Z</time></trkpt><trkpt lat="43.1768143" lon="11.2440069"><ele>367.0</ele><time>2026-04-26T12:42:58.615Z</time></trkpt><trkpt lat="43.1768435" lon="11.2438914"><ele>369.0</ele><time>2026-04-26T12:42:59.615Z</time></trkpt><trkpt lat="43.1768761" lon="11.2437796"><ele>371.0</ele><time>2026-04-26T12:43:00.615Z</time></trkpt><trkpt lat="43.1768944" lon="11.2436888"><ele>373.0</ele><time>2026-04-26T12:43:01.615Z</time></trkpt><trkpt lat="43.1769081" lon="11.2435953"><ele>375.0</ele><time>2026-04-26T12:43:02.615Z</time></trkpt><trkpt lat="43.1769416" lon="11.2434858"><ele>377.0</ele><time>2026-04-26T12:43:03.615Z</time></trkpt><trkpt lat="43.1769817" lon="11.2433629"><ele>379.0</ele><time>2026-04-26T12:43:04.615Z</time></trkpt><trkpt lat="43.177026" lon="11.2432363"><ele>381.0</ele><time>2026-04-26T12:43:05.615Z</time></trkpt><trkpt lat="43.1770705" lon="11.2431217"><ele>383.0</ele><time>2026-04-26T12:43:06.615Z</time></trkpt><trkpt lat="43.1771219" lon="11.2430281"><ele>385.0</ele><time>2026-04-26T12:43:07.615Z</time></trkpt><trkpt lat="43.1771724" lon="11.2429452"><ele>387.0</ele><time>2026-04-26T12:43:08.616Z</time></trkpt><trkpt lat="43.1772245" lon="11.2428607"><ele>389.00000000000006</ele><time>2026-04-26T12:43:09.616Z</time></trkpt><trkpt lat="43.1772671" lon="11.2427828"><ele>391.0</ele><time>2026-04-26T12:43:10.615Z</time></trkpt><trkpt lat="43.1773126" lon="11.2426912"><ele>390.00000000000006</ele><time>2026-04-26T12:43:11.615Z</time></trkpt><trkpt lat="43.177356" lon="11.24259"><ele>389.0</ele><time>2026-04-26T12:43:12.616Z</time></trkpt><trkpt lat="43.1774128" lon="11.2425026"><ele>388.0</ele><time>2026-04-26T12:43:13.615Z</time></trkpt><trkpt lat="43.1774611" lon="11.2424215"><ele>387.0</ele><time>2026-04-26T12:43:14.616Z</time></trkpt><trkpt lat="43.1774901" lon="11.242322"><ele>386.00000000000006</ele><time>2026-04-26T12:43:15.616Z</time></trkpt><trkpt lat="43.1775187" lon="11.2421969"><ele>385.0</ele><time>2026-04-26T12:43:16.615Z</time></trkpt><trkpt lat="43.1775455" lon="11.2420817"><ele>385.0</ele><time>2026-04-26T12:43:17.615Z</time></trkpt><trkpt lat="43.1775831" lon="11.2419988"><ele>385.0</ele><time>2026-04-26T12:43:18.615Z</time></trkpt><trkpt lat="43.1776338" lon="11.2419392"><ele>385.0</ele><time>2026-04-26T12:43:19.614Z</time></trkpt><trkpt lat="43.1776981" lon="11.2419057"><ele>385.0</ele><time>2026-04-26T12:43:20.614Z</time></trkpt><trkpt lat="43.1777617" lon="11.2418828"><ele>385.0</ele><time>2026-04-26T12:43:21.614Z</time></trkpt><trkpt lat="43.1778217" lon="11.2418506"><ele>385.0</ele><time>2026-04-26T12:43:22.615Z</time></trkpt><trkpt lat="43.1778845" lon="11.2417917"><ele>385.0</ele><time>2026-04-26T12:43:23.614Z</time></trkpt><trkpt lat="43.177946" lon="11.2417091"><ele>385.00000000000006</ele><time>2026-04-26T12:43:24.614Z</time></trkpt><trkpt lat="43.1780183" lon="11.2416054"><ele>385.0</ele><time>2026-04-26T12:43:25.614Z</time></trkpt><trkpt lat="43.1780953" lon="11.2415151"><ele>385.0</ele><time>2026-04-26T12:43:26.614Z</time></trkpt><trkpt lat="43.1781584" lon="11.2414406"><ele>385.0</ele><time>2026-04-26T12:43:27.614Z</time></trkpt><trkpt lat="43.1781934" lon="11.2413578"><ele>385.00000000000006</ele><time>2026-04-26T12:43:28.614Z</time></trkpt><trkpt lat="43.1782209" lon="11.2412672"><ele>385.0</ele><time>2026-04-26T12:43:29.614Z</time></trkpt><trkpt lat="43.1782494" lon="11.241186"><ele>385.6666666666667</ele><time>2026-04-26T12:43:30.614Z</time></trkpt><trkpt lat="43.1782853" lon="11.2411034"><ele>386.33333333333337</ele><time>2026-04-26T12:43:31.614Z</time></trkpt><trkpt lat="43.1783303" lon="11.2410257"><ele>387.0</ele><time>2026-04-26T12:43:32.614Z</time></trkpt><trkpt lat="43.1783714" lon="11.2409445"><ele>387.66666666666663</ele><time>2026-04-26T12:43:33.614Z</time></trkpt><trkpt lat="43.1784049" lon="11.2408696"><ele>388.3333333333333</ele><time>2026-04-26T12:43:34.614Z</time></trkpt><trkpt lat="43.1784724" lon="11.2407439"><ele>389.0</ele><time>2026-04-26T12:43:36.614Z</time></trkpt><trkpt lat="43.1785453" lon="11.240748"><ele>388.99999999999994</ele><time>2026-04-26T12:43:38.614Z</time></trkpt><trkpt lat="43.1786668" lon="11.240831"><ele>389.0</ele><time>2026-04-26T12:43:40.614Z</time></trkpt><trkpt lat="43.178732" lon="11.2408809"><ele>389.0</ele><time>2026-04-26T12:43:41.614Z</time></trkpt><trkpt lat="43.1788029" lon="11.2409081"><ele>389.0</ele><time>2026-04-26T12:43:42.614Z</time></trkpt><trkpt lat="43.1788724" lon="11.240923"><ele>388.99999999999994</ele><time>2026-04-26T12:43:43.614Z</time></trkpt><trkpt lat="43.1789493" lon="11.2409354"><ele>389.0</ele><time>2026-04-26T12:43:44.614Z</time></trkpt><trkpt lat="43.1790214" lon="11.2409487"><ele>391.8333333333333</ele><time>2026-04-26T12:43:45.614Z</time></trkpt><trkpt lat="43.1790827" lon="11.2409838"><ele>394.66666666666663</ele><time>2026-04-26T12:43:46.614Z</time></trkpt><trkpt lat="43.1791623" lon="11.2410358"><ele>397.5</ele><time>2026-04-26T12:43:47.615Z</time></trkpt><trkpt lat="43.1792415" lon="11.241091"><ele>400.33333333333337</ele><time>2026-04-26T12:43:48.614Z</time></trkpt><trkpt lat="43.1793105" lon="11.2411402"><ele>403.1666666666667</ele><time>2026-04-26T12:43:49.615Z</time></trkpt><trkpt lat="43.179381" lon="11.2412054"><ele>406.0</ele><time>2026-04-26T12:43:50.614Z</time></trkpt><trkpt lat="43.1794466" lon="11.2412816"><ele>406.00000000000006</ele><time>2026-04-26T12:43:51.614Z</time></trkpt><trkpt lat="43.1795098" lon="11.2413679"><ele>406.0</ele><time>2026-04-26T12:43:52.614Z</time></trkpt><trkpt lat="43.1795671" lon="11.2414344"><ele>406.0</ele><time>2026-04-26T12:43:53.614Z</time></trkpt><trkpt lat="43.179622" lon="11.2414775"><ele>406.0</ele><time>2026-04-26T12:43:54.615Z</time></trkpt><trkpt lat="43.1797183" lon="11.2414941"><ele>406.00000000000006</ele><time>2026-04-26T12:43:56.614Z</time></trkpt><trkpt lat="43.1797874" lon="11.2414868"><ele>406.0</ele><time>2026-04-26T12:43:58.614Z</time></trkpt><trkpt lat="43.1798569" lon="11.2414733"><ele>409.00000000000006</ele><time>2026-04-26T12:44:06.614Z</time></trkpt><trkpt lat="43.1799551" lon="11.2414192"><ele>412.0</ele><time>2026-04-26T12:44:08.614Z</time></trkpt><trkpt lat="43.1800216" lon="11.2413743"><ele>415.0</ele><time>2026-04-26T12:44:09.614Z</time></trkpt><trkpt lat="43.1801018" lon="11.2413205"><ele>418.0</ele><time>2026-04-26T12:44:10.614Z</time></trkpt><trkpt lat="43.1801822" lon="11.2412631"><ele>421.00000000000006</ele><time>2026-04-26T12:44:11.614Z</time></trkpt><trkpt lat="43.1802529" lon="11.2412076"><ele>424.0</ele><time>2026-04-26T12:44:12.614Z</time></trkpt><trkpt lat="43.1803193" lon="11.2411463"><ele>424.00000000000006</ele><time>2026-04-26T12:44:13.614Z</time></trkpt><trkpt lat="43.1803879" lon="11.2410943"><ele>424.0</ele><time>2026-04-26T12:44:14.614Z</time></trkpt><trkpt lat="43.1804646" lon="11.2410515"><ele>424.0</ele><time>2026-04-26T12:44:15.615Z</time></trkpt><trkpt lat="43.1805451" lon="11.2410191"><ele>424.0</ele><time>2026-04-26T12:44:16.615Z</time></trkpt><trkpt lat="43.1806225" lon="11.2410034"><ele>424.00000000000006</ele><time>2026-04-26T12:44:17.614Z</time></trkpt><trkpt lat="43.1807017" lon="11.2410013"><ele>424.0</ele><time>2026-04-26T12:44:18.614Z</time></trkpt><trkpt lat="43.180792" lon="11.2410013"><ele>425.0</ele><time>2026-04-26T12:44:19.614Z</time></trkpt><trkpt lat="43.1808943" lon="11.2409997"><ele>426.0</ele><time>2026-04-26T12:44:20.614Z</time></trkpt><trkpt lat="43.1809906" lon="11.2409798"><ele>427.0</ele><time>2026-04-26T12:44:21.614Z</time></trkpt><trkpt lat="43.1810965" lon="11.2409491"><ele>428.0</ele><time>2026-04-26T12:44:22.615Z</time></trkpt><trkpt lat="43.1811988" lon="11.2409284"><ele>429.0</ele><time>2026-04-26T12:44:23.615Z</time></trkpt><trkpt lat="43.1812923" lon="11.2409171"><ele>429.0</ele><time>2026-04-26T12:44:24.614Z</time></trkpt><trkpt lat="43.1813708" lon="11.2409176"><ele>429.0</ele><time>2026-04-26T12:44:25.614Z</time></trkpt><trkpt lat="43.1814438" lon="11.2409168"><ele>429.0</ele><time>2026-04-26T12:44:26.614Z</time></trkpt><trkpt lat="43.1815498" lon="11.2408765"><ele>429.0</ele><time>2026-04-26T12:44:28.614Z</time></trkpt><trkpt lat="43.1816207" lon="11.2407709"><ele>429.0</ele><time>2026-04-26T12:44:30.614Z</time></trkpt><trkpt lat="43.1816973" lon="11.2407004"><ele>429.2</ele><time>2026-04-26T12:44:32.614Z</time></trkpt><trkpt lat="43.1817895" lon="11.2406647"><ele>429.4</ele><time>2026-04-26T12:44:34.614Z</time></trkpt><trkpt lat="43.1818316" lon="11.2405795"><ele>429.6</ele><time>2026-04-26T12:44:36.615Z</time></trkpt><trkpt lat="43.1818313" lon="11.2404509"><ele>429.8</ele><time>2026-04-26T12:44:38.614Z</time></trkpt><trkpt lat="43.181796" lon="11.2402818"><ele>430.0</ele><time>2026-04-26T12:44:40.614Z</time></trkpt><trkpt lat="43.1817797" lon="11.2401775"><ele>433.50000000000006</ele><time>2026-04-26T12:44:41.614Z</time></trkpt><trkpt lat="43.1817665" lon="11.2400559"><ele>437.0</ele><time>2026-04-26T12:44:42.614Z</time></trkpt><trkpt lat="43.1817618" lon="11.2399408"><ele>440.5</ele><time>2026-04-26T12:44:43.615Z</time></trkpt><trkpt lat="43.1817758" lon="11.2398269"><ele>444.0</ele><time>2026-04-26T12:44:44.614Z</time></trkpt><trkpt lat="43.1817941" lon="11.2397104"><ele>447.50000000000006</ele><time>2026-04-26T12:44:45.614Z</time></trkpt><trkpt lat="43.1818042" lon="11.2396141"><ele>451.0</ele><time>2026-04-26T12:44:46.614Z</time></trkpt><trkpt lat="43.1817762" lon="11.2394538"><ele>454.00000000000006</ele><time>2026-04-26T12:44:48.614Z</time></trkpt><trkpt lat="43.1817594" lon="11.2393587"><ele>457.0</ele><time>2026-04-26T12:44:49.614Z</time></trkpt><trkpt lat="43.1817442" lon="11.2392646"><ele>460.0</ele><time>2026-04-26T12:44:50.614Z</time></trkpt><trkpt lat="43.1817368" lon="11.2391663"><ele>463.0</ele><time>2026-04-26T12:44:51.614Z</time></trkpt><trkpt lat="43.1817332" lon="11.2390511"><ele>466.00000000000006</ele><time>2026-04-26T12:44:52.614Z</time></trkpt><trkpt lat="43.1817288" lon="11.2389204"><ele>469.0</ele><time>2026-04-26T12:44:53.614Z</time></trkpt><trkpt lat="43.1817321" lon="11.2387674"><ele>472.6</ele><time>2026-04-26T12:44:54.614Z</time></trkpt><trkpt lat="43.181737" lon="11.2386225"><ele>476.2</ele><time>2026-04-26T12:44:55.614Z</time></trkpt><trkpt lat="43.1817428" lon="11.2384957"><ele>479.80000000000007</ele><time>2026-04-26T12:44:56.615Z</time></trkpt><trkpt lat="43.1817461" lon="11.2383923"><ele>483.40000000000003</ele><time>2026-04-26T12:44:57.614Z</time></trkpt><trkpt lat="43.1817675" lon="11.2382432"><ele>487.0</ele><time>2026-04-26T12:44:59.614Z</time></trkpt><trkpt lat="43.1818094" lon="11.2380746"><ele>490.20000000000005</ele><time>2026-04-26T12:45:01.614Z</time></trkpt><trkpt lat="43.1818311" lon="11.2379789"><ele>493.40000000000003</ele><time>2026-04-26T12:45:02.615Z</time></trkpt><trkpt lat="43.1818428" lon="11.2378313"><ele>496.59999999999997</ele><time>2026-04-26T12:45:04.614Z</time></trkpt><trkpt lat="43.1818385" lon="11.2376538"><ele>499.79999999999995</ele><time>2026-04-26T12:45:06.614Z</time></trkpt><trkpt lat="43.1818253" lon="11.2375386"><ele>503.0</ele><time>2026-04-26T12:45:07.614Z</time></trkpt><trkpt lat="43.1818036" lon="11.2374353"><ele>504.8333333333333</ele><time>2026-04-26T12:45:08.614Z</time></trkpt><trkpt lat="43.1817763" lon="11.2372993"><ele>506.66666666666663</ele><time>2026-04-26T12:45:10.614Z</time></trkpt><trkpt lat="43.18177" lon="11.2371873"><ele>508.5</ele><time>2026-04-26T12:45:12.614Z</time></trkpt><trkpt lat="43.1817525" lon="11.2370657"><ele>510.33333333333337</ele><time>2026-04-26T12:45:14.614Z</time></trkpt><trkpt lat="43.1817075" lon="11.2369606"><ele>512.1666666666667</ele><time>2026-04-26T12:45:16.614Z</time></trkpt><trkpt lat="43.1816776" lon="11.2368569"><ele>514.0</ele><time>2026-04-26T12:45:18.614Z</time></trkpt><trkpt lat="43.1816784" lon="11.2367079"><ele>514.0</ele><time>2026-04-26T12:45:20.614Z</time></trkpt><trkpt lat="43.1816863" lon="11.2366216"><ele>514.0</ele><time>2026-04-26T12:45:21.614Z</time></trkpt><trkpt lat="43.1816848" lon="11.236532"><ele>514.0</ele><time>2026-04-26T12:45:22.614Z</time></trkpt><trkpt lat="43.181677" lon="11.2364445"><ele>514.0</ele><time>2026-04-26T12:45:23.614Z</time></trkpt><trkpt lat="43.1816573" lon="11.2363608"><ele>514.0</ele><time>2026-04-26T12:45:24.615Z</time></trkpt><trkpt lat="43.1816275" lon="11.2362526"><ele>514.0</ele><time>2026-04-26T12:45:25.614Z</time></trkpt><trkpt lat="43.1815992" lon="11.2361264"><ele>514.0</ele><time>2026-04-26T12:45:26.614Z</time></trkpt><trkpt lat="43.1815789" lon="11.2359991"><ele>514.1666666666667</ele><time>2026-04-26T12:45:27.614Z</time></trkpt><trkpt lat="43.1815629" lon="11.2358701"><ele>514.3333333333334</ele><time>2026-04-26T12:45:28.614Z</time></trkpt><trkpt lat="43.1815467" lon="11.2357551"><ele>514.5</ele><time>2026-04-26T12:45:29.614Z</time></trkpt><trkpt lat="43.1815342" lon="11.2356418"><ele>514.6666666666666</ele><time>2026-04-26T12:45:30.614Z</time></trkpt><trkpt lat="43.1815222" lon="11.2355274"><ele>514.8333333333333</ele><time>2026-04-26T12:45:31.614Z</time></trkpt><trkpt lat="43.1815073" lon="11.2354289"><ele>515.0</ele><time>2026-04-26T12:45:32.614Z</time></trkpt><trkpt lat="43.181453" lon="11.2352852"><ele>515.0</ele><time>2026-04-26T12:45:34.614Z</time></trkpt><trkpt lat="43.1814259" lon="11.2352056"><ele>515.0</ele><time>2026-04-26T12:45:35.614Z</time></trkpt><trkpt lat="43.1813878" lon="11.2350393"><ele>515.0</ele><time>2026-04-26T12:45:37.614Z</time></trkpt><trkpt lat="43.1813241" lon="11.2349154"><ele>515.0</ele><time>2026-04-26T12:45:39.614Z</time></trkpt><trkpt lat="43.1812656" lon="11.2348739"><ele>515.0</ele><time>2026-04-26T12:45:40.614Z</time></trkpt><trkpt lat="43.1811848" lon="11.2348516"><ele>515.0</ele><time>2026-04-26T12:45:41.614Z</time></trkpt><trkpt lat="43.1810883" lon="11.2348359"><ele>515.0</ele><time>2026-04-26T12:45:42.614Z</time></trkpt><trkpt lat="43.180996" lon="11.2348219"><ele>515.0</ele><time>2026-04-26T12:45:43.614Z</time></trkpt><trkpt lat="43.1809088" lon="11.2348136"><ele>515.0</ele><time>2026-04-26T12:45:44.614Z</time></trkpt><trkpt lat="43.1808092" lon="11.2348029"><ele>515.0</ele><time>2026-04-26T12:45:45.614Z</time></trkpt><trkpt lat="43.1807037" lon="11.2347955"><ele>514.6</ele><time>2026-04-26T12:45:46.614Z</time></trkpt><trkpt lat="43.1806016" lon="11.2347837"><ele>514.2</ele><time>2026-04-26T12:45:47.614Z</time></trkpt><trkpt lat="43.1805106" lon="11.2347735"><ele>513.8</ele><time>2026-04-26T12:45:48.614Z</time></trkpt><trkpt lat="43.180447" lon="11.2347557"><ele>513.4</ele><time>2026-04-26T12:45:49.614Z</time></trkpt><trkpt lat="43.1803327" lon="11.2347386"><ele>513.0</ele><time>2026-04-26T12:45:51.614Z</time></trkpt><trkpt lat="43.1802525" lon="11.2347162"><ele>513.0</ele><time>2026-04-26T12:45:53.614Z</time></trkpt><trkpt lat="43.1801604" lon="11.2346997"><ele>513.0</ele><time>2026-04-26T12:45:56.614Z</time></trkpt><trkpt lat="43.1800861" lon="11.2346652"><ele>513.0</ele><time>2026-04-26T12:45:58.615Z</time></trkpt><trkpt lat="43.1800239" lon="11.234733"><ele>513.0</ele><time>2026-04-26T12:46:01.614Z</time></trkpt><trkpt lat="43.1799531" lon="11.2346759"><ele>513.0</ele><time>2026-04-26T12:46:08.614Z</time></trkpt><trkpt lat="43.1798411" lon="11.2347156"><ele>513.0</ele><time>2026-04-26T12:46:10.614Z</time></trkpt><trkpt lat="43.1797638" lon="11.2347429"><ele>513.0</ele><time>2026-04-26T12:46:11.614Z</time></trkpt><trkpt lat="43.179682" lon="11.2347604"><ele>513.0</ele><time>2026-04-26T12:46:12.614Z</time></trkpt><trkpt lat="43.179593" lon="11.234789"><ele>513.0</ele><time>2026-04-26T12:46:13.614Z</time></trkpt><trkpt lat="43.1794893" lon="11.2348336"><ele>513.0</ele><time>2026-04-26T12:46:14.614Z</time></trkpt><trkpt lat="43.1793907" lon="11.234877"><ele>513.0</ele><time>2026-04-26T12:46:15.615Z</time></trkpt><trkpt lat="43.1793094" lon="11.2349144"><ele>512.2857142857143</ele><time>2026-04-26T12:46:16.614Z</time></trkpt><trkpt lat="43.1792413" lon="11.2349435"><ele>511.57142857142856</ele><time>2026-04-26T12:46:17.614Z</time></trkpt><trkpt lat="43.1791758" lon="11.234947"><ele>510.8571428571429</ele><time>2026-04-26T12:46:18.614Z</time></trkpt><trkpt lat="43.179105" lon="11.2349423"><ele>510.14285714285717</ele><time>2026-04-26T12:46:19.615Z</time></trkpt><trkpt lat="43.1790185" lon="11.2349628"><ele>509.42857142857144</ele><time>2026-04-26T12:46:20.614Z</time></trkpt><trkpt lat="43.1789468" lon="11.2350054"><ele>508.7142857142857</ele><time>2026-04-26T12:46:21.614Z</time></trkpt><trkpt lat="43.1788816" lon="11.2350505"><ele>508.0</ele><time>2026-04-26T12:46:22.614Z</time></trkpt><trkpt lat="43.1788177" lon="11.2350889"><ele>507.6666666666667</ele><time>2026-04-26T12:46:23.614Z</time></trkpt><trkpt lat="43.1787476" lon="11.2351163"><ele>507.33333333333337</ele><time>2026-04-26T12:46:24.614Z</time></trkpt><trkpt lat="43.1786735" lon="11.2351589"><ele>507.0</ele><time>2026-04-26T12:46:25.615Z</time></trkpt><trkpt lat="43.1785826" lon="11.2352163"><ele>506.66666666666663</ele><time>2026-04-26T12:46:26.614Z</time></trkpt><trkpt lat="43.1784987" lon="11.2352728"><ele>506.3333333333333</ele><time>2026-04-26T12:46:27.614Z</time></trkpt><trkpt lat="43.1784147" lon="11.2353344"><ele>506.0</ele><time>2026-04-26T12:46:28.615Z</time></trkpt><trkpt lat="43.178322" lon="11.2353816"><ele>506.0</ele><time>2026-04-26T12:46:29.614Z</time></trkpt><trkpt lat="43.1782237" lon="11.2354262"><ele>506.0</ele><time>2026-04-26T12:46:30.614Z</time></trkpt><trkpt lat="43.1781234" lon="11.2354658"><ele>506.0</ele><time>2026-04-26T12:46:31.614Z</time></trkpt><trkpt lat="43.178022" lon="11.2354985"><ele>506.0</ele><time>2026-04-26T12:46:32.614Z</time></trkpt><trkpt lat="43.1779141" lon="11.2355129"><ele>506.0</ele><time>2026-04-26T12:46:33.614Z</time></trkpt><trkpt lat="43.1778027" lon="11.2355195"><ele>504.6</ele><time>2026-04-26T12:46:34.614Z</time></trkpt><trkpt lat="43.1776981" lon="11.2355303"><ele>503.20000000000005</ele><time>2026-04-26T12:46:35.614Z</time></trkpt><trkpt lat="43.1776051" lon="11.2355597"><ele>501.79999999999995</ele><time>2026-04-26T12:46:36.615Z</time></trkpt><trkpt lat="43.1775088" lon="11.2356046"><ele>500.4</ele><time>2026-04-26T12:46:37.614Z</time></trkpt><trkpt lat="43.1774074" lon="11.2356563"><ele>499.0</ele><time>2026-04-26T12:46:38.614Z</time></trkpt><trkpt lat="43.1773002" lon="11.2357065"><ele>497.6666666666667</ele><time>2026-04-26T12:46:39.614Z</time></trkpt><trkpt lat="43.1772134" lon="11.2357361"><ele>496.33333333333337</ele><time>2026-04-26T12:46:40.614Z</time></trkpt><trkpt lat="43.1771241" lon="11.2357424"><ele>495.0</ele><time>2026-04-26T12:46:41.614Z</time></trkpt><trkpt lat="43.1770419" lon="11.235738"><ele>493.66666666666663</ele><time>2026-04-26T12:46:42.614Z</time></trkpt><trkpt lat="43.1769687" lon="11.2357167"><ele>492.3333333333333</ele><time>2026-04-26T12:46:43.615Z</time></trkpt><trkpt lat="43.1769034" lon="11.2356819"><ele>491.0</ele><time>2026-04-26T12:46:44.614Z</time></trkpt><trkpt lat="43.1768364" lon="11.2356453"><ele>490.16666666666663</ele><time>2026-04-26T12:46:45.614Z</time></trkpt><trkpt lat="43.1767658" lon="11.2356067"><ele>489.3333333333333</ele><time>2026-04-26T12:46:46.614Z</time></trkpt><trkpt lat="43.1766995" lon="11.2355688"><ele>488.5</ele><time>2026-04-26T12:46:47.614Z</time></trkpt><trkpt lat="43.1766278" lon="11.2355405"><ele>487.66666666666663</ele><time>2026-04-26T12:46:48.614Z</time></trkpt><trkpt lat="43.1765506" lon="11.2355112"><ele>486.8333333333333</ele><time>2026-04-26T12:46:49.614Z</time></trkpt><trkpt lat="43.1764772" lon="11.2354832"><ele>486.0</ele><time>2026-04-26T12:46:50.615Z</time></trkpt><trkpt lat="43.1763984" lon="11.2354575"><ele>484.0</ele><time>2026-04-26T12:46:51.614Z</time></trkpt><trkpt lat="43.1763227" lon="11.2354292"><ele>482.0</ele><time>2026-04-26T12:46:52.614Z</time></trkpt><trkpt lat="43.1762422" lon="11.2354136"><ele>480.0</ele><time>2026-04-26T12:46:53.614Z</time></trkpt><trkpt lat="43.1761665" lon="11.235404"><ele>478.0</ele><time>2026-04-26T12:46:54.614Z</time></trkpt><trkpt lat="43.1760878" lon="11.2354047"><ele>476.0</ele><time>2026-04-26T12:46:55.614Z</time></trkpt><trkpt lat="43.1760097" lon="11.2354081"><ele>474.0</ele><time>2026-04-26T12:46:56.615Z</time></trkpt><trkpt lat="43.1759266" lon="11.2354116"><ele>474.0</ele><time>2026-04-26T12:46:57.614Z</time></trkpt><trkpt lat="43.1758461" lon="11.2354046"><ele>474.0</ele><time>2026-04-26T12:46:58.614Z</time></trkpt><trkpt lat="43.1757622" lon="11.2353913"><ele>474.0</ele><time>2026-04-26T12:46:59.614Z</time></trkpt><trkpt lat="43.175675" lon="11.2353786"><ele>474.0</ele><time>2026-04-26T12:47:00.614Z</time></trkpt><trkpt lat="43.1755906" lon="11.2353561"><ele>474.0</ele><time>2026-04-26T12:47:01.614Z</time></trkpt><trkpt lat="43.1755102" lon="11.2353122"><ele>474.0</ele><time>2026-04-26T12:47:02.615Z</time></trkpt><trkpt lat="43.1754337" lon="11.2352574"><ele>472.6666666666667</ele><time>2026-04-26T12:47:03.614Z</time></trkpt><trkpt lat="43.1753663" lon="11.2351926"><ele>471.33333333333337</ele><time>2026-04-26T12:47:04.614Z</time></trkpt><trkpt lat="43.1753076" lon="11.2351158"><ele>470.0</ele><time>2026-04-26T12:47:05.614Z</time></trkpt><trkpt lat="43.1752453" lon="11.2350385"><ele>468.6666666666667</ele><time>2026-04-26T12:47:06.614Z</time></trkpt><trkpt lat="43.1751667" lon="11.2349668"><ele>467.33333333333337</ele><time>2026-04-26T12:47:07.614Z</time></trkpt><trkpt lat="43.1750737" lon="11.2348982"><ele>466.0</ele><time>2026-04-26T12:47:08.614Z</time></trkpt><trkpt lat="43.1749732" lon="11.2348181"><ele>464.5</ele><time>2026-04-26T12:47:09.615Z</time></trkpt><trkpt lat="43.1748767" lon="11.2347294"><ele>463.0</ele><time>2026-04-26T12:47:10.614Z</time></trkpt><trkpt lat="43.1747856" lon="11.2346396"><ele>461.5</ele><time>2026-04-26T12:47:11.614Z</time></trkpt><trkpt lat="43.1746942" lon="11.2345495"><ele>460.0</ele><time>2026-04-26T12:47:12.614Z</time></trkpt><trkpt lat="43.1746043" lon="11.234456"><ele>460.0</ele><time>2026-04-26T12:47:13.614Z</time></trkpt><trkpt lat="43.174519" lon="11.2343685"><ele>460.0</ele><time>2026-04-26T12:47:14.615Z</time></trkpt><trkpt lat="43.1744385" lon="11.2342819"><ele>460.0</ele><time>2026-04-26T12:47:15.614Z</time></trkpt><trkpt lat="43.1743605" lon="11.2341968"><ele>460.0</ele><time>2026-04-26T12:47:16.614Z</time></trkpt><trkpt lat="43.1742816" lon="11.2341178"><ele>460.0</ele><time>2026-04-26T12:47:17.614Z</time></trkpt><trkpt lat="43.1741982" lon="11.2340307"><ele>460.2</ele><time>2026-04-26T12:47:18.614Z</time></trkpt><trkpt lat="43.1741041" lon="11.2339518"><ele>460.4</ele><time>2026-04-26T12:47:19.614Z</time></trkpt><trkpt lat="43.174007" lon="11.2338906"><ele>460.6</ele><time>2026-04-26T12:47:20.614Z</time></trkpt><trkpt lat="43.173908" lon="11.2338449"><ele>460.8</ele><time>2026-04-26T12:47:21.614Z</time></trkpt><trkpt lat="43.1738192" lon="11.2337929"><ele>461.0</ele><time>2026-04-26T12:47:22.614Z</time></trkpt><trkpt lat="43.1737387" lon="11.2337307"><ele>460.4</ele><time>2026-04-26T12:47:23.615Z</time></trkpt><trkpt lat="43.1736618" lon="11.2336522"><ele>459.8</ele><time>2026-04-26T12:47:24.614Z</time></trkpt><trkpt lat="43.1735878" lon="11.2335581"><ele>459.19999999999993</ele><time>2026-04-26T12:47:25.614Z</time></trkpt><trkpt lat="43.1735151" lon="11.2334532"><ele>458.59999999999997</ele><time>2026-04-26T12:47:26.614Z</time></trkpt><trkpt lat="43.1734454" lon="11.2333405"><ele>458.0</ele><time>2026-04-26T12:47:27.614Z</time></trkpt><trkpt lat="43.1733719" lon="11.2332313"><ele>457.79999999999995</ele><time>2026-04-26T12:47:28.614Z</time></trkpt><trkpt lat="43.1733023" lon="11.2331336"><ele>457.59999999999997</ele><time>2026-04-26T12:47:29.614Z</time></trkpt><trkpt lat="43.1732294" lon="11.2330373"><ele>457.40000000000003</ele><time>2026-04-26T12:47:30.615Z</time></trkpt><trkpt lat="43.1731658" lon="11.2329309"><ele>457.20000000000005</ele><time>2026-04-26T12:47:31.614Z</time></trkpt><trkpt lat="43.1731029" lon="11.2328152"><ele>457.0</ele><time>2026-04-26T12:47:32.614Z</time></trkpt><trkpt lat="43.1730484" lon="11.2327062"><ele>458.6</ele><time>2026-04-26T12:47:33.614Z</time></trkpt><trkpt lat="43.1729886" lon="11.232599"><ele>460.20000000000005</ele><time>2026-04-26T12:47:34.614Z</time></trkpt><trkpt lat="43.1729333" lon="11.2324867"><ele>461.8</ele><time>2026-04-26T12:47:35.614Z</time></trkpt><trkpt lat="43.1728817" lon="11.2323705"><ele>463.4</ele><time>2026-04-26T12:47:36.614Z</time></trkpt><trkpt lat="43.1728659" lon="11.2322653"><ele>465.0</ele><time>2026-04-26T12:47:37.614Z</time></trkpt><trkpt lat="43.1728724" lon="11.2321576"><ele>465.0</ele><time>2026-04-26T12:47:38.614Z</time></trkpt><trkpt lat="43.1728886" lon="11.232046"><ele>465.0</ele><time>2026-04-26T12:47:39.614Z</time></trkpt><trkpt lat="43.1729024" lon="11.2319331"><ele>465.0</ele><time>2026-04-26T12:47:40.614Z</time></trkpt><trkpt lat="43.172907" lon="11.2318373"><ele>465.0</ele><time>2026-04-26T12:47:41.614Z</time></trkpt><trkpt lat="43.172913" lon="11.2317456"><ele>465.0</ele><time>2026-04-26T12:47:42.614Z</time></trkpt><trkpt lat="43.1729046" lon="11.2316492"><ele>465.0</ele><time>2026-04-26T12:47:43.614Z</time></trkpt><trkpt lat="43.1728894" lon="11.2315459"><ele>463.1666666666667</ele><time>2026-04-26T12:47:44.614Z</time></trkpt><trkpt lat="43.1728696" lon="11.2314384"><ele>461.33333333333337</ele><time>2026-04-26T12:47:45.614Z</time></trkpt><trkpt lat="43.1728329" lon="11.2313325"><ele>459.5</ele><time>2026-04-26T12:47:46.614Z</time></trkpt><trkpt lat="43.1727853" lon="11.2312312"><ele>457.6666666666667</ele><time>2026-04-26T12:47:47.615Z</time></trkpt><trkpt lat="43.1727343" lon="11.23114"><ele>455.83333333333337</ele><time>2026-04-26T12:47:48.614Z</time></trkpt><trkpt lat="43.1726727" lon="11.2310506"><ele>454.0</ele><time>2026-04-26T12:47:49.614Z</time></trkpt><trkpt lat="43.1726006" lon="11.2309523"><ele>454.0</ele><time>2026-04-26T12:47:50.614Z</time></trkpt><trkpt lat="43.1725158" lon="11.2308578"><ele>454.0</ele><time>2026-04-26T12:47:51.614Z</time></trkpt><trkpt lat="43.1724304" lon="11.230766"><ele>454.0</ele><time>2026-04-26T12:47:52.614Z</time></trkpt><trkpt lat="43.1723441" lon="11.2306961"><ele>454.0</ele><time>2026-04-26T12:47:53.614Z</time></trkpt><trkpt lat="43.1722559" lon="11.2306289"><ele>454.0</ele><time>2026-04-26T12:47:54.614Z</time></trkpt><trkpt lat="43.1721809" lon="11.2305566"><ele>452.2</ele><time>2026-04-26T12:47:55.614Z</time></trkpt><trkpt lat="43.1721129" lon="11.230477"><ele>450.4</ele><time>2026-04-26T12:47:56.614Z</time></trkpt><trkpt lat="43.1720464" lon="11.230377"><ele>448.6</ele><time>2026-04-26T12:47:57.614Z</time></trkpt><trkpt lat="43.1719818" lon="11.2302644"><ele>446.8</ele><time>2026-04-26T12:47:58.614Z</time></trkpt><trkpt lat="43.1719166" lon="11.2301615"><ele>445.0</ele><time>2026-04-26T12:47:59.614Z</time></trkpt><trkpt lat="43.1718563" lon="11.2300574"><ele>445.0</ele><time>2026-04-26T12:48:00.615Z</time></trkpt><trkpt lat="43.1717937" lon="11.2299584"><ele>445.0</ele><time>2026-04-26T12:48:01.614Z</time></trkpt><trkpt lat="43.1717387" lon="11.2298734"><ele>445.0</ele><time>2026-04-26T12:48:02.615Z</time></trkpt><trkpt lat="43.1716788" lon="11.2297887"><ele>445.0</ele><time>2026-04-26T12:48:03.615Z</time></trkpt><trkpt lat="43.1716174" lon="11.2296901"><ele>445.0</ele><time>2026-04-26T12:48:04.614Z</time></trkpt><trkpt lat="43.1715458" lon="11.2295844"><ele>441.6666666666667</ele><time>2026-04-26T12:48:05.614Z</time></trkpt><trkpt lat="43.1714815" lon="11.2295063"><ele>438.33333333333337</ele><time>2026-04-26T12:48:06.614Z</time></trkpt><trkpt lat="43.1714126" lon="11.2294486"><ele>435.0</ele><time>2026-04-26T12:48:07.615Z</time></trkpt><trkpt lat="43.1713373" lon="11.2293974"><ele>431.66666666666663</ele><time>2026-04-26T12:48:08.614Z</time></trkpt><trkpt lat="43.1712583" lon="11.2293391"><ele>428.3333333333333</ele><time>2026-04-26T12:48:09.614Z</time></trkpt><trkpt lat="43.1711744" lon="11.2292933"><ele>425.0</ele><time>2026-04-26T12:48:10.614Z</time></trkpt><trkpt lat="43.1710782" lon="11.2292588"><ele>425.0</ele><time>2026-04-26T12:48:11.614Z</time></trkpt><trkpt lat="43.1709725" lon="11.2292361"><ele>425.0</ele><time>2026-04-26T12:48:12.614Z</time></trkpt><trkpt lat="43.1708675" lon="11.2292009"><ele>425.0</ele><time>2026-04-26T12:48:13.614Z</time></trkpt><trkpt lat="43.1707744" lon="11.2291626"><ele>425.0</ele><time>2026-04-26T12:48:14.614Z</time></trkpt><trkpt lat="43.1706924" lon="11.2291043"><ele>425.0</ele><time>2026-04-26T12:48:15.614Z</time></trkpt><trkpt lat="43.1706357" lon="11.2290354"><ele>425.6</ele><time>2026-04-26T12:48:16.614Z</time></trkpt><trkpt lat="43.1706003" lon="11.2289437"><ele>426.2</ele><time>2026-04-26T12:48:17.614Z</time></trkpt><trkpt lat="43.1705807" lon="11.2288203"><ele>426.79999999999995</ele><time>2026-04-26T12:48:18.614Z</time></trkpt><trkpt lat="43.1705536" lon="11.2286862"><ele>427.4</ele><time>2026-04-26T12:48:19.614Z</time></trkpt><trkpt lat="43.1705362" lon="11.2285507"><ele>428.0</ele><time>2026-04-26T12:48:20.615Z</time></trkpt><trkpt lat="43.1705195" lon="11.2284191"><ele>428.0</ele><time>2026-04-26T12:48:21.614Z</time></trkpt><trkpt lat="43.1705018" lon="11.228283"><ele>427.99999999999994</ele><time>2026-04-26T12:48:22.614Z</time></trkpt><trkpt lat="43.1704904" lon="11.2281586"><ele>427.99999999999994</ele><time>2026-04-26T12:48:23.614Z</time></trkpt><trkpt lat="43.1704804" lon="11.2280336"><ele>428.0</ele><time>2026-04-26T12:48:24.614Z</time></trkpt><trkpt lat="43.1704641" lon="11.2279178"><ele>428.0</ele><time>2026-04-26T12:48:25.615Z</time></trkpt><trkpt lat="43.1704451" lon="11.2277913"><ele>424.49999999999994</ele><time>2026-04-26T12:48:26.614Z</time></trkpt><trkpt lat="43.1704212" lon="11.227659"><ele>421.0</ele><time>2026-04-26T12:48:27.614Z</time></trkpt><trkpt lat="43.1703942" lon="11.2275314"><ele>417.5</ele><time>2026-04-26T12:48:28.615Z</time></trkpt><trkpt lat="43.1703672" lon="11.2274181"><ele>414.0</ele><time>2026-04-26T12:48:29.614Z</time></trkpt><trkpt lat="43.1703381" lon="11.2273212"><ele>410.49999999999994</ele><time>2026-04-26T12:48:30.614Z</time></trkpt><trkpt lat="43.1702815" lon="11.2272288"><ele>407.0</ele><time>2026-04-26T12:48:31.614Z</time></trkpt><trkpt lat="43.1702118" lon="11.227134"><ele>405.8</ele><time>2026-04-26T12:48:32.615Z</time></trkpt><trkpt lat="43.1701447" lon="11.227058"><ele>404.6</ele><time>2026-04-26T12:48:33.614Z</time></trkpt><trkpt lat="43.17007" lon="11.226996"><ele>403.40000000000003</ele><time>2026-04-26T12:48:34.614Z</time></trkpt><trkpt lat="43.1699663" lon="11.2269403"><ele>402.20000000000005</ele><time>2026-04-26T12:48:35.614Z</time></trkpt><trkpt lat="43.1698582" lon="11.2268775"><ele>401.0</ele><time>2026-04-26T12:48:36.614Z</time></trkpt><trkpt lat="43.1697537" lon="11.2268172"><ele>401.0</ele><time>2026-04-26T12:48:37.614Z</time></trkpt><trkpt lat="43.1696625" lon="11.2267584"><ele>401.0</ele><time>2026-04-26T12:48:38.614Z</time></trkpt><trkpt lat="43.1695715" lon="11.2267099"><ele>401.0</ele><time>2026-04-26T12:48:39.615Z</time></trkpt><trkpt lat="43.1694884" lon="11.2266559"><ele>401.0</ele><time>2026-04-26T12:48:40.614Z</time></trkpt><trkpt lat="43.1694008" lon="11.2266066"><ele>401.0</ele><time>2026-04-26T12:48:41.614Z</time></trkpt><trkpt lat="43.1693286" lon="11.2265598"><ele>400.99999999999994</ele><time>2026-04-26T12:48:42.615Z</time></trkpt><trkpt lat="43.1692702" lon="11.22648"><ele>401.0</ele><time>2026-04-26T12:48:43.614Z</time></trkpt><trkpt lat="43.169233" lon="11.2263798"><ele>401.0</ele><time>2026-04-26T12:48:44.614Z</time></trkpt><trkpt lat="43.1691991" lon="11.2262754"><ele>401.0</ele><time>2026-04-26T12:48:45.614Z</time></trkpt><trkpt lat="43.1691571" lon="11.2261791"><ele>400.99999999999994</ele><time>2026-04-26T12:48:46.615Z</time></trkpt><trkpt lat="43.1691112" lon="11.2260851"><ele>401.0</ele><time>2026-04-26T12:48:47.614Z</time></trkpt><trkpt lat="43.1690658" lon="11.2259889"><ele>398.16666666666663</ele><time>2026-04-26T12:48:48.615Z</time></trkpt><trkpt lat="43.1690225" lon="11.2258942"><ele>395.3333333333333</ele><time>2026-04-26T12:48:49.615Z</time></trkpt><trkpt lat="43.1689737" lon="11.2258033"><ele>392.5</ele><time>2026-04-26T12:48:50.614Z</time></trkpt><trkpt lat="43.1689197" lon="11.225724"><ele>389.66666666666663</ele><time>2026-04-26T12:48:51.615Z</time></trkpt><trkpt lat="43.1688583" lon="11.2256543"><ele>386.8333333333333</ele><time>2026-04-26T12:48:52.615Z</time></trkpt><trkpt lat="43.168797" lon="11.2255834"><ele>384.0</ele><time>2026-04-26T12:48:53.615Z</time></trkpt><trkpt lat="43.1687347" lon="11.225523"><ele>379.5</ele><time>2026-04-26T12:48:54.614Z</time></trkpt><trkpt lat="43.1686664" lon="11.2254637"><ele>375.0</ele><time>2026-04-26T12:48:55.614Z</time></trkpt><trkpt lat="43.168593" lon="11.2254155"><ele>370.5</ele><time>2026-04-26T12:48:56.614Z</time></trkpt><trkpt lat="43.1685193" lon="11.2253718"><ele>366.0</ele><time>2026-04-26T12:48:57.614Z</time></trkpt><trkpt lat="43.1684407" lon="11.2253274"><ele>361.5</ele><time>2026-04-26T12:48:58.615Z</time></trkpt><trkpt lat="43.1683644" lon="11.2252874"><ele>357.0</ele><time>2026-04-26T12:48:59.614Z</time></trkpt><trkpt lat="43.1682864" lon="11.2252472"><ele>357.0</ele><time>2026-04-26T12:49:00.614Z</time></trkpt><trkpt lat="43.1682041" lon="11.2251983"><ele>357.0</ele><time>2026-04-26T12:49:01.614Z</time></trkpt><trkpt lat="43.1681297" lon="11.2251528"><ele>357.0</ele><time>2026-04-26T12:49:02.614Z</time></trkpt><trkpt lat="43.1680696" lon="11.2250897"><ele>357.0</ele><time>2026-04-26T12:49:03.614Z</time></trkpt><trkpt lat="43.1680225" lon="11.2250153"><ele>357.0</ele><time>2026-04-26T12:49:04.614Z</time></trkpt><trkpt lat="43.1679841" lon="11.2249114"><ele>357.0</ele><time>2026-04-26T12:49:05.614Z</time></trkpt><trkpt lat="43.1679432" lon="11.2248091"><ele>355.3333333333333</ele><time>2026-04-26T12:49:06.614Z</time></trkpt><trkpt lat="43.1679065" lon="11.2247027"><ele>353.6666666666667</ele><time>2026-04-26T12:49:07.614Z</time></trkpt><trkpt lat="43.1678772" lon="11.2245913"><ele>352.0</ele><time>2026-04-26T12:49:08.615Z</time></trkpt><trkpt lat="43.1678475" lon="11.2244814"><ele>350.33333333333337</ele><time>2026-04-26T12:49:09.614Z</time></trkpt><trkpt lat="43.1678144" lon="11.2243685"><ele>348.6666666666667</ele><time>2026-04-26T12:49:10.615Z</time></trkpt><trkpt lat="43.1677768" lon="11.2242536"><ele>347.0</ele><time>2026-04-26T12:49:11.614Z</time></trkpt><trkpt lat="43.1677368" lon="11.2241437"><ele>347.0</ele><time>2026-04-26T12:49:12.614Z</time></trkpt><trkpt lat="43.1676971" lon="11.2240396"><ele>347.0</ele><time>2026-04-26T12:49:13.614Z</time></trkpt><trkpt lat="43.1676526" lon="11.223945"><ele>347.0</ele><time>2026-04-26T12:49:14.615Z</time></trkpt><trkpt lat="43.1676096" lon="11.2238474"><ele>347.0</ele><time>2026-04-26T12:49:15.614Z</time></trkpt><trkpt lat="43.1675605" lon="11.2237486"><ele>347.0</ele><time>2026-04-26T12:49:16.614Z</time></trkpt><trkpt lat="43.1675078" lon="11.2236569"><ele>347.0</ele><time>2026-04-26T12:49:17.614Z</time></trkpt><trkpt lat="43.1674603" lon="11.223574"><ele>344.33333333333337</ele><time>2026-04-26T12:49:18.614Z</time></trkpt><trkpt lat="43.1674191" lon="11.2235031"><ele>341.6666666666667</ele><time>2026-04-26T12:49:19.614Z</time></trkpt><trkpt lat="43.1673518" lon="11.2234394"><ele>339.0</ele><time>2026-04-26T12:49:20.614Z</time></trkpt><trkpt lat="43.1672689" lon="11.223387"><ele>336.3333333333333</ele><time>2026-04-26T12:49:21.614Z</time></trkpt><trkpt lat="43.1671746" lon="11.2233317"><ele>333.66666666666663</ele><time>2026-04-26T12:49:22.614Z</time></trkpt><trkpt lat="43.1670846" lon="11.2232697"><ele>331.0</ele><time>2026-04-26T12:49:23.614Z</time></trkpt><trkpt lat="43.1669943" lon="11.2232232"><ele>331.0</ele><time>2026-04-26T12:49:24.615Z</time></trkpt><trkpt lat="43.1668984" lon="11.2231681"><ele>331.0</ele><time>2026-04-26T12:49:25.614Z</time></trkpt><trkpt lat="43.1668055" lon="11.2231127"><ele>331.0</ele><time>2026-04-26T12:49:26.614Z</time></trkpt><trkpt lat="43.1667242" lon="11.223052"><ele>331.0</ele><time>2026-04-26T12:49:27.614Z</time></trkpt><trkpt lat="43.166654" lon="11.2229833"><ele>331.0</ele><time>2026-04-26T12:49:28.614Z</time></trkpt><trkpt lat="43.1665937" lon="11.2229016"><ele>328.3333333333333</ele><time>2026-04-26T12:49:29.614Z</time></trkpt><trkpt lat="43.1665435" lon="11.2228141"><ele>325.66666666666663</ele><time>2026-04-26T12:49:30.615Z</time></trkpt><trkpt lat="43.1664975" lon="11.222727"><ele>323.0</ele><time>2026-04-26T12:49:31.614Z</time></trkpt><trkpt lat="43.1664617" lon="11.2226473"><ele>320.3333333333333</ele><time>2026-04-26T12:49:32.614Z</time></trkpt><trkpt lat="43.1664256" lon="11.222555"><ele>317.6666666666667</ele><time>2026-04-26T12:49:34.614Z</time></trkpt><trkpt lat="43.1663829" lon="11.2224601"><ele>315.0</ele><time>2026-04-26T12:49:37.614Z</time></trkpt><trkpt lat="43.166319" lon="11.2224287"><ele>314.8</ele><time>2026-04-26T12:49:41.614Z</time></trkpt><trkpt lat="43.1662394" lon="11.2223924"><ele>314.6</ele><time>2026-04-26T12:56:34.612Z</time></trkpt><trkpt lat="43.1661082" lon="11.2223622"><ele>314.4</ele><time>2026-04-26T12:56:36.613Z</time></trkpt><trkpt lat="43.1660253" lon="11.2223414"><ele>314.2</ele><time>2026-04-26T12:56:37.612Z</time></trkpt><trkpt lat="43.1659437" lon="11.2223302"><ele>314.0</ele><time>2026-04-26T12:56:38.613Z</time></trkpt><trkpt lat="43.1658535" lon="11.2223292"><ele>314.0</ele><time>2026-04-26T12:56:39.612Z</time></trkpt><trkpt lat="43.1657543" lon="11.2223356"><ele>314.0</ele><time>2026-04-26T12:56:40.612Z</time></trkpt><trkpt lat="43.1656547" lon="11.2223396"><ele>314.0</ele><time>2026-04-26T12:56:41.612Z</time></trkpt><trkpt lat="43.1655572" lon="11.2223321"><ele>314.0</ele><time>2026-04-26T12:56:42.612Z</time></trkpt><trkpt lat="43.1654644" lon="11.2223183"><ele>314.0</ele><time>2026-04-26T12:56:43.612Z</time></trkpt><trkpt lat="43.1653729" lon="11.2222982"><ele>310.2</ele><time>2026-04-26T12:56:44.612Z</time></trkpt><trkpt lat="43.1652817" lon="11.2222789"><ele>306.4</ele><time>2026-04-26T12:56:45.612Z</time></trkpt><trkpt lat="43.1651988" lon="11.2222613"><ele>302.6</ele><time>2026-04-26T12:56:46.612Z</time></trkpt><trkpt lat="43.1651139" lon="11.2222394"><ele>298.8</ele><time>2026-04-26T12:56:47.612Z</time></trkpt><trkpt lat="43.1650211" lon="11.2222199"><ele>295.0</ele><time>2026-04-26T12:56:48.612Z</time></trkpt><trkpt lat="43.1649251" lon="11.2222111"><ele>294.4</ele><time>2026-04-26T12:56:49.613Z</time></trkpt><trkpt lat="43.164823" lon="11.2222083"><ele>293.8</ele><time>2026-04-26T12:56:50.612Z</time></trkpt><trkpt lat="43.1647178" lon="11.2222139"><ele>293.2</ele><time>2026-04-26T12:56:51.612Z</time></trkpt><trkpt lat="43.1646103" lon="11.2222216"><ele>292.6</ele><time>2026-04-26T12:56:52.613Z</time></trkpt><trkpt lat="43.1645099" lon="11.2222291"><ele>292.0</ele><time>2026-04-26T12:56:53.612Z</time></trkpt><trkpt lat="43.1644099" lon="11.2222421"><ele>292.0</ele><time>2026-04-26T12:56:54.612Z</time></trkpt><trkpt lat="43.164312" lon="11.222249"><ele>292.0</ele><time>2026-04-26T12:56:55.612Z</time></trkpt><trkpt lat="43.1642104" lon="11.2222612"><ele>292.0</ele><time>2026-04-26T12:56:56.612Z</time></trkpt><trkpt lat="43.1641098" lon="11.2223034"><ele>292.0</ele><time>2026-04-26T12:56:57.612Z</time></trkpt><trkpt lat="43.1640095" lon="11.22237"><ele>292.0</ele><time>2026-04-26T12:56:58.612Z</time></trkpt><trkpt lat="43.1639133" lon="11.2224307"><ele>294.6</ele><time>2026-04-26T12:56:59.612Z</time></trkpt><trkpt lat="43.1638238" lon="11.2224951"><ele>297.2</ele><time>2026-04-26T12:57:00.612Z</time></trkpt><trkpt lat="43.1637353" lon="11.2225389"><ele>299.8</ele><time>2026-04-26T12:57:01.613Z</time></trkpt><trkpt lat="43.1636471" lon="11.2225695"><ele>302.4</ele><time>2026-04-26T12:57:02.612Z</time></trkpt><trkpt lat="43.1635549" lon="11.2225861"><ele>305.0</ele><time>2026-04-26T12:57:03.612Z</time></trkpt><trkpt lat="43.1634559" lon="11.2225883"><ele>305.0</ele><time>2026-04-26T12:57:04.612Z</time></trkpt><trkpt lat="43.1633526" lon="11.2225639"><ele>305.0</ele><time>2026-04-26T12:57:05.612Z</time></trkpt><trkpt lat="43.1632537" lon="11.2225174"><ele>305.0</ele><time>2026-04-26T12:57:06.612Z</time></trkpt><trkpt lat="43.1631558" lon="11.222471"><ele>305.0</ele><time>2026-04-26T12:57:07.613Z</time></trkpt><trkpt lat="43.1630634" lon="11.2224362"><ele>305.0</ele><time>2026-04-26T12:57:08.612Z</time></trkpt><trkpt lat="43.1629664" lon="11.2224266"><ele>304.6</ele><time>2026-04-26T12:57:09.612Z</time></trkpt><trkpt lat="43.1628715" lon="11.2224491"><ele>304.2</ele><time>2026-04-26T12:57:10.612Z</time></trkpt><trkpt lat="43.1627832" lon="11.222478"><ele>303.8</ele><time>2026-04-26T12:57:11.612Z</time></trkpt><trkpt lat="43.1626994" lon="11.2225226"><ele>303.4</ele><time>2026-04-26T12:57:12.612Z</time></trkpt><trkpt lat="43.1626119" lon="11.2225696"><ele>303.0</ele><time>2026-04-26T12:57:13.612Z</time></trkpt><trkpt lat="43.1625285" lon="11.2226209"><ele>303.0</ele><time>2026-04-26T12:57:14.612Z</time></trkpt><trkpt lat="43.1624429" lon="11.2226651"><ele>303.0</ele><time>2026-04-26T12:57:15.612Z</time></trkpt><trkpt lat="43.1623487" lon="11.222696"><ele>303.0</ele><time>2026-04-26T12:57:16.613Z</time></trkpt><trkpt lat="43.1622518" lon="11.2227055"><ele>303.0</ele><time>2026-04-26T12:57:17.612Z</time></trkpt><trkpt lat="43.1621455" lon="11.2227027"><ele>303.0</ele><time>2026-04-26T12:57:18.612Z</time></trkpt><trkpt lat="43.1620373" lon="11.2226907"><ele>301.2</ele><time>2026-04-26T12:57:19.612Z</time></trkpt><trkpt lat="43.1619312" lon="11.222678"><ele>299.4</ele><time>2026-04-26T12:57:20.612Z</time></trkpt><trkpt lat="43.161824" lon="11.2226607"><ele>297.59999999999997</ele><time>2026-04-26T12:57:21.612Z</time></trkpt><trkpt lat="43.1617228" lon="11.2226348"><ele>295.8</ele><time>2026-04-26T12:57:22.612Z</time></trkpt><trkpt lat="43.1616273" lon="11.2226132"><ele>294.0</ele><time>2026-04-26T12:57:23.612Z</time></trkpt><trkpt lat="43.1615271" lon="11.2225825"><ele>293.0</ele><time>2026-04-26T12:57:24.612Z</time></trkpt><trkpt lat="43.1614198" lon="11.2225526"><ele>292.0</ele><time>2026-04-26T12:57:25.612Z</time></trkpt><trkpt lat="43.1613117" lon="11.2225246"><ele>291.0</ele><time>2026-04-26T12:57:26.612Z</time></trkpt><trkpt lat="43.1611964" lon="11.2225052"><ele>290.0</ele><time>2026-04-26T12:57:27.612Z</time></trkpt><trkpt lat="43.1610696" lon="11.2224995"><ele>290.0</ele><time>2026-04-26T12:57:28.612Z</time></trkpt><trkpt lat="43.1609394" lon="11.2224973"><ele>290.0</ele><time>2026-04-26T12:57:29.612Z</time></trkpt><trkpt lat="43.1608056" lon="11.2225014"><ele>290.0</ele><time>2026-04-26T12:57:30.613Z</time></trkpt><trkpt lat="43.1606725" lon="11.2225129"><ele>290.0</ele><time>2026-04-26T12:57:31.613Z</time></trkpt><trkpt lat="43.1605385" lon="11.2225273"><ele>288.75</ele><time>2026-04-26T12:57:32.612Z</time></trkpt><trkpt lat="43.1604106" lon="11.2225389"><ele>287.5</ele><time>2026-04-26T12:57:33.612Z</time></trkpt><trkpt lat="43.16028" lon="11.2225448"><ele>286.25</ele><time>2026-04-26T12:57:34.612Z</time></trkpt><trkpt lat="43.1601484" lon="11.2225493"><ele>285.0</ele><time>2026-04-26T12:57:35.612Z</time></trkpt><trkpt lat="43.1600233" lon="11.2225703"><ele>285.0</ele><time>2026-04-26T12:57:36.612Z</time></trkpt><trkpt lat="43.1599051" lon="11.2226094"><ele>285.0</ele><time>2026-04-26T12:57:37.612Z</time></trkpt><trkpt lat="43.1597921" lon="11.2226534"><ele>285.0</ele><time>2026-04-26T12:57:38.612Z</time></trkpt><trkpt lat="43.1596807" lon="11.2227054"><ele>285.0</ele><time>2026-04-26T12:57:39.612Z</time></trkpt><trkpt lat="43.1595713" lon="11.2227488"><ele>283.2</ele><time>2026-04-26T12:57:40.612Z</time></trkpt><trkpt lat="43.159461" lon="11.2227865"><ele>281.4</ele><time>2026-04-26T12:57:41.612Z</time></trkpt><trkpt lat="43.1593546" lon="11.2228103"><ele>279.6</ele><time>2026-04-26T12:57:42.613Z</time></trkpt><trkpt lat="43.1592505" lon="11.222812"><ele>277.8</ele><time>2026-04-26T12:57:43.612Z</time></trkpt><trkpt lat="43.1591462" lon="11.2228115"><ele>276.0</ele><time>2026-04-26T12:57:44.612Z</time></trkpt><trkpt lat="43.159042" lon="11.2228162"><ele>274.40000000000003</ele><time>2026-04-26T12:57:45.612Z</time></trkpt><trkpt lat="43.1589472" lon="11.2228164"><ele>272.8</ele><time>2026-04-26T12:57:46.612Z</time></trkpt><trkpt lat="43.1588417" lon="11.2228208"><ele>271.20000000000005</ele><time>2026-04-26T12:57:47.613Z</time></trkpt><trkpt lat="43.1587344" lon="11.2228406"><ele>269.6</ele><time>2026-04-26T12:57:48.612Z</time></trkpt><trkpt lat="43.1586347" lon="11.2228866"><ele>268.0</ele><time>2026-04-26T12:57:49.613Z</time></trkpt><trkpt lat="43.1585441" lon="11.2229619"><ele>268.0</ele><time>2026-04-26T12:57:50.612Z</time></trkpt><trkpt lat="43.1584659" lon="11.2230591"><ele>268.0</ele><time>2026-04-26T12:57:51.612Z</time></trkpt><trkpt lat="43.1583962" lon="11.2231641"><ele>268.0</ele><time>2026-04-26T12:57:52.613Z</time></trkpt><trkpt lat="43.1583314" lon="11.2232642"><ele>268.0</ele><time>2026-04-26T12:57:53.612Z</time></trkpt><trkpt lat="43.158262" lon="11.2233409"><ele>268.0</ele><time>2026-04-26T12:57:54.613Z</time></trkpt><trkpt lat="43.1581777" lon="11.2233909"><ele>270.2</ele><time>2026-04-26T12:57:55.613Z</time></trkpt><trkpt lat="43.1580847" lon="11.223401"><ele>272.4</ele><time>2026-04-26T12:57:56.612Z</time></trkpt><trkpt lat="43.1579905" lon="11.2233665"><ele>274.59999999999997</ele><time>2026-04-26T12:57:57.612Z</time></trkpt><trkpt lat="43.1578888" lon="11.2233097"><ele>276.8</ele><time>2026-04-26T12:57:58.613Z</time></trkpt><trkpt lat="43.1577877" lon="11.2232462"><ele>279.0</ele><time>2026-04-26T12:57:59.612Z</time></trkpt><trkpt lat="43.1576778" lon="11.223181"><ele>276.0</ele><time>2026-04-26T12:58:00.612Z</time></trkpt><trkpt lat="43.1575709" lon="11.2231264"><ele>273.0</ele><time>2026-04-26T12:58:01.612Z</time></trkpt><trkpt lat="43.1574539" lon="11.2230868"><ele>270.0</ele><time>2026-04-26T12:58:02.612Z</time></trkpt><trkpt lat="43.157338" lon="11.2230922"><ele>267.0</ele><time>2026-04-26T12:58:03.612Z</time></trkpt><trkpt lat="43.1572231" lon="11.2231335"><ele>267.75</ele><time>2026-04-26T12:58:04.612Z</time></trkpt><trkpt lat="43.1571067" lon="11.223199"><ele>268.5</ele><time>2026-04-26T12:58:05.612Z</time></trkpt><trkpt lat="43.1569932" lon="11.2233002"><ele>269.25</ele><time>2026-04-26T12:58:06.612Z</time></trkpt><trkpt lat="43.1568791" lon="11.2234159"><ele>270.0</ele><time>2026-04-26T12:58:07.613Z</time></trkpt><trkpt lat="43.156774" lon="11.2235306"><ele>270.0</ele><time>2026-04-26T12:58:08.612Z</time></trkpt><trkpt lat="43.1566664" lon="11.2236327"><ele>270.0</ele><time>2026-04-26T12:58:09.613Z</time></trkpt><trkpt lat="43.1565553" lon="11.2237268"><ele>270.0</ele><time>2026-04-26T12:58:10.613Z</time></trkpt><trkpt lat="43.1564401" lon="11.2238076"><ele>270.0</ele><time>2026-04-26T12:58:11.612Z</time></trkpt><trkpt lat="43.1563199" lon="11.2238729"><ele>266.75</ele><time>2026-04-26T12:58:12.612Z</time></trkpt><trkpt lat="43.1561893" lon="11.2239337"><ele>263.5</ele><time>2026-04-26T12:58:13.612Z</time></trkpt><trkpt lat="43.1560589" lon="11.2239826"><ele>260.25</ele><time>2026-04-26T12:58:14.612Z</time></trkpt><trkpt lat="43.1559248" lon="11.2240282"><ele>257.0</ele><time>2026-04-26T12:58:15.612Z</time></trkpt><trkpt lat="43.155792" lon="11.2240663"><ele>265.5</ele><time>2026-04-26T12:58:16.612Z</time></trkpt><trkpt lat="43.1556691" lon="11.2240972"><ele>274.0</ele><time>2026-04-26T12:58:17.612Z</time></trkpt><trkpt lat="43.155557" lon="11.2241143"><ele>282.5</ele><time>2026-04-26T12:58:18.612Z</time></trkpt><trkpt lat="43.1554406" lon="11.2241124"><ele>291.0</ele><time>2026-04-26T12:58:19.613Z</time></trkpt><trkpt lat="43.1553208" lon="11.2240959"><ele>291.0</ele><time>2026-04-26T12:58:20.612Z</time></trkpt><trkpt lat="43.1551933" lon="11.2240584"><ele>291.0</ele><time>2026-04-26T12:58:21.613Z</time></trkpt><trkpt lat="43.1550705" lon="11.22398"><ele>291.0</ele><time>2026-04-26T12:58:22.612Z</time></trkpt><trkpt lat="43.1549602" lon="11.2238883"><ele>291.0</ele><time>2026-04-26T12:58:23.613Z</time></trkpt><trkpt lat="43.1548497" lon="11.2238089"><ele>284.5</ele><time>2026-04-26T12:58:24.612Z</time></trkpt><trkpt lat="43.1547423" lon="11.2237554"><ele>278.0</ele><time>2026-04-26T12:58:25.612Z</time></trkpt><trkpt lat="43.1546342" lon="11.2237348"><ele>271.5</ele><time>2026-04-26T12:58:26.612Z</time></trkpt><trkpt lat="43.1545249" lon="11.2237576"><ele>265.0</ele><time>2026-04-26T12:58:27.612Z</time></trkpt><trkpt lat="43.1544137" lon="11.2238212"><ele>265.0</ele><time>2026-04-26T12:58:28.612Z</time></trkpt><trkpt lat="43.1543131" lon="11.2239306"><ele>265.0</ele><time>2026-04-26T12:58:29.612Z</time></trkpt><trkpt lat="43.1542129" lon="11.224047"><ele>265.0</ele><time>2026-04-26T12:58:30.612Z</time></trkpt><trkpt lat="43.1541157" lon="11.2241619"><ele>265.0</ele><time>2026-04-26T12:58:31.612Z</time></trkpt><trkpt lat="43.154024" lon="11.2242705"><ele>268.0</ele><time>2026-04-26T12:58:32.612Z</time></trkpt><trkpt lat="43.1539292" lon="11.2243646"><ele>271.0</ele><time>2026-04-26T12:58:33.612Z</time></trkpt><trkpt lat="43.1538214" lon="11.2244395"><ele>274.0</ele><time>2026-04-26T12:58:34.612Z</time></trkpt><trkpt lat="43.1536982" lon="11.2244976"><ele>277.0</ele><time>2026-04-26T12:58:35.612Z</time></trkpt><trkpt lat="43.1535831" lon="11.2245387"><ele>277.0</ele><time>2026-04-26T12:58:36.612Z</time></trkpt><trkpt lat="43.1534675" lon="11.2245644"><ele>277.0</ele><time>2026-04-26T12:58:37.613Z</time></trkpt><trkpt lat="43.1533551" lon="11.2245665"><ele>277.0</ele><time>2026-04-26T12:58:38.612Z</time></trkpt><trkpt lat="43.1532387" lon="11.2245478"><ele>277.0</ele><time>2026-04-26T12:58:39.612Z</time></trkpt><trkpt lat="43.1531209" lon="11.2244934"><ele>276.75</ele><time>2026-04-26T12:58:40.612Z</time></trkpt><trkpt lat="43.1530072" lon="11.2244298"><ele>276.5</ele><time>2026-04-26T12:58:41.613Z</time></trkpt><trkpt lat="43.1528949" lon="11.2243761"><ele>276.25</ele><time>2026-04-26T12:58:42.612Z</time></trkpt><trkpt lat="43.1527629" lon="11.2243567"><ele>276.0</ele><time>2026-04-26T12:58:43.613Z</time></trkpt><trkpt lat="43.1526256" lon="11.224348"><ele>276.0</ele><time>2026-04-26T12:58:44.612Z</time></trkpt><trkpt lat="43.1524822" lon="11.2243437"><ele>276.0</ele><time>2026-04-26T12:58:45.612Z</time></trkpt><trkpt lat="43.1523363" lon="11.2243383"><ele>276.0</ele><time>2026-04-26T12:58:46.612Z</time></trkpt><trkpt lat="43.1521879" lon="11.224353"><ele>276.0</ele><time>2026-04-26T12:58:47.612Z</time></trkpt><trkpt lat="43.1520439" lon="11.2243729"><ele>274.5</ele><time>2026-04-26T12:58:48.612Z</time></trkpt><trkpt lat="43.151899" lon="11.2244011"><ele>273.0</ele><time>2026-04-26T12:58:49.612Z</time></trkpt><trkpt lat="43.1517528" lon="11.2244416"><ele>271.5</ele><time>2026-04-26T12:58:50.612Z</time></trkpt><trkpt lat="43.15161" lon="11.2244909"><ele>270.0</ele><time>2026-04-26T12:58:51.612Z</time></trkpt><trkpt lat="43.1514725" lon="11.2245433"><ele>268.75</ele><time>2026-04-26T12:58:52.613Z</time></trkpt><trkpt lat="43.1513373" lon="11.2245976"><ele>267.5</ele><time>2026-04-26T12:58:53.613Z</time></trkpt><trkpt lat="43.151206" lon="11.2246673"><ele>266.25</ele><time>2026-04-26T12:58:54.612Z</time></trkpt><trkpt lat="43.151081" lon="11.2247532"><ele>265.0</ele><time>2026-04-26T12:58:55.613Z</time></trkpt><trkpt lat="43.1509611" lon="11.2248581"><ele>267.3333333333333</ele><time>2026-04-26T12:58:56.613Z</time></trkpt><trkpt lat="43.1508406" lon="11.2249837"><ele>269.6666666666667</ele><time>2026-04-26T12:58:57.612Z</time></trkpt><trkpt lat="43.1507132" lon="11.2251233"><ele>272.0</ele><time>2026-04-26T12:58:58.612Z</time></trkpt><trkpt lat="43.1505837" lon="11.2252523"><ele>272.0</ele><time>2026-04-26T12:58:59.612Z</time></trkpt><trkpt lat="43.1504589" lon="11.2253764"><ele>272.0</ele><time>2026-04-26T12:59:00.612Z</time></trkpt><trkpt lat="43.1503432" lon="11.2254886"><ele>272.0</ele><time>2026-04-26T12:59:01.612Z</time></trkpt><trkpt lat="43.1502368" lon="11.2255721"><ele>272.0</ele><time>2026-04-26T12:59:02.612Z</time></trkpt><trkpt lat="43.1501439" lon="11.2256256"><ele>272.6666666666667</ele><time>2026-04-26T12:59:03.612Z</time></trkpt><trkpt lat="43.1500707" lon="11.2256622"><ele>273.33333333333337</ele><time>2026-04-26T12:59:04.612Z</time></trkpt><trkpt lat="43.1500051" lon="11.2256835"><ele>274.0</ele><time>2026-04-26T12:59:05.612Z</time></trkpt><trkpt lat="43.1499288" lon="11.2257011"><ele>274.6666666666667</ele><time>2026-04-26T12:59:06.612Z</time></trkpt><trkpt lat="43.1498527" lon="11.225719"><ele>275.3333333333333</ele><time>2026-04-26T12:59:07.612Z</time></trkpt><trkpt lat="43.1497603" lon="11.2257336"><ele>276.0</ele><time>2026-04-26T12:59:08.612Z</time></trkpt><trkpt lat="43.1496484" lon="11.2257565"><ele>276.0</ele><time>2026-04-26T12:59:09.612Z</time></trkpt><trkpt lat="43.1495282" lon="11.2257849"><ele>276.0</ele><time>2026-04-26T12:59:10.612Z</time></trkpt><trkpt lat="43.1493941" lon="11.2258109"><ele>276.0</ele><time>2026-04-26T12:59:11.612Z</time></trkpt><trkpt lat="43.1492478" lon="11.2258365"><ele>276.0</ele><time>2026-04-26T12:59:12.612Z</time></trkpt><trkpt lat="43.1490825" lon="11.2258712"><ele>274.3333333333333</ele><time>2026-04-26T12:59:13.612Z</time></trkpt><trkpt lat="43.1488975" lon="11.2259124"><ele>272.66666666666663</ele><time>2026-04-26T12:59:14.612Z</time></trkpt><trkpt lat="43.1487065" lon="11.2259542"><ele>271.0</ele><time>2026-04-26T12:59:15.613Z</time></trkpt><trkpt lat="43.1485409" lon="11.2259898"><ele>271.0</ele><time>2026-04-26T12:59:16.612Z</time></trkpt><trkpt lat="43.1484036" lon="11.2260272"><ele>271.0</ele><time>2026-04-26T12:59:17.612Z</time></trkpt><trkpt lat="43.148311" lon="11.226045"><ele>271.0</ele><time>2026-04-26T12:59:18.612Z</time></trkpt><trkpt lat="43.1482295" lon="11.2260605"><ele>271.0</ele><time>2026-04-26T12:59:19.612Z</time></trkpt><trkpt lat="43.1481602" lon="11.2260485"><ele>271.0</ele><time>2026-04-26T12:59:20.612Z</time></trkpt><trkpt lat="43.1481153" lon="11.2258977"><ele>270.75</ele><time>2026-04-26T12:59:22.612Z</time></trkpt><trkpt lat="43.1481463" lon="11.2257452"><ele>270.5</ele><time>2026-04-26T12:59:23.612Z</time></trkpt><trkpt lat="43.1481969" lon="11.2255544"><ele>270.25</ele><time>2026-04-26T12:59:24.613Z</time></trkpt><trkpt lat="43.1482578" lon="11.2253408"><ele>270.0</ele><time>2026-04-26T12:59:25.612Z</time></trkpt><trkpt lat="43.1483127" lon="11.2251424"><ele>268.75</ele><time>2026-04-26T12:59:26.612Z</time></trkpt><trkpt lat="43.1483557" lon="11.2249549"><ele>267.5</ele><time>2026-04-26T12:59:27.613Z</time></trkpt><trkpt lat="43.1483992" lon="11.2247727"><ele>266.25</ele><time>2026-04-26T12:59:28.612Z</time></trkpt><trkpt lat="43.1484446" lon="11.2245945"><ele>265.0</ele><time>2026-04-26T12:59:29.612Z</time></trkpt><trkpt lat="43.1484906" lon="11.2244124"><ele>264.0</ele><time>2026-04-26T12:59:30.613Z</time></trkpt><trkpt lat="43.1485359" lon="11.2242287"><ele>263.0</ele><time>2026-04-26T12:59:31.612Z</time></trkpt><trkpt lat="43.148579" lon="11.224048"><ele>262.0</ele><time>2026-04-26T12:59:32.612Z</time></trkpt><trkpt lat="43.1486212" lon="11.223872"><ele>261.0</ele><time>2026-04-26T12:59:33.612Z</time></trkpt><trkpt lat="43.1486623" lon="11.2236877"><ele>260.25</ele><time>2026-04-26T12:59:34.612Z</time></trkpt><trkpt lat="43.1487082" lon="11.2235035"><ele>259.5</ele><time>2026-04-26T12:59:35.613Z</time></trkpt><trkpt lat="43.1487556" lon="11.2233216"><ele>258.75</ele><time>2026-04-26T12:59:36.612Z</time></trkpt><trkpt lat="43.1488003" lon="11.2231489"><ele>258.0</ele><time>2026-04-26T12:59:37.612Z</time></trkpt><trkpt lat="43.1488403" lon="11.222983"><ele>258.0</ele><time>2026-04-26T12:59:38.612Z</time></trkpt><trkpt lat="43.1488802" lon="11.222822"><ele>258.0</ele><time>2026-04-26T12:59:39.612Z</time></trkpt><trkpt lat="43.1489149" lon="11.2226592"><ele>258.0</ele><time>2026-04-26T12:59:40.613Z</time></trkpt><trkpt lat="43.1489535" lon="11.2224913"><ele>258.0</ele><time>2026-04-26T12:59:41.612Z</time></trkpt><trkpt lat="43.1489945" lon="11.2223215"><ele>258.25</ele><time>2026-04-26T12:59:42.612Z</time></trkpt><trkpt lat="43.1490307" lon="11.2221562"><ele>258.5</ele><time>2026-04-26T12:59:43.612Z</time></trkpt><trkpt lat="43.1490565" lon="11.2219911"><ele>258.75</ele><time>2026-04-26T12:59:44.612Z</time></trkpt><trkpt lat="43.1490692" lon="11.221826"><ele>259.0</ele><time>2026-04-26T12:59:45.612Z</time></trkpt><trkpt lat="43.1490841" lon="11.2216594"><ele>259.0</ele><time>2026-04-26T12:59:46.612Z</time></trkpt><trkpt lat="43.1490993" lon="11.221505"><ele>259.0</ele><time>2026-04-26T12:59:47.612Z</time></trkpt><trkpt lat="43.1491114" lon="11.2213614"><ele>259.0</ele><time>2026-04-26T12:59:48.612Z</time></trkpt><trkpt lat="43.1491115" lon="11.2212409"><ele>259.0</ele><time>2026-04-26T12:59:49.612Z</time></trkpt><trkpt lat="43.1490965" lon="11.2211245"><ele>259.0</ele><time>2026-04-26T12:59:50.612Z</time></trkpt><trkpt lat="43.1490566" lon="11.2210021"><ele>258.75</ele><time>2026-04-26T12:59:51.612Z</time></trkpt><trkpt lat="43.1489923" lon="11.220877"><ele>258.5</ele><time>2026-04-26T12:59:52.612Z</time></trkpt><trkpt lat="43.1489197" lon="11.2207425"><ele>258.25</ele><time>2026-04-26T12:59:53.613Z</time></trkpt><trkpt lat="43.1488445" lon="11.2205979"><ele>258.0</ele><time>2026-04-26T12:59:54.613Z</time></trkpt><trkpt lat="43.1487674" lon="11.2204375"><ele>258.0</ele><time>2026-04-26T12:59:55.612Z</time></trkpt><trkpt lat="43.1486955" lon="11.2202675"><ele>258.0</ele><time>2026-04-26T12:59:56.612Z</time></trkpt><trkpt lat="43.1486223" lon="11.2200992"><ele>258.0</ele><time>2026-04-26T12:59:57.612Z</time></trkpt><trkpt lat="43.1485486" lon="11.2199348"><ele>258.0</ele><time>2026-04-26T12:59:58.613Z</time></trkpt><trkpt lat="43.1484819" lon="11.2197735"><ele>258.5</ele><time>2026-04-26T12:59:59.612Z</time></trkpt><trkpt lat="43.1484134" lon="11.219621"><ele>259.0</ele><time>2026-04-26T13:00:00.612Z</time></trkpt><trkpt lat="43.1483469" lon="11.2194693"><ele>259.5</ele><time>2026-04-26T13:00:01.612Z</time></trkpt><trkpt lat="43.1482798" lon="11.2193157"><ele>260.0</ele><time>2026-04-26T13:00:02.612Z</time></trkpt><trkpt lat="43.1482118" lon="11.2191586"><ele>258.75</ele><time>2026-04-26T13:00:03.612Z</time></trkpt><trkpt lat="43.1481449" lon="11.2190085"><ele>257.5</ele><time>2026-04-26T13:00:04.612Z</time></trkpt><trkpt lat="43.1480773" lon="11.218869"><ele>256.25</ele><time>2026-04-26T13:00:05.612Z</time></trkpt><trkpt lat="43.1480087" lon="11.2187425"><ele>255.0</ele><time>2026-04-26T13:00:06.612Z</time></trkpt><trkpt lat="43.1479313" lon="11.2186392"><ele>255.0</ele><time>2026-04-26T13:00:07.612Z</time></trkpt><trkpt lat="43.1478482" lon="11.2185592"><ele>255.0</ele><time>2026-04-26T13:00:08.612Z</time></trkpt><trkpt lat="43.1477699" lon="11.2184834"><ele>255.0</ele><time>2026-04-26T13:00:09.612Z</time></trkpt><trkpt lat="43.1477071" lon="11.2184062"><ele>255.0</ele><time>2026-04-26T13:00:10.612Z</time></trkpt><trkpt lat="43.1476631" lon="11.2183192"><ele>255.0</ele><time>2026-04-26T13:00:11.612Z</time></trkpt><trkpt lat="43.147629" lon="11.2181994"><ele>254.75</ele><time>2026-04-26T13:00:12.612Z</time></trkpt><trkpt lat="43.1476057" lon="11.218057"><ele>254.5</ele><time>2026-04-26T13:00:13.613Z</time></trkpt><trkpt lat="43.1475824" lon="11.217895"><ele>254.25</ele><time>2026-04-26T13:00:14.612Z</time></trkpt><trkpt lat="43.1475418" lon="11.2177225"><ele>254.0</ele><time>2026-04-26T13:00:15.612Z</time></trkpt><trkpt lat="43.1474791" lon="11.2175495"><ele>254.0</ele><time>2026-04-26T13:00:16.612Z</time></trkpt><trkpt lat="43.1473958" lon="11.2173838"><ele>254.0</ele><time>2026-04-26T13:00:17.612Z</time></trkpt><trkpt lat="43.1473142" lon="11.2172229"><ele>254.0</ele><time>2026-04-26T13:00:18.612Z</time></trkpt><trkpt lat="43.1472363" lon="11.2170868"><ele>254.0</ele><time>2026-04-26T13:00:19.612Z</time></trkpt><trkpt lat="43.1471655" lon="11.21696"><ele>258.8</ele><time>2026-04-26T13:00:20.612Z</time></trkpt><trkpt lat="43.1471127" lon="11.2168465"><ele>263.59999999999997</ele><time>2026-04-26T13:00:21.612Z</time></trkpt><trkpt lat="43.1470791" lon="11.2167324"><ele>268.4</ele><time>2026-04-26T13:00:22.612Z</time></trkpt><trkpt lat="43.147074" lon="11.2165891"><ele>273.2</ele><time>2026-04-26T13:00:23.612Z</time></trkpt><trkpt lat="43.1470928" lon="11.2164223"><ele>278.0</ele><time>2026-04-26T13:00:24.612Z</time></trkpt><trkpt lat="43.1471201" lon="11.2162338"><ele>279.75</ele><time>2026-04-26T13:00:25.612Z</time></trkpt><trkpt lat="43.1471598" lon="11.2160393"><ele>281.5</ele><time>2026-04-26T13:00:26.612Z</time></trkpt><trkpt lat="43.1472113" lon="11.2158416"><ele>283.25</ele><time>2026-04-26T13:00:27.612Z</time></trkpt><trkpt lat="43.1472521" lon="11.2156607"><ele>285.0</ele><time>2026-04-26T13:00:28.612Z</time></trkpt><trkpt lat="43.1472703" lon="11.2155011"><ele>285.0</ele><time>2026-04-26T13:00:29.612Z</time></trkpt><trkpt lat="43.1472754" lon="11.2153595"><ele>285.0</ele><time>2026-04-26T13:00:30.612Z</time></trkpt><trkpt lat="43.1472604" lon="11.2152194"><ele>285.0</ele><time>2026-04-26T13:00:31.612Z</time></trkpt><trkpt lat="43.1472131" lon="11.2150755"><ele>285.0</ele><time>2026-04-26T13:00:32.612Z</time></trkpt><trkpt lat="43.1471464" lon="11.214947"><ele>285.0</ele><time>2026-04-26T13:00:33.612Z</time></trkpt><trkpt lat="43.1470582" lon="11.2148393"><ele>281.6666666666667</ele><time>2026-04-26T13:00:34.612Z</time></trkpt><trkpt lat="43.1469571" lon="11.2147228"><ele>278.33333333333337</ele><time>2026-04-26T13:00:35.612Z</time></trkpt><trkpt lat="43.1468277" lon="11.214584"><ele>275.0</ele><time>2026-04-26T13:00:36.613Z</time></trkpt><trkpt lat="43.1466831" lon="11.214417"><ele>275.0</ele><time>2026-04-26T13:00:37.613Z</time></trkpt><trkpt lat="43.1465495" lon="11.2142657"><ele>275.0</ele><time>2026-04-26T13:00:38.612Z</time></trkpt><trkpt lat="43.146426" lon="11.2141296"><ele>275.0</ele><time>2026-04-26T13:00:39.612Z</time></trkpt><trkpt lat="43.146303" lon="11.2140168"><ele>275.25</ele><time>2026-04-26T13:00:40.613Z</time></trkpt><trkpt lat="43.1461753" lon="11.2139166"><ele>275.5</ele><time>2026-04-26T13:00:41.612Z</time></trkpt><trkpt lat="43.1460522" lon="11.2138252"><ele>275.75</ele><time>2026-04-26T13:00:42.613Z</time></trkpt><trkpt lat="43.1459335" lon="11.2137603"><ele>276.0</ele><time>2026-04-26T13:00:43.613Z</time></trkpt><trkpt lat="43.1458131" lon="11.2137096"><ele>276.5</ele><time>2026-04-26T13:00:44.612Z</time></trkpt><trkpt lat="43.1456857" lon="11.2136579"><ele>277.0</ele><time>2026-04-26T13:00:45.612Z</time></trkpt><trkpt lat="43.145559" lon="11.2136028"><ele>277.5</ele><time>2026-04-26T13:00:46.612Z</time></trkpt><trkpt lat="43.1454452" lon="11.2135442"><ele>278.0</ele><time>2026-04-26T13:00:47.612Z</time></trkpt><trkpt lat="43.1453352" lon="11.2134951"><ele>278.0</ele><time>2026-04-26T13:00:48.612Z</time></trkpt><trkpt lat="43.1452155" lon="11.2134742"><ele>278.0</ele><time>2026-04-26T13:00:49.612Z</time></trkpt><trkpt lat="43.145079" lon="11.2134749"><ele>278.0</ele><time>2026-04-26T13:00:50.613Z</time></trkpt><trkpt lat="43.1449332" lon="11.2135005"><ele>278.0</ele><time>2026-04-26T13:00:51.612Z</time></trkpt><trkpt lat="43.1448039" lon="11.2135262"><ele>277.75</ele><time>2026-04-26T13:00:52.612Z</time></trkpt><trkpt lat="43.1446833" lon="11.2135629"><ele>277.5</ele><time>2026-04-26T13:00:53.612Z</time></trkpt><trkpt lat="43.1445615" lon="11.2136095"><ele>277.25</ele><time>2026-04-26T13:00:54.612Z</time></trkpt><trkpt lat="43.1444306" lon="11.2136624"><ele>277.0</ele><time>2026-04-26T13:00:55.612Z</time></trkpt><trkpt lat="43.1443012" lon="11.2137126"><ele>277.0</ele><time>2026-04-26T13:00:56.613Z</time></trkpt><trkpt lat="43.1441784" lon="11.2137608"><ele>277.0</ele><time>2026-04-26T13:00:57.612Z</time></trkpt><trkpt lat="43.1440672" lon="11.2137891"><ele>277.0</ele><time>2026-04-26T13:00:58.612Z</time></trkpt><trkpt lat="43.1439533" lon="11.2138069"><ele>277.0</ele><time>2026-04-26T13:00:59.612Z</time></trkpt><trkpt lat="43.1438379" lon="11.2137993"><ele>277.5</ele><time>2026-04-26T13:01:00.612Z</time></trkpt><trkpt lat="43.1437288" lon="11.2137618"><ele>278.0</ele><time>2026-04-26T13:01:01.613Z</time></trkpt><trkpt lat="43.1436224" lon="11.2136942"><ele>278.5</ele><time>2026-04-26T13:01:02.613Z</time></trkpt><trkpt lat="43.1435129" lon="11.2136184"><ele>279.0</ele><time>2026-04-26T13:01:03.612Z</time></trkpt><trkpt lat="43.1434039" lon="11.2135137"><ele>279.0</ele><time>2026-04-26T13:01:04.612Z</time></trkpt><trkpt lat="43.1433148" lon="11.2133972"><ele>279.0</ele><time>2026-04-26T13:01:05.612Z</time></trkpt><trkpt lat="43.1432425" lon="11.2132757"><ele>279.0</ele><time>2026-04-26T13:01:06.612Z</time></trkpt><trkpt lat="43.1431749" lon="11.213153"><ele>279.0</ele><time>2026-04-26T13:01:07.612Z</time></trkpt><trkpt lat="43.1431186" lon="11.2130257"><ele>278.0</ele><time>2026-04-26T13:01:08.612Z</time></trkpt><trkpt lat="43.1430774" lon="11.2128833"><ele>277.0</ele><time>2026-04-26T13:01:09.612Z</time></trkpt><trkpt lat="43.1430445" lon="11.2127419"><ele>276.0</ele><time>2026-04-26T13:01:10.613Z</time></trkpt><trkpt lat="43.1430112" lon="11.2126093"><ele>275.0</ele><time>2026-04-26T13:01:11.613Z</time></trkpt><trkpt lat="43.1429657" lon="11.2124783"><ele>274.0</ele><time>2026-04-26T13:01:12.613Z</time></trkpt><trkpt lat="43.1429042" lon="11.2123619"><ele>272.2</ele><time>2026-04-26T13:01:13.612Z</time></trkpt><trkpt lat="43.142822" lon="11.2122653"><ele>270.4</ele><time>2026-04-26T13:01:14.612Z</time></trkpt><trkpt lat="43.1427284" lon="11.2122059"><ele>268.6</ele><time>2026-04-26T13:01:15.612Z</time></trkpt><trkpt lat="43.1426352" lon="11.2121718"><ele>266.8</ele><time>2026-04-26T13:01:16.613Z</time></trkpt><trkpt lat="43.1425347" lon="11.2121644"><ele>265.0</ele><time>2026-04-26T13:01:17.612Z</time></trkpt><trkpt lat="43.1424441" lon="11.2121815"><ele>265.5</ele><time>2026-04-26T13:01:18.612Z</time></trkpt><trkpt lat="43.1423591" lon="11.2122155"><ele>266.0</ele><time>2026-04-26T13:01:19.612Z</time></trkpt><trkpt lat="43.1422844" lon="11.2122565"><ele>266.5</ele><time>2026-04-26T13:01:20.612Z</time></trkpt><trkpt lat="43.142223" lon="11.2122837"><ele>267.0</ele><time>2026-04-26T13:01:21.612Z</time></trkpt><trkpt lat="43.1421447" lon="11.2122669"><ele>267.5</ele><time>2026-04-26T13:01:23.613Z</time></trkpt><trkpt lat="43.1421931" lon="11.2121508"><ele>268.0</ele><time>2026-04-26T13:01:25.612Z</time></trkpt><trkpt lat="43.142253" lon="11.2120899"><ele>268.0</ele><time>2026-04-26T13:01:26.613Z</time></trkpt><trkpt lat="43.1423454" lon="11.2120307"><ele>268.0</ele><time>2026-04-26T13:01:27.612Z</time></trkpt><trkpt lat="43.1424335" lon="11.2119851"><ele>268.0</ele><time>2026-04-26T13:01:28.612Z</time></trkpt><trkpt lat="43.1425077" lon="11.2119373"><ele>268.0</ele><time>2026-04-26T13:01:29.612Z</time></trkpt><trkpt lat="43.1425989" lon="11.2118478"><ele>268.0</ele><time>2026-04-26T13:01:31.612Z</time></trkpt><trkpt lat="43.1426709" lon="11.2117406"><ele>268.4</ele><time>2026-04-26T13:01:33.612Z</time></trkpt><trkpt lat="43.1427578" lon="11.2116384"><ele>268.8</ele><time>2026-04-26T13:01:35.612Z</time></trkpt><trkpt lat="43.1428467" lon="11.2115472"><ele>269.2</ele><time>2026-04-26T13:01:37.612Z</time></trkpt><trkpt lat="43.1427923" lon="11.2114761"><ele>269.6</ele><time>2026-04-26T13:01:41.613Z</time></trkpt><trkpt lat="43.1426935" lon="11.2114971"><ele>270.0</ele><time>2026-04-26T13:01:43.612Z</time></trkpt><trkpt lat="43.1426122" lon="11.2115459"><ele>269.6</ele><time>2026-04-26T13:01:45.612Z</time></trkpt><trkpt lat="43.1425221" lon="11.2116328"><ele>269.2</ele><time>2026-04-26T13:01:47.612Z</time></trkpt><trkpt lat="43.1424063" lon="11.2117047"><ele>268.8</ele><time>2026-04-26T13:01:49.612Z</time></trkpt><trkpt lat="43.1423436" lon="11.2117283"><ele>268.4</ele><time>2026-04-26T13:01:50.613Z</time></trkpt><trkpt lat="43.1422607" lon="11.2117357"><ele>268.0</ele><time>2026-04-26T13:01:52.612Z</time></trkpt><trkpt lat="43.1421904" lon="11.2117803"><ele>268.0</ele><time>2026-04-26T13:02:03.612Z</time></trkpt><trkpt lat="43.1421044" lon="11.211886"><ele>268.0</ele><time>2026-04-26T13:02:05.612Z</time></trkpt><trkpt lat="43.1420465" lon="11.2119465"><ele>268.0</ele><time>2026-04-26T13:02:06.612Z</time></trkpt><trkpt lat="43.1419742" lon="11.2120104"><ele>268.0</ele><time>2026-04-26T13:02:07.612Z</time></trkpt><trkpt lat="43.1418768" lon="11.2120862"><ele>268.0</ele><time>2026-04-26T13:02:08.612Z</time></trkpt><trkpt lat="43.1417747" lon="11.2121683"><ele>268.0</ele><time>2026-04-26T13:02:09.612Z</time></trkpt><trkpt lat="43.1416867" lon="11.2122369"><ele>268.0</ele><time>2026-04-26T13:02:10.612Z</time></trkpt><trkpt lat="43.1416045" lon="11.2122845"><ele>268.0</ele><time>2026-04-26T13:02:11.612Z</time></trkpt><trkpt lat="43.1415155" lon="11.2123238"><ele>268.0</ele><time>2026-04-26T13:02:12.612Z</time></trkpt><trkpt lat="43.1414404" lon="11.2123656"><ele>268.0</ele><time>2026-04-26T13:02:13.612Z</time></trkpt><trkpt lat="43.1413322" lon="11.2124324"><ele>268.4</ele><time>2026-04-26T13:02:15.612Z</time></trkpt><trkpt lat="43.1412372" lon="11.2124274"><ele>268.8</ele><time>2026-04-26T13:02:17.612Z</time></trkpt><trkpt lat="43.1411085" lon="11.2123964"><ele>269.2</ele><time>2026-04-26T13:02:19.612Z</time></trkpt><trkpt lat="43.1410343" lon="11.2123873"><ele>269.6</ele><time>2026-04-26T13:02:20.612Z</time></trkpt><trkpt lat="43.1409682" lon="11.2123767"><ele>270.0</ele><time>2026-04-26T13:02:21.613Z</time></trkpt><trkpt lat="43.1408352" lon="11.2124262"><ele>270.0</ele><time>2026-04-26T13:02:23.612Z</time></trkpt><trkpt lat="43.1407631" lon="11.2124887"><ele>270.0</ele><time>2026-04-26T13:02:24.613Z</time></trkpt><trkpt lat="43.1406961" lon="11.2125335"><ele>270.0</ele><time>2026-04-26T13:02:25.612Z</time></trkpt><trkpt lat="43.1405759" lon="11.2124697"><ele>270.0</ele><time>2026-04-26T13:02:27.612Z</time></trkpt><trkpt lat="43.1405211" lon="11.2124073"><ele>270.0</ele><time>2026-04-26T13:02:28.612Z</time></trkpt><trkpt lat="43.1403938" lon="11.2124596"><ele>273.4</ele><time>2026-04-26T13:02:30.613Z</time></trkpt><trkpt lat="43.1403355" lon="11.2125492"><ele>276.8</ele><time>2026-04-26T13:02:31.612Z</time></trkpt><trkpt lat="43.1402807" lon="11.2126399"><ele>280.2</ele><time>2026-04-26T13:02:32.612Z</time></trkpt><trkpt lat="43.1401734" lon="11.2127067"><ele>283.6</ele><time>2026-04-26T13:02:34.612Z</time></trkpt><trkpt lat="43.1400558" lon="11.2126544"><ele>287.0</ele><time>2026-04-26T13:02:36.612Z</time></trkpt><trkpt lat="43.1400056" lon="11.2125711"><ele>287.0</ele><time>2026-04-26T13:02:37.612Z</time></trkpt><trkpt lat="43.1399471" lon="11.2124585"><ele>287.0</ele><time>2026-04-26T13:02:38.612Z</time></trkpt><trkpt lat="43.1398775" lon="11.2123542"><ele>287.0</ele><time>2026-04-26T13:02:39.612Z</time></trkpt><trkpt lat="43.1398147" lon="11.2122539"><ele>287.0</ele><time>2026-04-26T13:02:40.612Z</time></trkpt><trkpt lat="43.1397644" lon="11.2121643"><ele>287.0</ele><time>2026-04-26T13:02:41.612Z</time></trkpt><trkpt lat="43.139743" lon="11.2120701"><ele>290.1666666666667</ele><time>2026-04-26T13:02:42.612Z</time></trkpt><trkpt lat="43.1397325" lon="11.2119747"><ele>293.33333333333337</ele><time>2026-04-26T13:02:43.612Z</time></trkpt><trkpt lat="43.1397182" lon="11.2118737"><ele>296.5</ele><time>2026-04-26T13:02:44.612Z</time></trkpt><trkpt lat="43.1396788" lon="11.2117905"><ele>299.6666666666667</ele><time>2026-04-26T13:02:46.613Z</time></trkpt><trkpt lat="43.139649" lon="11.2116667"><ele>302.8333333333333</ele><time>2026-04-26T13:02:50.612Z</time></trkpt><trkpt lat="43.1396028" lon="11.2115654"><ele>306.0</ele><time>2026-04-26T13:02:51.612Z</time></trkpt><trkpt lat="43.1395408" lon="11.2114447"><ele>306.0</ele><time>2026-04-26T13:02:52.612Z</time></trkpt><trkpt lat="43.1394678" lon="11.2112957"><ele>306.0</ele><time>2026-04-26T13:02:53.612Z</time></trkpt><trkpt lat="43.1394063" lon="11.2111557"><ele>306.0</ele><time>2026-04-26T13:02:54.612Z</time></trkpt><trkpt lat="43.1393655" lon="11.2110372"><ele>306.0</ele><time>2026-04-26T13:02:55.612Z</time></trkpt><trkpt lat="43.1393317" lon="11.2109191"><ele>306.0</ele><time>2026-04-26T13:02:56.613Z</time></trkpt><trkpt lat="43.1393016" lon="11.2108105"><ele>306.0</ele><time>2026-04-26T13:02:57.612Z</time></trkpt><trkpt lat="43.1392714" lon="11.2107255"><ele>306.0</ele><time>2026-04-26T13:02:58.613Z</time></trkpt><trkpt lat="43.139212" lon="11.2106515"><ele>306.0</ele><time>2026-04-26T13:02:59.612Z</time></trkpt><trkpt lat="43.1391385" lon="11.2105872"><ele>306.0</ele><time>2026-04-26T13:03:00.613Z</time></trkpt><trkpt lat="43.1390585" lon="11.2105202"><ele>306.0</ele><time>2026-04-26T13:03:01.613Z</time></trkpt><trkpt lat="43.1389705" lon="11.210458"><ele>306.0</ele><time>2026-04-26T13:03:02.612Z</time></trkpt><trkpt lat="43.1388798" lon="11.210401"><ele>308.0</ele><time>2026-04-26T13:03:03.613Z</time></trkpt><trkpt lat="43.1387873" lon="11.210348"><ele>310.0</ele><time>2026-04-26T13:03:04.612Z</time></trkpt><trkpt lat="43.1386962" lon="11.2102798"><ele>312.0</ele><time>2026-04-26T13:03:05.611Z</time></trkpt><trkpt lat="43.1386041" lon="11.210209"><ele>314.0</ele><time>2026-04-26T13:03:06.611Z</time></trkpt><trkpt lat="43.1385181" lon="11.2101545"><ele>316.0</ele><time>2026-04-26T13:03:07.611Z</time></trkpt><trkpt lat="43.1384446" lon="11.2101102"><ele>316.0</ele><time>2026-04-26T13:03:08.611Z</time></trkpt><trkpt lat="43.138371" lon="11.210085"><ele>316.0</ele><time>2026-04-26T13:03:09.611Z</time></trkpt><trkpt lat="43.138283" lon="11.2100969"><ele>316.0</ele><time>2026-04-26T13:03:10.611Z</time></trkpt><trkpt lat="43.1381822" lon="11.2101363"><ele>316.0</ele><time>2026-04-26T13:03:11.611Z</time></trkpt><trkpt lat="43.1380934" lon="11.2101947"><ele>316.0</ele><time>2026-04-26T13:03:12.611Z</time></trkpt><trkpt lat="43.1380373" lon="11.2102708"><ele>316.0</ele><time>2026-04-26T13:03:13.611Z</time></trkpt><trkpt lat="43.1380473" lon="11.2103876"><ele>316.0</ele><time>2026-04-26T13:03:15.612Z</time></trkpt><trkpt lat="43.1381494" lon="11.2104564"><ele>316.0</ele><time>2026-04-26T13:03:17.611Z</time></trkpt><trkpt lat="43.1382143" lon="11.2105321"><ele>316.0</ele><time>2026-04-26T13:03:19.611Z</time></trkpt><trkpt lat="43.1382405" lon="11.210625"><ele>316.0</ele><time>2026-04-26T13:03:23.611Z</time></trkpt><trkpt lat="43.1382107" lon="11.2107728"><ele>316.0</ele><time>2026-04-26T13:03:25.611Z</time></trkpt><trkpt lat="43.1381677" lon="11.2108719"><ele>319.8</ele><time>2026-04-26T13:03:26.611Z</time></trkpt><trkpt lat="43.1381229" lon="11.2109874"><ele>323.6</ele><time>2026-04-26T13:03:27.611Z</time></trkpt><trkpt lat="43.1380846" lon="11.2111213"><ele>327.4</ele><time>2026-04-26T13:03:28.611Z</time></trkpt><trkpt lat="43.1380532" lon="11.2112701"><ele>331.2</ele><time>2026-04-26T13:03:29.612Z</time></trkpt><trkpt lat="43.1380253" lon="11.2114137"><ele>335.0</ele><time>2026-04-26T13:03:30.611Z</time></trkpt><trkpt lat="43.1379998" lon="11.2115506"><ele>337.1666666666667</ele><time>2026-04-26T13:03:31.612Z</time></trkpt><trkpt lat="43.1379732" lon="11.2116772"><ele>339.33333333333337</ele><time>2026-04-26T13:03:32.612Z</time></trkpt><trkpt lat="43.1379427" lon="11.211785"><ele>341.5</ele><time>2026-04-26T13:03:33.611Z</time></trkpt><trkpt lat="43.1379019" lon="11.2118641"><ele>343.6666666666667</ele><time>2026-04-26T13:03:34.611Z</time></trkpt><trkpt lat="43.1378374" lon="11.2119213"><ele>345.8333333333333</ele><time>2026-04-26T13:03:35.611Z</time></trkpt><trkpt lat="43.1377481" lon="11.2119515"><ele>348.0</ele><time>2026-04-26T13:03:36.611Z</time></trkpt><trkpt lat="43.1376474" lon="11.2119715"><ele>348.0</ele><time>2026-04-26T13:03:37.611Z</time></trkpt><trkpt lat="43.1375424" lon="11.2120007"><ele>348.0</ele><time>2026-04-26T13:03:38.611Z</time></trkpt><trkpt lat="43.1374374" lon="11.2120469"><ele>348.0</ele><time>2026-04-26T13:03:39.612Z</time></trkpt><trkpt lat="43.137344" lon="11.2120989"><ele>348.0</ele><time>2026-04-26T13:03:40.611Z</time></trkpt><trkpt lat="43.1372475" lon="11.2121478"><ele>348.0</ele><time>2026-04-26T13:03:41.611Z</time></trkpt><trkpt lat="43.1371557" lon="11.2121912"><ele>350.59999999999997</ele><time>2026-04-26T13:03:42.611Z</time></trkpt><trkpt lat="43.1370773" lon="11.2121962"><ele>353.2</ele><time>2026-04-26T13:03:43.611Z</time></trkpt><trkpt lat="43.137002" lon="11.2121627"><ele>355.8</ele><time>2026-04-26T13:03:44.611Z</time></trkpt><trkpt lat="43.1369138" lon="11.2121122"><ele>358.4</ele><time>2026-04-26T13:03:45.612Z</time></trkpt><trkpt lat="43.1368174" lon="11.2120736"><ele>361.0</ele><time>2026-04-26T13:03:46.611Z</time></trkpt><trkpt lat="43.1367213" lon="11.2120581"><ele>361.0</ele><time>2026-04-26T13:03:47.611Z</time></trkpt><trkpt lat="43.1366251" lon="11.2120415"><ele>361.0</ele><time>2026-04-26T13:03:48.611Z</time></trkpt><trkpt lat="43.1365338" lon="11.2120247"><ele>361.0</ele><time>2026-04-26T13:03:49.611Z</time></trkpt><trkpt lat="43.1364523" lon="11.2120119"><ele>361.0</ele><time>2026-04-26T13:03:50.611Z</time></trkpt><trkpt lat="43.1363616" lon="11.2120311"><ele>361.0</ele><time>2026-04-26T13:03:51.611Z</time></trkpt><trkpt lat="43.1362534" lon="11.2120527"><ele>362.4</ele><time>2026-04-26T13:03:52.611Z</time></trkpt><trkpt lat="43.1361411" lon="11.2120643"><ele>363.8</ele><time>2026-04-26T13:03:53.611Z</time></trkpt><trkpt lat="43.1360441" lon="11.2120726"><ele>365.2</ele><time>2026-04-26T13:03:54.611Z</time></trkpt><trkpt lat="43.135954" lon="11.2120868"><ele>366.59999999999997</ele><time>2026-04-26T13:03:55.611Z</time></trkpt><trkpt lat="43.135871" lon="11.212113"><ele>368.0</ele><time>2026-04-26T13:03:56.612Z</time></trkpt><trkpt lat="43.1357868" lon="11.212123"><ele>369.2</ele><time>2026-04-26T13:03:57.611Z</time></trkpt><trkpt lat="43.1357023" lon="11.2121089"><ele>370.4</ele><time>2026-04-26T13:03:58.611Z</time></trkpt><trkpt lat="43.1356143" lon="11.2120991"><ele>371.59999999999997</ele><time>2026-04-26T13:03:59.611Z</time></trkpt><trkpt lat="43.1355061" lon="11.2120836"><ele>372.79999999999995</ele><time>2026-04-26T13:04:00.611Z</time></trkpt><trkpt lat="43.1353927" lon="11.2120712"><ele>374.0</ele><time>2026-04-26T13:04:01.611Z</time></trkpt><trkpt lat="43.1352778" lon="11.2120553"><ele>374.0</ele><time>2026-04-26T13:04:02.611Z</time></trkpt><trkpt lat="43.1351665" lon="11.2120323"><ele>374.0</ele><time>2026-04-26T13:04:03.611Z</time></trkpt><trkpt lat="43.1350626" lon="11.2120096"><ele>374.0</ele><time>2026-04-26T13:04:04.611Z</time></trkpt><trkpt lat="43.1349665" lon="11.2119892"><ele>374.0</ele><time>2026-04-26T13:04:05.612Z</time></trkpt><trkpt lat="43.1348821" lon="11.2119733"><ele>374.0</ele><time>2026-04-26T13:04:06.611Z</time></trkpt><trkpt lat="43.1347989" lon="11.2119711"><ele>374.6</ele><time>2026-04-26T13:04:07.611Z</time></trkpt><trkpt lat="43.134724" lon="11.2120047"><ele>375.2</ele><time>2026-04-26T13:04:08.611Z</time></trkpt><trkpt lat="43.1346575" lon="11.212101"><ele>375.8</ele><time>2026-04-26T13:04:09.611Z</time></trkpt><trkpt lat="43.1345971" lon="11.2122336"><ele>376.40000000000003</ele><time>2026-04-26T13:04:10.612Z</time></trkpt><trkpt lat="43.1345533" lon="11.2123512"><ele>377.0</ele><time>2026-04-26T13:04:11.611Z</time></trkpt><trkpt lat="43.1344893" lon="11.2124613"><ele>379.0</ele><time>2026-04-26T13:04:13.611Z</time></trkpt><trkpt lat="43.1343607" lon="11.2125192"><ele>381.0</ele><time>2026-04-26T13:04:15.611Z</time></trkpt><trkpt lat="43.1342733" lon="11.2125759"><ele>383.0</ele><time>2026-04-26T13:04:16.611Z</time></trkpt><trkpt lat="43.1341819" lon="11.2126455"><ele>385.0</ele><time>2026-04-26T13:04:17.611Z</time></trkpt><trkpt lat="43.1341047" lon="11.2127408"><ele>387.0</ele><time>2026-04-26T13:04:18.611Z</time></trkpt><trkpt lat="43.1340382" lon="11.212843"><ele>387.20000000000005</ele><time>2026-04-26T13:04:19.611Z</time></trkpt><trkpt lat="43.1339663" lon="11.2129369"><ele>387.4</ele><time>2026-04-26T13:04:20.611Z</time></trkpt><trkpt lat="43.1338886" lon="11.2130157"><ele>387.6</ele><time>2026-04-26T13:04:21.611Z</time></trkpt><trkpt lat="43.133806" lon="11.2130988"><ele>387.79999999999995</ele><time>2026-04-26T13:04:22.611Z</time></trkpt><trkpt lat="43.1337176" lon="11.2131822"><ele>388.0</ele><time>2026-04-26T13:04:23.611Z</time></trkpt><trkpt lat="43.1336266" lon="11.2132754"><ele>390.0</ele><time>2026-04-26T13:04:24.611Z</time></trkpt><trkpt lat="43.1335353" lon="11.2133709"><ele>392.0</ele><time>2026-04-26T13:04:25.611Z</time></trkpt><trkpt lat="43.1334441" lon="11.2134625"><ele>394.0</ele><time>2026-04-26T13:04:26.612Z</time></trkpt><trkpt lat="43.1333414" lon="11.2135476"><ele>396.0</ele><time>2026-04-26T13:04:27.611Z</time></trkpt><trkpt lat="43.1332417" lon="11.213623"><ele>396.20000000000005</ele><time>2026-04-26T13:04:28.611Z</time></trkpt><trkpt lat="43.1331552" lon="11.2136959"><ele>396.40000000000003</ele><time>2026-04-26T13:04:29.611Z</time></trkpt><trkpt lat="43.1330776" lon="11.2137824"><ele>396.6</ele><time>2026-04-26T13:04:30.611Z</time></trkpt><trkpt lat="43.1330115" lon="11.2138717"><ele>396.8</ele><time>2026-04-26T13:04:31.611Z</time></trkpt><trkpt lat="43.1329485" lon="11.2139462"><ele>397.0</ele><time>2026-04-26T13:04:32.611Z</time></trkpt><trkpt lat="43.1328903" lon="11.2140081"><ele>397.8</ele><time>2026-04-26T13:04:33.611Z</time></trkpt><trkpt lat="43.132811" lon="11.2141027"><ele>398.6</ele><time>2026-04-26T13:04:35.612Z</time></trkpt><trkpt lat="43.1327456" lon="11.2142001"><ele>399.40000000000003</ele><time>2026-04-26T13:04:37.611Z</time></trkpt><trkpt lat="43.1326626" lon="11.2142899"><ele>400.20000000000005</ele><time>2026-04-26T13:04:39.611Z</time></trkpt><trkpt lat="43.1325651" lon="11.2143495"><ele>401.0</ele><time>2026-04-26T13:04:41.611Z</time></trkpt><trkpt lat="43.1324688" lon="11.2144093"><ele>401.4</ele><time>2026-04-26T13:04:43.611Z</time></trkpt><trkpt lat="43.1323761" lon="11.2144935"><ele>401.8</ele><time>2026-04-26T13:04:45.611Z</time></trkpt><trkpt lat="43.1322962" lon="11.2146101"><ele>402.2</ele><time>2026-04-26T13:04:47.611Z</time></trkpt><trkpt lat="43.1322287" lon="11.2147067"><ele>402.59999999999997</ele><time>2026-04-26T13:04:48.611Z</time></trkpt><trkpt lat="43.1321455" lon="11.2148206"><ele>403.0</ele><time>2026-04-26T13:04:49.611Z</time></trkpt><trkpt lat="43.1320575" lon="11.2149226"><ele>403.59999999999997</ele><time>2026-04-26T13:04:50.611Z</time></trkpt><trkpt lat="43.1319582" lon="11.2150066"><ele>404.2</ele><time>2026-04-26T13:04:51.611Z</time></trkpt><trkpt lat="43.1318632" lon="11.2150853"><ele>404.8</ele><time>2026-04-26T13:04:52.611Z</time></trkpt><trkpt lat="43.1317782" lon="11.2151631"><ele>405.4</ele><time>2026-04-26T13:04:53.612Z</time></trkpt><trkpt lat="43.1316915" lon="11.2152382"><ele>406.0</ele><time>2026-04-26T13:04:54.612Z</time></trkpt><trkpt lat="43.1315916" lon="11.2153122"><ele>407.0</ele><time>2026-04-26T13:04:55.611Z</time></trkpt><trkpt lat="43.1314923" lon="11.2153627"><ele>408.0</ele><time>2026-04-26T13:04:56.611Z</time></trkpt><trkpt lat="43.131403" lon="11.2153853"><ele>409.0</ele><time>2026-04-26T13:04:57.611Z</time></trkpt><trkpt lat="43.1313178" lon="11.2153947"><ele>410.0</ele><time>2026-04-26T13:04:58.611Z</time></trkpt><trkpt lat="43.1312459" lon="11.2154433"><ele>411.0</ele><time>2026-04-26T13:04:59.611Z</time></trkpt><trkpt lat="43.1311831" lon="11.2155359"><ele>411.0</ele><time>2026-04-26T13:05:00.611Z</time></trkpt><trkpt lat="43.1311021" lon="11.2156314"><ele>411.0</ele><time>2026-04-26T13:05:01.611Z</time></trkpt><trkpt lat="43.1309945" lon="11.2156992"><ele>411.0</ele><time>2026-04-26T13:05:02.611Z</time></trkpt><trkpt lat="43.1308886" lon="11.2157644"><ele>411.0</ele><time>2026-04-26T13:05:03.611Z</time></trkpt><trkpt lat="43.130811" lon="11.2158361"><ele>411.0</ele><time>2026-04-26T13:05:04.611Z</time></trkpt><trkpt lat="43.1307711" lon="11.2159405"><ele>412.0</ele><time>2026-04-26T13:05:05.611Z</time></trkpt><trkpt lat="43.130753" lon="11.2160955"><ele>413.0</ele><time>2026-04-26T13:05:06.611Z</time></trkpt><trkpt lat="43.1307386" lon="11.2162693"><ele>414.0</ele><time>2026-04-26T13:05:07.611Z</time></trkpt><trkpt lat="43.1307247" lon="11.2164715"><ele>415.0</ele><time>2026-04-26T13:05:08.611Z</time></trkpt><trkpt lat="43.1307029" lon="11.2166653"><ele>417.0</ele><time>2026-04-26T13:05:09.611Z</time></trkpt><trkpt lat="43.1306759" lon="11.2168386"><ele>419.0</ele><time>2026-04-26T13:05:10.612Z</time></trkpt><trkpt lat="43.1306628" lon="11.2169953"><ele>421.0</ele><time>2026-04-26T13:05:11.611Z</time></trkpt><trkpt lat="43.1306628" lon="11.2171655"><ele>423.0</ele><time>2026-04-26T13:05:12.612Z</time></trkpt><trkpt lat="43.1306691" lon="11.2173227"><ele>424.1666666666667</ele><time>2026-04-26T13:05:13.611Z</time></trkpt><trkpt lat="43.1306654" lon="11.2174681"><ele>425.33333333333337</ele><time>2026-04-26T13:05:14.611Z</time></trkpt><trkpt lat="43.1306581" lon="11.2175735"><ele>426.5</ele><time>2026-04-26T13:05:15.611Z</time></trkpt><trkpt lat="43.1306294" lon="11.2176533"><ele>427.6666666666667</ele><time>2026-04-26T13:05:16.612Z</time></trkpt><trkpt lat="43.1305659" lon="11.2177307"><ele>428.83333333333337</ele><time>2026-04-26T13:05:17.611Z</time></trkpt><trkpt lat="43.1304755" lon="11.2178083"><ele>430.0</ele><time>2026-04-26T13:05:18.611Z</time></trkpt><trkpt lat="43.1304076" lon="11.2178923"><ele>430.0</ele><time>2026-04-26T13:05:19.611Z</time></trkpt><trkpt lat="43.1303663" lon="11.2179962"><ele>430.0</ele><time>2026-04-26T13:05:20.611Z</time></trkpt><trkpt lat="43.1303293" lon="11.2181318"><ele>430.0</ele><time>2026-04-26T13:05:21.611Z</time></trkpt><trkpt lat="43.1302924" lon="11.2182774"><ele>430.0</ele><time>2026-04-26T13:05:22.611Z</time></trkpt><trkpt lat="43.1302517" lon="11.2184035"><ele>430.0</ele><time>2026-04-26T13:05:23.611Z</time></trkpt><trkpt lat="43.1302225" lon="11.2184833"><ele>431.1666666666667</ele><time>2026-04-26T13:05:24.611Z</time></trkpt><trkpt lat="43.1301579" lon="11.2185292"><ele>432.33333333333337</ele><time>2026-04-26T13:05:27.611Z</time></trkpt><trkpt lat="43.1300656" lon="11.2185058"><ele>433.5</ele><time>2026-04-26T13:05:58.611Z</time></trkpt><trkpt lat="43.1299965" lon="11.2185073"><ele>434.66666666666663</ele><time>2026-04-26T13:05:59.611Z</time></trkpt><trkpt lat="43.1299254" lon="11.2184918"><ele>435.8333333333333</ele><time>2026-04-26T13:06:00.611Z</time></trkpt><trkpt lat="43.1298528" lon="11.2184783"><ele>437.0</ele><time>2026-04-26T13:06:01.611Z</time></trkpt><trkpt lat="43.1297697" lon="11.2184591"><ele>437.49999999999994</ele><time>2026-04-26T13:06:02.612Z</time></trkpt><trkpt lat="43.1296856" lon="11.2184394"><ele>438.0</ele><time>2026-04-26T13:06:03.611Z</time></trkpt><trkpt lat="43.1296061" lon="11.2184208"><ele>438.5</ele><time>2026-04-26T13:06:04.611Z</time></trkpt><trkpt lat="43.129528" lon="11.2183982"><ele>439.0</ele><time>2026-04-26T13:06:05.611Z</time></trkpt><trkpt lat="43.1294475" lon="11.2183758"><ele>439.49999999999994</ele><time>2026-04-26T13:06:06.612Z</time></trkpt><trkpt lat="43.1293698" lon="11.2183501"><ele>440.0</ele><time>2026-04-26T13:06:07.611Z</time></trkpt><trkpt lat="43.1293013" lon="11.2183372"><ele>440.0</ele><time>2026-04-26T13:06:08.611Z</time></trkpt><trkpt lat="43.1292194" lon="11.2183258"><ele>440.0</ele><time>2026-04-26T13:06:09.611Z</time></trkpt><trkpt lat="43.1291292" lon="11.2182975"><ele>440.0</ele><time>2026-04-26T13:06:10.611Z</time></trkpt><trkpt lat="43.1290228" lon="11.2182656"><ele>440.0</ele><time>2026-04-26T13:06:11.611Z</time></trkpt><trkpt lat="43.1289103" lon="11.2182394"><ele>440.0</ele><time>2026-04-26T13:06:12.611Z</time></trkpt><trkpt lat="43.1288105" lon="11.2182134"><ele>441.0</ele><time>2026-04-26T13:06:13.611Z</time></trkpt><trkpt lat="43.1287184" lon="11.2181848"><ele>442.0</ele><time>2026-04-26T13:06:14.611Z</time></trkpt><trkpt lat="43.1286236" lon="11.2181339"><ele>443.0</ele><time>2026-04-26T13:06:15.611Z</time></trkpt><trkpt lat="43.1285221" lon="11.2180587"><ele>444.0</ele><time>2026-04-26T13:06:16.611Z</time></trkpt><trkpt lat="43.1283965" lon="11.2179527"><ele>444.33333333333337</ele><time>2026-04-26T13:06:17.611Z</time></trkpt><trkpt lat="43.1282613" lon="11.2178064"><ele>444.6666666666667</ele><time>2026-04-26T13:06:18.611Z</time></trkpt><trkpt lat="43.1281389" lon="11.2176628"><ele>445.0</ele><time>2026-04-26T13:06:19.612Z</time></trkpt><trkpt lat="43.1280279" lon="11.2175485"><ele>447.25</ele><time>2026-04-26T13:06:20.611Z</time></trkpt><trkpt lat="43.1279175" lon="11.217445"><ele>449.5</ele><time>2026-04-26T13:06:21.611Z</time></trkpt><trkpt lat="43.1278226" lon="11.2173423"><ele>451.75</ele><time>2026-04-26T13:06:22.612Z</time></trkpt><trkpt lat="43.1277321" lon="11.2172281"><ele>454.0</ele><time>2026-04-26T13:06:23.611Z</time></trkpt><trkpt lat="43.1276358" lon="11.2171083"><ele>454.75</ele><time>2026-04-26T13:06:24.611Z</time></trkpt><trkpt lat="43.1275295" lon="11.2169887"><ele>455.5</ele><time>2026-04-26T13:06:25.611Z</time></trkpt><trkpt lat="43.1274276" lon="11.2168661"><ele>456.25</ele><time>2026-04-26T13:06:26.611Z</time></trkpt><trkpt lat="43.1273255" lon="11.2167289"><ele>457.0</ele><time>2026-04-26T13:06:27.611Z</time></trkpt><trkpt lat="43.1272248" lon="11.2165801"><ele>459.25</ele><time>2026-04-26T13:06:28.611Z</time></trkpt><trkpt lat="43.1271313" lon="11.2164266"><ele>461.5</ele><time>2026-04-26T13:06:29.611Z</time></trkpt><trkpt lat="43.1270466" lon="11.2162785"><ele>463.75</ele><time>2026-04-26T13:06:30.611Z</time></trkpt><trkpt lat="43.126969" lon="11.2161461"><ele>466.0</ele><time>2026-04-26T13:06:31.611Z</time></trkpt><trkpt lat="43.1269018" lon="11.2160425"><ele>466.00000000000006</ele><time>2026-04-26T13:06:32.611Z</time></trkpt><trkpt lat="43.1268591" lon="11.2159775"><ele>466.0</ele><time>2026-04-26T13:06:33.612Z</time></trkpt><trkpt lat="43.126797" lon="11.2159522"><ele>466.0</ele><time>2026-04-26T13:06:37.611Z</time></trkpt><trkpt lat="43.1267683" lon="11.2158579"><ele>466.0</ele><time>2026-04-26T13:06:51.611Z</time></trkpt><trkpt lat="43.1267521" lon="11.2157413"><ele>466.00000000000006</ele><time>2026-04-26T13:06:55.612Z</time></trkpt><trkpt lat="43.12669" lon="11.215671"><ele>466.0</ele><time>2026-04-26T13:06:57.612Z</time></trkpt><trkpt lat="43.126596" lon="11.2156392"><ele>465.4</ele><time>2026-04-26T13:07:00.611Z</time></trkpt><trkpt lat="43.1264973" lon="11.2156868"><ele>464.8</ele><time>2026-04-26T13:07:02.611Z</time></trkpt><trkpt lat="43.1263937" lon="11.2157206"><ele>464.19999999999993</ele><time>2026-04-26T13:07:04.611Z</time></trkpt><trkpt lat="43.1262943" lon="11.2157328"><ele>463.59999999999997</ele><time>2026-04-26T13:07:06.611Z</time></trkpt><trkpt lat="43.126204" lon="11.2157578"><ele>463.0</ele><time>2026-04-26T13:07:08.611Z</time></trkpt><trkpt lat="43.1260939" lon="11.2158038"><ele>463.00000000000006</ele><time>2026-04-26T13:07:10.611Z</time></trkpt><trkpt lat="43.1260186" lon="11.2158349"><ele>463.0</ele><time>2026-04-26T13:07:11.611Z</time></trkpt><trkpt lat="43.1259395" lon="11.2158716"><ele>463.0</ele><time>2026-04-26T13:07:12.612Z</time></trkpt><trkpt lat="43.1258695" lon="11.2159124"><ele>463.0</ele><time>2026-04-26T13:07:13.612Z</time></trkpt><trkpt lat="43.1258019" lon="11.2159657"><ele>463.00000000000006</ele><time>2026-04-26T13:07:14.612Z</time></trkpt><trkpt lat="43.1257293" lon="11.2160228"><ele>463.0</ele><time>2026-04-26T13:07:15.611Z</time></trkpt><trkpt lat="43.1256528" lon="11.216093"><ele>462.00000000000006</ele><time>2026-04-26T13:07:16.611Z</time></trkpt><trkpt lat="43.1255802" lon="11.2161675"><ele>461.0</ele><time>2026-04-26T13:07:17.612Z</time></trkpt><trkpt lat="43.1255165" lon="11.2162379"><ele>460.0</ele><time>2026-04-26T13:07:18.612Z</time></trkpt><trkpt lat="43.1254649" lon="11.2163097"><ele>459.0</ele><time>2026-04-26T13:07:19.611Z</time></trkpt><trkpt lat="43.1254213" lon="11.2163872"><ele>458.00000000000006</ele><time>2026-04-26T13:07:20.611Z</time></trkpt><trkpt lat="43.1253697" lon="11.2164614"><ele>457.0</ele><time>2026-04-26T13:07:21.611Z</time></trkpt><trkpt lat="43.1253061" lon="11.2165228"><ele>456.8</ele><time>2026-04-26T13:07:22.611Z</time></trkpt><trkpt lat="43.1252323" lon="11.2165648"><ele>456.6</ele><time>2026-04-26T13:07:23.611Z</time></trkpt><trkpt lat="43.1251561" lon="11.2166025"><ele>456.40000000000003</ele><time>2026-04-26T13:07:24.611Z</time></trkpt><trkpt lat="43.1250682" lon="11.2166396"><ele>456.20000000000005</ele><time>2026-04-26T13:07:25.611Z</time></trkpt><trkpt lat="43.1249704" lon="11.2166777"><ele>456.0</ele><time>2026-04-26T13:07:26.611Z</time></trkpt><trkpt lat="43.1248722" lon="11.2167083"><ele>455.8</ele><time>2026-04-26T13:07:27.611Z</time></trkpt><trkpt lat="43.1247816" lon="11.2167359"><ele>455.6</ele><time>2026-04-26T13:07:28.611Z</time></trkpt><trkpt lat="43.1246954" lon="11.216758"><ele>455.4</ele><time>2026-04-26T13:07:29.611Z</time></trkpt><trkpt lat="43.1246009" lon="11.2167795"><ele>455.2</ele><time>2026-04-26T13:07:30.611Z</time></trkpt><trkpt lat="43.1245006" lon="11.2167963"><ele>455.0</ele><time>2026-04-26T13:07:31.611Z</time></trkpt><trkpt lat="43.124397" lon="11.2168073"><ele>455.0</ele><time>2026-04-26T13:07:32.611Z</time></trkpt><trkpt lat="43.1242962" lon="11.2168181"><ele>455.0</ele><time>2026-04-26T13:07:33.611Z</time></trkpt><trkpt lat="43.124194" lon="11.2168401"><ele>455.0</ele><time>2026-04-26T13:07:34.611Z</time></trkpt><trkpt lat="43.1240983" lon="11.2168734"><ele>455.0</ele><time>2026-04-26T13:07:35.612Z</time></trkpt><trkpt lat="43.1239987" lon="11.2169199"><ele>455.0</ele><time>2026-04-26T13:07:36.611Z</time></trkpt><trkpt lat="43.1239007" lon="11.2169714"><ele>454.4</ele><time>2026-04-26T13:07:37.611Z</time></trkpt><trkpt lat="43.1238062" lon="11.2170256"><ele>453.8</ele><time>2026-04-26T13:07:38.611Z</time></trkpt><trkpt lat="43.1237098" lon="11.217083"><ele>453.20000000000005</ele><time>2026-04-26T13:07:39.611Z</time></trkpt><trkpt lat="43.1236096" lon="11.2171443"><ele>452.6</ele><time>2026-04-26T13:07:40.611Z</time></trkpt><trkpt lat="43.1235163" lon="11.2172101"><ele>452.0</ele><time>2026-04-26T13:07:41.611Z</time></trkpt><trkpt lat="43.1234358" lon="11.2172831"><ele>452.40000000000003</ele><time>2026-04-26T13:07:42.612Z</time></trkpt><trkpt lat="43.1233546" lon="11.2173602"><ele>452.80000000000007</ele><time>2026-04-26T13:07:43.611Z</time></trkpt><trkpt lat="43.1232749" lon="11.2174381"><ele>453.2</ele><time>2026-04-26T13:07:44.612Z</time></trkpt><trkpt lat="43.1232016" lon="11.2175252"><ele>453.6</ele><time>2026-04-26T13:07:45.611Z</time></trkpt><trkpt lat="43.1231343" lon="11.2176044"><ele>454.0</ele><time>2026-04-26T13:07:46.612Z</time></trkpt><trkpt lat="43.1230735" lon="11.2176665"><ele>454.00000000000006</ele><time>2026-04-26T13:07:47.612Z</time></trkpt><trkpt lat="43.1230152" lon="11.2177017"><ele>454.0</ele><time>2026-04-26T13:07:48.611Z</time></trkpt><trkpt lat="43.1228864" lon="11.2177052"><ele>454.0</ele><time>2026-04-26T13:07:50.612Z</time></trkpt><trkpt lat="43.1228027" lon="11.2176831"><ele>454.0</ele><time>2026-04-26T13:07:51.611Z</time></trkpt><trkpt lat="43.1227165" lon="11.2176577"><ele>454.00000000000006</ele><time>2026-04-26T13:07:52.611Z</time></trkpt><trkpt lat="43.1226416" lon="11.2176314"><ele>454.0</ele><time>2026-04-26T13:07:53.611Z</time></trkpt><trkpt lat="43.1225639" lon="11.2176034"><ele>454.0</ele><time>2026-04-26T13:07:54.611Z</time></trkpt><trkpt lat="43.1224732" lon="11.2176061"><ele>454.0</ele><time>2026-04-26T13:07:55.612Z</time></trkpt><trkpt lat="43.1223701" lon="11.2176438"><ele>454.0</ele><time>2026-04-26T13:07:56.611Z</time></trkpt><trkpt lat="43.1222667" lon="11.2176937"><ele>454.0</ele><time>2026-04-26T13:07:57.611Z</time></trkpt><trkpt lat="43.1221757" lon="11.2177693"><ele>454.0</ele><time>2026-04-26T13:07:58.611Z</time></trkpt><trkpt lat="43.1220914" lon="11.2178567"><ele>453.83333333333337</ele><time>2026-04-26T13:07:59.612Z</time></trkpt><trkpt lat="43.122025" lon="11.2179143"><ele>453.6666666666667</ele><time>2026-04-26T13:08:00.611Z</time></trkpt><trkpt lat="43.1219575" lon="11.2179677"><ele>453.5</ele><time>2026-04-26T13:08:02.611Z</time></trkpt><trkpt lat="43.1218944" lon="11.2180123"><ele>453.33333333333337</ele><time>2026-04-26T13:08:06.611Z</time></trkpt><trkpt lat="43.1218127" lon="11.2179882"><ele>453.1666666666667</ele><time>2026-04-26T13:08:10.611Z</time></trkpt><trkpt lat="43.121745" lon="11.2179716"><ele>453.0</ele><time>2026-04-26T13:08:13.612Z</time></trkpt><trkpt lat="43.1216526" lon="11.2179529"><ele>453.0</ele><time>2026-04-26T13:08:16.612Z</time></trkpt><trkpt lat="43.1215697" lon="11.2179326"><ele>453.0</ele><time>2026-04-26T13:08:18.611Z</time></trkpt><trkpt lat="43.1215107" lon="11.2178944"><ele>453.0</ele><time>2026-04-26T13:08:20.611Z</time></trkpt><trkpt lat="43.121479" lon="11.2178149"><ele>453.0</ele><time>2026-04-26T13:08:22.611Z</time></trkpt><trkpt lat="43.1214569" lon="11.2176516"><ele>453.0</ele><time>2026-04-26T13:08:24.611Z</time></trkpt><trkpt lat="43.1214337" lon="11.2175313"><ele>453.0</ele><time>2026-04-26T13:08:25.611Z</time></trkpt><trkpt lat="43.1213952" lon="11.2173965"><ele>451.5</ele><time>2026-04-26T13:08:26.611Z</time></trkpt><trkpt lat="43.1213458" lon="11.2172565"><ele>450.0</ele><time>2026-04-26T13:08:27.611Z</time></trkpt><trkpt lat="43.1212936" lon="11.2171191"><ele>448.5</ele><time>2026-04-26T13:08:28.611Z</time></trkpt><trkpt lat="43.1212408" lon="11.2169826"><ele>447.0</ele><time>2026-04-26T13:08:29.611Z</time></trkpt><trkpt lat="43.1211891" lon="11.216849"><ele>447.0</ele><time>2026-04-26T13:08:30.612Z</time></trkpt><trkpt lat="43.1211472" lon="11.2167153"><ele>447.00000000000006</ele><time>2026-04-26T13:08:31.612Z</time></trkpt><trkpt lat="43.1211079" lon="11.216586"><ele>447.00000000000006</ele><time>2026-04-26T13:08:32.612Z</time></trkpt><trkpt lat="43.1210688" lon="11.2164576"><ele>447.0</ele><time>2026-04-26T13:08:33.612Z</time></trkpt><trkpt lat="43.1210251" lon="11.21633"><ele>447.0</ele><time>2026-04-26T13:08:34.612Z</time></trkpt><trkpt lat="43.1209853" lon="11.2162102"><ele>445.40000000000003</ele><time>2026-04-26T13:08:35.611Z</time></trkpt><trkpt lat="43.1209522" lon="11.2160798"><ele>443.80000000000007</ele><time>2026-04-26T13:08:36.611Z</time></trkpt><trkpt lat="43.1209216" lon="11.2159461"><ele>442.2</ele><time>2026-04-26T13:08:37.611Z</time></trkpt><trkpt lat="43.1208791" lon="11.2158017"><ele>440.6</ele><time>2026-04-26T13:08:38.611Z</time></trkpt><trkpt lat="43.1208335" lon="11.2156466"><ele>439.0</ele><time>2026-04-26T13:08:39.611Z</time></trkpt><trkpt lat="43.1207887" lon="11.2155063"><ele>437.25</ele><time>2026-04-26T13:08:40.611Z</time></trkpt><trkpt lat="43.1207445" lon="11.2153558"><ele>435.5</ele><time>2026-04-26T13:08:41.611Z</time></trkpt><trkpt lat="43.1206985" lon="11.2152053"><ele>433.75</ele><time>2026-04-26T13:08:42.611Z</time></trkpt><trkpt lat="43.1206569" lon="11.2150651"><ele>432.0</ele><time>2026-04-26T13:08:43.612Z</time></trkpt><trkpt lat="43.1206255" lon="11.2149311"><ele>430.8</ele><time>2026-04-26T13:08:44.612Z</time></trkpt><trkpt lat="43.1206028" lon="11.2147968"><ele>429.6</ele><time>2026-04-26T13:08:45.611Z</time></trkpt><trkpt lat="43.1205873" lon="11.2146699"><ele>428.40000000000003</ele><time>2026-04-26T13:08:46.612Z</time></trkpt><trkpt lat="43.1205805" lon="11.2145477"><ele>427.20000000000005</ele><time>2026-04-26T13:08:47.611Z</time></trkpt><trkpt lat="43.1205841" lon="11.2144228"><ele>426.0</ele><time>2026-04-26T13:08:48.611Z</time></trkpt><trkpt lat="43.1205936" lon="11.2143041"><ele>426.0</ele><time>2026-04-26T13:08:49.611Z</time></trkpt><trkpt lat="43.1206082" lon="11.2141883"><ele>426.0</ele><time>2026-04-26T13:08:50.611Z</time></trkpt><trkpt lat="43.1206254" lon="11.214063"><ele>426.0</ele><time>2026-04-26T13:08:51.611Z</time></trkpt><trkpt lat="43.1206511" lon="11.2139367"><ele>426.0</ele><time>2026-04-26T13:08:52.612Z</time></trkpt><trkpt lat="43.1206801" lon="11.2138025"><ele>426.0</ele><time>2026-04-26T13:08:53.611Z</time></trkpt><trkpt lat="43.1207209" lon="11.2136732"><ele>425.6666666666667</ele><time>2026-04-26T13:08:54.611Z</time></trkpt><trkpt lat="43.1207577" lon="11.213567"><ele>425.33333333333337</ele><time>2026-04-26T13:08:55.612Z</time></trkpt><trkpt lat="43.1207635" lon="11.2134803"><ele>425.0</ele><time>2026-04-26T13:08:56.611Z</time></trkpt><trkpt lat="43.1207303" lon="11.213393"><ele>424.6666666666667</ele><time>2026-04-26T13:08:57.611Z</time></trkpt><trkpt lat="43.1206714" lon="11.2133001"><ele>424.33333333333337</ele><time>2026-04-26T13:08:58.611Z</time></trkpt><trkpt lat="43.1205714" lon="11.2131941"><ele>424.0</ele><time>2026-04-26T13:08:59.611Z</time></trkpt><trkpt lat="43.1204518" lon="11.2130731"><ele>422.25</ele><time>2026-04-26T13:09:00.611Z</time></trkpt><trkpt lat="43.1203424" lon="11.2129557"><ele>420.5</ele><time>2026-04-26T13:09:01.612Z</time></trkpt><trkpt lat="43.1202393" lon="11.2128338"><ele>418.75</ele><time>2026-04-26T13:09:02.612Z</time></trkpt><trkpt lat="43.1201429" lon="11.2127086"><ele>417.0</ele><time>2026-04-26T13:09:03.611Z</time></trkpt><trkpt lat="43.1200524" lon="11.2126005"><ele>417.0</ele><time>2026-04-26T13:09:04.611Z</time></trkpt><trkpt lat="43.119964" lon="11.2125107"><ele>417.0</ele><time>2026-04-26T13:09:05.612Z</time></trkpt><trkpt lat="43.1198755" lon="11.2124413"><ele>417.0</ele><time>2026-04-26T13:09:06.611Z</time></trkpt><trkpt lat="43.1197618" lon="11.2123742"><ele>417.0</ele><time>2026-04-26T13:09:07.612Z</time></trkpt><trkpt lat="43.1196338" lon="11.2123125"><ele>417.5</ele><time>2026-04-26T13:09:08.611Z</time></trkpt><trkpt lat="43.1195085" lon="11.212256"><ele>418.0</ele><time>2026-04-26T13:09:09.611Z</time></trkpt><trkpt lat="43.1194056" lon="11.2121828"><ele>418.5</ele><time>2026-04-26T13:09:10.611Z</time></trkpt><trkpt lat="43.1193126" lon="11.212093"><ele>419.0</ele><time>2026-04-26T13:09:11.612Z</time></trkpt><trkpt lat="43.1192263" lon="11.2119986"><ele>419.0</ele><time>2026-04-26T13:09:12.611Z</time></trkpt><trkpt lat="43.1191447" lon="11.2119068"><ele>419.0</ele><time>2026-04-26T13:09:13.612Z</time></trkpt><trkpt lat="43.1190791" lon="11.2118168"><ele>419.0</ele><time>2026-04-26T13:09:14.611Z</time></trkpt><trkpt lat="43.1190382" lon="11.2117206"><ele>419.0</ele><time>2026-04-26T13:09:15.611Z</time></trkpt><trkpt lat="43.1190046" lon="11.2116087"><ele>419.0</ele><time>2026-04-26T13:09:16.611Z</time></trkpt><trkpt lat="43.1189553" lon="11.2114874"><ele>418.6</ele><time>2026-04-26T13:09:17.611Z</time></trkpt><trkpt lat="43.1188949" lon="11.2113536"><ele>418.2</ele><time>2026-04-26T13:09:18.611Z</time></trkpt><trkpt lat="43.118832" lon="11.2112258"><ele>417.8</ele><time>2026-04-26T13:09:19.611Z</time></trkpt><trkpt lat="43.118789" lon="11.2111112"><ele>417.40000000000003</ele><time>2026-04-26T13:09:20.611Z</time></trkpt><trkpt lat="43.1187628" lon="11.2109958"><ele>417.0</ele><time>2026-04-26T13:09:21.611Z</time></trkpt><trkpt lat="43.11874" lon="11.2108803"><ele>417.0</ele><time>2026-04-26T13:09:22.611Z</time></trkpt><trkpt lat="43.118717" lon="11.2107679"><ele>417.0</ele><time>2026-04-26T13:09:23.611Z</time></trkpt><trkpt lat="43.1187097" lon="11.2106381"><ele>417.0</ele><time>2026-04-26T13:09:24.611Z</time></trkpt><trkpt lat="43.1187105" lon="11.2104812"><ele>417.0</ele><time>2026-04-26T13:09:25.611Z</time></trkpt><trkpt lat="43.1187131" lon="11.2103278"><ele>417.0</ele><time>2026-04-26T13:09:26.611Z</time></trkpt><trkpt lat="43.1187123" lon="11.210162"><ele>417.0</ele><time>2026-04-26T13:09:27.611Z</time></trkpt><trkpt lat="43.1187089" lon="11.2099933"><ele>417.0</ele><time>2026-04-26T13:09:28.611Z</time></trkpt><trkpt lat="43.118711" lon="11.2098288"><ele>417.0</ele><time>2026-04-26T13:09:29.611Z</time></trkpt><trkpt lat="43.1187173" lon="11.2096822"><ele>417.0</ele><time>2026-04-26T13:09:30.611Z</time></trkpt><trkpt lat="43.1187367" lon="11.2095452"><ele>417.0</ele><time>2026-04-26T13:09:31.612Z</time></trkpt><trkpt lat="43.1187623" lon="11.2094196"><ele>417.0</ele><time>2026-04-26T13:09:32.611Z</time></trkpt><trkpt lat="43.118802" lon="11.2092998"><ele>417.0</ele><time>2026-04-26T13:09:33.611Z</time></trkpt><trkpt lat="43.1188598" lon="11.2091943"><ele>417.0</ele><time>2026-04-26T13:09:34.611Z</time></trkpt><trkpt lat="43.1189344" lon="11.2091079"><ele>417.0</ele><time>2026-04-26T13:09:35.611Z</time></trkpt><trkpt lat="43.1190175" lon="11.2090313"><ele>416.6</ele><time>2026-04-26T13:09:36.612Z</time></trkpt><trkpt lat="43.119108" lon="11.2089604"><ele>416.20000000000005</ele><time>2026-04-26T13:09:37.612Z</time></trkpt><trkpt lat="43.119198" lon="11.2089089"><ele>415.8</ele><time>2026-04-26T13:09:38.611Z</time></trkpt><trkpt lat="43.1193083" lon="11.2088763"><ele>415.4</ele><time>2026-04-26T13:09:39.611Z</time></trkpt><trkpt lat="43.1194202" lon="11.2088332"><ele>415.0</ele><time>2026-04-26T13:09:40.611Z</time></trkpt><trkpt lat="43.11951" lon="11.208782"><ele>415.0</ele><time>2026-04-26T13:09:41.611Z</time></trkpt><trkpt lat="43.1195896" lon="11.208705"><ele>415.0</ele><time>2026-04-26T13:09:42.612Z</time></trkpt><trkpt lat="43.1196702" lon="11.2086082"><ele>415.0</ele><time>2026-04-26T13:09:43.611Z</time></trkpt><trkpt lat="43.119746" lon="11.2085054"><ele>415.0</ele><time>2026-04-26T13:09:44.611Z</time></trkpt><trkpt lat="43.1198093" lon="11.2084112"><ele>415.0</ele><time>2026-04-26T13:09:45.61Z</time></trkpt><trkpt lat="43.1198761" lon="11.2083086"><ele>415.4</ele><time>2026-04-26T13:09:47.61Z</time></trkpt><trkpt lat="43.1199467" lon="11.2082306"><ele>415.8</ele><time>2026-04-26T13:10:35.61Z</time></trkpt><trkpt lat="43.1200495" lon="11.2081491"><ele>416.20000000000005</ele><time>2026-04-26T13:10:37.61Z</time></trkpt><trkpt lat="43.120107" lon="11.2080973"><ele>416.6</ele><time>2026-04-26T13:10:38.61Z</time></trkpt><trkpt lat="43.120207" lon="11.2080067"><ele>417.0</ele><time>2026-04-26T13:10:40.611Z</time></trkpt><trkpt lat="43.1202577" lon="11.2079553"><ele>417.0</ele><time>2026-04-26T13:10:41.61Z</time></trkpt><trkpt lat="43.1203" lon="11.207886"><ele>417.0</ele><time>2026-04-26T13:10:42.61Z</time></trkpt><trkpt lat="43.1203348" lon="11.2078063"><ele>417.0</ele><time>2026-04-26T13:10:43.611Z</time></trkpt><trkpt lat="43.1203674" lon="11.2077154"><ele>417.0</ele><time>2026-04-26T13:10:44.611Z</time></trkpt><trkpt lat="43.1204022" lon="11.2076187"><ele>417.0</ele><time>2026-04-26T13:10:45.61Z</time></trkpt><trkpt lat="43.1204394" lon="11.2075214"><ele>417.0</ele><time>2026-04-26T13:10:46.61Z</time></trkpt><trkpt lat="43.1204783" lon="11.207429"><ele>417.0</ele><time>2026-04-26T13:10:47.61Z</time></trkpt><trkpt lat="43.1205111" lon="11.2073364"><ele>415.5714285714286</ele><time>2026-04-26T13:10:48.61Z</time></trkpt><trkpt lat="43.1205386" lon="11.2072445"><ele>414.1428571428571</ele><time>2026-04-26T13:10:49.61Z</time></trkpt><trkpt lat="43.1205471" lon="11.2071562"><ele>412.7142857142857</ele><time>2026-04-26T13:10:50.61Z</time></trkpt><trkpt lat="43.1205344" lon="11.2070702"><ele>411.28571428571433</ele><time>2026-04-26T13:10:51.61Z</time></trkpt><trkpt lat="43.1205064" lon="11.2069878"><ele>409.8571428571429</ele><time>2026-04-26T13:10:52.61Z</time></trkpt><trkpt lat="43.1204648" lon="11.2069055"><ele>408.42857142857144</ele><time>2026-04-26T13:10:53.611Z</time></trkpt><trkpt lat="43.1204262" lon="11.2068287"><ele>407.0</ele><time>2026-04-26T13:10:54.61Z</time></trkpt><trkpt lat="43.1203903" lon="11.2067535"><ele>406.99999999999994</ele><time>2026-04-26T13:10:55.61Z</time></trkpt><trkpt lat="43.1203559" lon="11.2066678"><ele>407.0</ele><time>2026-04-26T13:10:56.61Z</time></trkpt><trkpt lat="43.1203201" lon="11.2065796"><ele>407.0</ele><time>2026-04-26T13:10:57.61Z</time></trkpt><trkpt lat="43.1202774" lon="11.2064879"><ele>407.0</ele><time>2026-04-26T13:10:58.61Z</time></trkpt><trkpt lat="43.1202357" lon="11.2064074"><ele>406.99999999999994</ele><time>2026-04-26T13:10:59.61Z</time></trkpt><trkpt lat="43.1201594" lon="11.2063099"><ele>407.0</ele><time>2026-04-26T13:11:01.61Z</time></trkpt><trkpt lat="43.1201231" lon="11.2061955"><ele>405.14285714285717</ele><time>2026-04-26T13:11:19.61Z</time></trkpt><trkpt lat="43.1201309" lon="11.2060549"><ele>403.2857142857143</ele><time>2026-04-26T13:11:21.61Z</time></trkpt><trkpt lat="43.1201326" lon="11.2059674"><ele>401.42857142857144</ele><time>2026-04-26T13:11:22.61Z</time></trkpt><trkpt lat="43.1201364" lon="11.205872"><ele>399.57142857142856</ele><time>2026-04-26T13:11:23.61Z</time></trkpt><trkpt lat="43.1201326" lon="11.2057772"><ele>397.7142857142857</ele><time>2026-04-26T13:11:24.61Z</time></trkpt><trkpt lat="43.1201184" lon="11.2056928"><ele>395.8571428571429</ele><time>2026-04-26T13:11:25.61Z</time></trkpt><trkpt lat="43.1200937" lon="11.2056059"><ele>394.0</ele><time>2026-04-26T13:11:26.61Z</time></trkpt><trkpt lat="43.1200744" lon="11.2055125"><ele>392.50000000000006</ele><time>2026-04-26T13:11:27.61Z</time></trkpt><trkpt lat="43.1200588" lon="11.2054084"><ele>391.0</ele><time>2026-04-26T13:11:28.61Z</time></trkpt><trkpt lat="43.1200547" lon="11.2052967"><ele>389.5</ele><time>2026-04-26T13:11:29.61Z</time></trkpt><trkpt lat="43.1200608" lon="11.2051876"><ele>388.0</ele><time>2026-04-26T13:11:30.61Z</time></trkpt><trkpt lat="43.1200576" lon="11.2050791"><ele>386.50000000000006</ele><time>2026-04-26T13:11:31.611Z</time></trkpt><trkpt lat="43.1200581" lon="11.2049668"><ele>385.0</ele><time>2026-04-26T13:11:32.61Z</time></trkpt><trkpt lat="43.1200656" lon="11.2048552"><ele>384.50000000000006</ele><time>2026-04-26T13:11:33.61Z</time></trkpt><trkpt lat="43.1200812" lon="11.2047456"><ele>384.0</ele><time>2026-04-26T13:11:34.61Z</time></trkpt><trkpt lat="43.1200932" lon="11.204637"><ele>383.5</ele><time>2026-04-26T13:11:35.61Z</time></trkpt><trkpt lat="43.1201032" lon="11.2045332"><ele>383.0</ele><time>2026-04-26T13:11:36.61Z</time></trkpt><trkpt lat="43.1201023" lon="11.2044265"><ele>382.5</ele><time>2026-04-26T13:11:37.61Z</time></trkpt><trkpt lat="43.1200951" lon="11.2043191"><ele>382.0</ele><time>2026-04-26T13:11:38.611Z</time></trkpt><trkpt lat="43.1200944" lon="11.2042108"><ele>382.0</ele><time>2026-04-26T13:11:39.61Z</time></trkpt><trkpt lat="43.1200964" lon="11.2040964"><ele>382.0</ele><time>2026-04-26T13:11:40.611Z</time></trkpt><trkpt lat="43.1201052" lon="11.2039857"><ele>382.0</ele><time>2026-04-26T13:11:41.61Z</time></trkpt><trkpt lat="43.1201181" lon="11.2038741"><ele>382.0</ele><time>2026-04-26T13:11:42.61Z</time></trkpt><trkpt lat="43.1201304" lon="11.2037614"><ele>382.0</ele><time>2026-04-26T13:11:43.611Z</time></trkpt><trkpt lat="43.1201375" lon="11.2036571"><ele>382.0</ele><time>2026-04-26T13:11:44.61Z</time></trkpt><trkpt lat="43.1201168" lon="11.2035121"><ele>381.0</ele><time>2026-04-26T13:11:46.61Z</time></trkpt><trkpt lat="43.1200319" lon="11.2034327"><ele>380.0</ele><time>2026-04-26T13:11:48.61Z</time></trkpt><trkpt lat="43.1199095" lon="11.2034346"><ele>379.0</ele><time>2026-04-26T13:11:50.61Z</time></trkpt><trkpt lat="43.1198414" lon="11.2034779"><ele>378.0</ele><time>2026-04-26T13:11:51.61Z</time></trkpt><trkpt lat="43.1197861" lon="11.2035353"><ele>377.0</ele><time>2026-04-26T13:11:52.61Z</time></trkpt><trkpt lat="43.1197321" lon="11.2035916"><ele>376.0</ele><time>2026-04-26T13:11:53.61Z</time></trkpt><trkpt lat="43.1196847" lon="11.2036503"><ele>375.7142857142857</ele><time>2026-04-26T13:11:54.61Z</time></trkpt><trkpt lat="43.1196335" lon="11.2037114"><ele>375.42857142857144</ele><time>2026-04-26T13:11:55.611Z</time></trkpt><trkpt lat="43.1195815" lon="11.2037668"><ele>375.1428571428571</ele><time>2026-04-26T13:11:56.61Z</time></trkpt><trkpt lat="43.1195089" lon="11.2038107"><ele>374.8571428571429</ele><time>2026-04-26T13:11:57.61Z</time></trkpt><trkpt lat="43.1194375" lon="11.2038466"><ele>374.5714285714286</ele><time>2026-04-26T13:11:58.611Z</time></trkpt><trkpt lat="43.1193703" lon="11.2038658"><ele>374.2857142857143</ele><time>2026-04-26T13:11:59.61Z</time></trkpt><trkpt lat="43.1192943" lon="11.2038894"><ele>374.0</ele><time>2026-04-26T13:12:00.611Z</time></trkpt><trkpt lat="43.1192194" lon="11.2038941"><ele>374.0</ele><time>2026-04-26T13:12:01.61Z</time></trkpt><trkpt lat="43.1191416" lon="11.2038692"><ele>374.0</ele><time>2026-04-26T13:12:02.611Z</time></trkpt><trkpt lat="43.1190792" lon="11.2038228"><ele>374.0</ele><time>2026-04-26T13:12:03.61Z</time></trkpt><trkpt lat="43.1190282" lon="11.203755"><ele>374.0</ele><time>2026-04-26T13:12:04.61Z</time></trkpt><trkpt lat="43.1189871" lon="11.2036803"><ele>374.0</ele><time>2026-04-26T13:12:05.61Z</time></trkpt><trkpt lat="43.1189434" lon="11.2036004"><ele>374.0</ele><time>2026-04-26T13:12:06.61Z</time></trkpt><trkpt lat="43.1189099" lon="11.2035109"><ele>374.0</ele><time>2026-04-26T13:12:07.61Z</time></trkpt><trkpt lat="43.1188792" lon="11.2034104"><ele>374.4</ele><time>2026-04-26T13:12:08.61Z</time></trkpt><trkpt lat="43.1188598" lon="11.2032835"><ele>374.79999999999995</ele><time>2026-04-26T13:12:09.61Z</time></trkpt><trkpt lat="43.1188428" lon="11.2031452"><ele>375.20000000000005</ele><time>2026-04-26T13:12:10.61Z</time></trkpt><trkpt lat="43.1188351" lon="11.2030168"><ele>375.6</ele><time>2026-04-26T13:12:11.61Z</time></trkpt><trkpt lat="43.1188403" lon="11.2029007"><ele>376.0</ele><time>2026-04-26T13:12:12.611Z</time></trkpt><trkpt lat="43.1188648" lon="11.2027937"><ele>376.0</ele><time>2026-04-26T13:12:13.61Z</time></trkpt><trkpt lat="43.1189068" lon="11.202688"><ele>376.0</ele><time>2026-04-26T13:12:14.61Z</time></trkpt><trkpt lat="43.1189539" lon="11.2025689"><ele>376.0</ele><time>2026-04-26T13:12:15.611Z</time></trkpt><trkpt lat="43.1189895" lon="11.2024459"><ele>376.0</ele><time>2026-04-26T13:12:16.611Z</time></trkpt><trkpt lat="43.119019" lon="11.2023107"><ele>376.0</ele><time>2026-04-26T13:12:17.611Z</time></trkpt><trkpt lat="43.1190495" lon="11.2021534"><ele>376.75</ele><time>2026-04-26T13:12:18.61Z</time></trkpt><trkpt lat="43.1190687" lon="11.2019942"><ele>377.5</ele><time>2026-04-26T13:12:19.61Z</time></trkpt><trkpt lat="43.119072" lon="11.2018306"><ele>378.25</ele><time>2026-04-26T13:12:20.61Z</time></trkpt><trkpt lat="43.1190744" lon="11.2016647"><ele>379.0</ele><time>2026-04-26T13:12:21.61Z</time></trkpt><trkpt lat="43.1190871" lon="11.2015184"><ele>380.4</ele><time>2026-04-26T13:12:22.61Z</time></trkpt><trkpt lat="43.1191101" lon="11.201393"><ele>381.79999999999995</ele><time>2026-04-26T13:12:23.61Z</time></trkpt><trkpt lat="43.1191467" lon="11.2012652"><ele>383.20000000000005</ele><time>2026-04-26T13:12:24.611Z</time></trkpt><trkpt lat="43.1191867" lon="11.2011378"><ele>384.6</ele><time>2026-04-26T13:12:25.61Z</time></trkpt><trkpt lat="43.1192281" lon="11.2010167"><ele>386.0</ele><time>2026-04-26T13:12:26.61Z</time></trkpt><trkpt lat="43.1192723" lon="11.2009105"><ele>386.0</ele><time>2026-04-26T13:12:27.611Z</time></trkpt><trkpt lat="43.1193194" lon="11.2008204"><ele>386.0</ele><time>2026-04-26T13:12:28.61Z</time></trkpt><trkpt lat="43.1193872" lon="11.2007342"><ele>386.0</ele><time>2026-04-26T13:12:29.61Z</time></trkpt><trkpt lat="43.1194676" lon="11.2006266"><ele>386.0</ele><time>2026-04-26T13:12:30.611Z</time></trkpt><trkpt lat="43.1195613" lon="11.200514"><ele>386.0</ele><time>2026-04-26T13:12:31.61Z</time></trkpt><trkpt lat="43.1196668" lon="11.2003961"><ele>386.75</ele><time>2026-04-26T13:12:32.61Z</time></trkpt><trkpt lat="43.1197807" lon="11.2002672"><ele>387.5</ele><time>2026-04-26T13:12:33.611Z</time></trkpt><trkpt lat="43.1198655" lon="11.2001535"><ele>388.25</ele><time>2026-04-26T13:12:34.61Z</time></trkpt><trkpt lat="43.1199273" lon="11.2000485"><ele>389.0</ele><time>2026-04-26T13:12:35.611Z</time></trkpt><trkpt lat="43.119985" lon="11.1999144"><ele>389.5</ele><time>2026-04-26T13:12:36.611Z</time></trkpt><trkpt lat="43.1200436" lon="11.1997595"><ele>390.0</ele><time>2026-04-26T13:12:37.61Z</time></trkpt><trkpt lat="43.1201048" lon="11.1996111"><ele>390.5</ele><time>2026-04-26T13:12:38.61Z</time></trkpt><trkpt lat="43.1201542" lon="11.1994793"><ele>391.0</ele><time>2026-04-26T13:12:39.61Z</time></trkpt><trkpt lat="43.1201845" lon="11.1993438"><ele>391.0</ele><time>2026-04-26T13:12:40.611Z</time></trkpt><trkpt lat="43.1201827" lon="11.1992086"><ele>391.0</ele><time>2026-04-26T13:12:41.61Z</time></trkpt><trkpt lat="43.1201601" lon="11.1990665"><ele>391.0</ele><time>2026-04-26T13:12:42.611Z</time></trkpt><trkpt lat="43.1201179" lon="11.1989199"><ele>391.0</ele><time>2026-04-26T13:12:43.61Z</time></trkpt><trkpt lat="43.1200694" lon="11.1987886"><ele>391.0</ele><time>2026-04-26T13:12:44.61Z</time></trkpt><trkpt lat="43.1200477" lon="11.1987064"><ele>391.0</ele><time>2026-04-26T13:12:45.61Z</time></trkpt><trkpt lat="43.1200195" lon="11.198585"><ele>391.0</ele><time>2026-04-26T13:12:47.61Z</time></trkpt><trkpt lat="43.1199783" lon="11.1984603"><ele>391.0</ele><time>2026-04-26T13:12:49.61Z</time></trkpt><trkpt lat="43.1199164" lon="11.1983067"><ele>391.0</ele><time>2026-04-26T13:12:51.61Z</time></trkpt><trkpt lat="43.1198868" lon="11.1982126"><ele>391.0</ele><time>2026-04-26T13:12:52.61Z</time></trkpt><trkpt lat="43.1198487" lon="11.1981217"><ele>392.1666666666667</ele><time>2026-04-26T13:12:53.61Z</time></trkpt><trkpt lat="43.1197771" lon="11.1980454"><ele>393.33333333333337</ele><time>2026-04-26T13:12:55.61Z</time></trkpt><trkpt lat="43.119848" lon="11.1980867"><ele>394.5</ele><time>2026-04-26T13:13:12.611Z</time></trkpt><trkpt lat="43.1198545" lon="11.1981845"><ele>395.66666666666663</ele><time>2026-04-26T13:13:14.61Z</time></trkpt><trkpt lat="43.1198078" lon="11.1980673"><ele>396.8333333333333</ele><time>2026-04-26T13:13:19.61Z</time></trkpt><trkpt lat="43.1197346" lon="11.197962"><ele>398.0</ele><time>2026-04-26T13:13:21.611Z</time></trkpt><trkpt lat="43.1196854" lon="11.197889"><ele>397.99999999999994</ele><time>2026-04-26T13:13:24.61Z</time></trkpt><trkpt lat="43.1196207" lon="11.1978695"><ele>398.0</ele><time>2026-04-26T13:13:27.61Z</time></trkpt><trkpt lat="43.1195467" lon="11.1978385"><ele>398.0</ele><time>2026-04-26T13:13:29.61Z</time></trkpt><trkpt lat="43.1194603" lon="11.1978051"><ele>398.0</ele><time>2026-04-26T13:13:31.61Z</time></trkpt><trkpt lat="43.1193704" lon="11.1977897"><ele>397.99999999999994</ele><time>2026-04-26T13:13:34.61Z</time></trkpt><trkpt lat="43.1192907" lon="11.1978268"><ele>398.0</ele><time>2026-04-26T13:13:37.61Z</time></trkpt><trkpt lat="43.1192194" lon="11.1978828"><ele>397.99999999999994</ele><time>2026-04-26T13:13:39.61Z</time></trkpt><trkpt lat="43.1191723" lon="11.1979706"><ele>398.0</ele><time>2026-04-26T13:13:41.61Z</time></trkpt><trkpt lat="43.1191251" lon="11.1980311"><ele>398.0</ele><time>2026-04-26T13:13:43.611Z</time></trkpt><trkpt lat="43.1190543" lon="11.1980152"><ele>398.0</ele><time>2026-04-26T13:14:10.61Z</time></trkpt><trkpt lat="43.1189297" lon="11.1979867"><ele>397.99999999999994</ele><time>2026-04-26T13:14:12.61Z</time></trkpt><trkpt lat="43.1188532" lon="11.1979935"><ele>398.0</ele><time>2026-04-26T13:14:13.611Z</time></trkpt><trkpt lat="43.1187747" lon="11.1980139"><ele>398.49999999999994</ele><time>2026-04-26T13:14:14.611Z</time></trkpt><trkpt lat="43.1187011" lon="11.1980443"><ele>399.0</ele><time>2026-04-26T13:14:15.61Z</time></trkpt><trkpt lat="43.1186327" lon="11.198089"><ele>399.5</ele><time>2026-04-26T13:14:16.61Z</time></trkpt><trkpt lat="43.1185655" lon="11.1981382"><ele>400.0</ele><time>2026-04-26T13:14:17.611Z</time></trkpt><trkpt lat="43.1185023" lon="11.1981919"><ele>400.49999999999994</ele><time>2026-04-26T13:14:18.61Z</time></trkpt><trkpt lat="43.1184454" lon="11.1982681"><ele>401.0</ele><time>2026-04-26T13:14:19.61Z</time></trkpt><trkpt lat="43.1183915" lon="11.1983478"><ele>401.3333333333333</ele><time>2026-04-26T13:14:20.611Z</time></trkpt><trkpt lat="43.1183408" lon="11.1984245"><ele>401.66666666666663</ele><time>2026-04-26T13:14:21.61Z</time></trkpt><trkpt lat="43.118296" lon="11.1984952"><ele>402.0</ele><time>2026-04-26T13:14:22.61Z</time></trkpt><trkpt lat="43.118251" lon="11.1985639"><ele>402.33333333333337</ele><time>2026-04-26T13:14:23.61Z</time></trkpt><trkpt lat="43.1181438" lon="11.1986571"><ele>402.6666666666667</ele><time>2026-04-26T13:14:25.61Z</time></trkpt><trkpt lat="43.1180707" lon="11.1986722"><ele>403.0</ele><time>2026-04-26T13:14:26.61Z</time></trkpt><trkpt lat="43.1179951" lon="11.198666"><ele>405.2</ele><time>2026-04-26T13:14:27.61Z</time></trkpt><trkpt lat="43.1179242" lon="11.1986559"><ele>407.4</ele><time>2026-04-26T13:14:28.611Z</time></trkpt><trkpt lat="43.1178506" lon="11.1986694"><ele>409.59999999999997</ele><time>2026-04-26T13:14:29.61Z</time></trkpt><trkpt lat="43.1177639" lon="11.198724"><ele>411.79999999999995</ele><time>2026-04-26T13:14:30.61Z</time></trkpt><trkpt lat="43.1176601" lon="11.1988263"><ele>414.0</ele><time>2026-04-26T13:14:31.61Z</time></trkpt><trkpt lat="43.1175486" lon="11.1989356"><ele>414.0</ele><time>2026-04-26T13:14:32.61Z</time></trkpt><trkpt lat="43.1174472" lon="11.1990395"><ele>414.0</ele><time>2026-04-26T13:14:33.61Z</time></trkpt><trkpt lat="43.1173496" lon="11.1991346"><ele>414.0</ele><time>2026-04-26T13:14:34.61Z</time></trkpt><trkpt lat="43.1172434" lon="11.1992146"><ele>414.0</ele><time>2026-04-26T13:14:35.61Z</time></trkpt><trkpt lat="43.1171386" lon="11.1992653"><ele>417.5</ele><time>2026-04-26T13:14:36.61Z</time></trkpt><trkpt lat="43.1170292" lon="11.1993022"><ele>421.0</ele><time>2026-04-26T13:14:37.61Z</time></trkpt><trkpt lat="43.1169144" lon="11.1993316"><ele>424.5</ele><time>2026-04-26T13:14:38.611Z</time></trkpt><trkpt lat="43.1167923" lon="11.1993645"><ele>428.0</ele><time>2026-04-26T13:14:39.61Z</time></trkpt><trkpt lat="43.116649" lon="11.199404"><ele>431.0</ele><time>2026-04-26T13:14:40.611Z</time></trkpt><trkpt lat="43.1165065" lon="11.1994545"><ele>434.0</ele><time>2026-04-26T13:14:41.61Z</time></trkpt><trkpt lat="43.1163776" lon="11.199499"><ele>437.0</ele><time>2026-04-26T13:14:42.61Z</time></trkpt><trkpt lat="43.1162584" lon="11.1995528"><ele>440.0</ele><time>2026-04-26T13:14:43.61Z</time></trkpt><trkpt lat="43.1161439" lon="11.1996197"><ele>440.0</ele><time>2026-04-26T13:14:44.61Z</time></trkpt><trkpt lat="43.1160411" lon="11.1996758"><ele>440.0</ele><time>2026-04-26T13:14:45.61Z</time></trkpt><trkpt lat="43.1159497" lon="11.1997186"><ele>440.0</ele><time>2026-04-26T13:14:46.61Z</time></trkpt><trkpt lat="43.1158581" lon="11.1997623"><ele>440.0</ele><time>2026-04-26T13:14:47.611Z</time></trkpt><trkpt lat="43.1157897" lon="11.1997971"><ele>440.0</ele><time>2026-04-26T13:14:48.61Z</time></trkpt><trkpt lat="43.1156873" lon="11.1998931"><ele>439.71428571428567</ele><time>2026-04-26T13:14:50.611Z</time></trkpt><trkpt lat="43.1156348" lon="11.1999561"><ele>439.42857142857144</ele><time>2026-04-26T13:14:51.61Z</time></trkpt><trkpt lat="43.1155821" lon="11.2000269"><ele>439.1428571428571</ele><time>2026-04-26T13:14:52.61Z</time></trkpt><trkpt lat="43.1155183" lon="11.2000732"><ele>438.85714285714283</ele><time>2026-04-26T13:14:53.61Z</time></trkpt><trkpt lat="43.1154453" lon="11.2001094"><ele>438.57142857142856</ele><time>2026-04-26T13:14:54.611Z</time></trkpt><trkpt lat="43.1153753" lon="11.2001463"><ele>438.2857142857143</ele><time>2026-04-26T13:14:55.61Z</time></trkpt><trkpt lat="43.1152991" lon="11.2001826"><ele>438.0</ele><time>2026-04-26T13:14:56.61Z</time></trkpt><trkpt lat="43.1152196" lon="11.2002113"><ele>438.0</ele><time>2026-04-26T13:14:57.61Z</time></trkpt><trkpt lat="43.1151354" lon="11.2002311"><ele>437.99999999999994</ele><time>2026-04-26T13:14:58.61Z</time></trkpt><trkpt lat="43.1150391" lon="11.2002495"><ele>437.99999999999994</ele><time>2026-04-26T13:14:59.61Z</time></trkpt><trkpt lat="43.1149407" lon="11.2002674"><ele>438.0</ele><time>2026-04-26T13:15:00.61Z</time></trkpt><trkpt lat="43.1148524" lon="11.2003009"><ele>438.0</ele><time>2026-04-26T13:15:01.611Z</time></trkpt><trkpt lat="43.1147765" lon="11.2003764"><ele>437.8333333333333</ele><time>2026-04-26T13:15:02.61Z</time></trkpt><trkpt lat="43.1147172" lon="11.2004867"><ele>437.66666666666663</ele><time>2026-04-26T13:15:03.61Z</time></trkpt><trkpt lat="43.1146659" lon="11.2006065"><ele>437.5</ele><time>2026-04-26T13:15:04.61Z</time></trkpt><trkpt lat="43.1146176" lon="11.200697"><ele>437.3333333333333</ele><time>2026-04-26T13:15:05.61Z</time></trkpt><trkpt lat="43.1145615" lon="11.2007669"><ele>437.16666666666663</ele><time>2026-04-26T13:15:06.61Z</time></trkpt><trkpt lat="43.1144993" lon="11.2008229"><ele>437.0</ele><time>2026-04-26T13:15:07.611Z</time></trkpt><trkpt lat="43.1144336" lon="11.2008735"><ele>436.99999999999994</ele><time>2026-04-26T13:15:08.61Z</time></trkpt><trkpt lat="43.1143655" lon="11.2009173"><ele>437.0</ele><time>2026-04-26T13:15:09.61Z</time></trkpt><trkpt lat="43.1142937" lon="11.2009643"><ele>437.0</ele><time>2026-04-26T13:15:10.611Z</time></trkpt><trkpt lat="43.1142237" lon="11.2010244"><ele>437.0</ele><time>2026-04-26T13:15:11.61Z</time></trkpt><trkpt lat="43.114164" lon="11.2011055"><ele>436.99999999999994</ele><time>2026-04-26T13:15:12.61Z</time></trkpt><trkpt lat="43.1141251" lon="11.2012105"><ele>437.0</ele><time>2026-04-26T13:15:13.611Z</time></trkpt><trkpt lat="43.1141115" lon="11.2013655"><ele>435.5</ele><time>2026-04-26T13:15:14.611Z</time></trkpt><trkpt lat="43.1141067" lon="11.2015431"><ele>434.0</ele><time>2026-04-26T13:15:15.61Z</time></trkpt><trkpt lat="43.1140778" lon="11.2017283"><ele>432.5</ele><time>2026-04-26T13:15:16.611Z</time></trkpt><trkpt lat="43.1140392" lon="11.2018975"><ele>431.0</ele><time>2026-04-26T13:15:17.61Z</time></trkpt><trkpt lat="43.1139985" lon="11.2020459"><ele>434.8</ele><time>2026-04-26T13:15:18.61Z</time></trkpt><trkpt lat="43.1139624" lon="11.2021706"><ele>438.6</ele><time>2026-04-26T13:15:19.61Z</time></trkpt><trkpt lat="43.1139324" lon="11.2023087"><ele>442.4</ele><time>2026-04-26T13:15:20.61Z</time></trkpt><trkpt lat="43.1139163" lon="11.2024696"><ele>446.2</ele><time>2026-04-26T13:15:21.61Z</time></trkpt><trkpt lat="43.1139062" lon="11.2026329"><ele>450.0</ele><time>2026-04-26T13:15:22.61Z</time></trkpt><trkpt lat="43.1138918" lon="11.2027707"><ele>450.0</ele><time>2026-04-26T13:15:23.61Z</time></trkpt><trkpt lat="43.1138711" lon="11.2028904"><ele>450.0</ele><time>2026-04-26T13:15:24.61Z</time></trkpt><trkpt lat="43.1138401" lon="11.2030135"><ele>450.0</ele><time>2026-04-26T13:15:25.611Z</time></trkpt><trkpt lat="43.1137801" lon="11.2031332"><ele>450.0</ele><time>2026-04-26T13:15:26.61Z</time></trkpt><trkpt lat="43.1137052" lon="11.2032483"><ele>450.0</ele><time>2026-04-26T13:15:27.61Z</time></trkpt><trkpt lat="43.1136298" lon="11.2033536"><ele>448.4</ele><time>2026-04-26T13:15:28.61Z</time></trkpt><trkpt lat="43.1135608" lon="11.2034597"><ele>446.8</ele><time>2026-04-26T13:15:29.61Z</time></trkpt><trkpt lat="43.1134968" lon="11.2035672"><ele>445.20000000000005</ele><time>2026-04-26T13:15:30.61Z</time></trkpt><trkpt lat="43.1134331" lon="11.203684"><ele>443.6</ele><time>2026-04-26T13:15:31.61Z</time></trkpt><trkpt lat="43.113376" lon="11.2038062"><ele>442.0</ele><time>2026-04-26T13:15:32.61Z</time></trkpt><trkpt lat="43.1133222" lon="11.2039334"><ele>443.20000000000005</ele><time>2026-04-26T13:15:33.611Z</time></trkpt><trkpt lat="43.1132758" lon="11.2040425"><ele>444.40000000000003</ele><time>2026-04-26T13:15:34.61Z</time></trkpt><trkpt lat="43.1132327" lon="11.2041668"><ele>445.59999999999997</ele><time>2026-04-26T13:15:35.61Z</time></trkpt><trkpt lat="43.1131908" lon="11.2042854"><ele>446.79999999999995</ele><time>2026-04-26T13:15:36.61Z</time></trkpt><trkpt lat="43.113143" lon="11.2043849"><ele>448.0</ele><time>2026-04-26T13:15:37.61Z</time></trkpt><trkpt lat="43.1130692" lon="11.2044662"><ele>448.0</ele><time>2026-04-26T13:15:38.61Z</time></trkpt><trkpt lat="43.112987" lon="11.2045306"><ele>447.99999999999994</ele><time>2026-04-26T13:15:39.611Z</time></trkpt><trkpt lat="43.1129029" lon="11.204605"><ele>447.99999999999994</ele><time>2026-04-26T13:15:40.61Z</time></trkpt><trkpt lat="43.112828" lon="11.2046915"><ele>448.0</ele><time>2026-04-26T13:15:41.61Z</time></trkpt><trkpt lat="43.1127573" lon="11.2047982"><ele>448.0</ele><time>2026-04-26T13:15:42.61Z</time></trkpt><trkpt lat="43.112688" lon="11.2049216"><ele>446.2</ele><time>2026-04-26T13:15:43.611Z</time></trkpt><trkpt lat="43.1126176" lon="11.2050401"><ele>444.4</ele><time>2026-04-26T13:15:44.61Z</time></trkpt><trkpt lat="43.1125464" lon="11.2051642"><ele>442.59999999999997</ele><time>2026-04-26T13:15:45.61Z</time></trkpt><trkpt lat="43.1124824" lon="11.2052685"><ele>440.79999999999995</ele><time>2026-04-26T13:15:46.61Z</time></trkpt><trkpt lat="43.1124161" lon="11.2053424"><ele>439.0</ele><time>2026-04-26T13:15:47.611Z</time></trkpt><trkpt lat="43.1123467" lon="11.2053913"><ele>440.4</ele><time>2026-04-26T13:15:48.61Z</time></trkpt><trkpt lat="43.1122649" lon="11.2054448"><ele>441.79999999999995</ele><time>2026-04-26T13:15:49.61Z</time></trkpt><trkpt lat="43.1121749" lon="11.205509"><ele>443.20000000000005</ele><time>2026-04-26T13:15:50.611Z</time></trkpt><trkpt lat="43.1120884" lon="11.2055782"><ele>444.6</ele><time>2026-04-26T13:15:51.61Z</time></trkpt><trkpt lat="43.1120122" lon="11.2056519"><ele>446.0</ele><time>2026-04-26T13:15:52.61Z</time></trkpt><trkpt lat="43.1119708" lon="11.2057495"><ele>445.99999999999994</ele><time>2026-04-26T13:15:53.61Z</time></trkpt><trkpt lat="43.1119611" lon="11.2058805"><ele>446.0</ele><time>2026-04-26T13:15:54.611Z</time></trkpt><trkpt lat="43.111955" lon="11.2060113"><ele>446.0</ele><time>2026-04-26T13:15:55.61Z</time></trkpt><trkpt lat="43.1119672" lon="11.2061496"><ele>446.0</ele><time>2026-04-26T13:15:56.611Z</time></trkpt><trkpt lat="43.1119725" lon="11.206265"><ele>445.99999999999994</ele><time>2026-04-26T13:15:57.61Z</time></trkpt><trkpt lat="43.1119639" lon="11.2063549"><ele>446.0</ele><time>2026-04-26T13:15:58.61Z</time></trkpt><trkpt lat="43.1118748" lon="11.2064955"><ele>445.8</ele><time>2026-04-26T13:16:00.611Z</time></trkpt><trkpt lat="43.1117936" lon="11.2065584"><ele>445.6</ele><time>2026-04-26T13:16:01.61Z</time></trkpt><trkpt lat="43.1117232" lon="11.2066802"><ele>445.4</ele><time>2026-04-26T13:16:02.61Z</time></trkpt><trkpt lat="43.1116389" lon="11.2068182"><ele>445.2</ele><time>2026-04-26T13:16:03.61Z</time></trkpt><trkpt lat="43.1115675" lon="11.2069323"><ele>445.0</ele><time>2026-04-26T13:16:04.61Z</time></trkpt><trkpt lat="43.1115088" lon="11.2070329"><ele>447.83333333333337</ele><time>2026-04-26T13:16:05.61Z</time></trkpt><trkpt lat="43.1114521" lon="11.2071382"><ele>450.6666666666667</ele><time>2026-04-26T13:16:06.61Z</time></trkpt><trkpt lat="43.1114094" lon="11.2072387"><ele>453.5</ele><time>2026-04-26T13:16:07.611Z</time></trkpt><trkpt lat="43.1113913" lon="11.2073339"><ele>456.33333333333337</ele><time>2026-04-26T13:16:08.61Z</time></trkpt><trkpt lat="43.1114103" lon="11.2074454"><ele>459.1666666666667</ele><time>2026-04-26T13:16:09.61Z</time></trkpt><trkpt lat="43.1114338" lon="11.2075753"><ele>462.0</ele><time>2026-04-26T13:16:10.61Z</time></trkpt><trkpt lat="43.1114516" lon="11.207698"><ele>462.0</ele><time>2026-04-26T13:16:11.611Z</time></trkpt><trkpt lat="43.1114761" lon="11.2078241"><ele>462.00000000000006</ele><time>2026-04-26T13:16:12.61Z</time></trkpt><trkpt lat="43.1115012" lon="11.2079393"><ele>462.00000000000006</ele><time>2026-04-26T13:16:13.61Z</time></trkpt><trkpt lat="43.1115008" lon="11.2080594"><ele>462.0</ele><time>2026-04-26T13:16:14.61Z</time></trkpt><trkpt lat="43.1114882" lon="11.2081806"><ele>462.0</ele><time>2026-04-26T13:16:15.61Z</time></trkpt><trkpt lat="43.1114669" lon="11.2083187"><ele>461.40000000000003</ele><time>2026-04-26T13:16:16.61Z</time></trkpt><trkpt lat="43.1114348" lon="11.2084558"><ele>460.80000000000007</ele><time>2026-04-26T13:16:17.61Z</time></trkpt><trkpt lat="43.1113865" lon="11.2085839"><ele>460.2</ele><time>2026-04-26T13:16:18.61Z</time></trkpt><trkpt lat="43.1113264" lon="11.208691"><ele>459.6</ele><time>2026-04-26T13:16:19.611Z</time></trkpt><trkpt lat="43.1112675" lon="11.2087831"><ele>459.0</ele><time>2026-04-26T13:16:20.61Z</time></trkpt><trkpt lat="43.1112037" lon="11.2088669"><ele>459.0</ele><time>2026-04-26T13:16:21.609Z</time></trkpt><trkpt lat="43.1111263" lon="11.2089573"><ele>459.0</ele><time>2026-04-26T13:16:22.609Z</time></trkpt><trkpt lat="43.1110428" lon="11.2090521"><ele>459.0</ele><time>2026-04-26T13:16:23.61Z</time></trkpt><trkpt lat="43.1109644" lon="11.2091521"><ele>459.0</ele><time>2026-04-26T13:16:24.61Z</time></trkpt><trkpt lat="43.1108922" lon="11.2092636"><ele>459.0</ele><time>2026-04-26T13:16:25.609Z</time></trkpt><trkpt lat="43.1108337" lon="11.2093729"><ele>458.79999999999995</ele><time>2026-04-26T13:16:26.609Z</time></trkpt><trkpt lat="43.1107878" lon="11.209468"><ele>458.59999999999997</ele><time>2026-04-26T13:16:27.609Z</time></trkpt><trkpt lat="43.1107314" lon="11.2095494"><ele>458.4</ele><time>2026-04-26T13:16:28.609Z</time></trkpt><trkpt lat="43.1106553" lon="11.2096471"><ele>458.2</ele><time>2026-04-26T13:16:29.609Z</time></trkpt><trkpt lat="43.1105827" lon="11.20974"><ele>458.0</ele><time>2026-04-26T13:16:30.61Z</time></trkpt><trkpt lat="43.1105078" lon="11.2098211"><ele>458.49999999999994</ele><time>2026-04-26T13:16:31.609Z</time></trkpt><trkpt lat="43.1104374" lon="11.2098766"><ele>459.0</ele><time>2026-04-26T13:16:32.609Z</time></trkpt><trkpt lat="43.1103601" lon="11.209927"><ele>459.5</ele><time>2026-04-26T13:16:34.609Z</time></trkpt><trkpt lat="43.1103019" lon="11.2099801"><ele>460.0</ele><time>2026-04-26T13:16:36.609Z</time></trkpt><trkpt lat="43.1102232" lon="11.2100551"><ele>460.49999999999994</ele><time>2026-04-26T13:16:38.61Z</time></trkpt><trkpt lat="43.110145" lon="11.2101088"><ele>461.0</ele><time>2026-04-26T13:17:26.609Z</time></trkpt><trkpt lat="43.1100411" lon="11.2101911"><ele>460.99999999999994</ele><time>2026-04-26T13:17:28.609Z</time></trkpt><trkpt lat="43.1099644" lon="11.2102528"><ele>461.0</ele><time>2026-04-26T13:17:29.609Z</time></trkpt><trkpt lat="43.1098917" lon="11.2103077"><ele>461.0</ele><time>2026-04-26T13:17:30.61Z</time></trkpt><trkpt lat="43.1098173" lon="11.2103575"><ele>461.0</ele><time>2026-04-26T13:17:31.609Z</time></trkpt><trkpt lat="43.1097514" lon="11.2103995"><ele>460.99999999999994</ele><time>2026-04-26T13:17:32.609Z</time></trkpt><trkpt lat="43.109696" lon="11.2105103"><ele>461.0</ele><time>2026-04-26T13:17:34.609Z</time></trkpt><trkpt lat="43.1097016" lon="11.2106787"><ele>463.49999999999994</ele><time>2026-04-26T13:17:36.609Z</time></trkpt><trkpt lat="43.1097197" lon="11.2107771"><ele>466.0</ele><time>2026-04-26T13:17:37.609Z</time></trkpt><trkpt lat="43.1097369" lon="11.210874"><ele>468.5</ele><time>2026-04-26T13:17:38.61Z</time></trkpt><trkpt lat="43.1097535" lon="11.2109839"><ele>471.0</ele><time>2026-04-26T13:17:39.61Z</time></trkpt><trkpt lat="43.1097703" lon="11.2110973"><ele>473.49999999999994</ele><time>2026-04-26T13:17:40.61Z</time></trkpt><trkpt lat="43.1097834" lon="11.2112196"><ele>476.0</ele><time>2026-04-26T13:17:41.609Z</time></trkpt><trkpt lat="43.1097917" lon="11.2113381"><ele>475.99999999999994</ele><time>2026-04-26T13:17:42.609Z</time></trkpt><trkpt lat="43.1098033" lon="11.2114576"><ele>476.0</ele><time>2026-04-26T13:17:43.609Z</time></trkpt><trkpt lat="43.1098139" lon="11.2115718"><ele>476.0</ele><time>2026-04-26T13:17:44.609Z</time></trkpt><trkpt lat="43.10982" lon="11.2116667"><ele>476.0</ele><time>2026-04-26T13:17:45.609Z</time></trkpt><trkpt lat="43.1098184" lon="11.2118136"><ele>475.99999999999994</ele><time>2026-04-26T13:17:47.609Z</time></trkpt><trkpt lat="43.1098017" lon="11.2119048"><ele>476.0</ele><time>2026-04-26T13:17:48.609Z</time></trkpt><trkpt lat="43.1097783" lon="11.2120077"><ele>476.8</ele><time>2026-04-26T13:17:49.609Z</time></trkpt><trkpt lat="43.1097577" lon="11.2121072"><ele>477.6</ele><time>2026-04-26T13:17:50.609Z</time></trkpt><trkpt lat="43.1097233" lon="11.2122075"><ele>478.4</ele><time>2026-04-26T13:17:51.609Z</time></trkpt><trkpt lat="43.1096746" lon="11.2123294"><ele>479.2</ele><time>2026-04-26T13:17:52.609Z</time></trkpt><trkpt lat="43.109619" lon="11.2124667"><ele>480.0</ele><time>2026-04-26T13:17:53.609Z</time></trkpt><trkpt lat="43.1095639" lon="11.2126019"><ele>480.0</ele><time>2026-04-26T13:17:54.609Z</time></trkpt><trkpt lat="43.1095069" lon="11.2127222"><ele>480.0</ele><time>2026-04-26T13:17:55.61Z</time></trkpt><trkpt lat="43.1094483" lon="11.2128273"><ele>480.0</ele><time>2026-04-26T13:17:56.609Z</time></trkpt><trkpt lat="43.1093933" lon="11.2129269"><ele>480.0</ele><time>2026-04-26T13:17:57.609Z</time></trkpt><trkpt lat="43.1093428" lon="11.2130335"><ele>480.0</ele><time>2026-04-26T13:17:58.609Z</time></trkpt><trkpt lat="43.1092913" lon="11.2131459"><ele>480.0</ele><time>2026-04-26T13:17:59.609Z</time></trkpt><trkpt lat="43.1092296" lon="11.2132597"><ele>480.0</ele><time>2026-04-26T13:18:00.61Z</time></trkpt><trkpt lat="43.1091614" lon="11.2133703"><ele>480.0</ele><time>2026-04-26T13:18:01.609Z</time></trkpt><trkpt lat="43.1091048" lon="11.2134501"><ele>480.0</ele><time>2026-04-26T13:18:02.609Z</time></trkpt><trkpt lat="43.1090246" lon="11.2135386"><ele>480.0</ele><time>2026-04-26T13:18:04.609Z</time></trkpt><trkpt lat="43.1089592" lon="11.2135609"><ele>480.0</ele><time>2026-04-26T13:18:06.609Z</time></trkpt><trkpt lat="43.1088872" lon="11.2135608"><ele>480.0</ele><time>2026-04-26T13:18:08.61Z</time></trkpt><trkpt lat="43.1088001" lon="11.2135896"><ele>480.0</ele><time>2026-04-26T13:18:10.609Z</time></trkpt><trkpt lat="43.1087091" lon="11.2136444"><ele>480.0</ele><time>2026-04-26T13:18:12.609Z</time></trkpt><trkpt lat="43.108646" lon="11.2136752"><ele>480.0</ele><time>2026-04-26T13:18:13.609Z</time></trkpt><trkpt lat="43.1085807" lon="11.2137292"><ele>480.0</ele><time>2026-04-26T13:18:14.609Z</time></trkpt><trkpt lat="43.1085188" lon="11.2137857"><ele>480.0</ele><time>2026-04-26T13:18:15.609Z</time></trkpt><trkpt lat="43.1084565" lon="11.2138429"><ele>480.0</ele><time>2026-04-26T13:18:16.609Z</time></trkpt><trkpt lat="43.108395" lon="11.2138994"><ele>480.0</ele><time>2026-04-26T13:18:17.609Z</time></trkpt><trkpt lat="43.108327" lon="11.2139385"><ele>480.0</ele><time>2026-04-26T13:18:18.609Z</time></trkpt><trkpt lat="43.1082571" lon="11.2139677"><ele>480.0</ele><time>2026-04-26T13:18:19.609Z</time></trkpt><trkpt lat="43.1081748" lon="11.213998"><ele>480.0</ele><time>2026-04-26T13:18:20.609Z</time></trkpt><trkpt lat="43.1080925" lon="11.2140378"><ele>478.0</ele><time>2026-04-26T13:18:21.609Z</time></trkpt><trkpt lat="43.1080041" lon="11.2140724"><ele>476.0</ele><time>2026-04-26T13:18:22.609Z</time></trkpt><trkpt lat="43.1079229" lon="11.2141049"><ele>474.0</ele><time>2026-04-26T13:18:23.609Z</time></trkpt><trkpt lat="43.107844" lon="11.214127"><ele>472.0</ele><time>2026-04-26T13:18:24.609Z</time></trkpt><trkpt lat="43.1077753" lon="11.2141357"><ele>470.0</ele><time>2026-04-26T13:18:25.609Z</time></trkpt><trkpt lat="43.1076955" lon="11.2141489"><ele>468.0</ele><time>2026-04-26T13:18:26.61Z</time></trkpt><trkpt lat="43.1076123" lon="11.2141584"><ele>468.0</ele><time>2026-04-26T13:18:27.609Z</time></trkpt><trkpt lat="43.1075218" lon="11.2141549"><ele>467.99999999999994</ele><time>2026-04-26T13:18:28.61Z</time></trkpt><trkpt lat="43.1074298" lon="11.2141296"><ele>467.99999999999994</ele><time>2026-04-26T13:18:29.609Z</time></trkpt><trkpt lat="43.1073503" lon="11.2140977"><ele>468.0</ele><time>2026-04-26T13:18:30.609Z</time></trkpt><trkpt lat="43.1072623" lon="11.2140728"><ele>468.0</ele><time>2026-04-26T13:18:32.609Z</time></trkpt><trkpt lat="43.1072034" lon="11.2141892"><ele>469.79999999999995</ele><time>2026-04-26T13:18:34.609Z</time></trkpt><trkpt lat="43.1072131" lon="11.2142998"><ele>471.59999999999997</ele><time>2026-04-26T13:18:35.609Z</time></trkpt><trkpt lat="43.1072402" lon="11.214419"><ele>473.40000000000003</ele><time>2026-04-26T13:18:36.609Z</time></trkpt><trkpt lat="43.1072416" lon="11.214587"><ele>475.20000000000005</ele><time>2026-04-26T13:18:38.609Z</time></trkpt><trkpt lat="43.1071966" lon="11.2146948"><ele>477.0</ele><time>2026-04-26T13:18:39.609Z</time></trkpt><trkpt lat="43.1071217" lon="11.2148129"><ele>477.6</ele><time>2026-04-26T13:18:40.609Z</time></trkpt><trkpt lat="43.1070345" lon="11.2149291"><ele>478.20000000000005</ele><time>2026-04-26T13:18:41.609Z</time></trkpt><trkpt lat="43.1069476" lon="11.2150088"><ele>478.8</ele><time>2026-04-26T13:18:42.609Z</time></trkpt><trkpt lat="43.1068666" lon="11.2150351"><ele>479.4</ele><time>2026-04-26T13:18:43.609Z</time></trkpt><trkpt lat="43.1067721" lon="11.2150413"><ele>480.0</ele><time>2026-04-26T13:18:44.609Z</time></trkpt><trkpt lat="43.1066826" lon="11.2150529"><ele>480.0</ele><time>2026-04-26T13:18:45.609Z</time></trkpt><trkpt lat="43.1065928" lon="11.2150584"><ele>480.0</ele><time>2026-04-26T13:18:46.609Z</time></trkpt><trkpt lat="43.1064962" lon="11.2150585"><ele>480.0</ele><time>2026-04-26T13:18:47.61Z</time></trkpt><trkpt lat="43.1063892" lon="11.2150582"><ele>480.0</ele><time>2026-04-26T13:18:48.609Z</time></trkpt><trkpt lat="43.1062995" lon="11.2150651"><ele>480.0</ele><time>2026-04-26T13:18:49.609Z</time></trkpt><trkpt lat="43.1062288" lon="11.2151027"><ele>481.6666666666667</ele><time>2026-04-26T13:18:50.609Z</time></trkpt><trkpt lat="43.1061541" lon="11.2151575"><ele>483.33333333333337</ele><time>2026-04-26T13:18:51.609Z</time></trkpt><trkpt lat="43.1060948" lon="11.2152196"><ele>485.0</ele><time>2026-04-26T13:18:52.609Z</time></trkpt><trkpt lat="43.1060441" lon="11.2152881"><ele>486.6666666666667</ele><time>2026-04-26T13:18:54.609Z</time></trkpt><trkpt lat="43.1059901" lon="11.2151832"><ele>488.33333333333337</ele><time>2026-04-26T13:19:00.609Z</time></trkpt><trkpt lat="43.1059878" lon="11.2150905"><ele>490.0</ele><time>2026-04-26T13:19:01.609Z</time></trkpt><trkpt lat="43.1059881" lon="11.2149932"><ele>490.0</ele><time>2026-04-26T13:19:02.609Z</time></trkpt><trkpt lat="43.1060049" lon="11.2148897"><ele>490.0</ele><time>2026-04-26T13:19:03.61Z</time></trkpt><trkpt lat="43.1060382" lon="11.214774"><ele>490.0</ele><time>2026-04-26T13:19:04.609Z</time></trkpt><trkpt lat="43.1060784" lon="11.2146435"><ele>490.0</ele><time>2026-04-26T13:19:05.609Z</time></trkpt><trkpt lat="43.1061109" lon="11.2144979"><ele>490.0</ele><time>2026-04-26T13:19:06.609Z</time></trkpt><trkpt lat="43.1061374" lon="11.2143544"><ele>491.0</ele><time>2026-04-26T13:19:07.609Z</time></trkpt><trkpt lat="43.1061582" lon="11.214219"><ele>492.0</ele><time>2026-04-26T13:19:08.609Z</time></trkpt><trkpt lat="43.1061724" lon="11.214073"><ele>493.0</ele><time>2026-04-26T13:19:09.609Z</time></trkpt><trkpt lat="43.1061663" lon="11.2139247"><ele>494.0</ele><time>2026-04-26T13:19:10.61Z</time></trkpt><trkpt lat="43.1061287" lon="11.2138094"><ele>495.0</ele><time>2026-04-26T13:19:11.61Z</time></trkpt><trkpt lat="43.106088" lon="11.2137032"><ele>495.0</ele><time>2026-04-26T13:19:12.61Z</time></trkpt><trkpt lat="43.1060371" lon="11.213601"><ele>495.0</ele><time>2026-04-26T13:19:13.609Z</time></trkpt><trkpt lat="43.1059851" lon="11.2134785"><ele>495.0</ele><time>2026-04-26T13:19:14.609Z</time></trkpt><trkpt lat="43.105927" lon="11.2133427"><ele>495.0</ele><time>2026-04-26T13:19:15.609Z</time></trkpt><trkpt lat="43.1058724" lon="11.2131941"><ele>495.0</ele><time>2026-04-26T13:19:16.609Z</time></trkpt><trkpt lat="43.1058137" lon="11.2130368"><ele>494.4</ele><time>2026-04-26T13:19:17.609Z</time></trkpt><trkpt lat="43.1057551" lon="11.2128878"><ele>493.8</ele><time>2026-04-26T13:19:18.609Z</time></trkpt><trkpt lat="43.1056976" lon="11.2127512"><ele>493.20000000000005</ele><time>2026-04-26T13:19:19.609Z</time></trkpt><trkpt lat="43.1056494" lon="11.2126249"><ele>492.6</ele><time>2026-04-26T13:19:20.609Z</time></trkpt><trkpt lat="43.1056119" lon="11.2125029"><ele>492.0</ele><time>2026-04-26T13:19:21.609Z</time></trkpt><trkpt lat="43.1055921" lon="11.2123716"><ele>493.0</ele><time>2026-04-26T13:19:22.609Z</time></trkpt><trkpt lat="43.1055728" lon="11.2122544"><ele>494.00000000000006</ele><time>2026-04-26T13:19:23.61Z</time></trkpt><trkpt lat="43.1055317" lon="11.2121407"><ele>495.00000000000006</ele><time>2026-04-26T13:19:24.609Z</time></trkpt><trkpt lat="43.1054677" lon="11.2120069"><ele>496.0</ele><time>2026-04-26T13:19:25.609Z</time></trkpt><trkpt lat="43.1053979" lon="11.2118759"><ele>497.0</ele><time>2026-04-26T13:19:26.609Z</time></trkpt><trkpt lat="43.1053254" lon="11.2117505"><ele>497.0</ele><time>2026-04-26T13:19:27.609Z</time></trkpt><trkpt lat="43.105254" lon="11.2116332"><ele>497.00000000000006</ele><time>2026-04-26T13:19:28.61Z</time></trkpt><trkpt lat="43.1051941" lon="11.2115073"><ele>497.00000000000006</ele><time>2026-04-26T13:19:29.609Z</time></trkpt><trkpt lat="43.1051431" lon="11.2113862"><ele>497.0</ele><time>2026-04-26T13:19:30.609Z</time></trkpt><trkpt lat="43.1050855" lon="11.2112883"><ele>497.0</ele><time>2026-04-26T13:19:31.61Z</time></trkpt><trkpt lat="43.1050221" lon="11.2112061"><ele>497.0</ele><time>2026-04-26T13:19:32.609Z</time></trkpt><trkpt lat="43.104955" lon="11.2111297"><ele>497.00000000000006</ele><time>2026-04-26T13:19:33.609Z</time></trkpt><trkpt lat="43.1048988" lon="11.2110453"><ele>497.00000000000006</ele><time>2026-04-26T13:19:34.609Z</time></trkpt><trkpt lat="43.1048565" lon="11.2109341"><ele>497.0</ele><time>2026-04-26T13:19:35.609Z</time></trkpt><trkpt lat="43.1048227" lon="11.2108087"><ele>497.0</ele><time>2026-04-26T13:19:36.609Z</time></trkpt><trkpt lat="43.1047868" lon="11.2106753"><ele>496.6</ele><time>2026-04-26T13:19:37.609Z</time></trkpt><trkpt lat="43.104751" lon="11.2105467"><ele>496.20000000000005</ele><time>2026-04-26T13:19:38.609Z</time></trkpt><trkpt lat="43.1047159" lon="11.2104119"><ele>495.8</ele><time>2026-04-26T13:19:39.609Z</time></trkpt><trkpt lat="43.1046786" lon="11.2102861"><ele>495.4</ele><time>2026-04-26T13:19:40.609Z</time></trkpt><trkpt lat="43.1046454" lon="11.2101674"><ele>495.0</ele><time>2026-04-26T13:19:41.609Z</time></trkpt><trkpt lat="43.1046147" lon="11.2100422"><ele>495.0</ele><time>2026-04-26T13:19:42.61Z</time></trkpt><trkpt lat="43.1045954" lon="11.2099229"><ele>495.0</ele><time>2026-04-26T13:19:43.61Z</time></trkpt><trkpt lat="43.1045639" lon="11.2097971"><ele>495.0</ele><time>2026-04-26T13:19:44.61Z</time></trkpt><trkpt lat="43.1045184" lon="11.2096676"><ele>495.0</ele><time>2026-04-26T13:19:45.61Z</time></trkpt><trkpt lat="43.1044648" lon="11.2095456"><ele>495.0</ele><time>2026-04-26T13:19:46.609Z</time></trkpt><trkpt lat="43.1044177" lon="11.209431"><ele>495.6</ele><time>2026-04-26T13:19:47.61Z</time></trkpt><trkpt lat="43.1043845" lon="11.2093163"><ele>496.2</ele><time>2026-04-26T13:19:48.609Z</time></trkpt><trkpt lat="43.104377" lon="11.2092046"><ele>496.79999999999995</ele><time>2026-04-26T13:19:49.609Z</time></trkpt><trkpt lat="43.1043833" lon="11.2090811"><ele>497.4</ele><time>2026-04-26T13:19:50.61Z</time></trkpt><trkpt lat="43.1043942" lon="11.2089454"><ele>498.0</ele><time>2026-04-26T13:19:51.609Z</time></trkpt><trkpt lat="43.1044091" lon="11.2087976"><ele>499.25</ele><time>2026-04-26T13:19:52.609Z</time></trkpt><trkpt lat="43.1044375" lon="11.2086374"><ele>500.5</ele><time>2026-04-26T13:19:53.609Z</time></trkpt><trkpt lat="43.1044635" lon="11.2084712"><ele>501.75</ele><time>2026-04-26T13:19:54.609Z</time></trkpt><trkpt lat="43.1044922" lon="11.2082986"><ele>503.0</ele><time>2026-04-26T13:19:55.609Z</time></trkpt><trkpt lat="43.1045213" lon="11.2081005"><ele>503.79999999999995</ele><time>2026-04-26T13:19:56.609Z</time></trkpt><trkpt lat="43.1045497" lon="11.2079063"><ele>504.59999999999997</ele><time>2026-04-26T13:19:57.609Z</time></trkpt><trkpt lat="43.1045701" lon="11.2077418"><ele>505.40000000000003</ele><time>2026-04-26T13:19:58.609Z</time></trkpt><trkpt lat="43.104576" lon="11.2076125"><ele>506.20000000000005</ele><time>2026-04-26T13:19:59.609Z</time></trkpt><trkpt lat="43.1045701" lon="11.2074958"><ele>507.0</ele><time>2026-04-26T13:20:00.609Z</time></trkpt><trkpt lat="43.1045537" lon="11.2073939"><ele>508.5</ele><time>2026-04-26T13:20:01.609Z</time></trkpt><trkpt lat="43.1045295" lon="11.2073136"><ele>510.0</ele><time>2026-04-26T13:20:02.609Z</time></trkpt><trkpt lat="43.1045005" lon="11.2072241"><ele>511.5</ele><time>2026-04-26T13:20:03.609Z</time></trkpt><trkpt lat="43.104475" lon="11.2071206"><ele>513.0</ele><time>2026-04-26T13:20:04.609Z</time></trkpt><trkpt lat="43.104455" lon="11.2070156"><ele>514.5</ele><time>2026-04-26T13:20:05.609Z</time></trkpt><trkpt lat="43.1044365" lon="11.2069163"><ele>516.0</ele><time>2026-04-26T13:20:06.609Z</time></trkpt><trkpt lat="43.1044125" lon="11.2067996"><ele>516.0</ele><time>2026-04-26T13:20:07.609Z</time></trkpt><trkpt lat="43.1043776" lon="11.2066698"><ele>516.0</ele><time>2026-04-26T13:20:08.609Z</time></trkpt><trkpt lat="43.1043366" lon="11.2065465"><ele>516.0</ele><time>2026-04-26T13:20:09.61Z</time></trkpt><trkpt lat="43.1042845" lon="11.2064489"><ele>516.0</ele><time>2026-04-26T13:20:10.61Z</time></trkpt><trkpt lat="43.1042206" lon="11.2063893"><ele>516.0</ele><time>2026-04-26T13:20:11.609Z</time></trkpt><trkpt lat="43.1041627" lon="11.2063422"><ele>516.0</ele><time>2026-04-26T13:20:12.609Z</time></trkpt><trkpt lat="43.1040559" lon="11.2062486"><ele>520.5</ele><time>2026-04-26T13:20:14.609Z</time></trkpt><trkpt lat="43.1039902" lon="11.2061882"><ele>525.0</ele><time>2026-04-26T13:20:15.609Z</time></trkpt><trkpt lat="43.1039053" lon="11.2060989"><ele>529.5</ele><time>2026-04-26T13:20:16.609Z</time></trkpt><trkpt lat="43.1038058" lon="11.2059829"><ele>534.0</ele><time>2026-04-26T13:20:17.609Z</time></trkpt><trkpt lat="43.1036898" lon="11.205859"><ele>534.0</ele><time>2026-04-26T13:20:18.61Z</time></trkpt><trkpt lat="43.103568" lon="11.2057318"><ele>534.0</ele><time>2026-04-26T13:20:19.609Z</time></trkpt><trkpt lat="43.1034634" lon="11.2056268"><ele>534.0</ele><time>2026-04-26T13:20:20.609Z</time></trkpt><trkpt lat="43.1033797" lon="11.2055308"><ele>534.0</ele><time>2026-04-26T13:20:21.609Z</time></trkpt><trkpt lat="43.1033122" lon="11.2054429"><ele>533.8</ele><time>2026-04-26T13:20:22.609Z</time></trkpt><trkpt lat="43.1032505" lon="11.2053633"><ele>533.5999999999999</ele><time>2026-04-26T13:20:23.609Z</time></trkpt><trkpt lat="43.1031702" lon="11.2052754"><ele>533.4</ele><time>2026-04-26T13:20:24.609Z</time></trkpt><trkpt lat="43.1030784" lon="11.2051883"><ele>533.1999999999999</ele><time>2026-04-26T13:20:25.609Z</time></trkpt><trkpt lat="43.1029761" lon="11.2051054"><ele>533.0</ele><time>2026-04-26T13:20:26.609Z</time></trkpt><trkpt lat="43.1028585" lon="11.2050335"><ele>532.5</ele><time>2026-04-26T13:20:27.609Z</time></trkpt><trkpt lat="43.1027406" lon="11.2049635"><ele>532.0</ele><time>2026-04-26T13:20:28.609Z</time></trkpt><trkpt lat="43.1026206" lon="11.2048921"><ele>531.5</ele><time>2026-04-26T13:20:29.609Z</time></trkpt><trkpt lat="43.102497" lon="11.2048158"><ele>531.0</ele><time>2026-04-26T13:20:30.609Z</time></trkpt><trkpt lat="43.1023852" lon="11.2047478"><ele>532.75</ele><time>2026-04-26T13:20:31.609Z</time></trkpt><trkpt lat="43.1022703" lon="11.2046787"><ele>534.5</ele><time>2026-04-26T13:20:32.61Z</time></trkpt><trkpt lat="43.1021523" lon="11.2046142"><ele>536.25</ele><time>2026-04-26T13:20:33.609Z</time></trkpt><trkpt lat="43.102039" lon="11.2045565"><ele>538.0</ele><time>2026-04-26T13:20:34.609Z</time></trkpt><trkpt lat="43.1019261" lon="11.204497"><ele>538.0</ele><time>2026-04-26T13:20:35.61Z</time></trkpt><trkpt lat="43.1018141" lon="11.2044278"><ele>538.0</ele><time>2026-04-26T13:20:36.61Z</time></trkpt><trkpt lat="43.1016979" lon="11.2043391"><ele>538.0</ele><time>2026-04-26T13:20:37.609Z</time></trkpt><trkpt lat="43.1015754" lon="11.2042346"><ele>538.0</ele><time>2026-04-26T13:20:38.61Z</time></trkpt><trkpt lat="43.1014605" lon="11.2041315"><ele>538.75</ele><time>2026-04-26T13:20:39.609Z</time></trkpt><trkpt lat="43.1013526" lon="11.204035"><ele>539.5</ele><time>2026-04-26T13:20:40.609Z</time></trkpt><trkpt lat="43.1012476" lon="11.2039376"><ele>540.25</ele><time>2026-04-26T13:20:41.609Z</time></trkpt><trkpt lat="43.1011456" lon="11.203829"><ele>541.0</ele><time>2026-04-26T13:20:42.609Z</time></trkpt><trkpt lat="43.1010394" lon="11.2037163"><ele>541.75</ele><time>2026-04-26T13:20:43.609Z</time></trkpt><trkpt lat="43.100937" lon="11.2036013"><ele>542.5</ele><time>2026-04-26T13:20:44.609Z</time></trkpt><trkpt lat="43.1008371" lon="11.203497"><ele>543.25</ele><time>2026-04-26T13:20:45.609Z</time></trkpt><trkpt lat="43.1007382" lon="11.2033835"><ele>544.0</ele><time>2026-04-26T13:20:46.609Z</time></trkpt><trkpt lat="43.1006496" lon="11.2032869"><ele>537.0</ele><time>2026-04-26T13:20:47.61Z</time></trkpt><trkpt lat="43.100575" lon="11.2032032"><ele>537.0</ele><time>2026-04-26T13:20:48.609Z</time></trkpt><trkpt lat="43.1005077" lon="11.2031385"><ele>546.0</ele><time>2026-04-26T13:20:49.61Z</time></trkpt><trkpt lat="43.1004208" lon="11.203068"><ele>546.0</ele><time>2026-04-26T13:20:51.61Z</time></trkpt></trkseg><trkseg><trkpt lat="43.1002952" lon="11.2029989"><ele>546.0</ele><time>2026-04-26T14:07:54.689Z</time></trkpt><trkpt lat="43.1002356" lon="11.2029638"><ele>546.0</ele><time>2026-04-26T14:07:56.704Z</time></trkpt><trkpt lat="43.1001713" lon="11.2029389"><ele>546.0</ele><time>2026-04-26T14:07:58.719Z</time></trkpt><trkpt lat="43.1001086" lon="11.2029032"><ele>546.0</ele><time>2026-04-26T14:08:01.016Z</time></trkpt><trkpt lat="43.100036" lon="11.2028593"><ele>546.0</ele><time>2026-04-26T14:08:03.281Z</time></trkpt><trkpt lat="43.0999395" lon="11.2028314"><ele>546.0</ele><time>2026-04-26T14:08:05.602Z</time></trkpt><trkpt lat="43.0998505" lon="11.2028061"><ele>543.6666666666666</ele><time>2026-04-26T14:08:07.602Z</time></trkpt><trkpt lat="43.0997624" lon="11.2027652"><ele>541.3333333333334</ele><time>2026-04-26T14:08:09.602Z</time></trkpt><trkpt lat="43.0996894" lon="11.2027248"><ele>539.0</ele><time>2026-04-26T14:08:11.602Z</time></trkpt><trkpt lat="43.0996185" lon="11.2026946"><ele>536.6666666666667</ele><time>2026-04-26T14:08:13.603Z</time></trkpt><trkpt lat="43.0995442" lon="11.2026696"><ele>534.3333333333334</ele><time>2026-04-26T14:08:15.602Z</time></trkpt><trkpt lat="43.0994694" lon="11.2026481"><ele>532.0</ele><time>2026-04-26T14:08:17.602Z</time></trkpt><trkpt lat="43.0993796" lon="11.2026207"><ele>532.0</ele><time>2026-04-26T14:08:19.602Z</time></trkpt><trkpt lat="43.099274" lon="11.2026177"><ele>532.0</ele><time>2026-04-26T14:08:21.602Z</time></trkpt><trkpt lat="43.0992105" lon="11.202614"><ele>532.0</ele><time>2026-04-26T14:08:22.602Z</time></trkpt><trkpt lat="43.0991428" lon="11.2026135"><ele>532.0</ele><time>2026-04-26T14:08:23.602Z</time></trkpt><trkpt lat="43.0990788" lon="11.2026148"><ele>532.0</ele><time>2026-04-26T14:08:24.602Z</time></trkpt><trkpt lat="43.0989616" lon="11.2026113"><ele>532.0</ele><time>2026-04-26T14:08:26.602Z</time></trkpt><trkpt lat="43.0988611" lon="11.2026236"><ele>529.0</ele><time>2026-04-26T14:08:28.602Z</time></trkpt><trkpt lat="43.0987554" lon="11.2026339"><ele>526.0</ele><time>2026-04-26T14:08:30.603Z</time></trkpt><trkpt lat="43.0986576" lon="11.2026489"><ele>523.0</ele><time>2026-04-26T14:08:32.602Z</time></trkpt><trkpt lat="43.0985536" lon="11.2026501"><ele>520.0</ele><time>2026-04-26T14:08:34.602Z</time></trkpt><trkpt lat="43.0984669" lon="11.2026505"><ele>517.0</ele><time>2026-04-26T14:08:36.602Z</time></trkpt><trkpt lat="43.0984029" lon="11.2026466"><ele>517.0</ele><time>2026-04-26T14:08:38.602Z</time></trkpt><trkpt lat="43.0983398" lon="11.2026369"><ele>517.0</ele><time>2026-04-26T14:10:07.602Z</time></trkpt><trkpt lat="43.0982603" lon="11.2026225"><ele>517.0</ele><time>2026-04-26T14:10:11.602Z</time></trkpt><trkpt lat="43.0981929" lon="11.2026201"><ele>517.0</ele><time>2026-04-26T14:10:13.602Z</time></trkpt><trkpt lat="43.0981128" lon="11.2026163"><ele>517.0</ele><time>2026-04-26T14:10:16.602Z</time></trkpt><trkpt lat="43.0980401" lon="11.2026191"><ele>517.0</ele><time>2026-04-26T14:10:20.602Z</time></trkpt><trkpt lat="43.0979763" lon="11.2026132"><ele>517.0</ele><time>2026-04-26T14:10:22.602Z</time></trkpt><trkpt lat="43.0978982" lon="11.2026096"><ele>513.5</ele><time>2026-04-26T14:10:25.602Z</time></trkpt><trkpt lat="43.0978227" lon="11.2025816"><ele>510.0</ele><time>2026-04-26T14:10:28.602Z</time></trkpt><trkpt lat="43.0977399" lon="11.2025258"><ele>506.5</ele><time>2026-04-26T14:10:31.602Z</time></trkpt><trkpt lat="43.0976488" lon="11.202496"><ele>503.0</ele><time>2026-04-26T14:10:34.603Z</time></trkpt><trkpt lat="43.097564" lon="11.2024807"><ele>499.50000000000006</ele><time>2026-04-26T14:10:37.603Z</time></trkpt><trkpt lat="43.0974713" lon="11.2024804"><ele>496.0</ele><time>2026-04-26T14:10:40.602Z</time></trkpt><trkpt lat="43.0973839" lon="11.2024912"><ele>491.33333333333337</ele><time>2026-04-26T14:10:42.602Z</time></trkpt><trkpt lat="43.0973125" lon="11.2025123"><ele>486.6666666666667</ele><time>2026-04-26T14:10:44.603Z</time></trkpt><trkpt lat="43.0972466" lon="11.2025482"><ele>482.0</ele><time>2026-04-26T14:10:46.602Z</time></trkpt><trkpt lat="43.0971602" lon="11.2025643"><ele>477.33333333333337</ele><time>2026-04-26T14:10:49.602Z</time></trkpt><trkpt lat="43.0970696" lon="11.2025636"><ele>472.6666666666667</ele><time>2026-04-26T14:10:52.602Z</time></trkpt><trkpt lat="43.0969853" lon="11.2025488"><ele>468.0</ele><time>2026-04-26T14:10:54.602Z</time></trkpt><trkpt lat="43.0968974" lon="11.2025677"><ele>468.0</ele><time>2026-04-26T14:10:56.602Z</time></trkpt><trkpt lat="43.0968224" lon="11.2026101"><ele>468.00000000000006</ele><time>2026-04-26T14:10:59.602Z</time></trkpt><trkpt lat="43.0967636" lon="11.2026473"><ele>468.0</ele><time>2026-04-26T14:11:02.602Z</time></trkpt><trkpt lat="43.0966811" lon="11.2026784"><ele>468.0</ele><time>2026-04-26T14:11:05.602Z</time></trkpt><trkpt lat="43.0966048" lon="11.2027035"><ele>468.00000000000006</ele><time>2026-04-26T14:11:08.602Z</time></trkpt><trkpt lat="43.0965464" lon="11.2027373"><ele>468.0</ele><time>2026-04-26T14:11:11.602Z</time></trkpt><trkpt lat="43.0964831" lon="11.2027659"><ele>468.0</ele><time>2026-04-26T14:11:14.602Z</time></trkpt><trkpt lat="43.0964101" lon="11.2028028"><ele>462.3333333333333</ele><time>2026-04-26T14:11:20.602Z</time></trkpt><trkpt lat="43.0963383" lon="11.2028266"><ele>456.66666666666663</ele><time>2026-04-26T14:11:26.602Z</time></trkpt><trkpt lat="43.0962511" lon="11.202829"><ele>451.0</ele><time>2026-04-26T14:11:29.602Z</time></trkpt><trkpt lat="43.0961807" lon="11.2028389"><ele>445.3333333333333</ele><time>2026-04-26T14:11:31.602Z</time></trkpt><trkpt lat="43.0961176" lon="11.2028536"><ele>439.66666666666663</ele><time>2026-04-26T14:11:33.602Z</time></trkpt><trkpt lat="43.0960208" lon="11.2028584"><ele>434.0</ele><time>2026-04-26T14:11:35.603Z</time></trkpt><trkpt lat="43.0959386" lon="11.2028649"><ele>433.99999999999994</ele><time>2026-04-26T14:11:37.602Z</time></trkpt><trkpt lat="43.0958703" lon="11.2028623"><ele>434.0</ele><time>2026-04-26T14:11:39.602Z</time></trkpt><trkpt lat="43.0957945" lon="11.2028474"><ele>434.0</ele><time>2026-04-26T14:11:41.602Z</time></trkpt><trkpt lat="43.0956977" lon="11.2028464"><ele>434.0</ele><time>2026-04-26T14:11:43.602Z</time></trkpt><trkpt lat="43.095613" lon="11.20283"><ele>433.99999999999994</ele><time>2026-04-26T14:11:45.602Z</time></trkpt><trkpt lat="43.095591" lon="11.2027362"><ele>434.0</ele><time>2026-04-26T14:11:49.602Z</time></trkpt><trkpt lat="43.0956469" lon="11.2026491"><ele>434.0</ele><time>2026-04-26T14:11:52.603Z</time></trkpt><trkpt lat="43.0957109" lon="11.2025744"><ele>434.0</ele><time>2026-04-26T14:11:54.602Z</time></trkpt><trkpt lat="43.0957603" lon="11.2025087"><ele>434.0</ele><time>2026-04-26T14:11:56.602Z</time></trkpt><trkpt lat="43.0958028" lon="11.2024199"><ele>434.0</ele><time>2026-04-26T14:11:58.603Z</time></trkpt><trkpt lat="43.09584" lon="11.2023419"><ele>434.0</ele><time>2026-04-26T14:12:00.603Z</time></trkpt><trkpt lat="43.0958486" lon="11.2022421"><ele>434.0</ele><time>2026-04-26T14:12:02.602Z</time></trkpt><trkpt lat="43.0958561" lon="11.2021508"><ele>434.0</ele><time>2026-04-26T14:12:04.603Z</time></trkpt><trkpt lat="43.0958577" lon="11.2020532"><ele>431.8333333333333</ele><time>2026-04-26T14:12:06.602Z</time></trkpt><trkpt lat="43.0958711" lon="11.2019508"><ele>429.66666666666663</ele><time>2026-04-26T14:12:09.603Z</time></trkpt><trkpt lat="43.0958754" lon="11.2018528"><ele>427.5</ele><time>2026-04-26T14:12:11.602Z</time></trkpt><trkpt lat="43.0959116" lon="11.2017268"><ele>425.33333333333337</ele><time>2026-04-26T14:12:13.602Z</time></trkpt><trkpt lat="43.095937" lon="11.2015987"><ele>423.1666666666667</ele><time>2026-04-26T14:12:15.602Z</time></trkpt><trkpt lat="43.0959432" lon="11.2014661"><ele>421.0</ele><time>2026-04-26T14:12:17.602Z</time></trkpt><trkpt lat="43.0959643" lon="11.2013037"><ele>419.5</ele><time>2026-04-26T14:12:19.602Z</time></trkpt><trkpt lat="43.0960053" lon="11.2011564"><ele>418.0</ele><time>2026-04-26T14:12:21.602Z</time></trkpt><trkpt lat="43.0960514" lon="11.2010061"><ele>416.5</ele><time>2026-04-26T14:12:23.602Z</time></trkpt><trkpt lat="43.0960686" lon="11.2008585"><ele>415.0</ele><time>2026-04-26T14:12:25.602Z</time></trkpt><trkpt lat="43.0961224" lon="11.2007217"><ele>414.83333333333337</ele><time>2026-04-26T14:12:27.602Z</time></trkpt><trkpt lat="43.0961752" lon="11.200605"><ele>414.6666666666667</ele><time>2026-04-26T14:12:29.602Z</time></trkpt><trkpt lat="43.0961995" lon="11.2004754"><ele>414.5</ele><time>2026-04-26T14:12:31.602Z</time></trkpt><trkpt lat="43.096211" lon="11.2003667"><ele>414.33333333333337</ele><time>2026-04-26T14:12:33.602Z</time></trkpt><trkpt lat="43.0962299" lon="11.20026"><ele>414.1666666666667</ele><time>2026-04-26T14:12:35.602Z</time></trkpt><trkpt lat="43.0962431" lon="11.2001475"><ele>414.0</ele><time>2026-04-26T14:12:37.602Z</time></trkpt><trkpt lat="43.0962624" lon="11.2000102"><ele>414.0</ele><time>2026-04-26T14:12:39.602Z</time></trkpt><trkpt lat="43.0962972" lon="11.1998498"><ele>414.0</ele><time>2026-04-26T14:12:41.602Z</time></trkpt><trkpt lat="43.096339" lon="11.1997099"><ele>414.0</ele><time>2026-04-26T14:12:43.602Z</time></trkpt><trkpt lat="43.096362" lon="11.1995621"><ele>414.0</ele><time>2026-04-26T14:12:45.602Z</time></trkpt><trkpt lat="43.0963746" lon="11.1994418"><ele>414.0</ele><time>2026-04-26T14:12:47.602Z</time></trkpt><trkpt lat="43.0963698" lon="11.1995285"><ele>414.0</ele><time>2026-04-26T14:16:27.601Z</time></trkpt><trkpt lat="43.0963271" lon="11.1996319"><ele>414.0</ele><time>2026-04-26T14:16:30.601Z</time></trkpt><trkpt lat="43.0962956" lon="11.1997431"><ele>414.0</ele><time>2026-04-26T14:16:33.601Z</time></trkpt><trkpt lat="43.0962704" lon="11.1998403"><ele>414.0</ele><time>2026-04-26T14:16:35.601Z</time></trkpt><trkpt lat="43.096242" lon="11.1999439"><ele>414.0</ele><time>2026-04-26T14:16:37.601Z</time></trkpt><trkpt lat="43.0962181" lon="11.2000774"><ele>414.0</ele><time>2026-04-26T14:16:39.601Z</time></trkpt><trkpt lat="43.0962095" lon="11.2002292"><ele>414.0</ele><time>2026-04-26T14:16:41.601Z</time></trkpt><trkpt lat="43.0961971" lon="11.2003644"><ele>414.0</ele><time>2026-04-26T14:16:43.601Z</time></trkpt><trkpt lat="43.0961784" lon="11.2004647"><ele>414.0</ele><time>2026-04-26T14:16:45.601Z</time></trkpt><trkpt lat="43.0961674" lon="11.2005531"><ele>414.0</ele><time>2026-04-26T14:16:47.601Z</time></trkpt><trkpt lat="43.0961454" lon="11.2006463"><ele>414.0</ele><time>2026-04-26T14:16:50.602Z</time></trkpt><trkpt lat="43.0961153" lon="11.2007417"><ele>414.0</ele><time>2026-04-26T14:17:51.601Z</time></trkpt><trkpt lat="43.09608" lon="11.2008289"><ele>414.1666666666667</ele><time>2026-04-26T14:17:53.601Z</time></trkpt><trkpt lat="43.0960578" lon="11.2009369"><ele>414.33333333333337</ele><time>2026-04-26T14:17:55.601Z</time></trkpt><trkpt lat="43.0960475" lon="11.2010702"><ele>414.5</ele><time>2026-04-26T14:17:57.601Z</time></trkpt><trkpt lat="43.0960148" lon="11.2011843"><ele>414.6666666666667</ele><time>2026-04-26T14:17:59.601Z</time></trkpt><trkpt lat="43.0959916" lon="11.2012911"><ele>414.83333333333337</ele><time>2026-04-26T14:18:01.601Z</time></trkpt><trkpt lat="43.0959662" lon="11.2014135"><ele>415.0</ele><time>2026-04-26T14:18:03.601Z</time></trkpt><trkpt lat="43.095946" lon="11.2015295"><ele>416.00000000000006</ele><time>2026-04-26T14:18:05.602Z</time></trkpt><trkpt lat="43.0959407" lon="11.2016702"><ele>417.0</ele><time>2026-04-26T14:18:07.601Z</time></trkpt><trkpt lat="43.0959161" lon="11.2017899"><ele>418.0</ele><time>2026-04-26T14:18:09.601Z</time></trkpt><trkpt lat="43.0958979" lon="11.2019004"><ele>419.0</ele><time>2026-04-26T14:18:12.601Z</time></trkpt><trkpt lat="43.0958696" lon="11.2020077"><ele>420.00000000000006</ele><time>2026-04-26T14:18:19.601Z</time></trkpt><trkpt lat="43.0958541" lon="11.2021201"><ele>421.0</ele><time>2026-04-26T14:18:22.601Z</time></trkpt><trkpt lat="43.0958375" lon="11.20223"><ele>419.50000000000006</ele><time>2026-04-26T14:18:24.601Z</time></trkpt><trkpt lat="43.0958212" lon="11.2023419"><ele>418.0</ele><time>2026-04-26T14:18:26.601Z</time></trkpt><trkpt lat="43.0958023" lon="11.2024314"><ele>416.5</ele><time>2026-04-26T14:18:28.602Z</time></trkpt><trkpt lat="43.0957606" lon="11.2025309"><ele>415.0</ele><time>2026-04-26T14:18:30.601Z</time></trkpt><trkpt lat="43.0957164" lon="11.2025939"><ele>413.50000000000006</ele><time>2026-04-26T14:18:32.601Z</time></trkpt><trkpt lat="43.0956639" lon="11.2026712"><ele>412.0</ele><time>2026-04-26T14:18:34.601Z</time></trkpt><trkpt lat="43.0956186" lon="11.2027545"><ele>412.00000000000006</ele><time>2026-04-26T14:18:36.601Z</time></trkpt><trkpt lat="43.095575" lon="11.2028313"><ele>412.0</ele><time>2026-04-26T14:18:39.601Z</time></trkpt><trkpt lat="43.0956318" lon="11.2029007"><ele>412.0</ele><time>2026-04-26T14:19:07.601Z</time></trkpt><trkpt lat="43.0956969" lon="11.2029827"><ele>412.0</ele><time>2026-04-26T14:19:09.601Z</time></trkpt><trkpt lat="43.0957814" lon="11.2030525"><ele>412.00000000000006</ele><time>2026-04-26T14:19:11.601Z</time></trkpt><trkpt lat="43.0958635" lon="11.2031127"><ele>412.0</ele><time>2026-04-26T14:19:13.602Z</time></trkpt><trkpt lat="43.0959447" lon="11.2031565"><ele>415.6</ele><time>2026-04-26T14:19:15.601Z</time></trkpt><trkpt lat="43.0960399" lon="11.2032078"><ele>419.20000000000005</ele><time>2026-04-26T14:19:17.601Z</time></trkpt><trkpt lat="43.0961462" lon="11.2032722"><ele>422.8</ele><time>2026-04-26T14:19:19.601Z</time></trkpt><trkpt lat="43.0962503" lon="11.2032851"><ele>426.4</ele><time>2026-04-26T14:19:21.601Z</time></trkpt><trkpt lat="43.0963135" lon="11.2032658"><ele>430.0</ele><time>2026-04-26T14:19:22.602Z</time></trkpt><trkpt lat="43.0964116" lon="11.2032483"><ele>430.00000000000006</ele><time>2026-04-26T14:19:24.602Z</time></trkpt><trkpt lat="43.096487" lon="11.2032685"><ele>430.0</ele><time>2026-04-26T14:19:26.601Z</time></trkpt><trkpt lat="43.0965846" lon="11.2032845"><ele>430.0</ele><time>2026-04-26T14:19:28.601Z</time></trkpt><trkpt lat="43.0966707" lon="11.2033167"><ele>430.0</ele><time>2026-04-26T14:19:30.601Z</time></trkpt><trkpt lat="43.0967334" lon="11.2033726"><ele>430.00000000000006</ele><time>2026-04-26T14:19:33.601Z</time></trkpt><trkpt lat="43.0967705" lon="11.2034457"><ele>430.0</ele><time>2026-04-26T14:19:45.6Z</time></trkpt><trkpt lat="43.0968044" lon="11.2035726"><ele>430.1666666666667</ele><time>2026-04-26T14:19:48.6Z</time></trkpt><trkpt lat="43.0968447" lon="11.2036528"><ele>430.33333333333337</ele><time>2026-04-26T14:19:50.6Z</time></trkpt><trkpt lat="43.0968922" lon="11.2037235"><ele>430.5</ele><time>2026-04-26T14:19:52.6Z</time></trkpt><trkpt lat="43.096934" lon="11.2037978"><ele>430.66666666666663</ele><time>2026-04-26T14:19:54.6Z</time></trkpt><trkpt lat="43.0969981" lon="11.2038682"><ele>430.8333333333333</ele><time>2026-04-26T14:19:57.6Z</time></trkpt><trkpt lat="43.0970753" lon="11.2039388"><ele>431.0</ele><time>2026-04-26T14:20:00.6Z</time></trkpt><trkpt lat="43.097119" lon="11.2040095"><ele>430.99999999999994</ele><time>2026-04-26T14:20:02.6Z</time></trkpt><trkpt lat="43.097124" lon="11.2041232"><ele>431.0</ele><time>2026-04-26T14:20:04.6Z</time></trkpt><trkpt lat="43.0971307" lon="11.2042092"><ele>431.0</ele><time>2026-04-26T14:20:07.6Z</time></trkpt><trkpt lat="43.0971665" lon="11.2043046"><ele>431.0</ele><time>2026-04-26T14:20:11.6Z</time></trkpt><trkpt lat="43.0972319" lon="11.204415"><ele>430.99999999999994</ele><time>2026-04-26T14:20:13.6Z</time></trkpt><trkpt lat="43.0971867" lon="11.2045204"><ele>431.0</ele><time>2026-04-26T14:20:16.601Z</time></trkpt><trkpt lat="43.0971343" lon="11.2046138"><ele>430.99999999999994</ele><time>2026-04-26T14:20:18.6Z</time></trkpt><trkpt lat="43.0971108" lon="11.2046952"><ele>431.0</ele><time>2026-04-26T14:20:27.6Z</time></trkpt><trkpt lat="43.0970999" lon="11.2048509"><ele>431.0</ele><time>2026-04-26T14:20:30.6Z</time></trkpt><trkpt lat="43.0971039" lon="11.2049479"><ele>431.0</ele><time>2026-04-26T14:20:31.6Z</time></trkpt><trkpt lat="43.0971097" lon="11.2050691"><ele>430.99999999999994</ele><time>2026-04-26T14:20:32.6Z</time></trkpt><trkpt lat="43.0971167" lon="11.2051849"><ele>431.0</ele><time>2026-04-26T14:20:33.6Z</time></trkpt><trkpt lat="43.0971235" lon="11.2052827"><ele>430.7142857142857</ele><time>2026-04-26T14:20:34.6Z</time></trkpt><trkpt lat="43.097127" lon="11.2053752"><ele>430.4285714285714</ele><time>2026-04-26T14:20:35.6Z</time></trkpt><trkpt lat="43.0971218" lon="11.2054618"><ele>430.1428571428571</ele><time>2026-04-26T14:20:36.6Z</time></trkpt><trkpt lat="43.0971074" lon="11.2055464"><ele>429.8571428571429</ele><time>2026-04-26T14:20:37.6Z</time></trkpt><trkpt lat="43.097106" lon="11.2056386"><ele>429.57142857142856</ele><time>2026-04-26T14:20:38.6Z</time></trkpt><trkpt lat="43.0971108" lon="11.2057306"><ele>429.2857142857143</ele><time>2026-04-26T14:20:39.6Z</time></trkpt><trkpt lat="43.0971064" lon="11.2058234"><ele>429.0</ele><time>2026-04-26T14:20:40.6Z</time></trkpt><trkpt lat="43.0971008" lon="11.2059184"><ele>429.6666666666667</ele><time>2026-04-26T14:20:41.6Z</time></trkpt><trkpt lat="43.0970965" lon="11.2060189"><ele>430.33333333333337</ele><time>2026-04-26T14:20:42.601Z</time></trkpt><trkpt lat="43.0971039" lon="11.2061306"><ele>431.0</ele><time>2026-04-26T14:20:43.6Z</time></trkpt><trkpt lat="43.0971195" lon="11.2062383"><ele>431.6666666666667</ele><time>2026-04-26T14:20:44.6Z</time></trkpt><trkpt lat="43.0971199" lon="11.206347"><ele>432.33333333333337</ele><time>2026-04-26T14:20:45.6Z</time></trkpt><trkpt lat="43.0970971" lon="11.2064438"><ele>433.0</ele><time>2026-04-26T14:20:46.6Z</time></trkpt><trkpt lat="43.0970562" lon="11.2065583"><ele>435.2</ele><time>2026-04-26T14:20:47.601Z</time></trkpt><trkpt lat="43.097008" lon="11.2066861"><ele>437.4</ele><time>2026-04-26T14:20:48.6Z</time></trkpt><trkpt lat="43.0969602" lon="11.2068065"><ele>439.59999999999997</ele><time>2026-04-26T14:20:49.6Z</time></trkpt><trkpt lat="43.0969163" lon="11.2069241"><ele>441.79999999999995</ele><time>2026-04-26T14:20:50.6Z</time></trkpt><trkpt lat="43.0968708" lon="11.207033"><ele>444.0</ele><time>2026-04-26T14:20:51.6Z</time></trkpt><trkpt lat="43.096826" lon="11.2071339"><ele>444.0</ele><time>2026-04-26T14:20:52.6Z</time></trkpt><trkpt lat="43.0967738" lon="11.207225"><ele>444.0</ele><time>2026-04-26T14:20:53.6Z</time></trkpt><trkpt lat="43.0967179" lon="11.2073129"><ele>444.0</ele><time>2026-04-26T14:20:54.6Z</time></trkpt><trkpt lat="43.096661" lon="11.2073939"><ele>444.0</ele><time>2026-04-26T14:20:55.6Z</time></trkpt><trkpt lat="43.0966046" lon="11.2074586"><ele>444.0</ele><time>2026-04-26T14:20:56.6Z</time></trkpt><trkpt lat="43.0965341" lon="11.2075183"><ele>444.0</ele><time>2026-04-26T14:20:58.601Z</time></trkpt><trkpt lat="43.0964399" lon="11.207524"><ele>443.5</ele><time>2026-04-26T14:21:02.6Z</time></trkpt><trkpt lat="43.0963561" lon="11.2075389"><ele>443.0</ele><time>2026-04-26T14:21:04.6Z</time></trkpt><trkpt lat="43.0962814" lon="11.2075493"><ele>442.5</ele><time>2026-04-26T14:21:05.6Z</time></trkpt><trkpt lat="43.0961958" lon="11.2075589"><ele>442.0</ele><time>2026-04-26T14:21:06.6Z</time></trkpt><trkpt lat="43.0961162" lon="11.2075742"><ele>441.5</ele><time>2026-04-26T14:21:07.6Z</time></trkpt><trkpt lat="43.0960287" lon="11.2075894"><ele>441.0</ele><time>2026-04-26T14:21:08.6Z</time></trkpt><trkpt lat="43.0959336" lon="11.2075985"><ele>441.0</ele><time>2026-04-26T14:21:09.6Z</time></trkpt><trkpt lat="43.0958354" lon="11.2076077"><ele>441.0</ele><time>2026-04-26T14:21:10.6Z</time></trkpt><trkpt lat="43.095747" lon="11.2076157"><ele>441.0</ele><time>2026-04-26T14:21:11.6Z</time></trkpt><trkpt lat="43.0956724" lon="11.2076158"><ele>441.0</ele><time>2026-04-26T14:21:12.6Z</time></trkpt><trkpt lat="43.0955906" lon="11.2076136"><ele>441.0</ele><time>2026-04-26T14:21:13.6Z</time></trkpt><trkpt lat="43.0955036" lon="11.2076024"><ele>441.0</ele><time>2026-04-26T14:21:14.6Z</time></trkpt><trkpt lat="43.0954258" lon="11.2075779"><ele>437.7142857142857</ele><time>2026-04-26T14:21:15.601Z</time></trkpt><trkpt lat="43.0953527" lon="11.207565"><ele>434.42857142857144</ele><time>2026-04-26T14:21:16.6Z</time></trkpt><trkpt lat="43.095285" lon="11.2075579"><ele>431.1428571428571</ele><time>2026-04-26T14:21:17.6Z</time></trkpt><trkpt lat="43.0952163" lon="11.2075689"><ele>427.8571428571429</ele><time>2026-04-26T14:21:18.601Z</time></trkpt><trkpt lat="43.0951426" lon="11.2075905"><ele>424.57142857142856</ele><time>2026-04-26T14:21:19.601Z</time></trkpt><trkpt lat="43.0950749" lon="11.2076297"><ele>421.2857142857143</ele><time>2026-04-26T14:21:20.6Z</time></trkpt><trkpt lat="43.0950119" lon="11.2076843"><ele>418.0</ele><time>2026-04-26T14:21:21.6Z</time></trkpt><trkpt lat="43.0949547" lon="11.2077328"><ele>414.0</ele><time>2026-04-26T14:21:22.6Z</time></trkpt><trkpt lat="43.0948971" lon="11.2077781"><ele>410.0</ele><time>2026-04-26T14:21:23.6Z</time></trkpt><trkpt lat="43.0948401" lon="11.2078285"><ele>406.0</ele><time>2026-04-26T14:21:24.6Z</time></trkpt><trkpt lat="43.0947755" lon="11.2078783"><ele>402.0</ele><time>2026-04-26T14:21:25.6Z</time></trkpt><trkpt lat="43.0947022" lon="11.2079255"><ele>398.0</ele><time>2026-04-26T14:21:26.6Z</time></trkpt><trkpt lat="43.0946272" lon="11.207966"><ele>394.0</ele><time>2026-04-26T14:21:27.6Z</time></trkpt><trkpt lat="43.0945594" lon="11.2080015"><ele>390.0</ele><time>2026-04-26T14:21:28.6Z</time></trkpt><trkpt lat="43.0944928" lon="11.2080438"><ele>390.0</ele><time>2026-04-26T14:21:29.6Z</time></trkpt><trkpt lat="43.0944183" lon="11.2081052"><ele>390.0</ele><time>2026-04-26T14:21:30.6Z</time></trkpt><trkpt lat="43.0943291" lon="11.2081679"><ele>390.0</ele><time>2026-04-26T14:21:31.6Z</time></trkpt><trkpt lat="43.0942396" lon="11.2082347"><ele>390.0</ele><time>2026-04-26T14:21:32.6Z</time></trkpt><trkpt lat="43.0941506" lon="11.2083054"><ele>390.0</ele><time>2026-04-26T14:21:33.6Z</time></trkpt><trkpt lat="43.0940728" lon="11.2083583"><ele>389.3333333333333</ele><time>2026-04-26T14:21:34.6Z</time></trkpt><trkpt lat="43.0940092" lon="11.2083959"><ele>388.66666666666663</ele><time>2026-04-26T14:21:35.6Z</time></trkpt><trkpt lat="43.0939239" lon="11.2084175"><ele>388.0</ele><time>2026-04-26T14:21:37.6Z</time></trkpt><trkpt lat="43.0938524" lon="11.208411"><ele>387.3333333333333</ele><time>2026-04-26T14:21:44.6Z</time></trkpt><trkpt lat="43.0937292" lon="11.2084077"><ele>386.66666666666663</ele><time>2026-04-26T14:21:46.6Z</time></trkpt><trkpt lat="43.0936544" lon="11.2083944"><ele>386.0</ele><time>2026-04-26T14:21:47.601Z</time></trkpt><trkpt lat="43.0935667" lon="11.2083873"><ele>385.99999999999994</ele><time>2026-04-26T14:21:48.6Z</time></trkpt><trkpt lat="43.0934917" lon="11.2083704"><ele>386.0</ele><time>2026-04-26T14:21:49.6Z</time></trkpt><trkpt lat="43.0934189" lon="11.2083623"><ele>386.0</ele><time>2026-04-26T14:21:50.6Z</time></trkpt><trkpt lat="43.0933449" lon="11.2083496"><ele>386.0</ele><time>2026-04-26T14:21:51.6Z</time></trkpt><trkpt lat="43.0932873" lon="11.2083124"><ele>385.99999999999994</ele><time>2026-04-26T14:21:52.6Z</time></trkpt><trkpt lat="43.0932121" lon="11.208201"><ele>386.0</ele><time>2026-04-26T14:21:54.6Z</time></trkpt><trkpt lat="43.093178" lon="11.2081239"><ele>383.14285714285717</ele><time>2026-04-26T14:21:55.6Z</time></trkpt><trkpt lat="43.0931513" lon="11.2080347"><ele>380.2857142857143</ele><time>2026-04-26T14:21:56.6Z</time></trkpt><trkpt lat="43.0931328" lon="11.2079365"><ele>377.42857142857144</ele><time>2026-04-26T14:21:57.6Z</time></trkpt><trkpt lat="43.093123" lon="11.2078395"><ele>374.57142857142856</ele><time>2026-04-26T14:21:58.6Z</time></trkpt><trkpt lat="43.0931318" lon="11.2077384"><ele>371.7142857142857</ele><time>2026-04-26T14:21:59.6Z</time></trkpt><trkpt lat="43.0931345" lon="11.2076496"><ele>368.8571428571429</ele><time>2026-04-26T14:22:00.601Z</time></trkpt><trkpt lat="43.0931581" lon="11.2075633"><ele>366.0</ele><time>2026-04-26T14:22:03.6Z</time></trkpt><trkpt lat="43.0932237" lon="11.2075569"><ele>365.6666666666667</ele><time>2026-04-26T14:22:07.6Z</time></trkpt><trkpt lat="43.0933145" lon="11.2074729"><ele>365.3333333333333</ele><time>2026-04-26T14:22:09.6Z</time></trkpt><trkpt lat="43.0933642" lon="11.2074177"><ele>365.0</ele><time>2026-04-26T14:22:10.6Z</time></trkpt><trkpt lat="43.0934109" lon="11.2073591"><ele>364.66666666666663</ele><time>2026-04-26T14:22:11.6Z</time></trkpt><trkpt lat="43.0934622" lon="11.2073058"><ele>364.3333333333333</ele><time>2026-04-26T14:22:12.6Z</time></trkpt><trkpt lat="43.0935589" lon="11.2071898"><ele>364.0</ele><time>2026-04-26T14:22:14.6Z</time></trkpt><trkpt lat="43.0936106" lon="11.2071387"><ele>364.0</ele><time>2026-04-26T14:22:15.6Z</time></trkpt><trkpt lat="43.0937069" lon="11.2070425"><ele>364.0</ele><time>2026-04-26T14:22:17.6Z</time></trkpt><trkpt lat="43.0938081" lon="11.2069481"><ele>364.0</ele><time>2026-04-26T14:22:19.6Z</time></trkpt><trkpt lat="43.0938611" lon="11.2068945"><ele>364.0</ele><time>2026-04-26T14:22:20.6Z</time></trkpt><trkpt lat="43.0939105" lon="11.2068354"><ele>364.0</ele><time>2026-04-26T14:22:21.601Z</time></trkpt><trkpt lat="43.0939647" lon="11.2067765"><ele>364.0</ele><time>2026-04-26T14:22:22.6Z</time></trkpt><trkpt lat="43.0940378" lon="11.2066843"><ele>363.5</ele><time>2026-04-26T14:22:24.6Z</time></trkpt><trkpt lat="43.0941086" lon="11.2065668"><ele>363.0</ele><time>2026-04-26T14:22:26.6Z</time></trkpt><trkpt lat="43.0941591" lon="11.2064878"><ele>362.5</ele><time>2026-04-26T14:22:27.6Z</time></trkpt><trkpt lat="43.0942094" lon="11.2064206"><ele>362.0</ele><time>2026-04-26T14:22:28.601Z</time></trkpt><trkpt lat="43.0942528" lon="11.2063509"><ele>361.5</ele><time>2026-04-26T14:22:29.6Z</time></trkpt><trkpt lat="43.0942982" lon="11.2062814"><ele>361.0</ele><time>2026-04-26T14:22:30.601Z</time></trkpt><trkpt lat="43.0943479" lon="11.2062125"><ele>361.0</ele><time>2026-04-26T14:22:31.6Z</time></trkpt><trkpt lat="43.0943949" lon="11.2061482"><ele>361.0</ele><time>2026-04-26T14:22:32.6Z</time></trkpt><trkpt lat="43.0944536" lon="11.2060021"><ele>361.0</ele><time>2026-04-26T14:22:34.6Z</time></trkpt><trkpt lat="43.0944883" lon="11.2059052"><ele>361.0</ele><time>2026-04-26T14:22:36.6Z</time></trkpt><trkpt lat="43.0945673" lon="11.2058016"><ele>361.0</ele><time>2026-04-26T14:22:38.6Z</time></trkpt><trkpt lat="43.094646" lon="11.2056922"><ele>362.0</ele><time>2026-04-26T14:22:40.6Z</time></trkpt><trkpt lat="43.0946998" lon="11.2055615"><ele>363.0</ele><time>2026-04-26T14:22:42.601Z</time></trkpt><trkpt lat="43.094751" lon="11.2054306"><ele>364.0</ele><time>2026-04-26T14:22:44.6Z</time></trkpt><trkpt lat="43.0947467" lon="11.2053162"><ele>365.0</ele><time>2026-04-26T14:22:47.601Z</time></trkpt><trkpt lat="43.094678" lon="11.2052613"><ele>366.0</ele><time>2026-04-26T14:22:48.6Z</time></trkpt><trkpt lat="43.0945953" lon="11.2052235"><ele>366.0</ele><time>2026-04-26T14:22:49.6Z</time></trkpt><trkpt lat="43.0945119" lon="11.2052067"><ele>366.0</ele><time>2026-04-26T14:22:50.601Z</time></trkpt><trkpt lat="43.0944405" lon="11.205211"><ele>366.0</ele><time>2026-04-26T14:22:51.6Z</time></trkpt><trkpt lat="43.0943369" lon="11.2052143"><ele>366.0</ele><time>2026-04-26T14:22:53.6Z</time></trkpt><trkpt lat="43.0942729" lon="11.2051917"><ele>366.0</ele><time>2026-04-26T14:22:56.6Z</time></trkpt><trkpt lat="43.0941759" lon="11.2050962"><ele>366.0</ele><time>2026-04-26T14:23:12.6Z</time></trkpt><trkpt lat="43.0941162" lon="11.205029"><ele>363.5</ele><time>2026-04-26T14:23:13.6Z</time></trkpt><trkpt lat="43.0940471" lon="11.2049733"><ele>361.0</ele><time>2026-04-26T14:23:14.6Z</time></trkpt><trkpt lat="43.0939672" lon="11.2049448"><ele>358.5</ele><time>2026-04-26T14:23:15.6Z</time></trkpt><trkpt lat="43.0939037" lon="11.2049246"><ele>356.0</ele><time>2026-04-26T14:23:16.6Z</time></trkpt><trkpt lat="43.0937874" lon="11.2048097"><ele>353.5</ele><time>2026-04-26T14:23:18.6Z</time></trkpt><trkpt lat="43.0937444" lon="11.2047299"><ele>351.0</ele><time>2026-04-26T14:23:19.6Z</time></trkpt><trkpt lat="43.0937171" lon="11.2046413"><ele>351.0</ele><time>2026-04-26T14:23:20.6Z</time></trkpt><trkpt lat="43.093695" lon="11.2045419"><ele>351.0</ele><time>2026-04-26T14:23:21.6Z</time></trkpt><trkpt lat="43.0936872" lon="11.20443"><ele>351.0</ele><time>2026-04-26T14:23:22.6Z</time></trkpt><trkpt lat="43.0936749" lon="11.2043153"><ele>351.0</ele><time>2026-04-26T14:23:23.6Z</time></trkpt><trkpt lat="43.093658" lon="11.2042041"><ele>351.0</ele><time>2026-04-26T14:23:24.6Z</time></trkpt><trkpt lat="43.0936446" lon="11.2041099"><ele>351.0</ele><time>2026-04-26T14:23:25.6Z</time></trkpt><trkpt lat="43.0936258" lon="11.2040118"><ele>351.4</ele><time>2026-04-26T14:23:26.6Z</time></trkpt><trkpt lat="43.0935987" lon="11.2039067"><ele>351.8</ele><time>2026-04-26T14:23:27.6Z</time></trkpt><trkpt lat="43.0935788" lon="11.2038072"><ele>352.2</ele><time>2026-04-26T14:23:28.6Z</time></trkpt><trkpt lat="43.0935432" lon="11.2037073"><ele>352.59999999999997</ele><time>2026-04-26T14:23:29.6Z</time></trkpt><trkpt lat="43.0935033" lon="11.2036202"><ele>353.0</ele><time>2026-04-26T14:23:30.601Z</time></trkpt><trkpt lat="43.0934174" lon="11.2034631"><ele>353.0</ele><time>2026-04-26T14:23:32.6Z</time></trkpt><trkpt lat="43.0933645" lon="11.2033661"><ele>353.0</ele><time>2026-04-26T14:23:33.6Z</time></trkpt><trkpt lat="43.0933145" lon="11.2032563"><ele>353.0</ele><time>2026-04-26T14:23:34.601Z</time></trkpt><trkpt lat="43.0932616" lon="11.2031549"><ele>353.0</ele><time>2026-04-26T14:23:35.6Z</time></trkpt><trkpt lat="43.0932016" lon="11.2030823"><ele>353.0</ele><time>2026-04-26T14:23:36.6Z</time></trkpt><trkpt lat="43.0931517" lon="11.2030267"><ele>353.0</ele><time>2026-04-26T14:23:37.6Z</time></trkpt><trkpt lat="43.0930963" lon="11.2029603"><ele>349.0</ele><time>2026-04-26T14:23:39.6Z</time></trkpt><trkpt lat="43.0930285" lon="11.2028844"><ele>345.0</ele><time>2026-04-26T14:23:41.6Z</time></trkpt><trkpt lat="43.0929703" lon="11.2028227"><ele>341.0</ele><time>2026-04-26T14:23:43.6Z</time></trkpt><trkpt lat="43.0929767" lon="11.2027315"><ele>337.0</ele><time>2026-04-26T14:23:57.6Z</time></trkpt><trkpt lat="43.0929722" lon="11.2026101"><ele>333.0</ele><time>2026-04-26T14:23:59.601Z</time></trkpt><trkpt lat="43.0929554" lon="11.2025131"><ele>329.0</ele><time>2026-04-26T14:24:00.6Z</time></trkpt><trkpt lat="43.0929329" lon="11.2024027"><ele>329.83333333333337</ele><time>2026-04-26T14:24:01.6Z</time></trkpt><trkpt lat="43.0929113" lon="11.202291"><ele>330.6666666666667</ele><time>2026-04-26T14:24:02.6Z</time></trkpt><trkpt lat="43.0928931" lon="11.2021696"><ele>331.5</ele><time>2026-04-26T14:24:03.6Z</time></trkpt><trkpt lat="43.0928741" lon="11.202059"><ele>332.3333333333333</ele><time>2026-04-26T14:24:04.6Z</time></trkpt><trkpt lat="43.0928611" lon="11.2019699"><ele>333.16666666666663</ele><time>2026-04-26T14:24:05.6Z</time></trkpt><trkpt lat="43.0928563" lon="11.2018535"><ele>334.0</ele><time>2026-04-26T14:24:07.6Z</time></trkpt><trkpt lat="43.0929465" lon="11.2018399"><ele>334.0</ele><time>2026-04-26T14:24:21.6Z</time></trkpt><trkpt lat="43.093025" lon="11.2018816"><ele>334.0</ele><time>2026-04-26T14:24:23.6Z</time></trkpt><trkpt lat="43.0930895" lon="11.2019444"><ele>334.0</ele><time>2026-04-26T14:24:25.6Z</time></trkpt><trkpt lat="43.0931906" lon="11.2019832"><ele>334.0</ele><time>2026-04-26T14:24:27.6Z</time></trkpt><trkpt lat="43.0933189" lon="11.2019674"><ele>334.0</ele><time>2026-04-26T14:24:29.6Z</time></trkpt><trkpt lat="43.093391" lon="11.2019273"><ele>338.66666666666663</ele><time>2026-04-26T14:24:30.6Z</time></trkpt><trkpt lat="43.0934524" lon="11.2018864"><ele>343.3333333333333</ele><time>2026-04-26T14:24:31.601Z</time></trkpt><trkpt lat="43.0935111" lon="11.2018403"><ele>348.0</ele><time>2026-04-26T14:24:32.6Z</time></trkpt><trkpt lat="43.0936191" lon="11.2017621"><ele>352.6666666666667</ele><time>2026-04-26T14:24:34.6Z</time></trkpt><trkpt lat="43.0936815" lon="11.2017139"><ele>357.33333333333337</ele><time>2026-04-26T14:24:35.6Z</time></trkpt><trkpt lat="43.093746" lon="11.2016734"><ele>362.0</ele><time>2026-04-26T14:24:36.6Z</time></trkpt><trkpt lat="43.0938115" lon="11.201629"><ele>362.0</ele><time>2026-04-26T14:24:37.6Z</time></trkpt><trkpt lat="43.0938766" lon="11.2015954"><ele>362.0</ele><time>2026-04-26T14:24:38.6Z</time></trkpt><trkpt lat="43.0939934" lon="11.2015311"><ele>362.0</ele><time>2026-04-26T14:24:40.6Z</time></trkpt><trkpt lat="43.0940974" lon="11.2014249"><ele>362.0</ele><time>2026-04-26T14:24:42.601Z</time></trkpt><trkpt lat="43.0941982" lon="11.2013464"><ele>362.0</ele><time>2026-04-26T14:24:44.6Z</time></trkpt><trkpt lat="43.0942988" lon="11.2013058"><ele>363.0</ele><time>2026-04-26T14:24:46.6Z</time></trkpt><trkpt lat="43.0943999" lon="11.2012744"><ele>364.0</ele><time>2026-04-26T14:24:48.6Z</time></trkpt><trkpt lat="43.0944935" lon="11.2012361"><ele>365.0</ele><time>2026-04-26T14:24:50.6Z</time></trkpt><trkpt lat="43.0945543" lon="11.2012058"><ele>366.0</ele><time>2026-04-26T14:25:08.6Z</time></trkpt><trkpt lat="43.0946191" lon="11.2011225"><ele>367.0</ele><time>2026-04-26T14:25:12.6Z</time></trkpt><trkpt lat="43.0946504" lon="11.2010272"><ele>368.0</ele><time>2026-04-26T14:25:14.6Z</time></trkpt><trkpt lat="43.0946987" lon="11.2009239"><ele>368.0</ele><time>2026-04-26T14:25:16.6Z</time></trkpt><trkpt lat="43.0947516" lon="11.2008496"><ele>368.0</ele><time>2026-04-26T14:25:18.6Z</time></trkpt><trkpt lat="43.0948099" lon="11.2008016"><ele>368.0</ele><time>2026-04-26T14:25:20.601Z</time></trkpt><trkpt lat="43.0948765" lon="11.2007297"><ele>368.0</ele><time>2026-04-26T14:25:23.6Z</time></trkpt><trkpt lat="43.0949478" lon="11.2006969"><ele>368.0</ele><time>2026-04-26T14:25:26.601Z</time></trkpt><trkpt lat="43.0950121" lon="11.2006718"><ele>368.0</ele><time>2026-04-26T14:25:42.6Z</time></trkpt><trkpt lat="43.0950844" lon="11.2006193"><ele>370.33333333333337</ele><time>2026-04-26T14:25:45.6Z</time></trkpt><trkpt lat="43.0951442" lon="11.2005356"><ele>372.6666666666667</ele><time>2026-04-26T14:25:48.6Z</time></trkpt><trkpt lat="43.0951646" lon="11.2004439"><ele>375.0</ele><time>2026-04-26T14:25:50.6Z</time></trkpt><trkpt lat="43.0951771" lon="11.2003425"><ele>377.3333333333333</ele><time>2026-04-26T14:25:52.6Z</time></trkpt><trkpt lat="43.0952025" lon="11.2002204"><ele>379.66666666666663</ele><time>2026-04-26T14:25:55.6Z</time></trkpt><trkpt lat="43.0952553" lon="11.2001351"><ele>382.0</ele><time>2026-04-26T14:25:58.6Z</time></trkpt><trkpt lat="43.0953311" lon="11.2001035"><ele>382.0</ele><time>2026-04-26T14:26:01.599Z</time></trkpt><trkpt lat="43.0954011" lon="11.2000625"><ele>382.0</ele><time>2026-04-26T14:26:04.599Z</time></trkpt><trkpt lat="43.0954893" lon="11.1999914"><ele>382.0</ele><time>2026-04-26T14:26:06.599Z</time></trkpt><trkpt lat="43.0955543" lon="11.199882"><ele>382.0</ele><time>2026-04-26T14:26:08.599Z</time></trkpt><trkpt lat="43.095594" lon="11.1997873"><ele>382.0</ele><time>2026-04-26T14:26:10.599Z</time></trkpt><trkpt lat="43.0956015" lon="11.1996746"><ele>382.0</ele><time>2026-04-26T14:26:13.599Z</time></trkpt><trkpt lat="43.0955663" lon="11.1995699"><ele>382.0</ele><time>2026-04-26T14:26:15.599Z</time></trkpt><trkpt lat="43.0955115" lon="11.1994016"><ele>382.0</ele><time>2026-04-26T14:26:17.599Z</time></trkpt><trkpt lat="43.0954942" lon="11.1993047"><ele>382.0</ele><time>2026-04-26T14:26:18.599Z</time></trkpt><trkpt lat="43.0954806" lon="11.1991947"><ele>382.0</ele><time>2026-04-26T14:26:19.599Z</time></trkpt><trkpt lat="43.0954587" lon="11.1990902"><ele>382.0</ele><time>2026-04-26T14:26:20.599Z</time></trkpt><trkpt lat="43.0954259" lon="11.1989577"><ele>382.0</ele><time>2026-04-26T14:26:22.599Z</time></trkpt><trkpt lat="43.0954316" lon="11.1988706"><ele>382.0</ele><time>2026-04-26T14:26:40.599Z</time></trkpt><trkpt lat="43.0954762" lon="11.1987904"><ele>382.0</ele><time>2026-04-26T14:27:47.599Z</time></trkpt><trkpt lat="43.0955572" lon="11.1987499"><ele>382.0</ele><time>2026-04-26T14:27:50.599Z</time></trkpt><trkpt lat="43.0956396" lon="11.1987008"><ele>382.0</ele><time>2026-04-26T14:29:08.599Z</time></trkpt><trkpt lat="43.0957324" lon="11.1985808"><ele>382.0</ele><time>2026-04-26T14:29:10.599Z</time></trkpt><trkpt lat="43.0957788" lon="11.1985094"><ele>385.3333333333333</ele><time>2026-04-26T14:29:11.599Z</time></trkpt><trkpt lat="43.0958232" lon="11.1984408"><ele>388.66666666666663</ele><time>2026-04-26T14:29:12.599Z</time></trkpt><trkpt lat="43.0959076" lon="11.1983322"><ele>392.0</ele><time>2026-04-26T14:29:14.599Z</time></trkpt><trkpt lat="43.0959621" lon="11.1982785"><ele>395.3333333333333</ele><time>2026-04-26T14:29:15.6Z</time></trkpt><trkpt lat="43.0960175" lon="11.1982326"><ele>398.6666666666667</ele><time>2026-04-26T14:29:16.599Z</time></trkpt><trkpt lat="43.0960817" lon="11.1981811"><ele>402.0</ele><time>2026-04-26T14:29:17.6Z</time></trkpt><trkpt lat="43.096139" lon="11.1981236"><ele>402.0</ele><time>2026-04-26T14:29:18.599Z</time></trkpt><trkpt lat="43.0961947" lon="11.1980712"><ele>402.0</ele><time>2026-04-26T14:29:19.599Z</time></trkpt><trkpt lat="43.0962659" lon="11.198004"><ele>402.0</ele><time>2026-04-26T14:29:21.599Z</time></trkpt><trkpt lat="43.0963248" lon="11.1979734"><ele>402.0</ele><time>2026-04-26T14:29:23.599Z</time></trkpt><trkpt lat="43.0964221" lon="11.1978941"><ele>402.0</ele><time>2026-04-26T14:29:25.599Z</time></trkpt><trkpt lat="43.0965069" lon="11.1978324"><ele>402.0</ele><time>2026-04-26T14:29:26.599Z</time></trkpt><trkpt lat="43.0966046" lon="11.1977693"><ele>403.1666666666667</ele><time>2026-04-26T14:29:27.599Z</time></trkpt><trkpt lat="43.0966981" lon="11.1977031"><ele>404.33333333333337</ele><time>2026-04-26T14:29:28.599Z</time></trkpt><trkpt lat="43.0967808" lon="11.1976395"><ele>405.5</ele><time>2026-04-26T14:29:29.599Z</time></trkpt><trkpt lat="43.0968623" lon="11.1975967"><ele>406.6666666666667</ele><time>2026-04-26T14:29:30.599Z</time></trkpt><trkpt lat="43.096945" lon="11.1975807"><ele>407.83333333333337</ele><time>2026-04-26T14:29:31.599Z</time></trkpt><trkpt lat="43.0970187" lon="11.1975701"><ele>409.0</ele><time>2026-04-26T14:29:32.599Z</time></trkpt><trkpt lat="43.0970848" lon="11.1975283"><ele>409.00000000000006</ele><time>2026-04-26T14:29:33.599Z</time></trkpt><trkpt lat="43.0971416" lon="11.1974511"><ele>409.0</ele><time>2026-04-26T14:29:34.599Z</time></trkpt><trkpt lat="43.0971942" lon="11.1973668"><ele>409.0</ele><time>2026-04-26T14:29:35.599Z</time></trkpt><trkpt lat="43.0972512" lon="11.1973005"><ele>409.0</ele><time>2026-04-26T14:29:36.599Z</time></trkpt><trkpt lat="43.097306" lon="11.1972534"><ele>409.00000000000006</ele><time>2026-04-26T14:29:37.599Z</time></trkpt><trkpt lat="43.0974046" lon="11.1971845"><ele>409.0</ele><time>2026-04-26T14:29:39.599Z</time></trkpt><trkpt lat="43.0974979" lon="11.1970706"><ele>410.6</ele><time>2026-04-26T14:29:41.599Z</time></trkpt><trkpt lat="43.097541" lon="11.1970042"><ele>412.2</ele><time>2026-04-26T14:29:42.6Z</time></trkpt><trkpt lat="43.0975723" lon="11.1968827"><ele>413.8</ele><time>2026-04-26T14:29:44.599Z</time></trkpt><trkpt lat="43.0975584" lon="11.1966939"><ele>415.40000000000003</ele><time>2026-04-26T14:29:46.599Z</time></trkpt><trkpt lat="43.0975722" lon="11.1965851"><ele>417.0</ele><time>2026-04-26T14:29:47.6Z</time></trkpt><trkpt lat="43.0975988" lon="11.1964828"><ele>417.0</ele><time>2026-04-26T14:29:48.599Z</time></trkpt><trkpt lat="43.0976439" lon="11.196364"><ele>417.0</ele><time>2026-04-26T14:29:50.6Z</time></trkpt><trkpt lat="43.0977153" lon="11.1962813"><ele>417.0</ele><time>2026-04-26T14:29:52.599Z</time></trkpt><trkpt lat="43.0977679" lon="11.1962213"><ele>417.0</ele><time>2026-04-26T14:29:54.599Z</time></trkpt><trkpt lat="43.0977997" lon="11.1961465"><ele>417.0</ele><time>2026-04-26T14:29:56.599Z</time></trkpt><trkpt lat="43.0978383" lon="11.1959945"><ele>417.0</ele><time>2026-04-26T14:29:58.599Z</time></trkpt><trkpt lat="43.0978631" lon="11.195915"><ele>417.0</ele><time>2026-04-26T14:29:59.6Z</time></trkpt><trkpt lat="43.0978864" lon="11.195831"><ele>417.0</ele><time>2026-04-26T14:30:00.599Z</time></trkpt><trkpt lat="43.097913" lon="11.1957318"><ele>417.0</ele><time>2026-04-26T14:30:01.599Z</time></trkpt><trkpt lat="43.0979423" lon="11.1956387"><ele>417.0</ele><time>2026-04-26T14:30:02.599Z</time></trkpt><trkpt lat="43.0979768" lon="11.1955517"><ele>417.0</ele><time>2026-04-26T14:30:03.599Z</time></trkpt><trkpt lat="43.098025" lon="11.1954633"><ele>417.0</ele><time>2026-04-26T14:30:04.599Z</time></trkpt><trkpt lat="43.0980737" lon="11.1953809"><ele>417.0</ele><time>2026-04-26T14:30:05.599Z</time></trkpt><trkpt lat="43.0981146" lon="11.195288"><ele>416.5</ele><time>2026-04-26T14:30:06.599Z</time></trkpt><trkpt lat="43.0981417" lon="11.1951906"><ele>416.0</ele><time>2026-04-26T14:30:07.6Z</time></trkpt><trkpt lat="43.09816" lon="11.1950917"><ele>415.5</ele><time>2026-04-26T14:30:08.599Z</time></trkpt><trkpt lat="43.0981723" lon="11.1949859"><ele>415.0</ele><time>2026-04-26T14:30:09.599Z</time></trkpt><trkpt lat="43.0981781" lon="11.194884"><ele>414.5</ele><time>2026-04-26T14:30:10.599Z</time></trkpt><trkpt lat="43.0981906" lon="11.1947971"><ele>414.0</ele><time>2026-04-26T14:30:11.599Z</time></trkpt><trkpt lat="43.0982374" lon="11.1946447"><ele>416.5</ele><time>2026-04-26T14:30:13.6Z</time></trkpt><trkpt lat="43.0982631" lon="11.1945645"><ele>419.0</ele><time>2026-04-26T14:30:14.6Z</time></trkpt><trkpt lat="43.0982745" lon="11.1944664"><ele>421.5</ele><time>2026-04-26T14:30:15.599Z</time></trkpt><trkpt lat="43.0982956" lon="11.1943572"><ele>424.0</ele><time>2026-04-26T14:30:16.599Z</time></trkpt><trkpt lat="43.0983434" lon="11.194252"><ele>426.5</ele><time>2026-04-26T14:30:17.6Z</time></trkpt><trkpt lat="43.0984071" lon="11.194148"><ele>429.0</ele><time>2026-04-26T14:30:18.599Z</time></trkpt><trkpt lat="43.0984783" lon="11.1940469"><ele>427.4</ele><time>2026-04-26T14:30:19.599Z</time></trkpt><trkpt lat="43.0985436" lon="11.1939605"><ele>425.79999999999995</ele><time>2026-04-26T14:30:20.599Z</time></trkpt><trkpt lat="43.0986111" lon="11.1938807"><ele>424.20000000000005</ele><time>2026-04-26T14:30:21.599Z</time></trkpt><trkpt lat="43.0986725" lon="11.1937981"><ele>422.6</ele><time>2026-04-26T14:30:22.599Z</time></trkpt><trkpt lat="43.0987223" lon="11.1936922"><ele>421.0</ele><time>2026-04-26T14:30:23.599Z</time></trkpt><trkpt lat="43.0987648" lon="11.1935765"><ele>421.0</ele><time>2026-04-26T14:30:24.599Z</time></trkpt><trkpt lat="43.0988051" lon="11.193468"><ele>421.0</ele><time>2026-04-26T14:30:25.599Z</time></trkpt><trkpt lat="43.0988416" lon="11.1933594"><ele>421.0</ele><time>2026-04-26T14:30:26.599Z</time></trkpt><trkpt lat="43.0988728" lon="11.1932377"><ele>421.0</ele><time>2026-04-26T14:30:27.599Z</time></trkpt><trkpt lat="43.0988987" lon="11.1931144"><ele>421.0</ele><time>2026-04-26T14:30:28.599Z</time></trkpt><trkpt lat="43.098907" lon="11.1929733"><ele>419.4</ele><time>2026-04-26T14:30:29.599Z</time></trkpt><trkpt lat="43.0989183" lon="11.1928414"><ele>417.8</ele><time>2026-04-26T14:30:30.599Z</time></trkpt><trkpt lat="43.098943" lon="11.1927266"><ele>416.2</ele><time>2026-04-26T14:30:31.599Z</time></trkpt><trkpt lat="43.0989855" lon="11.1926316"><ele>414.59999999999997</ele><time>2026-04-26T14:30:32.599Z</time></trkpt><trkpt lat="43.0990642" lon="11.1925421"><ele>413.0</ele><time>2026-04-26T14:30:33.599Z</time></trkpt><trkpt lat="43.0991515" lon="11.1924634"><ele>417.0</ele><time>2026-04-26T14:30:34.599Z</time></trkpt><trkpt lat="43.0992447" lon="11.1924008"><ele>421.0</ele><time>2026-04-26T14:30:35.599Z</time></trkpt><trkpt lat="43.0993195" lon="11.192347"><ele>424.99999999999994</ele><time>2026-04-26T14:30:36.599Z</time></trkpt><trkpt lat="43.0993698" lon="11.1922012"><ele>429.0</ele><time>2026-04-26T14:30:38.599Z</time></trkpt><trkpt lat="43.0993815" lon="11.1920832"><ele>433.0</ele><time>2026-04-26T14:30:39.599Z</time></trkpt><trkpt lat="43.0993986" lon="11.1919697"><ele>433.0</ele><time>2026-04-26T14:30:40.599Z</time></trkpt><trkpt lat="43.0994492" lon="11.1918761"><ele>432.99999999999994</ele><time>2026-04-26T14:30:41.599Z</time></trkpt><trkpt lat="43.0995239" lon="11.1917999"><ele>432.99999999999994</ele><time>2026-04-26T14:30:42.599Z</time></trkpt><trkpt lat="43.0996099" lon="11.1917222"><ele>433.0</ele><time>2026-04-26T14:30:43.599Z</time></trkpt><trkpt lat="43.0996985" lon="11.1916366"><ele>433.0</ele><time>2026-04-26T14:30:44.599Z</time></trkpt><trkpt lat="43.0997725" lon="11.1915553"><ele>434.33333333333337</ele><time>2026-04-26T14:30:45.599Z</time></trkpt><trkpt lat="43.0998182" lon="11.1914863"><ele>435.6666666666667</ele><time>2026-04-26T14:30:46.599Z</time></trkpt><trkpt lat="43.0998201" lon="11.1913937"><ele>437.0</ele><time>2026-04-26T14:30:47.599Z</time></trkpt><trkpt lat="43.0997966" lon="11.191299"><ele>438.33333333333337</ele><time>2026-04-26T14:30:48.599Z</time></trkpt><trkpt lat="43.0997359" lon="11.191217"><ele>439.6666666666667</ele><time>2026-04-26T14:30:49.599Z</time></trkpt><trkpt lat="43.0996596" lon="11.191127"><ele>441.0</ele><time>2026-04-26T14:30:50.599Z</time></trkpt><trkpt lat="43.0995889" lon="11.1910158"><ele>441.0</ele><time>2026-04-26T14:30:51.6Z</time></trkpt><trkpt lat="43.0995252" lon="11.1908905"><ele>441.0</ele><time>2026-04-26T14:30:52.599Z</time></trkpt><trkpt lat="43.0994664" lon="11.1907889"><ele>441.0</ele><time>2026-04-26T14:30:53.599Z</time></trkpt><trkpt lat="43.0994063" lon="11.1907166"><ele>441.0</ele><time>2026-04-26T14:30:54.599Z</time></trkpt><trkpt lat="43.0993794" lon="11.1906047"><ele>441.0</ele><time>2026-04-26T14:30:56.599Z</time></trkpt><trkpt lat="43.0994413" lon="11.1904392"><ele>442.3333333333333</ele><time>2026-04-26T14:30:58.599Z</time></trkpt><trkpt lat="43.0994865" lon="11.1903443"><ele>443.66666666666663</ele><time>2026-04-26T14:30:59.599Z</time></trkpt><trkpt lat="43.0995224" lon="11.1902516"><ele>445.0</ele><time>2026-04-26T14:31:00.599Z</time></trkpt><trkpt lat="43.0995496" lon="11.190165"><ele>446.3333333333333</ele><time>2026-04-26T14:31:01.599Z</time></trkpt><trkpt lat="43.0995835" lon="11.190084"><ele>447.66666666666663</ele><time>2026-04-26T14:31:02.599Z</time></trkpt><trkpt lat="43.0996431" lon="11.1899296"><ele>449.0</ele><time>2026-04-26T14:31:04.599Z</time></trkpt><trkpt lat="43.0996767" lon="11.1898442"><ele>450.49999999999994</ele><time>2026-04-26T14:31:05.599Z</time></trkpt><trkpt lat="43.0996949" lon="11.1897608"><ele>452.0</ele><time>2026-04-26T14:31:06.6Z</time></trkpt><trkpt lat="43.0996967" lon="11.1896615"><ele>453.5</ele><time>2026-04-26T14:31:07.599Z</time></trkpt><trkpt lat="43.0996948" lon="11.1895713"><ele>455.0</ele><time>2026-04-26T14:31:08.6Z</time></trkpt><trkpt lat="43.0997022" lon="11.1894803"><ele>456.49999999999994</ele><time>2026-04-26T14:31:09.599Z</time></trkpt><trkpt lat="43.0997753" lon="11.1893301"><ele>458.0</ele><time>2026-04-26T14:31:11.599Z</time></trkpt><trkpt lat="43.0998399" lon="11.1892755"><ele>457.99999999999994</ele><time>2026-04-26T14:31:12.599Z</time></trkpt><trkpt lat="43.0999089" lon="11.1892229"><ele>458.0</ele><time>2026-04-26T14:31:13.599Z</time></trkpt><trkpt lat="43.0999726" lon="11.1891564"><ele>458.0</ele><time>2026-04-26T14:31:14.6Z</time></trkpt><trkpt lat="43.1000295" lon="11.1890827"><ele>458.0</ele><time>2026-04-26T14:31:15.599Z</time></trkpt><trkpt lat="43.100081" lon="11.1889999"><ele>457.99999999999994</ele><time>2026-04-26T14:31:16.599Z</time></trkpt><trkpt lat="43.1001275" lon="11.188924"><ele>458.0</ele><time>2026-04-26T14:31:17.6Z</time></trkpt><trkpt lat="43.1001745" lon="11.1888458"><ele>460.49999999999994</ele><time>2026-04-26T14:31:18.599Z</time></trkpt><trkpt lat="43.1002233" lon="11.1887756"><ele>463.0</ele><time>2026-04-26T14:31:19.599Z</time></trkpt><trkpt lat="43.1002793" lon="11.188708"><ele>465.5</ele><time>2026-04-26T14:31:20.599Z</time></trkpt><trkpt lat="43.1003284" lon="11.1886462"><ele>468.0</ele><time>2026-04-26T14:31:21.599Z</time></trkpt><trkpt lat="43.1003452" lon="11.1885082"><ele>470.49999999999994</ele><time>2026-04-26T14:31:23.599Z</time></trkpt><trkpt lat="43.1003066" lon="11.1884164"><ele>473.0</ele><time>2026-04-26T14:31:24.599Z</time></trkpt><trkpt lat="43.1002447" lon="11.1883001"><ele>473.0</ele><time>2026-04-26T14:31:25.599Z</time></trkpt><trkpt lat="43.100179" lon="11.1881809"><ele>472.99999999999994</ele><time>2026-04-26T14:31:26.6Z</time></trkpt><trkpt lat="43.1001095" lon="11.1880785"><ele>472.99999999999994</ele><time>2026-04-26T14:31:27.599Z</time></trkpt><trkpt lat="43.1000304" lon="11.1880018"><ele>473.0</ele><time>2026-04-26T14:31:28.599Z</time></trkpt><trkpt lat="43.0999584" lon="11.1879226"><ele>473.0</ele><time>2026-04-26T14:31:29.599Z</time></trkpt><trkpt lat="43.0998847" lon="11.1878302"><ele>476.59999999999997</ele><time>2026-04-26T14:31:30.599Z</time></trkpt><trkpt lat="43.0998185" lon="11.1877261"><ele>480.19999999999993</ele><time>2026-04-26T14:31:31.6Z</time></trkpt><trkpt lat="43.0997596" lon="11.1876183"><ele>483.8</ele><time>2026-04-26T14:31:32.6Z</time></trkpt><trkpt lat="43.0996988" lon="11.1875149"><ele>487.4</ele><time>2026-04-26T14:31:33.599Z</time></trkpt><trkpt lat="43.0996286" lon="11.18742"><ele>491.0</ele><time>2026-04-26T14:31:34.6Z</time></trkpt><trkpt lat="43.0995517" lon="11.1873397"><ele>492.3333333333333</ele><time>2026-04-26T14:31:35.599Z</time></trkpt><trkpt lat="43.0994742" lon="11.1872889"><ele>493.66666666666663</ele><time>2026-04-26T14:31:36.599Z</time></trkpt><trkpt lat="43.0993722" lon="11.1872584"><ele>495.0</ele><time>2026-04-26T14:31:38.599Z</time></trkpt><trkpt lat="43.0993297" lon="11.1871831"><ele>496.33333333333337</ele><time>2026-04-26T14:31:40.599Z</time></trkpt><trkpt lat="43.0993132" lon="11.1870883"><ele>497.6666666666667</ele><time>2026-04-26T14:31:42.599Z</time></trkpt><trkpt lat="43.0993891" lon="11.1870024"><ele>499.0</ele><time>2026-04-26T14:31:49.599Z</time></trkpt><trkpt lat="43.099463" lon="11.18695"><ele>499.00000000000006</ele><time>2026-04-26T14:31:51.599Z</time></trkpt><trkpt lat="43.0995161" lon="11.1868913"><ele>499.0</ele><time>2026-04-26T14:31:53.599Z</time></trkpt><trkpt lat="43.0995669" lon="11.1868056"><ele>499.0</ele><time>2026-04-26T14:31:56.6Z</time></trkpt><trkpt lat="43.0995801" lon="11.1866947"><ele>499.0</ele><time>2026-04-26T14:31:59.599Z</time></trkpt><trkpt lat="43.0995464" lon="11.1865891"><ele>499.00000000000006</ele><time>2026-04-26T14:32:01.599Z</time></trkpt><trkpt lat="43.0995132" lon="11.1864909"><ele>499.0</ele><time>2026-04-26T14:32:03.6Z</time></trkpt><trkpt lat="43.0994361" lon="11.1863729"><ele>499.4</ele><time>2026-04-26T14:32:05.599Z</time></trkpt><trkpt lat="43.0993408" lon="11.1862609"><ele>499.79999999999995</ele><time>2026-04-26T14:32:07.599Z</time></trkpt><trkpt lat="43.0992882" lon="11.1861974"><ele>500.20000000000005</ele><time>2026-04-26T14:32:08.599Z</time></trkpt><trkpt lat="43.0992385" lon="11.1861054"><ele>500.6</ele><time>2026-04-26T14:32:09.599Z</time></trkpt><trkpt lat="43.0992028" lon="11.185998"><ele>501.0</ele><time>2026-04-26T14:32:10.599Z</time></trkpt><trkpt lat="43.0991884" lon="11.1858726"><ele>501.0</ele><time>2026-04-26T14:32:11.599Z</time></trkpt><trkpt lat="43.099177" lon="11.1857496"><ele>501.0</ele><time>2026-04-26T14:32:12.599Z</time></trkpt><trkpt lat="43.0991688" lon="11.1856443"><ele>501.0</ele><time>2026-04-26T14:32:13.599Z</time></trkpt><trkpt lat="43.0991394" lon="11.1855347"><ele>501.0</ele><time>2026-04-26T14:32:14.599Z</time></trkpt><trkpt lat="43.0990939" lon="11.1854288"><ele>501.0</ele><time>2026-04-26T14:32:15.599Z</time></trkpt><trkpt lat="43.099051" lon="11.18533"><ele>501.0</ele><time>2026-04-26T14:32:16.599Z</time></trkpt><trkpt lat="43.0990169" lon="11.1852445"><ele>501.25</ele><time>2026-04-26T14:32:17.599Z</time></trkpt><trkpt lat="43.0989716" lon="11.1850908"><ele>501.5</ele><time>2026-04-26T14:32:19.599Z</time></trkpt><trkpt lat="43.0989348" lon="11.1849388"><ele>501.75</ele><time>2026-04-26T14:32:21.599Z</time></trkpt><trkpt lat="43.0988697" lon="11.1848047"><ele>502.0</ele><time>2026-04-26T14:32:23.599Z</time></trkpt><trkpt lat="43.0988044" lon="11.1846827"><ele>501.1666666666667</ele><time>2026-04-26T14:32:25.599Z</time></trkpt><trkpt lat="43.0987471" lon="11.184522"><ele>500.33333333333337</ele><time>2026-04-26T14:32:27.599Z</time></trkpt><trkpt lat="43.0987233" lon="11.1844315"><ele>499.5</ele><time>2026-04-26T14:32:28.599Z</time></trkpt><trkpt lat="43.0987109" lon="11.184342"><ele>498.66666666666663</ele><time>2026-04-26T14:32:29.599Z</time></trkpt><trkpt lat="43.098716" lon="11.1842513"><ele>497.8333333333333</ele><time>2026-04-26T14:32:30.599Z</time></trkpt><trkpt lat="43.0987238" lon="11.1841547"><ele>497.0</ele><time>2026-04-26T14:32:31.599Z</time></trkpt><trkpt lat="43.0987352" lon="11.1840503"><ele>495.66666666666663</ele><time>2026-04-26T14:32:32.599Z</time></trkpt><trkpt lat="43.0987425" lon="11.1839446"><ele>494.3333333333333</ele><time>2026-04-26T14:32:33.599Z</time></trkpt><trkpt lat="43.0987383" lon="11.1838448"><ele>493.0</ele><time>2026-04-26T14:32:34.599Z</time></trkpt><trkpt lat="43.0987309" lon="11.1837512"><ele>491.66666666666663</ele><time>2026-04-26T14:32:35.599Z</time></trkpt><trkpt lat="43.0987321" lon="11.1836458"><ele>490.3333333333333</ele><time>2026-04-26T14:32:36.599Z</time></trkpt><trkpt lat="43.0987335" lon="11.183539"><ele>489.0</ele><time>2026-04-26T14:32:37.6Z</time></trkpt><trkpt lat="43.098741" lon="11.1834317"><ele>489.0</ele><time>2026-04-26T14:32:38.598Z</time></trkpt><trkpt lat="43.0987529" lon="11.1833182"><ele>489.0</ele><time>2026-04-26T14:32:39.598Z</time></trkpt><trkpt lat="43.0987661" lon="11.1831979"><ele>489.0</ele><time>2026-04-26T14:32:40.598Z</time></trkpt><trkpt lat="43.098773" lon="11.1830831"><ele>489.0</ele><time>2026-04-26T14:32:41.599Z</time></trkpt><trkpt lat="43.0987745" lon="11.182961"><ele>489.0</ele><time>2026-04-26T14:32:42.598Z</time></trkpt><trkpt lat="43.0987694" lon="11.1828296"><ele>489.0</ele><time>2026-04-26T14:32:43.598Z</time></trkpt><trkpt lat="43.0987669" lon="11.1827003"><ele>488.5</ele><time>2026-04-26T14:32:44.598Z</time></trkpt><trkpt lat="43.0987674" lon="11.1825766"><ele>488.0</ele><time>2026-04-26T14:32:45.599Z</time></trkpt><trkpt lat="43.0987703" lon="11.1824683"><ele>487.5</ele><time>2026-04-26T14:32:46.598Z</time></trkpt><trkpt lat="43.098766" lon="11.1823751"><ele>487.0</ele><time>2026-04-26T14:32:47.598Z</time></trkpt><trkpt lat="43.0987631" lon="11.1822743"><ele>486.5</ele><time>2026-04-26T14:32:48.598Z</time></trkpt><trkpt lat="43.0987539" lon="11.1821739"><ele>486.0</ele><time>2026-04-26T14:32:49.599Z</time></trkpt><trkpt lat="43.0987475" lon="11.1820503"><ele>485.3333333333333</ele><time>2026-04-26T14:32:50.598Z</time></trkpt><trkpt lat="43.0987392" lon="11.1819256"><ele>484.66666666666663</ele><time>2026-04-26T14:32:51.598Z</time></trkpt><trkpt lat="43.0987227" lon="11.181812"><ele>484.0</ele><time>2026-04-26T14:32:52.598Z</time></trkpt><trkpt lat="43.0987135" lon="11.181706"><ele>483.3333333333333</ele><time>2026-04-26T14:32:53.598Z</time></trkpt><trkpt lat="43.098691" lon="11.1815987"><ele>482.66666666666663</ele><time>2026-04-26T14:32:54.599Z</time></trkpt><trkpt lat="43.0986577" lon="11.181482"><ele>482.0</ele><time>2026-04-26T14:32:55.598Z</time></trkpt><trkpt lat="43.0986045" lon="11.1813562"><ele>481.20000000000005</ele><time>2026-04-26T14:32:56.598Z</time></trkpt><trkpt lat="43.098536" lon="11.1812355"><ele>480.40000000000003</ele><time>2026-04-26T14:32:57.598Z</time></trkpt><trkpt lat="43.0984742" lon="11.1811164"><ele>479.59999999999997</ele><time>2026-04-26T14:32:58.598Z</time></trkpt><trkpt lat="43.0984221" lon="11.1810096"><ele>478.79999999999995</ele><time>2026-04-26T14:32:59.598Z</time></trkpt><trkpt lat="43.0983724" lon="11.1809141"><ele>478.0</ele><time>2026-04-26T14:33:00.598Z</time></trkpt><trkpt lat="43.0983168" lon="11.1808187"><ele>478.0</ele><time>2026-04-26T14:33:01.598Z</time></trkpt><trkpt lat="43.0982568" lon="11.1807216"><ele>477.99999999999994</ele><time>2026-04-26T14:33:02.598Z</time></trkpt><trkpt lat="43.0982122" lon="11.1806227"><ele>477.99999999999994</ele><time>2026-04-26T14:33:03.598Z</time></trkpt><trkpt lat="43.0981723" lon="11.1805237"><ele>478.0</ele><time>2026-04-26T14:33:04.598Z</time></trkpt><trkpt lat="43.0981381" lon="11.1804341"><ele>478.0</ele><time>2026-04-26T14:33:05.599Z</time></trkpt><trkpt lat="43.098084" lon="11.1802653"><ele>476.6666666666667</ele><time>2026-04-26T14:33:07.598Z</time></trkpt><trkpt lat="43.0980584" lon="11.1801729"><ele>475.33333333333337</ele><time>2026-04-26T14:33:08.598Z</time></trkpt><trkpt lat="43.0980351" lon="11.1800734"><ele>474.0</ele><time>2026-04-26T14:33:09.598Z</time></trkpt><trkpt lat="43.0980059" lon="11.1799689"><ele>472.66666666666663</ele><time>2026-04-26T14:33:10.598Z</time></trkpt><trkpt lat="43.0979855" lon="11.1798503"><ele>471.3333333333333</ele><time>2026-04-26T14:33:11.599Z</time></trkpt><trkpt lat="43.0979862" lon="11.1797104"><ele>470.0</ele><time>2026-04-26T14:33:12.598Z</time></trkpt><trkpt lat="43.0979984" lon="11.1795594"><ele>470.0</ele><time>2026-04-26T14:33:13.598Z</time></trkpt><trkpt lat="43.0980205" lon="11.1794216"><ele>470.0</ele><time>2026-04-26T14:33:14.598Z</time></trkpt><trkpt lat="43.0980454" lon="11.1792895"><ele>470.0</ele><time>2026-04-26T14:33:15.598Z</time></trkpt><trkpt lat="43.0980743" lon="11.1791633"><ele>470.0</ele><time>2026-04-26T14:33:16.598Z</time></trkpt><trkpt lat="43.0981103" lon="11.1790427"><ele>470.0</ele><time>2026-04-26T14:33:17.598Z</time></trkpt><trkpt lat="43.0981475" lon="11.1789254"><ele>469.4</ele><time>2026-04-26T14:33:18.598Z</time></trkpt><trkpt lat="43.0981744" lon="11.1787981"><ele>468.8</ele><time>2026-04-26T14:33:19.598Z</time></trkpt><trkpt lat="43.0981948" lon="11.1786532"><ele>468.20000000000005</ele><time>2026-04-26T14:33:20.598Z</time></trkpt><trkpt lat="43.098226" lon="11.1785051"><ele>467.6</ele><time>2026-04-26T14:33:21.598Z</time></trkpt><trkpt lat="43.0982551" lon="11.1783471"><ele>467.0</ele><time>2026-04-26T14:33:22.598Z</time></trkpt><trkpt lat="43.0982885" lon="11.1781838"><ele>466.5</ele><time>2026-04-26T14:33:23.598Z</time></trkpt><trkpt lat="43.0983182" lon="11.1780235"><ele>466.0</ele><time>2026-04-26T14:33:24.598Z</time></trkpt><trkpt lat="43.098353" lon="11.1778743"><ele>465.5</ele><time>2026-04-26T14:33:25.598Z</time></trkpt><trkpt lat="43.0983976" lon="11.1777228"><ele>465.0</ele><time>2026-04-26T14:33:26.598Z</time></trkpt><trkpt lat="43.0984379" lon="11.1775575"><ele>465.0</ele><time>2026-04-26T14:33:27.598Z</time></trkpt><trkpt lat="43.0984817" lon="11.1773869"><ele>465.0</ele><time>2026-04-26T14:33:28.598Z</time></trkpt><trkpt lat="43.0985277" lon="11.1772226"><ele>465.0</ele><time>2026-04-26T14:33:29.598Z</time></trkpt><trkpt lat="43.0985736" lon="11.17707"><ele>465.0</ele><time>2026-04-26T14:33:30.598Z</time></trkpt><trkpt lat="43.0986361" lon="11.1769498"><ele>464.1666666666667</ele><time>2026-04-26T14:33:31.599Z</time></trkpt><trkpt lat="43.0987021" lon="11.1768487"><ele>463.33333333333337</ele><time>2026-04-26T14:33:32.598Z</time></trkpt><trkpt lat="43.0987451" lon="11.1767507"><ele>462.5</ele><time>2026-04-26T14:33:33.598Z</time></trkpt><trkpt lat="43.0987646" lon="11.1766554"><ele>461.6666666666667</ele><time>2026-04-26T14:33:34.598Z</time></trkpt><trkpt lat="43.0987656" lon="11.1765646"><ele>460.83333333333337</ele><time>2026-04-26T14:33:35.598Z</time></trkpt><trkpt lat="43.098731" lon="11.1764262"><ele>460.0</ele><time>2026-04-26T14:33:37.598Z</time></trkpt><trkpt lat="43.0986874" lon="11.1763086"><ele>459.6666666666667</ele><time>2026-04-26T14:33:39.598Z</time></trkpt><trkpt lat="43.0986507" lon="11.1762189"><ele>459.33333333333337</ele><time>2026-04-26T14:33:41.598Z</time></trkpt><trkpt lat="43.0985904" lon="11.1761913"><ele>459.0</ele><time>2026-04-26T14:33:46.598Z</time></trkpt><trkpt lat="43.0985134" lon="11.176217"><ele>458.66666666666663</ele><time>2026-04-26T14:34:03.598Z</time></trkpt><trkpt lat="43.098442" lon="11.1762397"><ele>458.3333333333333</ele><time>2026-04-26T14:34:05.598Z</time></trkpt><trkpt lat="43.0983678" lon="11.1762303"><ele>458.0</ele><time>2026-04-26T14:34:07.598Z</time></trkpt><trkpt lat="43.0982469" lon="11.1762259"><ele>456.16666666666663</ele><time>2026-04-26T14:34:09.598Z</time></trkpt><trkpt lat="43.098181" lon="11.1762396"><ele>454.3333333333333</ele><time>2026-04-26T14:34:10.598Z</time></trkpt><trkpt lat="43.0980963" lon="11.1763561"><ele>452.5</ele><time>2026-04-26T14:34:12.598Z</time></trkpt><trkpt lat="43.0980676" lon="11.1764643"><ele>450.66666666666663</ele><time>2026-04-26T14:34:13.598Z</time></trkpt><trkpt lat="43.0980458" lon="11.1765694"><ele>448.8333333333333</ele><time>2026-04-26T14:34:14.598Z</time></trkpt><trkpt lat="43.0980194" lon="11.1766532"><ele>447.0</ele><time>2026-04-26T14:34:15.598Z</time></trkpt><trkpt lat="43.097972" lon="11.176723"><ele>447.0</ele><time>2026-04-26T14:34:16.598Z</time></trkpt><trkpt lat="43.0979176" lon="11.1767929"><ele>447.0</ele><time>2026-04-26T14:34:17.598Z</time></trkpt><trkpt lat="43.0978501" lon="11.1768752"><ele>447.0</ele><time>2026-04-26T14:34:18.598Z</time></trkpt><trkpt lat="43.0977801" lon="11.1769675"><ele>447.0</ele><time>2026-04-26T14:34:19.599Z</time></trkpt><trkpt lat="43.0977148" lon="11.1770396"><ele>447.0</ele><time>2026-04-26T14:34:20.598Z</time></trkpt><trkpt lat="43.0976567" lon="11.1771003"><ele>447.0</ele><time>2026-04-26T14:34:21.598Z</time></trkpt><trkpt lat="43.0975893" lon="11.1771618"><ele>447.0</ele><time>2026-04-26T14:34:22.599Z</time></trkpt><trkpt lat="43.0975131" lon="11.1772171"><ele>447.0</ele><time>2026-04-26T14:34:23.598Z</time></trkpt><trkpt lat="43.0974429" lon="11.1772732"><ele>447.0</ele><time>2026-04-26T14:34:24.598Z</time></trkpt><trkpt lat="43.097394" lon="11.1773442"><ele>447.0</ele><time>2026-04-26T14:34:25.599Z</time></trkpt><trkpt lat="43.0973443" lon="11.1774272"><ele>447.0</ele><time>2026-04-26T14:34:26.598Z</time></trkpt><trkpt lat="43.0973111" lon="11.1775224"><ele>447.0</ele><time>2026-04-26T14:34:27.598Z</time></trkpt><trkpt lat="43.0972775" lon="11.1776415"><ele>444.0</ele><time>2026-04-26T14:34:28.598Z</time></trkpt><trkpt lat="43.0972445" lon="11.1777446"><ele>441.00000000000006</ele><time>2026-04-26T14:34:29.599Z</time></trkpt><trkpt lat="43.0971662" lon="11.1779034"><ele>438.00000000000006</ele><time>2026-04-26T14:34:31.598Z</time></trkpt><trkpt lat="43.0971133" lon="11.1780022"><ele>435.0</ele><time>2026-04-26T14:34:32.599Z</time></trkpt><trkpt lat="43.097066" lon="11.1780943"><ele>432.0</ele><time>2026-04-26T14:34:33.598Z</time></trkpt><trkpt lat="43.0970146" lon="11.1781796"><ele>434.3333333333333</ele><time>2026-04-26T14:34:34.598Z</time></trkpt><trkpt lat="43.0969697" lon="11.1782595"><ele>436.66666666666663</ele><time>2026-04-26T14:34:35.598Z</time></trkpt><trkpt lat="43.0969147" lon="11.1783309"><ele>439.0</ele><time>2026-04-26T14:34:36.598Z</time></trkpt><trkpt lat="43.0968475" lon="11.1783855"><ele>441.3333333333333</ele><time>2026-04-26T14:34:37.598Z</time></trkpt><trkpt lat="43.0967766" lon="11.1784358"><ele>443.66666666666663</ele><time>2026-04-26T14:34:38.599Z</time></trkpt><trkpt lat="43.0966934" lon="11.1784616"><ele>446.0</ele><time>2026-04-26T14:34:39.598Z</time></trkpt><trkpt lat="43.0966171" lon="11.1784868"><ele>444.66666666666663</ele><time>2026-04-26T14:34:40.598Z</time></trkpt><trkpt lat="43.0965419" lon="11.1785185"><ele>443.3333333333333</ele><time>2026-04-26T14:34:41.598Z</time></trkpt><trkpt lat="43.09646" lon="11.178535"><ele>442.0</ele><time>2026-04-26T14:34:42.598Z</time></trkpt><trkpt lat="43.0963824" lon="11.1785389"><ele>440.66666666666663</ele><time>2026-04-26T14:34:43.598Z</time></trkpt><trkpt lat="43.0963094" lon="11.1785199"><ele>439.3333333333333</ele><time>2026-04-26T14:34:44.598Z</time></trkpt><trkpt lat="43.0962397" lon="11.1784825"><ele>438.0</ele><time>2026-04-26T14:34:45.598Z</time></trkpt><trkpt lat="43.0961703" lon="11.1784449"><ele>438.0</ele><time>2026-04-26T14:34:46.598Z</time></trkpt><trkpt lat="43.0961061" lon="11.1783952"><ele>438.0</ele><time>2026-04-26T14:34:47.598Z</time></trkpt><trkpt lat="43.0960374" lon="11.1783422"><ele>438.0</ele><time>2026-04-26T14:34:48.598Z</time></trkpt><trkpt lat="43.0959696" lon="11.1782892"><ele>438.0</ele><time>2026-04-26T14:34:49.598Z</time></trkpt><trkpt lat="43.0958996" lon="11.1782295"><ele>438.0</ele><time>2026-04-26T14:34:50.598Z</time></trkpt><trkpt lat="43.095832" lon="11.1781781"><ele>438.0</ele><time>2026-04-26T14:34:51.598Z</time></trkpt><trkpt lat="43.0957615" lon="11.1781327"><ele>434.0</ele><time>2026-04-26T14:34:52.598Z</time></trkpt><trkpt lat="43.0956904" lon="11.1780821"><ele>430.0</ele><time>2026-04-26T14:34:53.598Z</time></trkpt><trkpt lat="43.0956176" lon="11.1780368"><ele>426.0</ele><time>2026-04-26T14:34:54.598Z</time></trkpt><trkpt lat="43.0955463" lon="11.1779951"><ele>422.0</ele><time>2026-04-26T14:34:55.599Z</time></trkpt><trkpt lat="43.095489" lon="11.1779576"><ele>418.0</ele><time>2026-04-26T14:34:56.599Z</time></trkpt><trkpt lat="43.0954055" lon="11.1778629"><ele>414.0</ele><time>2026-04-26T14:34:58.598Z</time></trkpt><trkpt lat="43.0952875" lon="11.1778195"><ele>414.0</ele><time>2026-04-26T14:35:00.598Z</time></trkpt><trkpt lat="43.0952042" lon="11.1778327"><ele>414.0</ele><time>2026-04-26T14:35:01.598Z</time></trkpt><trkpt lat="43.0951318" lon="11.1778548"><ele>414.0</ele><time>2026-04-26T14:35:02.598Z</time></trkpt><trkpt lat="43.0950672" lon="11.1778984"><ele>414.0</ele><time>2026-04-26T14:35:03.598Z</time></trkpt><trkpt lat="43.0949965" lon="11.1779856"><ele>414.0</ele><time>2026-04-26T14:35:04.598Z</time></trkpt><trkpt lat="43.0949195" lon="11.1780796"><ele>414.0</ele><time>2026-04-26T14:35:05.598Z</time></trkpt><trkpt lat="43.0948513" lon="11.1781646"><ele>413.6666666666667</ele><time>2026-04-26T14:35:06.598Z</time></trkpt><trkpt lat="43.0947937" lon="11.1782533"><ele>413.33333333333337</ele><time>2026-04-26T14:35:07.599Z</time></trkpt><trkpt lat="43.0947423" lon="11.1783442"><ele>413.0</ele><time>2026-04-26T14:35:08.598Z</time></trkpt><trkpt lat="43.0946798" lon="11.1784095"><ele>412.6666666666667</ele><time>2026-04-26T14:35:09.598Z</time></trkpt><trkpt lat="43.0946088" lon="11.1784506"><ele>412.33333333333337</ele><time>2026-04-26T14:35:10.598Z</time></trkpt><trkpt lat="43.0945298" lon="11.1784696"><ele>412.0</ele><time>2026-04-26T14:35:11.598Z</time></trkpt><trkpt lat="43.0944476" lon="11.1784841"><ele>412.00000000000006</ele><time>2026-04-26T14:35:12.599Z</time></trkpt><trkpt lat="43.0943657" lon="11.1785009"><ele>412.0</ele><time>2026-04-26T14:35:13.598Z</time></trkpt><trkpt lat="43.0942806" lon="11.1785231"><ele>412.0</ele><time>2026-04-26T14:35:14.598Z</time></trkpt><trkpt lat="43.0941929" lon="11.1785453"><ele>412.0</ele><time>2026-04-26T14:35:15.598Z</time></trkpt><trkpt lat="43.0941036" lon="11.1785734"><ele>412.00000000000006</ele><time>2026-04-26T14:35:16.598Z</time></trkpt><trkpt lat="43.0940156" lon="11.1785909"><ele>412.0</ele><time>2026-04-26T14:35:17.598Z</time></trkpt><trkpt lat="43.0939447" lon="11.1786042"><ele>410.8</ele><time>2026-04-26T14:35:18.598Z</time></trkpt><trkpt lat="43.0938833" lon="11.1785487"><ele>409.6</ele><time>2026-04-26T14:35:30.598Z</time></trkpt><trkpt lat="43.0938475" lon="11.1784372"><ele>408.40000000000003</ele><time>2026-04-26T14:35:32.598Z</time></trkpt><trkpt lat="43.0937957" lon="11.1782901"><ele>407.20000000000005</ele><time>2026-04-26T14:35:34.598Z</time></trkpt><trkpt lat="43.0937588" lon="11.1781682"><ele>406.0</ele><time>2026-04-26T14:35:36.598Z</time></trkpt><trkpt lat="43.0937734" lon="11.1780258"><ele>405.00000000000006</ele><time>2026-04-26T14:35:38.598Z</time></trkpt><trkpt lat="43.093804" lon="11.1779423"><ele>404.0</ele><time>2026-04-26T14:35:39.598Z</time></trkpt><trkpt lat="43.0938249" lon="11.1778561"><ele>403.0</ele><time>2026-04-26T14:35:40.599Z</time></trkpt><trkpt lat="43.0938382" lon="11.1777086"><ele>402.0</ele><time>2026-04-26T14:35:42.598Z</time></trkpt><trkpt lat="43.09376" lon="11.1776638"><ele>401.00000000000006</ele><time>2026-04-26T14:35:44.599Z</time></trkpt><trkpt lat="43.0936946" lon="11.1776462"><ele>400.0</ele><time>2026-04-26T14:35:45.598Z</time></trkpt><trkpt lat="43.0936259" lon="11.1776206"><ele>400.0</ele><time>2026-04-26T14:35:46.599Z</time></trkpt><trkpt lat="43.093511" lon="11.1775669"><ele>400.0</ele><time>2026-04-26T14:35:48.598Z</time></trkpt><trkpt lat="43.0934005" lon="11.1774948"><ele>400.0</ele><time>2026-04-26T14:35:50.598Z</time></trkpt><trkpt lat="43.0932872" lon="11.1774187"><ele>400.0</ele><time>2026-04-26T14:35:52.598Z</time></trkpt><trkpt lat="43.0931818" lon="11.1773585"><ele>398.2</ele><time>2026-04-26T14:35:54.598Z</time></trkpt><trkpt lat="43.0931036" lon="11.1772878"><ele>396.4</ele><time>2026-04-26T14:35:56.598Z</time></trkpt><trkpt lat="43.0930544" lon="11.1771934"><ele>394.6</ele><time>2026-04-26T14:35:58.598Z</time></trkpt><trkpt lat="43.0930027" lon="11.1771014"><ele>392.8</ele><time>2026-04-26T14:36:00.598Z</time></trkpt><trkpt lat="43.0929461" lon="11.1769714"><ele>391.0</ele><time>2026-04-26T14:36:02.598Z</time></trkpt><trkpt lat="43.0928903" lon="11.1768276"><ele>391.00000000000006</ele><time>2026-04-26T14:36:04.598Z</time></trkpt><trkpt lat="43.0928411" lon="11.1767446"><ele>391.0</ele><time>2026-04-26T14:36:06.598Z</time></trkpt><trkpt lat="43.0927753" lon="11.1766454"><ele>391.0</ele><time>2026-04-26T14:36:08.598Z</time></trkpt><trkpt lat="43.0926763" lon="11.176549"><ele>391.0</ele><time>2026-04-26T14:36:10.598Z</time></trkpt><trkpt lat="43.0926096" lon="11.1765077"><ele>391.00000000000006</ele><time>2026-04-26T14:36:11.598Z</time></trkpt><trkpt lat="43.0925374" lon="11.1764742"><ele>391.0</ele><time>2026-04-26T14:36:12.598Z</time></trkpt><trkpt lat="43.0924706" lon="11.1764448"><ele>386.0</ele><time>2026-04-26T14:36:13.598Z</time></trkpt><trkpt lat="43.0923464" lon="11.1764225"><ele>381.0</ele><time>2026-04-26T14:36:15.598Z</time></trkpt><trkpt lat="43.0922545" lon="11.1763771"><ele>376.0</ele><time>2026-04-26T14:36:17.598Z</time></trkpt><trkpt lat="43.0921936" lon="11.1763423"><ele>371.0</ele><time>2026-04-26T14:36:19.598Z</time></trkpt><trkpt lat="43.0921219" lon="11.1762729"><ele>366.0</ele><time>2026-04-26T14:36:21.598Z</time></trkpt><trkpt lat="43.0920436" lon="11.1762002"><ele>366.0</ele><time>2026-04-26T14:36:23.598Z</time></trkpt><trkpt lat="43.0919563" lon="11.1761087"><ele>366.0</ele><time>2026-04-26T14:36:25.598Z</time></trkpt><trkpt lat="43.0918804" lon="11.1760352"><ele>366.0</ele><time>2026-04-26T14:36:27.598Z</time></trkpt><trkpt lat="43.0917967" lon="11.1759797"><ele>366.0</ele><time>2026-04-26T14:36:29.599Z</time></trkpt><trkpt lat="43.0916892" lon="11.1759426"><ele>366.0</ele><time>2026-04-26T14:36:31.598Z</time></trkpt><trkpt lat="43.0915612" lon="11.1758987"><ele>360.6666666666667</ele><time>2026-04-26T14:36:33.598Z</time></trkpt><trkpt lat="43.0914699" lon="11.175857"><ele>355.3333333333333</ele><time>2026-04-26T14:36:35.598Z</time></trkpt><trkpt lat="43.0914414" lon="11.1757782"><ele>350.0</ele><time>2026-04-26T14:37:26.598Z</time></trkpt><trkpt lat="43.0914085" lon="11.1756858"><ele>344.66666666666663</ele><time>2026-04-26T14:37:35.598Z</time></trkpt><trkpt lat="43.0913479" lon="11.1756058"><ele>339.3333333333333</ele><time>2026-04-26T14:37:38.598Z</time></trkpt><trkpt lat="43.091297" lon="11.1755306"><ele>334.0</ele><time>2026-04-26T14:37:40.598Z</time></trkpt><trkpt lat="43.0912526" lon="11.1754652"><ele>332.5</ele><time>2026-04-26T14:37:45.598Z</time></trkpt><trkpt lat="43.0911894" lon="11.1754037"><ele>331.0</ele><time>2026-04-26T14:37:49.598Z</time></trkpt><trkpt lat="43.0911513" lon="11.1753165"><ele>329.5</ele><time>2026-04-26T14:37:51.598Z</time></trkpt><trkpt lat="43.0911496" lon="11.1752124"><ele>328.0</ele><time>2026-04-26T14:37:53.598Z</time></trkpt><trkpt lat="43.0911565" lon="11.1751013"><ele>326.5</ele><time>2026-04-26T14:37:55.598Z</time></trkpt><trkpt lat="43.0911695" lon="11.1749957"><ele>325.0</ele><time>2026-04-26T14:37:57.598Z</time></trkpt><trkpt lat="43.0911965" lon="11.1748772"><ele>324.3333333333333</ele><time>2026-04-26T14:37:59.598Z</time></trkpt><trkpt lat="43.0912321" lon="11.174774"><ele>323.66666666666663</ele><time>2026-04-26T14:38:01.598Z</time></trkpt><trkpt lat="43.0912887" lon="11.1746925"><ele>323.0</ele><time>2026-04-26T14:38:03.598Z</time></trkpt><trkpt lat="43.0913373" lon="11.1746132"><ele>322.3333333333333</ele><time>2026-04-26T14:38:05.598Z</time></trkpt><trkpt lat="43.0913392" lon="11.1744954"><ele>321.6666666666667</ele><time>2026-04-26T14:38:08.599Z</time></trkpt><trkpt lat="43.0912593" lon="11.1744222"><ele>321.0</ele><time>2026-04-26T14:38:11.599Z</time></trkpt><trkpt lat="43.0911434" lon="11.1744081"><ele>321.0</ele><time>2026-04-26T14:38:13.598Z</time></trkpt><trkpt lat="43.0910467" lon="11.1744181"><ele>321.0</ele><time>2026-04-26T14:38:15.598Z</time></trkpt><trkpt lat="43.0909768" lon="11.17442"><ele>321.0</ele><time>2026-04-26T14:38:17.598Z</time></trkpt><trkpt lat="43.0909058" lon="11.1744094"><ele>321.0</ele><time>2026-04-26T14:38:19.598Z</time></trkpt><trkpt lat="43.0908215" lon="11.1743625"><ele>321.0</ele><time>2026-04-26T14:38:22.599Z</time></trkpt><trkpt lat="43.090742" lon="11.1743439"><ele>321.0</ele><time>2026-04-26T14:38:24.598Z</time></trkpt><trkpt lat="43.0906745" lon="11.1743168"><ele>317.6666666666667</ele><time>2026-04-26T14:38:26.598Z</time></trkpt><trkpt lat="43.0905906" lon="11.1743038"><ele>314.3333333333333</ele><time>2026-04-26T14:38:29.598Z</time></trkpt><trkpt lat="43.0905131" lon="11.1742884"><ele>311.0</ele><time>2026-04-26T14:38:32.598Z</time></trkpt><trkpt lat="43.0904393" lon="11.1742832"><ele>307.66666666666663</ele><time>2026-04-26T14:38:35.599Z</time></trkpt><trkpt lat="43.0903474" lon="11.1742627"><ele>304.3333333333333</ele><time>2026-04-26T14:38:38.598Z</time></trkpt><trkpt lat="43.0902827" lon="11.1742354"><ele>301.0</ele><time>2026-04-26T14:38:40.598Z</time></trkpt><trkpt lat="43.0902054" lon="11.1742129"><ele>301.0</ele><time>2026-04-26T14:38:42.598Z</time></trkpt><trkpt lat="43.0900992" lon="11.1741876"><ele>301.0</ele><time>2026-04-26T14:38:44.598Z</time></trkpt><trkpt lat="43.0899967" lon="11.1741613"><ele>301.0</ele><time>2026-04-26T14:38:46.598Z</time></trkpt><trkpt lat="43.0899003" lon="11.1741702"><ele>301.0</ele><time>2026-04-26T14:38:48.598Z</time></trkpt><trkpt lat="43.0898017" lon="11.1742019"><ele>301.0</ele><time>2026-04-26T14:38:50.598Z</time></trkpt><trkpt lat="43.089737" lon="11.1742361"><ele>301.5</ele><time>2026-04-26T14:38:52.598Z</time></trkpt><trkpt lat="43.0896721" lon="11.1743157"><ele>302.0</ele><time>2026-04-26T14:38:54.598Z</time></trkpt><trkpt lat="43.0896472" lon="11.174235"><ele>302.5</ele><time>2026-04-26T14:41:30.597Z</time></trkpt><trkpt lat="43.0896412" lon="11.1741159"><ele>303.0</ele><time>2026-04-26T14:41:33.597Z</time></trkpt><trkpt lat="43.0896159" lon="11.1740205"><ele>303.5</ele><time>2026-04-26T14:41:36.597Z</time></trkpt><trkpt lat="43.089554" lon="11.1739657"><ele>304.0</ele><time>2026-04-26T14:41:39.597Z</time></trkpt><trkpt lat="43.0895115" lon="11.1738906"><ele>304.0</ele><time>2026-04-26T14:41:42.597Z</time></trkpt><trkpt lat="43.0894202" lon="11.1738896"><ele>304.0</ele><time>2026-04-26T14:41:54.597Z</time></trkpt><trkpt lat="43.0893404" lon="11.1739205"><ele>304.0</ele><time>2026-04-26T14:41:56.597Z</time></trkpt><trkpt lat="43.0892385" lon="11.1739241"><ele>304.0</ele><time>2026-04-26T14:41:58.597Z</time></trkpt><trkpt lat="43.0891188" lon="11.1739582"><ele>304.0</ele><time>2026-04-26T14:42:00.597Z</time></trkpt><trkpt lat="43.0890613" lon="11.174018"><ele>303.16666666666663</ele><time>2026-04-26T14:42:03.597Z</time></trkpt><trkpt lat="43.0889964" lon="11.1740467"><ele>302.3333333333333</ele><time>2026-04-26T14:42:05.597Z</time></trkpt><trkpt lat="43.0889058" lon="11.1741098"><ele>301.5</ele><time>2026-04-26T14:42:07.598Z</time></trkpt><trkpt lat="43.0888376" lon="11.1741895"><ele>300.6666666666667</ele><time>2026-04-26T14:42:09.597Z</time></trkpt><trkpt lat="43.0887797" lon="11.1742539"><ele>299.83333333333337</ele><time>2026-04-26T14:42:12.597Z</time></trkpt><trkpt lat="43.0887008" lon="11.1742701"><ele>299.0</ele><time>2026-04-26T14:42:14.598Z</time></trkpt><trkpt lat="43.0886112" lon="11.1742796"><ele>299.0</ele><time>2026-04-26T14:42:16.597Z</time></trkpt><trkpt lat="43.0884994" lon="11.1742661"><ele>299.0</ele><time>2026-04-26T14:42:18.597Z</time></trkpt><trkpt lat="43.0883739" lon="11.174232"><ele>299.0</ele><time>2026-04-26T14:42:20.598Z</time></trkpt><trkpt lat="43.0883096" lon="11.1742069"><ele>299.0</ele><time>2026-04-26T14:42:21.597Z</time></trkpt><trkpt lat="43.0881914" lon="11.1741388"><ele>299.0</ele><time>2026-04-26T14:42:23.597Z</time></trkpt><trkpt lat="43.0881207" lon="11.1740933"><ele>298.8</ele><time>2026-04-26T14:42:24.597Z</time></trkpt><trkpt lat="43.0880257" lon="11.1740271"><ele>298.59999999999997</ele><time>2026-04-26T14:42:25.598Z</time></trkpt><trkpt lat="43.0879197" lon="11.1739666"><ele>298.4</ele><time>2026-04-26T14:42:26.597Z</time></trkpt><trkpt lat="43.0878283" lon="11.1739175"><ele>298.2</ele><time>2026-04-26T14:42:27.597Z</time></trkpt><trkpt lat="43.0877648" lon="11.1738779"><ele>298.0</ele><time>2026-04-26T14:42:28.597Z</time></trkpt><trkpt lat="43.0877031" lon="11.1738315"><ele>298.0</ele><time>2026-04-26T14:42:29.597Z</time></trkpt><trkpt lat="43.0876434" lon="11.1737691"><ele>298.0</ele><time>2026-04-26T14:42:30.597Z</time></trkpt><trkpt lat="43.0875895" lon="11.1737114"><ele>298.0</ele><time>2026-04-26T14:42:31.598Z</time></trkpt><trkpt lat="43.087496" lon="11.1736336"><ele>298.0</ele><time>2026-04-26T14:42:33.597Z</time></trkpt><trkpt lat="43.0874176" lon="11.1735214"><ele>298.0</ele><time>2026-04-26T14:42:35.597Z</time></trkpt><trkpt lat="43.0873612" lon="11.1733918"><ele>297.42857142857144</ele><time>2026-04-26T14:42:37.597Z</time></trkpt><trkpt lat="43.0873214" lon="11.1733166"><ele>296.85714285714283</ele><time>2026-04-26T14:42:38.597Z</time></trkpt><trkpt lat="43.0872869" lon="11.1732395"><ele>296.2857142857143</ele><time>2026-04-26T14:42:39.597Z</time></trkpt><trkpt lat="43.0872384" lon="11.1731711"><ele>295.7142857142857</ele><time>2026-04-26T14:42:40.598Z</time></trkpt><trkpt lat="43.0871941" lon="11.1731068"><ele>295.1428571428571</ele><time>2026-04-26T14:42:41.598Z</time></trkpt><trkpt lat="43.087151" lon="11.1730399"><ele>294.57142857142856</ele><time>2026-04-26T14:42:42.597Z</time></trkpt><trkpt lat="43.0870818" lon="11.1729454"><ele>294.0</ele><time>2026-04-26T14:42:44.597Z</time></trkpt><trkpt lat="43.0869874" lon="11.1728446"><ele>294.5</ele><time>2026-04-26T14:42:46.597Z</time></trkpt><trkpt lat="43.0869013" lon="11.1727746"><ele>295.0</ele><time>2026-04-26T14:42:48.597Z</time></trkpt><trkpt lat="43.0868125" lon="11.1727036"><ele>295.5</ele><time>2026-04-26T14:42:50.597Z</time></trkpt><trkpt lat="43.0867019" lon="11.1727372"><ele>296.0</ele><time>2026-04-26T14:42:52.597Z</time></trkpt><trkpt lat="43.0866356" lon="11.172748"><ele>296.5</ele><time>2026-04-26T14:42:55.597Z</time></trkpt><trkpt lat="43.0865728" lon="11.1727655"><ele>297.0</ele><time>2026-04-26T14:43:05.598Z</time></trkpt><trkpt lat="43.0864918" lon="11.1727572"><ele>297.0</ele><time>2026-04-26T14:43:11.597Z</time></trkpt><trkpt lat="43.0864404" lon="11.1726877"><ele>297.0</ele><time>2026-04-26T14:43:13.597Z</time></trkpt><trkpt lat="43.0864137" lon="11.172608"><ele>297.0</ele><time>2026-04-26T14:43:15.597Z</time></trkpt><trkpt lat="43.0863932" lon="11.1725207"><ele>297.0</ele><time>2026-04-26T14:43:17.597Z</time></trkpt><trkpt lat="43.0862893" lon="11.1724031"><ele>297.0</ele><time>2026-04-26T14:43:19.597Z</time></trkpt><trkpt lat="43.0862246" lon="11.172371"><ele>297.0</ele><time>2026-04-26T14:43:20.597Z</time></trkpt><trkpt lat="43.0861593" lon="11.1723419"><ele>297.4</ele><time>2026-04-26T14:43:21.597Z</time></trkpt><trkpt lat="43.0860536" lon="11.1722822"><ele>297.79999999999995</ele><time>2026-04-26T14:43:23.597Z</time></trkpt><trkpt lat="43.0859348" lon="11.1722407"><ele>298.2</ele><time>2026-04-26T14:43:25.597Z</time></trkpt><trkpt lat="43.0858601" lon="11.1722158"><ele>298.59999999999997</ele><time>2026-04-26T14:43:26.597Z</time></trkpt><trkpt lat="43.0857809" lon="11.172188"><ele>299.0</ele><time>2026-04-26T14:43:27.598Z</time></trkpt><trkpt lat="43.0857137" lon="11.1721593"><ele>299.0</ele><time>2026-04-26T14:43:28.597Z</time></trkpt><trkpt lat="43.0856097" lon="11.1720817"><ele>299.0</ele><time>2026-04-26T14:43:30.597Z</time></trkpt><trkpt lat="43.0855608" lon="11.1720197"><ele>299.0</ele><time>2026-04-26T14:43:31.597Z</time></trkpt><trkpt lat="43.0854766" lon="11.171907"><ele>299.0</ele><time>2026-04-26T14:43:33.597Z</time></trkpt><trkpt lat="43.0853925" lon="11.1717937"><ele>299.0</ele><time>2026-04-26T14:43:35.598Z</time></trkpt><trkpt lat="43.0853162" lon="11.1716761"><ele>299.0</ele><time>2026-04-26T14:43:37.597Z</time></trkpt><trkpt lat="43.0852465" lon="11.1715842"><ele>299.0</ele><time>2026-04-26T14:43:39.597Z</time></trkpt><trkpt lat="43.0851852" lon="11.1715124"><ele>299.0</ele><time>2026-04-26T14:43:41.597Z</time></trkpt><trkpt lat="43.0851396" lon="11.1714277"><ele>299.0</ele><time>2026-04-26T14:43:46.597Z</time></trkpt><trkpt lat="43.08508" lon="11.1713435"><ele>299.0</ele><time>2026-04-26T14:43:51.598Z</time></trkpt><trkpt lat="43.0850343" lon="11.1712429"><ele>299.0</ele><time>2026-04-26T14:43:54.597Z</time></trkpt><trkpt lat="43.0849433" lon="11.1711106"><ele>299.5</ele><time>2026-04-26T14:43:56.597Z</time></trkpt><trkpt lat="43.0848952" lon="11.1710105"><ele>300.0</ele><time>2026-04-26T14:43:57.597Z</time></trkpt><trkpt lat="43.0848533" lon="11.170895"><ele>300.5</ele><time>2026-04-26T14:43:58.598Z</time></trkpt><trkpt lat="43.0848121" lon="11.1708038"><ele>301.0</ele><time>2026-04-26T14:43:59.597Z</time></trkpt><trkpt lat="43.0847693" lon="11.170737"><ele>301.5</ele><time>2026-04-26T14:44:00.597Z</time></trkpt><trkpt lat="43.0847156" lon="11.1706681"><ele>302.0</ele><time>2026-04-26T14:44:01.597Z</time></trkpt><trkpt lat="43.0846672" lon="11.1705938"><ele>303.33333333333337</ele><time>2026-04-26T14:44:02.597Z</time></trkpt><trkpt lat="43.0846275" lon="11.1705122"><ele>304.6666666666667</ele><time>2026-04-26T14:44:03.597Z</time></trkpt><trkpt lat="43.0845887" lon="11.1704282"><ele>306.0</ele><time>2026-04-26T14:44:04.597Z</time></trkpt><trkpt lat="43.0845441" lon="11.1703419"><ele>307.3333333333333</ele><time>2026-04-26T14:44:05.597Z</time></trkpt><trkpt lat="43.0844818" lon="11.1702498"><ele>308.66666666666663</ele><time>2026-04-26T14:44:07.597Z</time></trkpt><trkpt lat="43.0845967" lon="11.1702656"><ele>310.0</ele><time>2026-04-26T14:44:35.597Z</time></trkpt><trkpt lat="43.0846869" lon="11.1702426"><ele>310.0</ele><time>2026-04-26T14:44:36.597Z</time></trkpt><trkpt lat="43.084788" lon="11.1702247"><ele>310.0</ele><time>2026-04-26T14:44:37.597Z</time></trkpt><trkpt lat="43.0848936" lon="11.1701987"><ele>310.0</ele><time>2026-04-26T14:44:38.598Z</time></trkpt><trkpt lat="43.0849913" lon="11.1701616"><ele>310.0</ele><time>2026-04-26T14:44:39.597Z</time></trkpt><trkpt lat="43.0850838" lon="11.1701091"><ele>310.0</ele><time>2026-04-26T14:44:40.597Z</time></trkpt><trkpt lat="43.0851739" lon="11.1700423"><ele>311.2</ele><time>2026-04-26T14:44:41.598Z</time></trkpt><trkpt lat="43.0852597" lon="11.169969"><ele>312.4</ele><time>2026-04-26T14:44:42.597Z</time></trkpt><trkpt lat="43.0853394" lon="11.1698946"><ele>313.6</ele><time>2026-04-26T14:44:43.597Z</time></trkpt><trkpt lat="43.0854147" lon="11.1698197"><ele>314.8</ele><time>2026-04-26T14:44:44.598Z</time></trkpt><trkpt lat="43.0854975" lon="11.1697476"><ele>316.0</ele><time>2026-04-26T14:44:45.597Z</time></trkpt><trkpt lat="43.0855704" lon="11.1696844"><ele>316.8333333333333</ele><time>2026-04-26T14:44:46.597Z</time></trkpt><trkpt lat="43.0856415" lon="11.1696308"><ele>317.66666666666663</ele><time>2026-04-26T14:44:47.597Z</time></trkpt><trkpt lat="43.0857097" lon="11.1695755"><ele>318.5</ele><time>2026-04-26T14:44:48.597Z</time></trkpt><trkpt lat="43.0857824" lon="11.1695018"><ele>319.3333333333333</ele><time>2026-04-26T14:44:49.597Z</time></trkpt><trkpt lat="43.0858618" lon="11.1694233"><ele>320.1666666666667</ele><time>2026-04-26T14:44:50.597Z</time></trkpt><trkpt lat="43.0859406" lon="11.1693537"><ele>321.0</ele><time>2026-04-26T14:44:51.598Z</time></trkpt><trkpt lat="43.0860267" lon="11.1692957"><ele>322.6</ele><time>2026-04-26T14:44:52.597Z</time></trkpt><trkpt lat="43.0861154" lon="11.1692283"><ele>324.20000000000005</ele><time>2026-04-26T14:44:53.597Z</time></trkpt><trkpt lat="43.086214" lon="11.1691597"><ele>325.79999999999995</ele><time>2026-04-26T14:44:54.597Z</time></trkpt><trkpt lat="43.0863026" lon="11.169121"><ele>327.4</ele><time>2026-04-26T14:44:55.597Z</time></trkpt><trkpt lat="43.0863797" lon="11.1691222"><ele>329.0</ele><time>2026-04-26T14:44:56.597Z</time></trkpt><trkpt lat="43.086458" lon="11.1691355"><ele>329.0</ele><time>2026-04-26T14:44:57.597Z</time></trkpt><trkpt lat="43.0865291" lon="11.1691524"><ele>329.0</ele><time>2026-04-26T14:44:58.597Z</time></trkpt><trkpt lat="43.0865926" lon="11.1691637"><ele>329.0</ele><time>2026-04-26T14:44:59.597Z</time></trkpt><trkpt lat="43.0866622" lon="11.1691885"><ele>329.0</ele><time>2026-04-26T14:45:02.597Z</time></trkpt><trkpt lat="43.0867271" lon="11.1692751"><ele>329.0</ele><time>2026-04-26T14:45:13.597Z</time></trkpt><trkpt lat="43.0868277" lon="11.1694039"><ele>329.0</ele><time>2026-04-26T14:45:15.597Z</time></trkpt><trkpt lat="43.0868882" lon="11.1694903"><ele>330.6666666666667</ele><time>2026-04-26T14:45:16.597Z</time></trkpt><trkpt lat="43.0869545" lon="11.1695692"><ele>332.33333333333337</ele><time>2026-04-26T14:45:17.598Z</time></trkpt><trkpt lat="43.0870213" lon="11.1696175"><ele>334.0</ele><time>2026-04-26T14:45:18.598Z</time></trkpt><trkpt lat="43.0870849" lon="11.1696517"><ele>335.6666666666667</ele><time>2026-04-26T14:45:19.597Z</time></trkpt><trkpt lat="43.0871597" lon="11.1696702"><ele>337.3333333333333</ele><time>2026-04-26T14:45:20.597Z</time></trkpt><trkpt lat="43.0872583" lon="11.1696906"><ele>339.0</ele><time>2026-04-26T14:45:21.597Z</time></trkpt><trkpt lat="43.0873554" lon="11.1697139"><ele>341.79999999999995</ele><time>2026-04-26T14:45:22.597Z</time></trkpt><trkpt lat="43.087446" lon="11.1697154"><ele>344.59999999999997</ele><time>2026-04-26T14:45:23.598Z</time></trkpt><trkpt lat="43.0875416" lon="11.1697013"><ele>347.4</ele><time>2026-04-26T14:45:24.598Z</time></trkpt><trkpt lat="43.0876423" lon="11.1696888"><ele>350.2</ele><time>2026-04-26T14:45:25.597Z</time></trkpt><trkpt lat="43.0877345" lon="11.1696584"><ele>353.0</ele><time>2026-04-26T14:45:26.597Z</time></trkpt><trkpt lat="43.0878296" lon="11.1696243"><ele>353.0</ele><time>2026-04-26T14:45:27.597Z</time></trkpt><trkpt lat="43.0879295" lon="11.1696025"><ele>353.0</ele><time>2026-04-26T14:45:28.597Z</time></trkpt><trkpt lat="43.0880207" lon="11.1695899"><ele>353.0</ele><time>2026-04-26T14:45:29.598Z</time></trkpt><trkpt lat="43.0880947" lon="11.1695751"><ele>353.0</ele><time>2026-04-26T14:45:30.597Z</time></trkpt><trkpt lat="43.0882186" lon="11.169564"><ele>353.0</ele><time>2026-04-26T14:45:32.597Z</time></trkpt><trkpt lat="43.0882991" lon="11.1695716"><ele>355.83333333333337</ele><time>2026-04-26T14:45:33.598Z</time></trkpt><trkpt lat="43.0883838" lon="11.1695882"><ele>358.6666666666667</ele><time>2026-04-26T14:45:34.598Z</time></trkpt><trkpt lat="43.0884509" lon="11.1696021"><ele>361.5</ele><time>2026-04-26T14:45:35.597Z</time></trkpt><trkpt lat="43.0885361" lon="11.1696284"><ele>364.3333333333333</ele><time>2026-04-26T14:45:37.597Z</time></trkpt><trkpt lat="43.0886115" lon="11.1696537"><ele>367.16666666666663</ele><time>2026-04-26T14:45:44.598Z</time></trkpt><trkpt lat="43.0886903" lon="11.169678"><ele>370.0</ele><time>2026-04-26T14:45:47.597Z</time></trkpt><trkpt lat="43.088758" lon="11.1696989"><ele>370.0</ele><time>2026-04-26T14:45:50.597Z</time></trkpt><trkpt lat="43.0888537" lon="11.1696723"><ele>370.0</ele><time>2026-04-26T14:45:53.597Z</time></trkpt><trkpt lat="43.0889524" lon="11.1696544"><ele>370.0</ele><time>2026-04-26T14:45:55.597Z</time></trkpt><trkpt lat="43.0890793" lon="11.1696674"><ele>370.0</ele><time>2026-04-26T14:45:57.597Z</time></trkpt><trkpt lat="43.0891506" lon="11.1696866"><ele>370.0</ele><time>2026-04-26T14:45:58.597Z</time></trkpt><trkpt lat="43.0892238" lon="11.1697062"><ele>371.4285714285714</ele><time>2026-04-26T14:45:59.597Z</time></trkpt><trkpt lat="43.0892986" lon="11.1697268"><ele>372.85714285714283</ele><time>2026-04-26T14:46:00.597Z</time></trkpt><trkpt lat="43.0893725" lon="11.1697483"><ele>374.2857142857143</ele><time>2026-04-26T14:46:01.597Z</time></trkpt><trkpt lat="43.0894465" lon="11.1697615"><ele>375.71428571428567</ele><time>2026-04-26T14:46:02.597Z</time></trkpt><trkpt lat="43.0895172" lon="11.1697724"><ele>377.14285714285717</ele><time>2026-04-26T14:46:03.597Z</time></trkpt><trkpt lat="43.0895908" lon="11.1697747"><ele>378.57142857142856</ele><time>2026-04-26T14:46:04.597Z</time></trkpt><trkpt lat="43.0896678" lon="11.1697761"><ele>380.0</ele><time>2026-04-26T14:46:05.597Z</time></trkpt><trkpt lat="43.0897489" lon="11.1697785"><ele>380.0</ele><time>2026-04-26T14:46:06.597Z</time></trkpt><trkpt lat="43.0898344" lon="11.1697979"><ele>380.0</ele><time>2026-04-26T14:46:07.596Z</time></trkpt><trkpt lat="43.0899317" lon="11.1698122"><ele>380.0</ele><time>2026-04-26T14:46:08.596Z</time></trkpt><trkpt lat="43.0900321" lon="11.1698396"><ele>380.0</ele><time>2026-04-26T14:46:09.596Z</time></trkpt><trkpt lat="43.0901493" lon="11.16986"><ele>380.0</ele><time>2026-04-26T14:46:10.596Z</time></trkpt><trkpt lat="43.0902578" lon="11.1698719"><ele>376.2</ele><time>2026-04-26T14:46:11.596Z</time></trkpt><trkpt lat="43.0903542" lon="11.1698916"><ele>372.4</ele><time>2026-04-26T14:46:12.596Z</time></trkpt><trkpt lat="43.0904463" lon="11.1699153"><ele>368.6</ele><time>2026-04-26T14:46:13.596Z</time></trkpt><trkpt lat="43.0905359" lon="11.1699349"><ele>364.8</ele><time>2026-04-26T14:46:14.596Z</time></trkpt><trkpt lat="43.0906175" lon="11.1699312"><ele>361.0</ele><time>2026-04-26T14:46:15.596Z</time></trkpt><trkpt lat="43.0907021" lon="11.1699057"><ele>360.16666666666663</ele><time>2026-04-26T14:46:16.596Z</time></trkpt><trkpt lat="43.090785" lon="11.1698657"><ele>359.3333333333333</ele><time>2026-04-26T14:46:17.596Z</time></trkpt><trkpt lat="43.0908657" lon="11.1698086"><ele>358.5</ele><time>2026-04-26T14:46:18.596Z</time></trkpt><trkpt lat="43.0909292" lon="11.1697394"><ele>357.6666666666667</ele><time>2026-04-26T14:46:19.596Z</time></trkpt><trkpt lat="43.0909885" lon="11.1696554"><ele>356.83333333333337</ele><time>2026-04-26T14:46:20.596Z</time></trkpt><trkpt lat="43.0910512" lon="11.1695678"><ele>356.0</ele><time>2026-04-26T14:46:21.596Z</time></trkpt><trkpt lat="43.0911094" lon="11.1694874"><ele>358.83333333333337</ele><time>2026-04-26T14:46:22.596Z</time></trkpt><trkpt lat="43.0911776" lon="11.1694467"><ele>361.6666666666667</ele><time>2026-04-26T14:46:23.596Z</time></trkpt><trkpt lat="43.0912649" lon="11.1694181"><ele>364.5</ele><time>2026-04-26T14:46:24.596Z</time></trkpt><trkpt lat="43.091363" lon="11.1693864"><ele>367.3333333333333</ele><time>2026-04-26T14:46:25.596Z</time></trkpt><trkpt lat="43.091445" lon="11.1693521"><ele>370.16666666666663</ele><time>2026-04-26T14:46:26.596Z</time></trkpt><trkpt lat="43.0915118" lon="11.169326"><ele>373.0</ele><time>2026-04-26T14:46:27.596Z</time></trkpt><trkpt lat="43.091579" lon="11.1692959"><ele>374.42857142857144</ele><time>2026-04-26T14:46:28.596Z</time></trkpt><trkpt lat="43.0916519" lon="11.169263"><ele>375.8571428571429</ele><time>2026-04-26T14:46:29.596Z</time></trkpt><trkpt lat="43.0917206" lon="11.1692285"><ele>377.2857142857143</ele><time>2026-04-26T14:46:30.597Z</time></trkpt><trkpt lat="43.0917827" lon="11.1692007"><ele>378.7142857142857</ele><time>2026-04-26T14:46:31.596Z</time></trkpt><trkpt lat="43.0918383" lon="11.1691506"><ele>380.1428571428571</ele><time>2026-04-26T14:46:33.596Z</time></trkpt><trkpt lat="43.0918918" lon="11.1690798"><ele>381.57142857142856</ele><time>2026-04-26T14:46:48.596Z</time></trkpt><trkpt lat="43.0919531" lon="11.1689842"><ele>383.0</ele><time>2026-04-26T14:46:59.596Z</time></trkpt><trkpt lat="43.0919857" lon="11.1688856"><ele>383.0</ele><time>2026-04-26T14:47:01.596Z</time></trkpt><trkpt lat="43.0919223" lon="11.1688095"><ele>383.0</ele><time>2026-04-26T14:47:05.597Z</time></trkpt><trkpt lat="43.0918579" lon="11.1688459"><ele>383.0</ele><time>2026-04-26T14:47:49.596Z</time></trkpt><trkpt lat="43.0919289" lon="11.1688183"><ele>383.0</ele><time>2026-04-26T14:48:06.596Z</time></trkpt><trkpt lat="43.091996" lon="11.1688623"><ele>383.0</ele><time>2026-04-26T14:48:09.596Z</time></trkpt><trkpt lat="43.0919718" lon="11.1689518"><ele>383.0</ele><time>2026-04-26T14:48:11.597Z</time></trkpt><trkpt lat="43.0919335" lon="11.1690286"><ele>383.0</ele><time>2026-04-26T14:48:13.596Z</time></trkpt><trkpt lat="43.0918767" lon="11.1690852"><ele>381.33333333333337</ele><time>2026-04-26T14:48:15.596Z</time></trkpt><trkpt lat="43.091796" lon="11.1691815"><ele>379.6666666666667</ele><time>2026-04-26T14:48:17.596Z</time></trkpt><trkpt lat="43.0917466" lon="11.1692381"><ele>378.0</ele><time>2026-04-26T14:48:18.596Z</time></trkpt><trkpt lat="43.0916553" lon="11.16928"><ele>376.3333333333333</ele><time>2026-04-26T14:48:20.596Z</time></trkpt><trkpt lat="43.0915825" lon="11.1692941"><ele>374.66666666666663</ele><time>2026-04-26T14:48:22.596Z</time></trkpt><trkpt lat="43.0915716" lon="11.1691882"><ele>373.0</ele><time>2026-04-26T14:48:37.596Z</time></trkpt><trkpt lat="43.0915877" lon="11.1690493"><ele>374.66666666666663</ele><time>2026-04-26T14:48:39.597Z</time></trkpt><trkpt lat="43.0916075" lon="11.1689628"><ele>376.3333333333333</ele><time>2026-04-26T14:48:40.596Z</time></trkpt><trkpt lat="43.0916297" lon="11.1688293"><ele>378.0</ele><time>2026-04-26T14:48:42.596Z</time></trkpt><trkpt lat="43.0916231" lon="11.168715"><ele>379.6666666666667</ele><time>2026-04-26T14:48:44.596Z</time></trkpt><trkpt lat="43.0915478" lon="11.168651"><ele>381.33333333333337</ele><time>2026-04-26T14:48:50.596Z</time></trkpt><trkpt lat="43.0914502" lon="11.1686588"><ele>383.0</ele><time>2026-04-26T14:48:52.596Z</time></trkpt><trkpt lat="43.0913485" lon="11.1686632"><ele>383.0</ele><time>2026-04-26T14:48:54.596Z</time></trkpt><trkpt lat="43.0912717" lon="11.1686448"><ele>383.0</ele><time>2026-04-26T14:48:56.596Z</time></trkpt><trkpt lat="43.0913492" lon="11.1686701"><ele>383.0</ele><time>2026-04-26T14:58:35.595Z</time></trkpt><trkpt lat="43.0914221" lon="11.1686852"><ele>383.0</ele><time>2026-04-26T14:58:37.595Z</time></trkpt><trkpt lat="43.0914898" lon="11.1686691"><ele>383.0</ele><time>2026-04-26T14:58:39.596Z</time></trkpt><trkpt lat="43.0915789" lon="11.1686591"><ele>383.0</ele><time>2026-04-26T14:58:41.595Z</time></trkpt><trkpt lat="43.0916533" lon="11.1686525"><ele>383.0</ele><time>2026-04-26T14:58:44.595Z</time></trkpt><trkpt lat="43.0917026" lon="11.1687235"><ele>383.0</ele><time>2026-04-26T14:58:47.595Z</time></trkpt><trkpt lat="43.0916804" lon="11.1688223"><ele>383.0</ele><time>2026-04-26T14:58:51.595Z</time></trkpt><trkpt lat="43.0916717" lon="11.1689125"><ele>383.0</ele><time>2026-04-26T14:58:53.595Z</time></trkpt><trkpt lat="43.091652" lon="11.1690216"><ele>383.0</ele><time>2026-04-26T14:58:55.595Z</time></trkpt><trkpt lat="43.0916215" lon="11.1691446"><ele>383.0</ele><time>2026-04-26T14:58:58.595Z</time></trkpt><trkpt lat="43.0916221" lon="11.1692352"><ele>383.0</ele><time>2026-04-26T14:59:00.595Z</time></trkpt><trkpt lat="43.0916868" lon="11.1692777"><ele>383.0</ele><time>2026-04-26T14:59:04.595Z</time></trkpt><trkpt lat="43.091751" lon="11.1692399"><ele>383.0</ele><time>2026-04-26T14:59:06.595Z</time></trkpt><trkpt lat="43.0918063" lon="11.1691956"><ele>383.0</ele><time>2026-04-26T14:59:08.595Z</time></trkpt><trkpt lat="43.0918549" lon="11.1691238"><ele>383.0</ele><time>2026-04-26T14:59:10.595Z</time></trkpt><trkpt lat="43.0919012" lon="11.1690515"><ele>383.0</ele><time>2026-04-26T14:59:12.595Z</time></trkpt><trkpt lat="43.0919563" lon="11.168986"><ele>383.0</ele><time>2026-04-26T14:59:14.595Z</time></trkpt><trkpt lat="43.092017" lon="11.1689538"><ele>383.0</ele><time>2026-04-26T14:59:16.595Z</time></trkpt><trkpt lat="43.092122" lon="11.1689244"><ele>383.0</ele><time>2026-04-26T14:59:18.595Z</time></trkpt><trkpt lat="43.0922148" lon="11.1688814"><ele>383.0</ele><time>2026-04-26T14:59:20.595Z</time></trkpt><trkpt lat="43.0923107" lon="11.168854"><ele>383.0</ele><time>2026-04-26T14:59:22.595Z</time></trkpt><trkpt lat="43.0923866" lon="11.1688415"><ele>383.0</ele><time>2026-04-26T14:59:24.595Z</time></trkpt><trkpt lat="43.092431" lon="11.1687517"><ele>382.79999999999995</ele><time>2026-04-26T14:59:43.594Z</time></trkpt><trkpt lat="43.0924544" lon="11.1686288"><ele>382.6</ele><time>2026-04-26T14:59:45.594Z</time></trkpt><trkpt lat="43.0924666" lon="11.1685128"><ele>382.4</ele><time>2026-04-26T14:59:47.594Z</time></trkpt><trkpt lat="43.0924811" lon="11.1683866"><ele>382.20000000000005</ele><time>2026-04-26T14:59:50.594Z</time></trkpt><trkpt lat="43.0924971" lon="11.1682605"><ele>382.0</ele><time>2026-04-26T14:59:53.595Z</time></trkpt><trkpt lat="43.0924869" lon="11.1681402"><ele>382.0</ele><time>2026-04-26T14:59:55.594Z</time></trkpt><trkpt lat="43.0924621" lon="11.1680367"><ele>382.0</ele><time>2026-04-26T14:59:57.595Z</time></trkpt><trkpt lat="43.0924015" lon="11.1679982"><ele>382.0</ele><time>2026-04-26T15:00:05.594Z</time></trkpt><trkpt lat="43.0923442" lon="11.1680708"><ele>382.0</ele><time>2026-04-26T15:00:07.594Z</time></trkpt><trkpt lat="43.0922572" lon="11.1680939"><ele>382.0</ele><time>2026-04-26T15:00:10.594Z</time></trkpt><trkpt lat="43.0921786" lon="11.1680677"><ele>382.0</ele><time>2026-04-26T15:00:13.594Z</time></trkpt><trkpt lat="43.092147" lon="11.1679578"><ele>385.66666666666663</ele><time>2026-04-26T15:01:10.594Z</time></trkpt><trkpt lat="43.0921691" lon="11.167842"><ele>389.3333333333333</ele><time>2026-04-26T15:01:13.594Z</time></trkpt><trkpt lat="43.0921939" lon="11.1677154"><ele>393.0</ele><time>2026-04-26T15:01:16.594Z</time></trkpt><trkpt lat="43.0921949" lon="11.167618"><ele>396.66666666666663</ele><time>2026-04-26T15:01:19.594Z</time></trkpt><trkpt lat="43.0921414" lon="11.1675636"><ele>400.3333333333333</ele><time>2026-04-26T15:01:22.594Z</time></trkpt><trkpt lat="43.0920772" lon="11.1675462"><ele>404.0</ele><time>2026-04-26T15:01:25.595Z</time></trkpt><trkpt lat="43.0920166" lon="11.1675714"><ele>404.0</ele><time>2026-04-26T15:02:30.594Z</time></trkpt><trkpt lat="43.0920825" lon="11.1675604"><ele>404.0</ele><time>2026-04-26T15:02:38.594Z</time></trkpt><trkpt lat="43.0921495" lon="11.1676114"><ele>404.0</ele><time>2026-04-26T15:02:42.595Z</time></trkpt><trkpt lat="43.0922119" lon="11.1676298"><ele>404.0</ele><time>2026-04-26T15:02:46.594Z</time></trkpt><trkpt lat="43.0922757" lon="11.1675904"><ele>404.0</ele><time>2026-04-26T15:02:52.594Z</time></trkpt><trkpt lat="43.0922931" lon="11.1674846"><ele>404.0</ele><time>2026-04-26T15:02:57.595Z</time></trkpt><trkpt lat="43.0922881" lon="11.1675844"><ele>404.0</ele><time>2026-04-26T15:03:26.594Z</time></trkpt><trkpt lat="43.0922877" lon="11.1676772"><ele>404.0</ele><time>2026-04-26T15:03:50.594Z</time></trkpt><trkpt lat="43.0922521" lon="11.1677654"><ele>404.0</ele><time>2026-04-26T15:03:55.594Z</time></trkpt><trkpt lat="43.0922076" lon="11.1678336"><ele>404.0</ele><time>2026-04-26T15:03:58.594Z</time></trkpt><trkpt lat="43.0922495" lon="11.1679044"><ele>404.0</ele><time>2026-04-26T15:04:11.594Z</time></trkpt><trkpt lat="43.0923026" lon="11.1679525"><ele>404.0</ele><time>2026-04-26T15:04:15.594Z</time></trkpt><trkpt lat="43.0923504" lon="11.1680299"><ele>404.0</ele><time>2026-04-26T15:04:20.594Z</time></trkpt><trkpt lat="43.092424" lon="11.1680485"><ele>404.0</ele><time>2026-04-26T15:04:28.594Z</time></trkpt><trkpt lat="43.0924822" lon="11.1681229"><ele>398.0</ele><time>2026-04-26T15:04:31.595Z</time></trkpt><trkpt lat="43.0925131" lon="11.1682034"><ele>392.0</ele><time>2026-04-26T15:04:33.595Z</time></trkpt><trkpt lat="43.0925498" lon="11.1682959"><ele>386.0</ele><time>2026-04-26T15:04:36.594Z</time></trkpt><trkpt lat="43.0926016" lon="11.1683608"><ele>380.0</ele><time>2026-04-26T15:04:39.594Z</time></trkpt><trkpt lat="43.0926716" lon="11.1683432"><ele>374.0</ele><time>2026-04-26T15:04:45.594Z</time></trkpt><trkpt lat="43.0927323" lon="11.1682951"><ele>368.0</ele><time>2026-04-26T15:04:48.594Z</time></trkpt><trkpt lat="43.0926737" lon="11.1683691"><ele>362.0</ele><time>2026-04-26T15:05:00.594Z</time></trkpt><trkpt lat="43.0925791" lon="11.1683765"><ele>362.0</ele><time>2026-04-26T15:05:03.595Z</time></trkpt><trkpt lat="43.0925042" lon="11.1684077"><ele>362.0</ele><time>2026-04-26T15:05:06.594Z</time></trkpt><trkpt lat="43.0924746" lon="11.1685152"><ele>362.0</ele><time>2026-04-26T15:05:09.594Z</time></trkpt><trkpt lat="43.0924525" lon="11.1686496"><ele>362.0</ele><time>2026-04-26T15:05:12.595Z</time></trkpt><trkpt lat="43.0924263" lon="11.1687527"><ele>362.0</ele><time>2026-04-26T15:05:14.594Z</time></trkpt><trkpt lat="43.0924043" lon="11.1688372"><ele>362.0</ele><time>2026-04-26T15:05:17.594Z</time></trkpt><trkpt lat="43.0924875" lon="11.1688305"><ele>362.0</ele><time>2026-04-26T15:05:23.594Z</time></trkpt><trkpt lat="43.0925697" lon="11.1687948"><ele>362.0</ele><time>2026-04-26T15:05:25.594Z</time></trkpt><trkpt lat="43.0926424" lon="11.1687688"><ele>362.0</ele><time>2026-04-26T15:05:27.594Z</time></trkpt><trkpt lat="43.0926991" lon="11.1686713"><ele>362.0</ele><time>2026-04-26T15:05:31.594Z</time></trkpt><trkpt lat="43.092746" lon="11.1686131"><ele>362.0</ele><time>2026-04-26T15:05:34.594Z</time></trkpt><trkpt lat="43.0928133" lon="11.1685635"><ele>362.0</ele><time>2026-04-26T15:06:06.594Z</time></trkpt><trkpt lat="43.0927547" lon="11.1686241"><ele>362.0</ele><time>2026-04-26T15:06:12.593Z</time></trkpt><trkpt lat="43.092827" lon="11.1686633"><ele>362.0</ele><time>2026-04-26T15:06:28.593Z</time></trkpt><trkpt lat="43.0929006" lon="11.1686484"><ele>362.0</ele><time>2026-04-26T15:06:35.593Z</time></trkpt><trkpt lat="43.0929701" lon="11.1686115"><ele>362.0</ele><time>2026-04-26T15:06:38.593Z</time></trkpt><trkpt lat="43.0930359" lon="11.1686157"><ele>362.0</ele><time>2026-04-26T15:06:40.593Z</time></trkpt><trkpt lat="43.0931064" lon="11.1685949"><ele>362.0</ele><time>2026-04-26T15:06:42.593Z</time></trkpt><trkpt lat="43.0931716" lon="11.1685587"><ele>362.0</ele><time>2026-04-26T15:06:44.593Z</time></trkpt><trkpt lat="43.0932361" lon="11.1685312"><ele>361.1666666666667</ele><time>2026-04-26T15:06:46.593Z</time></trkpt><trkpt lat="43.0933327" lon="11.1685205"><ele>360.33333333333337</ele><time>2026-04-26T15:06:49.593Z</time></trkpt><trkpt lat="43.0934217" lon="11.1685223"><ele>359.5</ele><time>2026-04-26T15:06:51.593Z</time></trkpt><trkpt lat="43.0934889" lon="11.1684926"><ele>358.6666666666667</ele><time>2026-04-26T15:06:53.593Z</time></trkpt><trkpt lat="43.0935387" lon="11.1684112"><ele>357.8333333333333</ele><time>2026-04-26T15:06:56.593Z</time></trkpt><trkpt lat="43.0936043" lon="11.1683591"><ele>357.0</ele><time>2026-04-26T15:07:35.593Z</time></trkpt><trkpt lat="43.0936601" lon="11.1682918"><ele>357.0</ele><time>2026-04-26T15:07:57.594Z</time></trkpt><trkpt lat="43.0937346" lon="11.168274"><ele>357.0</ele><time>2026-04-26T15:08:01.593Z</time></trkpt><trkpt lat="43.0938196" lon="11.1682454"><ele>357.0</ele><time>2026-04-26T15:08:04.594Z</time></trkpt><trkpt lat="43.0938872" lon="11.1681996"><ele>357.0</ele><time>2026-04-26T15:08:06.593Z</time></trkpt><trkpt lat="43.0939693" lon="11.1681417"><ele>357.0</ele><time>2026-04-26T15:08:09.593Z</time></trkpt><trkpt lat="43.0940281" lon="11.1681084"><ele>357.0</ele><time>2026-04-26T15:08:11.594Z</time></trkpt><trkpt lat="43.0940926" lon="11.1680868"><ele>358.2857142857143</ele><time>2026-04-26T15:08:13.593Z</time></trkpt><trkpt lat="43.0941661" lon="11.1680759"><ele>359.57142857142856</ele><time>2026-04-26T15:08:15.593Z</time></trkpt><trkpt lat="43.0942376" lon="11.1680554"><ele>360.8571428571429</ele><time>2026-04-26T15:08:17.593Z</time></trkpt><trkpt lat="43.0943035" lon="11.1680283"><ele>362.1428571428571</ele><time>2026-04-26T15:08:19.593Z</time></trkpt><trkpt lat="43.0943723" lon="11.1680044"><ele>363.42857142857144</ele><time>2026-04-26T15:08:24.593Z</time></trkpt><trkpt lat="43.0944035" lon="11.1679108"><ele>364.7142857142857</ele><time>2026-04-26T15:08:43.594Z</time></trkpt><trkpt lat="43.0943928" lon="11.1679966"><ele>366.0</ele><time>2026-04-26T15:08:51.594Z</time></trkpt><trkpt lat="43.0943531" lon="11.1680808"><ele>366.0</ele><time>2026-04-26T15:08:55.593Z</time></trkpt><trkpt lat="43.0942905" lon="11.1680526"><ele>366.0</ele><time>2026-04-26T15:08:58.593Z</time></trkpt><trkpt lat="43.0942159" lon="11.1680556"><ele>366.0</ele><time>2026-04-26T15:09:00.593Z</time></trkpt><trkpt lat="43.0941049" lon="11.1680703"><ele>366.0</ele><time>2026-04-26T15:09:02.593Z</time></trkpt><trkpt lat="43.094016" lon="11.1681012"><ele>366.0</ele><time>2026-04-26T15:09:04.593Z</time></trkpt><trkpt lat="43.0939345" lon="11.1681471"><ele>366.0</ele><time>2026-04-26T15:09:06.593Z</time></trkpt><trkpt lat="43.0938618" lon="11.1681951"><ele>364.5</ele><time>2026-04-26T15:09:08.593Z</time></trkpt><trkpt lat="43.0937841" lon="11.1682237"><ele>363.0</ele><time>2026-04-26T15:09:10.593Z</time></trkpt><trkpt lat="43.0936931" lon="11.1682319"><ele>361.5</ele><time>2026-04-26T15:09:12.593Z</time></trkpt><trkpt lat="43.0936419" lon="11.168305"><ele>360.0</ele><time>2026-04-26T15:09:15.594Z</time></trkpt><trkpt lat="43.0935939" lon="11.1683969"><ele>358.5</ele><time>2026-04-26T15:09:18.593Z</time></trkpt><trkpt lat="43.0935478" lon="11.1684631"><ele>357.0</ele><time>2026-04-26T15:09:20.593Z</time></trkpt><trkpt lat="43.0934839" lon="11.1685139"><ele>357.0</ele><time>2026-04-26T15:09:22.594Z</time></trkpt><trkpt lat="43.0934112" lon="11.168532"><ele>357.0</ele><time>2026-04-26T15:09:24.593Z</time></trkpt><trkpt lat="43.0933189" lon="11.1685446"><ele>357.0</ele><time>2026-04-26T15:09:26.594Z</time></trkpt><trkpt lat="43.0932221" lon="11.1685603"><ele>357.0</ele><time>2026-04-26T15:09:28.593Z</time></trkpt><trkpt lat="43.0931625" lon="11.1685971"><ele>357.0</ele><time>2026-04-26T15:09:30.593Z</time></trkpt><trkpt lat="43.0930843" lon="11.1686302"><ele>357.0</ele><time>2026-04-26T15:09:32.593Z</time></trkpt><trkpt lat="43.0930017" lon="11.1686546"><ele>357.8333333333333</ele><time>2026-04-26T15:09:34.593Z</time></trkpt><trkpt lat="43.0929387" lon="11.1686906"><ele>358.6666666666667</ele><time>2026-04-26T15:09:36.593Z</time></trkpt><trkpt lat="43.0928432" lon="11.1687476"><ele>359.5</ele><time>2026-04-26T15:09:39.594Z</time></trkpt><trkpt lat="43.0927498" lon="11.1687783"><ele>360.33333333333337</ele><time>2026-04-26T15:09:41.593Z</time></trkpt><trkpt lat="43.0926651" lon="11.1687872"><ele>361.1666666666667</ele><time>2026-04-26T15:09:43.593Z</time></trkpt><trkpt lat="43.0925705" lon="11.1688097"><ele>362.0</ele><time>2026-04-26T15:09:45.593Z</time></trkpt><trkpt lat="43.0924926" lon="11.1688544"><ele>366.20000000000005</ele><time>2026-04-26T15:09:47.593Z</time></trkpt><trkpt lat="43.0924149" lon="11.1688793"><ele>370.4</ele><time>2026-04-26T15:09:49.594Z</time></trkpt><trkpt lat="43.0923442" lon="11.168874"><ele>374.6</ele><time>2026-04-26T15:09:51.593Z</time></trkpt><trkpt lat="43.0922447" lon="11.1688651"><ele>378.79999999999995</ele><time>2026-04-26T15:09:53.593Z</time></trkpt><trkpt lat="43.0921427" lon="11.1688885"><ele>383.0</ele><time>2026-04-26T15:09:55.593Z</time></trkpt><trkpt lat="43.0920283" lon="11.1689281"><ele>383.0</ele><time>2026-04-26T15:09:57.594Z</time></trkpt><trkpt lat="43.0919234" lon="11.1689894"><ele>383.0</ele><time>2026-04-26T15:09:59.593Z</time></trkpt><trkpt lat="43.0918533" lon="11.1690902"><ele>383.0</ele><time>2026-04-26T15:10:01.593Z</time></trkpt><trkpt lat="43.0917751" lon="11.169204"><ele>383.0</ele><time>2026-04-26T15:10:03.594Z</time></trkpt><trkpt lat="43.0916538" lon="11.1692637"><ele>381.33333333333337</ele><time>2026-04-26T15:10:05.593Z</time></trkpt><trkpt lat="43.0915832" lon="11.1692917"><ele>379.6666666666667</ele><time>2026-04-26T15:10:06.593Z</time></trkpt><trkpt lat="43.0915198" lon="11.1693223"><ele>378.0</ele><time>2026-04-26T15:10:07.593Z</time></trkpt><trkpt lat="43.0914113" lon="11.1693875"><ele>376.3333333333333</ele><time>2026-04-26T15:10:09.593Z</time></trkpt><trkpt lat="43.0913142" lon="11.1694663"><ele>374.66666666666663</ele><time>2026-04-26T15:10:11.593Z</time></trkpt><trkpt lat="43.0912488" lon="11.1694859"><ele>373.0</ele><time>2026-04-26T15:10:12.593Z</time></trkpt><trkpt lat="43.0911752" lon="11.169503"><ele>373.0</ele><time>2026-04-26T15:10:13.593Z</time></trkpt><trkpt lat="43.0911074" lon="11.1695359"><ele>373.0</ele><time>2026-04-26T15:10:14.593Z</time></trkpt><trkpt lat="43.0910438" lon="11.169576"><ele>373.0</ele><time>2026-04-26T15:10:15.593Z</time></trkpt><trkpt lat="43.0909902" lon="11.1696263"><ele>373.0</ele><time>2026-04-26T15:10:16.593Z</time></trkpt><trkpt lat="43.0909039" lon="11.1697606"><ele>373.0</ele><time>2026-04-26T15:10:18.593Z</time></trkpt><trkpt lat="43.0908434" lon="11.1698263"><ele>373.0</ele><time>2026-04-26T15:10:19.593Z</time></trkpt><trkpt lat="43.0907604" lon="11.1698847"><ele>371.0</ele><time>2026-04-26T15:10:20.593Z</time></trkpt><trkpt lat="43.090675" lon="11.1699252"><ele>369.0</ele><time>2026-04-26T15:10:21.593Z</time></trkpt><trkpt lat="43.0905877" lon="11.1699413"><ele>367.0</ele><time>2026-04-26T15:10:22.593Z</time></trkpt><trkpt lat="43.0905094" lon="11.1699389"><ele>365.0</ele><time>2026-04-26T15:10:23.593Z</time></trkpt><trkpt lat="43.090437" lon="11.1699263"><ele>363.0</ele><time>2026-04-26T15:10:24.593Z</time></trkpt><trkpt lat="43.0903679" lon="11.1699087"><ele>361.0</ele><time>2026-04-26T15:10:25.593Z</time></trkpt><trkpt lat="43.0902922" lon="11.1698889"><ele>361.0</ele><time>2026-04-26T15:10:26.593Z</time></trkpt><trkpt lat="43.0902091" lon="11.1698727"><ele>361.0</ele><time>2026-04-26T15:10:27.593Z</time></trkpt><trkpt lat="43.0901153" lon="11.1698555"><ele>361.0</ele><time>2026-04-26T15:10:28.593Z</time></trkpt><trkpt lat="43.0900173" lon="11.1698337"><ele>361.0</ele><time>2026-04-26T15:10:29.593Z</time></trkpt><trkpt lat="43.089916" lon="11.1698136"><ele>361.0</ele><time>2026-04-26T15:10:30.593Z</time></trkpt><trkpt lat="43.0898079" lon="11.1697854"><ele>365.75</ele><time>2026-04-26T15:10:31.593Z</time></trkpt><trkpt lat="43.0896893" lon="11.1697548"><ele>370.5</ele><time>2026-04-26T15:10:32.594Z</time></trkpt><trkpt lat="43.089577" lon="11.1697405"><ele>375.25</ele><time>2026-04-26T15:10:33.594Z</time></trkpt><trkpt lat="43.0894727" lon="11.1697229"><ele>380.0</ele><time>2026-04-26T15:10:34.593Z</time></trkpt><trkpt lat="43.0893627" lon="11.169697"><ele>380.0</ele><time>2026-04-26T15:10:35.593Z</time></trkpt><trkpt lat="43.0892639" lon="11.1696741"><ele>380.0</ele><time>2026-04-26T15:10:36.593Z</time></trkpt><trkpt lat="43.0891726" lon="11.1696517"><ele>380.0</ele><time>2026-04-26T15:10:37.593Z</time></trkpt><trkpt lat="43.0890627" lon="11.1696285"><ele>380.0</ele><time>2026-04-26T15:10:38.593Z</time></trkpt><trkpt lat="43.088956" lon="11.1696299"><ele>380.0</ele><time>2026-04-26T15:10:39.593Z</time></trkpt><trkpt lat="43.0888464" lon="11.1696509"><ele>378.0</ele><time>2026-04-26T15:10:40.594Z</time></trkpt><trkpt lat="43.0887425" lon="11.1696651"><ele>376.0</ele><time>2026-04-26T15:10:41.593Z</time></trkpt><trkpt lat="43.0886507" lon="11.1696645"><ele>374.0</ele><time>2026-04-26T15:10:42.593Z</time></trkpt><trkpt lat="43.0885515" lon="11.1696435"><ele>372.0</ele><time>2026-04-26T15:10:43.593Z</time></trkpt><trkpt lat="43.0884525" lon="11.1696061"><ele>370.0</ele><time>2026-04-26T15:10:44.593Z</time></trkpt><trkpt lat="43.088363" lon="11.1695794"><ele>370.0</ele><time>2026-04-26T15:10:45.593Z</time></trkpt><trkpt lat="43.0882874" lon="11.1695668"><ele>370.0</ele><time>2026-04-26T15:10:46.593Z</time></trkpt><trkpt lat="43.0882016" lon="11.1695592"><ele>370.0</ele><time>2026-04-26T15:10:47.593Z</time></trkpt><trkpt lat="43.0881116" lon="11.1695621"><ele>370.0</ele><time>2026-04-26T15:10:49.594Z</time></trkpt><trkpt lat="43.0880876" lon="11.169472"><ele>370.0</ele><time>2026-04-26T15:10:52.593Z</time></trkpt><trkpt lat="43.088128" lon="11.1693404"><ele>370.0</ele><time>2026-04-26T15:11:21.593Z</time></trkpt><trkpt lat="43.0881523" lon="11.1692481"><ele>370.0</ele><time>2026-04-26T15:11:22.593Z</time></trkpt><trkpt lat="43.0881842" lon="11.1691575"><ele>370.0</ele><time>2026-04-26T15:11:23.593Z</time></trkpt><trkpt lat="43.0882181" lon="11.169071"><ele>370.0</ele><time>2026-04-26T15:11:24.593Z</time></trkpt><trkpt lat="43.0882561" lon="11.1689887"><ele>370.0</ele><time>2026-04-26T15:11:25.593Z</time></trkpt><trkpt lat="43.0882952" lon="11.1688892"><ele>370.0</ele><time>2026-04-26T15:11:26.593Z</time></trkpt><trkpt lat="43.088336" lon="11.1687814"><ele>370.0</ele><time>2026-04-26T15:11:27.593Z</time></trkpt><trkpt lat="43.0883668" lon="11.1687051"><ele>370.0</ele><time>2026-04-26T15:12:22.593Z</time></trkpt><trkpt lat="43.0884152" lon="11.1686454"><ele>370.0</ele><time>2026-04-26T15:12:34.592Z</time></trkpt><trkpt lat="43.088468" lon="11.1685573"><ele>370.0</ele><time>2026-04-26T15:12:36.592Z</time></trkpt><trkpt lat="43.0885256" lon="11.1684291"><ele>370.0</ele><time>2026-04-26T15:12:38.592Z</time></trkpt><trkpt lat="43.0885558" lon="11.1683432"><ele>370.0</ele><time>2026-04-26T15:12:39.592Z</time></trkpt><trkpt lat="43.088616" lon="11.168218"><ele>370.0</ele><time>2026-04-26T15:12:41.592Z</time></trkpt><trkpt lat="43.0886755" lon="11.1680791"><ele>369.2</ele><time>2026-04-26T15:12:43.592Z</time></trkpt><trkpt lat="43.0887092" lon="11.1679995"><ele>368.4</ele><time>2026-04-26T15:12:44.592Z</time></trkpt><trkpt lat="43.0887428" lon="11.1679242"><ele>367.6</ele><time>2026-04-26T15:12:45.592Z</time></trkpt><trkpt lat="43.0888075" lon="11.1677851"><ele>366.8</ele><time>2026-04-26T15:12:47.592Z</time></trkpt><trkpt lat="43.0888782" lon="11.16765"><ele>366.0</ele><time>2026-04-26T15:12:49.592Z</time></trkpt><trkpt lat="43.0889573" lon="11.1674927"><ele>366.0</ele><time>2026-04-26T15:12:51.592Z</time></trkpt><trkpt lat="43.0890027" lon="11.1674037"><ele>366.0</ele><time>2026-04-26T15:12:52.592Z</time></trkpt><trkpt lat="43.0890405" lon="11.1673189"><ele>366.0</ele><time>2026-04-26T15:12:53.593Z</time></trkpt><trkpt lat="43.089072" lon="11.1672419"><ele>366.0</ele><time>2026-04-26T15:12:54.592Z</time></trkpt><trkpt lat="43.0890871" lon="11.1671417"><ele>366.0</ele><time>2026-04-26T15:12:55.592Z</time></trkpt><trkpt lat="43.0890913" lon="11.1670434"><ele>366.0</ele><time>2026-04-26T15:12:56.593Z</time></trkpt><trkpt lat="43.0891242" lon="11.1669141"><ele>369.0</ele><time>2026-04-26T15:12:58.593Z</time></trkpt><trkpt lat="43.0891995" lon="11.1668126"><ele>372.0</ele><time>2026-04-26T15:13:00.592Z</time></trkpt><trkpt lat="43.0893026" lon="11.1667244"><ele>375.0</ele><time>2026-04-26T15:13:02.592Z</time></trkpt><trkpt lat="43.0893636" lon="11.1666897"><ele>378.0</ele><time>2026-04-26T15:13:03.592Z</time></trkpt><trkpt lat="43.0894249" lon="11.1666471"><ele>381.0</ele><time>2026-04-26T15:13:04.593Z</time></trkpt><trkpt lat="43.0894915" lon="11.1666039"><ele>384.0</ele><time>2026-04-26T15:13:05.592Z</time></trkpt><trkpt lat="43.0895481" lon="11.1665551"><ele>384.6666666666667</ele><time>2026-04-26T15:13:06.592Z</time></trkpt><trkpt lat="43.0896077" lon="11.1665038"><ele>385.33333333333337</ele><time>2026-04-26T15:13:07.592Z</time></trkpt><trkpt lat="43.0896753" lon="11.1664537"><ele>386.0</ele><time>2026-04-26T15:13:08.592Z</time></trkpt><trkpt lat="43.0897487" lon="11.1664028"><ele>386.6666666666667</ele><time>2026-04-26T15:13:09.592Z</time></trkpt><trkpt lat="43.0898192" lon="11.1663547"><ele>387.33333333333337</ele><time>2026-04-26T15:13:10.593Z</time></trkpt><trkpt lat="43.0898861" lon="11.1663091"><ele>388.0</ele><time>2026-04-26T15:13:11.593Z</time></trkpt><trkpt lat="43.0899549" lon="11.1662624"><ele>388.00000000000006</ele><time>2026-04-26T15:13:12.592Z</time></trkpt><trkpt lat="43.0900201" lon="11.1662186"><ele>388.0</ele><time>2026-04-26T15:13:13.592Z</time></trkpt><trkpt lat="43.0900883" lon="11.1661802"><ele>388.0</ele><time>2026-04-26T15:13:14.592Z</time></trkpt><trkpt lat="43.0901563" lon="11.1661437"><ele>388.0</ele><time>2026-04-26T15:13:15.593Z</time></trkpt><trkpt lat="43.0902281" lon="11.1661091"><ele>388.00000000000006</ele><time>2026-04-26T15:13:16.592Z</time></trkpt><trkpt lat="43.0903045" lon="11.1660849"><ele>388.0</ele><time>2026-04-26T15:13:17.592Z</time></trkpt><trkpt lat="43.0903883" lon="11.1660707"><ele>388.0</ele><time>2026-04-26T15:13:18.593Z</time></trkpt><trkpt lat="43.0904796" lon="11.1660603"><ele>388.0</ele><time>2026-04-26T15:13:19.592Z</time></trkpt><trkpt lat="43.0905591" lon="11.1660609"><ele>388.0</ele><time>2026-04-26T15:13:20.592Z</time></trkpt><trkpt lat="43.0906289" lon="11.1660721"><ele>388.0</ele><time>2026-04-26T15:13:21.592Z</time></trkpt><trkpt lat="43.0907601" lon="11.1660601"><ele>388.0</ele><time>2026-04-26T15:13:23.592Z</time></trkpt><trkpt lat="43.0908375" lon="11.1660229"><ele>390.4285714285714</ele><time>2026-04-26T15:13:24.592Z</time></trkpt><trkpt lat="43.0909096" lon="11.1659917"><ele>392.8571428571429</ele><time>2026-04-26T15:13:25.592Z</time></trkpt><trkpt lat="43.0909849" lon="11.1659588"><ele>395.2857142857143</ele><time>2026-04-26T15:13:26.592Z</time></trkpt><trkpt lat="43.0910606" lon="11.1659154"><ele>397.71428571428567</ele><time>2026-04-26T15:13:27.592Z</time></trkpt><trkpt lat="43.0911315" lon="11.1658775"><ele>400.1428571428571</ele><time>2026-04-26T15:13:28.592Z</time></trkpt><trkpt lat="43.0911985" lon="11.1658617"><ele>402.57142857142856</ele><time>2026-04-26T15:13:29.592Z</time></trkpt><trkpt lat="43.0912607" lon="11.1658898"><ele>405.0</ele><time>2026-04-26T15:13:30.593Z</time></trkpt><trkpt lat="43.0913179" lon="11.165935"><ele>405.0</ele><time>2026-04-26T15:13:31.592Z</time></trkpt><trkpt lat="43.0913797" lon="11.1659885"><ele>405.0</ele><time>2026-04-26T15:13:32.592Z</time></trkpt><trkpt lat="43.0914433" lon="11.1660345"><ele>405.0</ele><time>2026-04-26T15:13:33.592Z</time></trkpt><trkpt lat="43.0915274" lon="11.1661356"><ele>405.0</ele><time>2026-04-26T15:13:35.592Z</time></trkpt><trkpt lat="43.0915606" lon="11.16621"><ele>405.0</ele><time>2026-04-26T15:13:36.592Z</time></trkpt><trkpt lat="43.0915955" lon="11.1662904"><ele>405.0</ele><time>2026-04-26T15:13:37.592Z</time></trkpt><trkpt lat="43.0916308" lon="11.166371"><ele>408.4</ele><time>2026-04-26T15:13:38.592Z</time></trkpt><trkpt lat="43.0917391" lon="11.1664307"><ele>411.8</ele><time>2026-04-26T15:13:40.592Z</time></trkpt><trkpt lat="43.0918328" lon="11.1663795"><ele>415.20000000000005</ele><time>2026-04-26T15:13:42.592Z</time></trkpt><trkpt lat="43.0919059" lon="11.166239"><ele>418.6</ele><time>2026-04-26T15:13:44.592Z</time></trkpt><trkpt lat="43.0919369" lon="11.1661563"><ele>422.0</ele><time>2026-04-26T15:13:45.592Z</time></trkpt><trkpt lat="43.0919744" lon="11.1659999"><ele>422.0</ele><time>2026-04-26T15:13:47.592Z</time></trkpt><trkpt lat="43.0920506" lon="11.1658653"><ele>422.0</ele><time>2026-04-26T15:13:49.592Z</time></trkpt><trkpt lat="43.0921124" lon="11.1657962"><ele>422.0</ele><time>2026-04-26T15:13:50.592Z</time></trkpt><trkpt lat="43.0921882" lon="11.1657339"><ele>422.0</ele><time>2026-04-26T15:13:51.592Z</time></trkpt><trkpt lat="43.0922716" lon="11.1656867"><ele>422.0</ele><time>2026-04-26T15:13:52.592Z</time></trkpt><trkpt lat="43.0923444" lon="11.1656545"><ele>424.0</ele><time>2026-04-26T15:13:53.592Z</time></trkpt><trkpt lat="43.0924522" lon="11.1655757"><ele>426.0</ele><time>2026-04-26T15:13:55.592Z</time></trkpt><trkpt lat="43.0924991" lon="11.1655175"><ele>428.00000000000006</ele><time>2026-04-26T15:13:56.592Z</time></trkpt><trkpt lat="43.0925401" lon="11.1654313"><ele>430.0</ele><time>2026-04-26T15:13:57.592Z</time></trkpt><trkpt lat="43.0925711" lon="11.1652892"><ele>432.0</ele><time>2026-04-26T15:13:58.592Z</time></trkpt><trkpt lat="43.0925966" lon="11.1651244"><ele>432.0</ele><time>2026-04-26T15:13:59.592Z</time></trkpt><trkpt lat="43.0926181" lon="11.1650052"><ele>432.0</ele><time>2026-04-26T15:14:00.592Z</time></trkpt><trkpt lat="43.0926349" lon="11.1649172"><ele>432.0</ele><time>2026-04-26T15:14:01.592Z</time></trkpt><trkpt lat="43.0926623" lon="11.1648361"><ele>432.0</ele><time>2026-04-26T15:14:02.592Z</time></trkpt><trkpt lat="43.0926994" lon="11.1647611"><ele>432.0</ele><time>2026-04-26T15:14:03.592Z</time></trkpt><trkpt lat="43.0927465" lon="11.1646851"><ele>432.0</ele><time>2026-04-26T15:14:04.592Z</time></trkpt><trkpt lat="43.0927959" lon="11.1646121"><ele>432.0</ele><time>2026-04-26T15:14:05.592Z</time></trkpt><trkpt lat="43.0928501" lon="11.1645391"><ele>430.40000000000003</ele><time>2026-04-26T15:14:06.592Z</time></trkpt><trkpt lat="43.0929184" lon="11.1644609"><ele>428.80000000000007</ele><time>2026-04-26T15:14:07.592Z</time></trkpt><trkpt lat="43.0929963" lon="11.1643849"><ele>427.2</ele><time>2026-04-26T15:14:08.592Z</time></trkpt><trkpt lat="43.0930726" lon="11.1643084"><ele>425.6</ele><time>2026-04-26T15:14:09.592Z</time></trkpt><trkpt lat="43.0931451" lon="11.1642314"><ele>424.0</ele><time>2026-04-26T15:14:10.592Z</time></trkpt><trkpt lat="43.0932123" lon="11.1641676"><ele>424.6666666666667</ele><time>2026-04-26T15:14:11.592Z</time></trkpt><trkpt lat="43.0932844" lon="11.1641044"><ele>425.33333333333337</ele><time>2026-04-26T15:14:12.592Z</time></trkpt><trkpt lat="43.0933586" lon="11.1640527"><ele>426.0</ele><time>2026-04-26T15:14:13.593Z</time></trkpt><trkpt lat="43.0934359" lon="11.1640261"><ele>426.66666666666663</ele><time>2026-04-26T15:14:14.592Z</time></trkpt><trkpt lat="43.0935202" lon="11.1639967"><ele>427.3333333333333</ele><time>2026-04-26T15:14:15.592Z</time></trkpt><trkpt lat="43.0936038" lon="11.1639831"><ele>428.0</ele><time>2026-04-26T15:14:16.592Z</time></trkpt><trkpt lat="43.0936844" lon="11.1639645"><ele>428.0</ele><time>2026-04-26T15:14:17.592Z</time></trkpt><trkpt lat="43.0937549" lon="11.163917"><ele>427.99999999999994</ele><time>2026-04-26T15:14:18.593Z</time></trkpt><trkpt lat="43.0938302" lon="11.163846"><ele>427.99999999999994</ele><time>2026-04-26T15:14:19.592Z</time></trkpt><trkpt lat="43.093915" lon="11.1637709"><ele>428.0</ele><time>2026-04-26T15:14:20.593Z</time></trkpt><trkpt lat="43.093994" lon="11.1636891"><ele>428.0</ele><time>2026-04-26T15:14:21.593Z</time></trkpt><trkpt lat="43.0940704" lon="11.1636079"><ele>429.66666666666663</ele><time>2026-04-26T15:14:22.592Z</time></trkpt><trkpt lat="43.0941451" lon="11.1635072"><ele>431.3333333333333</ele><time>2026-04-26T15:14:23.592Z</time></trkpt><trkpt lat="43.0942027" lon="11.1633975"><ele>433.0</ele><time>2026-04-26T15:14:24.592Z</time></trkpt><trkpt lat="43.0942401" lon="11.1632886"><ele>434.66666666666663</ele><time>2026-04-26T15:14:25.592Z</time></trkpt><trkpt lat="43.094276" lon="11.1631891"><ele>436.3333333333333</ele><time>2026-04-26T15:14:26.593Z</time></trkpt><trkpt lat="43.0943129" lon="11.1631117"><ele>438.0</ele><time>2026-04-26T15:14:27.592Z</time></trkpt><trkpt lat="43.0944134" lon="11.1630441"><ele>439.1666666666667</ele><time>2026-04-26T15:14:29.592Z</time></trkpt><trkpt lat="43.094479" lon="11.162905"><ele>440.33333333333337</ele><time>2026-04-26T15:14:31.592Z</time></trkpt><trkpt lat="43.0944939" lon="11.1628016"><ele>441.5</ele><time>2026-04-26T15:14:32.592Z</time></trkpt><trkpt lat="43.0945073" lon="11.1627011"><ele>442.6666666666667</ele><time>2026-04-26T15:14:33.592Z</time></trkpt><trkpt lat="43.0945422" lon="11.1626094"><ele>443.83333333333337</ele><time>2026-04-26T15:14:34.592Z</time></trkpt><trkpt lat="43.0945871" lon="11.1625326"><ele>445.0</ele><time>2026-04-26T15:14:35.592Z</time></trkpt><trkpt lat="43.0946243" lon="11.1624577"><ele>445.0</ele><time>2026-04-26T15:14:36.593Z</time></trkpt><trkpt lat="43.0946643" lon="11.1623698"><ele>445.0</ele><time>2026-04-26T15:14:37.592Z</time></trkpt><trkpt lat="43.0947053" lon="11.1622274"><ele>445.0</ele><time>2026-04-26T15:14:38.592Z</time></trkpt><trkpt lat="43.0947487" lon="11.1620717"><ele>445.0</ele><time>2026-04-26T15:14:39.592Z</time></trkpt><trkpt lat="43.0947981" lon="11.1619334"><ele>445.0</ele><time>2026-04-26T15:14:40.592Z</time></trkpt><trkpt lat="43.0948494" lon="11.1618122"><ele>445.33333333333337</ele><time>2026-04-26T15:14:41.592Z</time></trkpt><trkpt lat="43.0948981" lon="11.1617062"><ele>445.6666666666667</ele><time>2026-04-26T15:14:42.592Z</time></trkpt><trkpt lat="43.0949541" lon="11.1616142"><ele>446.0</ele><time>2026-04-26T15:14:43.592Z</time></trkpt><trkpt lat="43.0949882" lon="11.1614938"><ele>446.33333333333337</ele><time>2026-04-26T15:14:44.592Z</time></trkpt><trkpt lat="43.0949939" lon="11.1613801"><ele>446.6666666666667</ele><time>2026-04-26T15:14:45.592Z</time></trkpt><trkpt lat="43.0950196" lon="11.1612786"><ele>447.0</ele><time>2026-04-26T15:14:46.592Z</time></trkpt><trkpt lat="43.0950584" lon="11.1611636"><ele>451.0</ele><time>2026-04-26T15:14:47.592Z</time></trkpt><trkpt lat="43.0951045" lon="11.1610229"><ele>455.0</ele><time>2026-04-26T15:14:48.592Z</time></trkpt><trkpt lat="43.0951415" lon="11.1608674"><ele>459.0</ele><time>2026-04-26T15:14:49.592Z</time></trkpt><trkpt lat="43.0951748" lon="11.160698"><ele>463.0</ele><time>2026-04-26T15:14:50.592Z</time></trkpt><trkpt lat="43.0951962" lon="11.1605591"><ele>463.00000000000006</ele><time>2026-04-26T15:14:51.592Z</time></trkpt><trkpt lat="43.0952311" lon="11.1604807"><ele>463.0</ele><time>2026-04-26T15:14:52.592Z</time></trkpt><trkpt lat="43.0953133" lon="11.1603634"><ele>463.0</ele><time>2026-04-26T15:14:54.592Z</time></trkpt><trkpt lat="43.0953655" lon="11.1603133"><ele>463.0</ele><time>2026-04-26T15:14:55.592Z</time></trkpt><trkpt lat="43.0954252" lon="11.1602551"><ele>463.00000000000006</ele><time>2026-04-26T15:14:56.592Z</time></trkpt><trkpt lat="43.0954889" lon="11.1601758"><ele>463.0</ele><time>2026-04-26T15:14:57.592Z</time></trkpt><trkpt lat="43.0955402" lon="11.160095"><ele>463.0</ele><time>2026-04-26T15:14:58.592Z</time></trkpt><trkpt lat="43.0955943" lon="11.1600173"><ele>462.99999999999994</ele><time>2026-04-26T15:14:59.592Z</time></trkpt><trkpt lat="43.0956397" lon="11.1599222"><ele>463.0</ele><time>2026-04-26T15:15:00.592Z</time></trkpt><trkpt lat="43.0956518" lon="11.1598287"><ele>463.0</ele><time>2026-04-26T15:15:01.592Z</time></trkpt><trkpt lat="43.0956637" lon="11.1597376"><ele>462.99999999999994</ele><time>2026-04-26T15:15:02.592Z</time></trkpt><trkpt lat="43.0956788" lon="11.1596534"><ele>463.0</ele><time>2026-04-26T15:15:03.593Z</time></trkpt><trkpt lat="43.0957265" lon="11.1595785"><ele>463.0</ele><time>2026-04-26T15:15:05.593Z</time></trkpt><trkpt lat="43.0957792" lon="11.1595048"><ele>462.00000000000006</ele><time>2026-04-26T15:15:45.592Z</time></trkpt><trkpt lat="43.0958265" lon="11.1594056"><ele>461.0</ele><time>2026-04-26T15:15:48.593Z</time></trkpt><trkpt lat="43.0958822" lon="11.1593091"><ele>460.0</ele><time>2026-04-26T15:15:50.592Z</time></trkpt><trkpt lat="43.0959403" lon="11.1592143"><ele>459.0</ele><time>2026-04-26T15:15:52.592Z</time></trkpt><trkpt lat="43.0960083" lon="11.1590949"><ele>458.00000000000006</ele><time>2026-04-26T15:15:54.593Z</time></trkpt><trkpt lat="43.0960413" lon="11.1590196"><ele>457.0</ele><time>2026-04-26T15:15:55.592Z</time></trkpt><trkpt lat="43.0960708" lon="11.1589357"><ele>456.00000000000006</ele><time>2026-04-26T15:15:56.592Z</time></trkpt><trkpt lat="43.0961004" lon="11.1588467"><ele>455.0</ele><time>2026-04-26T15:15:57.592Z</time></trkpt><trkpt lat="43.0961357" lon="11.1587559"><ele>454.0</ele><time>2026-04-26T15:15:58.592Z</time></trkpt><trkpt lat="43.0961605" lon="11.158654"><ele>453.0</ele><time>2026-04-26T15:15:59.593Z</time></trkpt><trkpt lat="43.0961725" lon="11.1585478"><ele>452.00000000000006</ele><time>2026-04-26T15:16:00.592Z</time></trkpt><trkpt lat="43.0961823" lon="11.1584493"><ele>451.0</ele><time>2026-04-26T15:16:01.592Z</time></trkpt><trkpt lat="43.0962017" lon="11.1582986"><ele>451.33333333333337</ele><time>2026-04-26T15:16:03.592Z</time></trkpt><trkpt lat="43.0962409" lon="11.1581605"><ele>451.6666666666667</ele><time>2026-04-26T15:16:05.592Z</time></trkpt><trkpt lat="43.0962906" lon="11.1579983"><ele>452.0</ele><time>2026-04-26T15:16:07.592Z</time></trkpt><trkpt lat="43.0963169" lon="11.1579093"><ele>452.33333333333337</ele><time>2026-04-26T15:16:08.592Z</time></trkpt><trkpt lat="43.0963363" lon="11.1578255"><ele>452.6666666666667</ele><time>2026-04-26T15:16:09.593Z</time></trkpt><trkpt lat="43.0963431" lon="11.1577339"><ele>453.0</ele><time>2026-04-26T15:16:10.592Z</time></trkpt><trkpt lat="43.0963434" lon="11.1576363"><ele>453.0</ele><time>2026-04-26T15:16:11.592Z</time></trkpt><trkpt lat="43.0963407" lon="11.1575281"><ele>453.0</ele><time>2026-04-26T15:16:12.592Z</time></trkpt><trkpt lat="43.0963459" lon="11.1574244"><ele>453.0</ele><time>2026-04-26T15:16:13.593Z</time></trkpt><trkpt lat="43.0963591" lon="11.1573239"><ele>453.0</ele><time>2026-04-26T15:16:14.592Z</time></trkpt><trkpt lat="43.096372" lon="11.1572264"><ele>453.0</ele><time>2026-04-26T15:16:15.592Z</time></trkpt><trkpt lat="43.0963916" lon="11.1571193"><ele>453.0</ele><time>2026-04-26T15:16:16.592Z</time></trkpt><trkpt lat="43.0964141" lon="11.157004"><ele>454.0</ele><time>2026-04-26T15:16:17.593Z</time></trkpt><trkpt lat="43.0964325" lon="11.1568844"><ele>455.0</ele><time>2026-04-26T15:16:18.592Z</time></trkpt><trkpt lat="43.0964475" lon="11.1567683"><ele>456.0</ele><time>2026-04-26T15:16:19.592Z</time></trkpt><trkpt lat="43.0964649" lon="11.1566497"><ele>457.0</ele><time>2026-04-26T15:16:20.592Z</time></trkpt><trkpt lat="43.0964842" lon="11.1565326"><ele>458.0</ele><time>2026-04-26T15:16:21.592Z</time></trkpt><trkpt lat="43.0965058" lon="11.1564139"><ele>459.0</ele><time>2026-04-26T15:16:22.592Z</time></trkpt><trkpt lat="43.0965327" lon="11.156295"><ele>459.2</ele><time>2026-04-26T15:16:23.592Z</time></trkpt><trkpt lat="43.0965565" lon="11.15618"><ele>459.4</ele><time>2026-04-26T15:16:24.592Z</time></trkpt><trkpt lat="43.096581" lon="11.1560845"><ele>459.6</ele><time>2026-04-26T15:16:25.592Z</time></trkpt><trkpt lat="43.0966162" lon="11.1559399"><ele>459.8</ele><time>2026-04-26T15:16:27.592Z</time></trkpt><trkpt lat="43.096587" lon="11.1558088"><ele>460.0</ele><time>2026-04-26T15:16:29.592Z</time></trkpt><trkpt lat="43.0965322" lon="11.1556391"><ele>460.0</ele><time>2026-04-26T15:16:31.592Z</time></trkpt><trkpt lat="43.0965063" lon="11.1555255"><ele>460.0</ele><time>2026-04-26T15:16:32.592Z</time></trkpt><trkpt lat="43.0964811" lon="11.1553976"><ele>460.0</ele><time>2026-04-26T15:16:33.592Z</time></trkpt><trkpt lat="43.0964595" lon="11.1552607"><ele>460.0</ele><time>2026-04-26T15:16:34.592Z</time></trkpt><trkpt lat="43.0964353" lon="11.1551167"><ele>460.0</ele><time>2026-04-26T15:16:35.593Z</time></trkpt><trkpt lat="43.0964058" lon="11.1549672"><ele>460.2</ele><time>2026-04-26T15:16:36.592Z</time></trkpt><trkpt lat="43.0963739" lon="11.1548144"><ele>460.4</ele><time>2026-04-26T15:16:37.592Z</time></trkpt><trkpt lat="43.096341" lon="11.1546729"><ele>460.6</ele><time>2026-04-26T15:16:38.592Z</time></trkpt><trkpt lat="43.0963167" lon="11.1545424"><ele>460.8</ele><time>2026-04-26T15:16:39.592Z</time></trkpt><trkpt lat="43.0962977" lon="11.1544001"><ele>461.0</ele><time>2026-04-26T15:16:40.592Z</time></trkpt><trkpt lat="43.0962816" lon="11.1542598"><ele>461.0</ele><time>2026-04-26T15:16:41.592Z</time></trkpt><trkpt lat="43.0962685" lon="11.1541291"><ele>461.0</ele><time>2026-04-26T15:16:42.593Z</time></trkpt><trkpt lat="43.0962535" lon="11.1540073"><ele>461.0</ele><time>2026-04-26T15:16:43.592Z</time></trkpt><trkpt lat="43.0962286" lon="11.1538838"><ele>461.0</ele><time>2026-04-26T15:16:44.593Z</time></trkpt><trkpt lat="43.0961949" lon="11.1537514"><ele>461.0</ele><time>2026-04-26T15:16:45.592Z</time></trkpt><trkpt lat="43.0961509" lon="11.1536225"><ele>462.20000000000005</ele><time>2026-04-26T15:16:46.592Z</time></trkpt><trkpt lat="43.0960969" lon="11.1534866"><ele>463.40000000000003</ele><time>2026-04-26T15:16:47.593Z</time></trkpt><trkpt lat="43.0960389" lon="11.1533561"><ele>464.6</ele><time>2026-04-26T15:16:48.592Z</time></trkpt><trkpt lat="43.0959795" lon="11.1532277"><ele>465.8</ele><time>2026-04-26T15:16:49.592Z</time></trkpt><trkpt lat="43.0959147" lon="11.1531038"><ele>467.0</ele><time>2026-04-26T15:16:50.592Z</time></trkpt><trkpt lat="43.0958459" lon="11.152986"><ele>468.8</ele><time>2026-04-26T15:16:51.592Z</time></trkpt><trkpt lat="43.0957749" lon="11.1528781"><ele>470.6</ele><time>2026-04-26T15:16:52.593Z</time></trkpt><trkpt lat="43.095706" lon="11.1527744"><ele>472.40000000000003</ele><time>2026-04-26T15:16:53.592Z</time></trkpt><trkpt lat="43.0956441" lon="11.1526591"><ele>474.20000000000005</ele><time>2026-04-26T15:16:54.592Z</time></trkpt><trkpt lat="43.0955925" lon="11.1525334"><ele>476.0</ele><time>2026-04-26T15:16:55.592Z</time></trkpt><trkpt lat="43.0955494" lon="11.1523978"><ele>477.8</ele><time>2026-04-26T15:16:56.592Z</time></trkpt><trkpt lat="43.0954985" lon="11.1522699"><ele>479.6</ele><time>2026-04-26T15:16:57.592Z</time></trkpt><trkpt lat="43.0954322" lon="11.152165"><ele>481.4</ele><time>2026-04-26T15:16:58.593Z</time></trkpt><trkpt lat="43.0953543" lon="11.1520715"><ele>483.2</ele><time>2026-04-26T15:16:59.593Z</time></trkpt><trkpt lat="43.0952757" lon="11.1519872"><ele>485.0</ele><time>2026-04-26T15:17:00.592Z</time></trkpt><trkpt lat="43.0951939" lon="11.1519163"><ele>485.0</ele><time>2026-04-26T15:17:01.592Z</time></trkpt><trkpt lat="43.0951008" lon="11.1518654"><ele>485.0</ele><time>2026-04-26T15:17:02.592Z</time></trkpt><trkpt lat="43.0950007" lon="11.1518452"><ele>485.0</ele><time>2026-04-26T15:17:03.592Z</time></trkpt><trkpt lat="43.0948857" lon="11.151859"><ele>485.0</ele><time>2026-04-26T15:17:04.592Z</time></trkpt><trkpt lat="43.0947739" lon="11.1518817"><ele>485.0</ele><time>2026-04-26T15:17:05.592Z</time></trkpt><trkpt lat="43.0946784" lon="11.1519208"><ele>486.8333333333333</ele><time>2026-04-26T15:17:06.592Z</time></trkpt><trkpt lat="43.0946069" lon="11.151948"><ele>488.66666666666663</ele><time>2026-04-26T15:17:07.592Z</time></trkpt><trkpt lat="43.0945366" lon="11.1519403"><ele>490.5</ele><time>2026-04-26T15:17:08.592Z</time></trkpt><trkpt lat="43.0944514" lon="11.151916"><ele>492.33333333333337</ele><time>2026-04-26T15:17:09.592Z</time></trkpt><trkpt lat="43.0943716" lon="11.1518723"><ele>494.1666666666667</ele><time>2026-04-26T15:17:10.593Z</time></trkpt><trkpt lat="43.0942919" lon="11.1518261"><ele>496.0</ele><time>2026-04-26T15:17:11.592Z</time></trkpt><trkpt lat="43.0942164" lon="11.1517772"><ele>496.00000000000006</ele><time>2026-04-26T15:17:12.592Z</time></trkpt><trkpt lat="43.0941553" lon="11.1517197"><ele>496.0</ele><time>2026-04-26T15:17:13.592Z</time></trkpt><trkpt lat="43.0941022" lon="11.1516348"><ele>496.0</ele><time>2026-04-26T15:17:14.592Z</time></trkpt><trkpt lat="43.0940513" lon="11.1515251"><ele>496.0</ele><time>2026-04-26T15:17:15.592Z</time></trkpt><trkpt lat="43.0940025" lon="11.151407"><ele>496.00000000000006</ele><time>2026-04-26T15:17:16.593Z</time></trkpt><trkpt lat="43.0939653" lon="11.1512986"><ele>496.0</ele><time>2026-04-26T15:17:17.592Z</time></trkpt><trkpt lat="43.0939403" lon="11.1512042"><ele>496.4</ele><time>2026-04-26T15:17:18.592Z</time></trkpt><trkpt lat="43.0939152" lon="11.1511134"><ele>496.8</ele><time>2026-04-26T15:17:19.592Z</time></trkpt><trkpt lat="43.0938905" lon="11.1509494"><ele>497.19999999999993</ele><time>2026-04-26T15:17:21.592Z</time></trkpt><trkpt lat="43.0938793" lon="11.150803"><ele>497.59999999999997</ele><time>2026-04-26T15:17:23.592Z</time></trkpt><trkpt lat="43.0938587" lon="11.1507213"><ele>498.0</ele><time>2026-04-26T15:17:25.593Z</time></trkpt><trkpt lat="43.0937832" lon="11.1506028"><ele>496.0</ele><time>2026-04-26T15:17:28.592Z</time></trkpt><trkpt lat="43.0937183" lon="11.1505574"><ele>494.0</ele><time>2026-04-26T15:17:29.592Z</time></trkpt><trkpt lat="43.09361" lon="11.1505176"><ele>492.0</ele><time>2026-04-26T15:17:31.593Z</time></trkpt><trkpt lat="43.0935423" lon="11.1504946"><ele>490.0</ele><time>2026-04-26T15:17:32.592Z</time></trkpt><trkpt lat="43.0934632" lon="11.1504687"><ele>488.0</ele><time>2026-04-26T15:17:33.592Z</time></trkpt><trkpt lat="43.0933764" lon="11.1504439"><ele>486.0</ele><time>2026-04-26T15:17:34.592Z</time></trkpt><trkpt lat="43.0932865" lon="11.1504284"><ele>483.4</ele><time>2026-04-26T15:17:35.592Z</time></trkpt><trkpt lat="43.0931881" lon="11.1504315"><ele>480.8</ele><time>2026-04-26T15:17:36.592Z</time></trkpt><trkpt lat="43.0930883" lon="11.1504341"><ele>478.19999999999993</ele><time>2026-04-26T15:17:37.593Z</time></trkpt><trkpt lat="43.0929927" lon="11.1504364"><ele>475.59999999999997</ele><time>2026-04-26T15:17:38.593Z</time></trkpt><trkpt lat="43.0928981" lon="11.150456"><ele>473.0</ele><time>2026-04-26T15:17:39.592Z</time></trkpt><trkpt lat="43.0928059" lon="11.1504864"><ele>472.99999999999994</ele><time>2026-04-26T15:17:40.592Z</time></trkpt><trkpt lat="43.0927196" lon="11.1505271"><ele>473.0</ele><time>2026-04-26T15:17:41.592Z</time></trkpt><trkpt lat="43.0926391" lon="11.1505729"><ele>473.0</ele><time>2026-04-26T15:17:42.592Z</time></trkpt><trkpt lat="43.0925633" lon="11.1506193"><ele>473.0</ele><time>2026-04-26T15:17:43.592Z</time></trkpt><trkpt lat="43.0924941" lon="11.1506704"><ele>472.99999999999994</ele><time>2026-04-26T15:17:44.593Z</time></trkpt><trkpt lat="43.0924269" lon="11.1507178"><ele>473.0</ele><time>2026-04-26T15:17:45.592Z</time></trkpt><trkpt lat="43.0923635" lon="11.1507598"><ele>472.66666666666663</ele><time>2026-04-26T15:17:46.592Z</time></trkpt><trkpt lat="43.0923043" lon="11.1508001"><ele>472.3333333333333</ele><time>2026-04-26T15:17:47.592Z</time></trkpt><trkpt lat="43.0922451" lon="11.1508399"><ele>472.0</ele><time>2026-04-26T15:17:48.592Z</time></trkpt><trkpt lat="43.0921578" lon="11.1508876"><ele>471.66666666666663</ele><time>2026-04-26T15:17:50.592Z</time></trkpt><trkpt lat="43.0922587" lon="11.1508706"><ele>471.3333333333333</ele><time>2026-04-26T15:18:03.592Z</time></trkpt><trkpt lat="43.0923306" lon="11.1508226"><ele>471.0</ele><time>2026-04-26T15:18:04.592Z</time></trkpt><trkpt lat="43.0924362" lon="11.1507547"><ele>471.66666666666663</ele><time>2026-04-26T15:18:05.592Z</time></trkpt><trkpt lat="43.0925808" lon="11.1506693"><ele>472.3333333333333</ele><time>2026-04-26T15:18:06.592Z</time></trkpt><trkpt lat="43.0927349" lon="11.1505745"><ele>473.0</ele><time>2026-04-26T15:18:07.592Z</time></trkpt><trkpt lat="43.0928773" lon="11.1505119"><ele>473.0</ele><time>2026-04-26T15:18:08.592Z</time></trkpt><trkpt lat="43.0930031" lon="11.1504842"><ele>472.99999999999994</ele><time>2026-04-26T15:18:09.592Z</time></trkpt><trkpt lat="43.0931074" lon="11.1504686"><ele>472.99999999999994</ele><time>2026-04-26T15:18:10.593Z</time></trkpt><trkpt lat="43.0932015" lon="11.1504538"><ele>473.0</ele><time>2026-04-26T15:18:11.592Z</time></trkpt><trkpt lat="43.0932912" lon="11.1504261"><ele>473.0</ele><time>2026-04-26T15:18:12.592Z</time></trkpt><trkpt lat="43.0933708" lon="11.1503932"><ele>475.59999999999997</ele><time>2026-04-26T15:18:13.592Z</time></trkpt><trkpt lat="43.0934582" lon="11.1503601"><ele>478.19999999999993</ele><time>2026-04-26T15:18:14.592Z</time></trkpt><trkpt lat="43.093552" lon="11.1503178"><ele>480.8</ele><time>2026-04-26T15:18:15.592Z</time></trkpt><trkpt lat="43.093642" lon="11.1502672"><ele>483.4</ele><time>2026-04-26T15:18:16.593Z</time></trkpt><trkpt lat="43.0937308" lon="11.1502051"><ele>486.0</ele><time>2026-04-26T15:18:17.592Z</time></trkpt><trkpt lat="43.0938128" lon="11.1501281"><ele>486.0</ele><time>2026-04-26T15:18:18.592Z</time></trkpt><trkpt lat="43.0938882" lon="11.1500347"><ele>486.0</ele><time>2026-04-26T15:18:19.592Z</time></trkpt><trkpt lat="43.0939599" lon="11.1499369"><ele>486.0</ele><time>2026-04-26T15:18:20.593Z</time></trkpt><trkpt lat="43.0940236" lon="11.149824"><ele>486.0</ele><time>2026-04-26T15:18:21.592Z</time></trkpt><trkpt lat="43.094076" lon="11.1497089"><ele>486.0</ele><time>2026-04-26T15:18:22.592Z</time></trkpt><trkpt lat="43.094127" lon="11.149598"><ele>488.0</ele><time>2026-04-26T15:18:23.592Z</time></trkpt><trkpt lat="43.0941762" lon="11.1494851"><ele>490.0</ele><time>2026-04-26T15:18:24.592Z</time></trkpt><trkpt lat="43.0942142" lon="11.1493629"><ele>492.0</ele><time>2026-04-26T15:18:25.592Z</time></trkpt><trkpt lat="43.0942443" lon="11.149241"><ele>494.0</ele><time>2026-04-26T15:18:26.592Z</time></trkpt><trkpt lat="43.0942625" lon="11.1491288"><ele>496.0</ele><time>2026-04-26T15:18:27.592Z</time></trkpt><trkpt lat="43.0942722" lon="11.1490195"><ele>496.1666666666667</ele><time>2026-04-26T15:18:28.593Z</time></trkpt><trkpt lat="43.0942828" lon="11.1489182"><ele>496.33333333333337</ele><time>2026-04-26T15:18:29.592Z</time></trkpt><trkpt lat="43.0942972" lon="11.1488163"><ele>496.5</ele><time>2026-04-26T15:18:30.592Z</time></trkpt><trkpt lat="43.0943104" lon="11.1487111"><ele>496.66666666666663</ele><time>2026-04-26T15:18:31.592Z</time></trkpt><trkpt lat="43.0943305" lon="11.1486162"><ele>496.8333333333333</ele><time>2026-04-26T15:18:32.592Z</time></trkpt><trkpt lat="43.0943661" lon="11.1485262"><ele>497.0</ele><time>2026-04-26T15:18:33.592Z</time></trkpt><trkpt lat="43.0944141" lon="11.148406"><ele>497.0</ele><time>2026-04-26T15:18:34.592Z</time></trkpt><trkpt lat="43.0944672" lon="11.1482833"><ele>497.0</ele><time>2026-04-26T15:18:35.592Z</time></trkpt><trkpt lat="43.0945248" lon="11.1481479"><ele>497.0</ele><time>2026-04-26T15:18:36.592Z</time></trkpt><trkpt lat="43.0945946" lon="11.1480074"><ele>497.0</ele><time>2026-04-26T15:18:37.592Z</time></trkpt><trkpt lat="43.0946593" lon="11.1478646"><ele>498.25</ele><time>2026-04-26T15:18:38.592Z</time></trkpt><trkpt lat="43.0947261" lon="11.1477232"><ele>499.5</ele><time>2026-04-26T15:18:39.592Z</time></trkpt><trkpt lat="43.094788" lon="11.1475869"><ele>500.75</ele><time>2026-04-26T15:18:40.592Z</time></trkpt><trkpt lat="43.0948493" lon="11.1474467"><ele>502.0</ele><time>2026-04-26T15:18:41.592Z</time></trkpt><trkpt lat="43.0949058" lon="11.1473092"><ele>500.6</ele><time>2026-04-26T15:18:42.592Z</time></trkpt><trkpt lat="43.0949586" lon="11.1471689"><ele>499.20000000000005</ele><time>2026-04-26T15:18:43.592Z</time></trkpt><trkpt lat="43.0950083" lon="11.1470236"><ele>497.8</ele><time>2026-04-26T15:18:44.593Z</time></trkpt><trkpt lat="43.0950578" lon="11.1468849"><ele>496.4</ele><time>2026-04-26T15:18:45.592Z</time></trkpt><trkpt lat="43.0951012" lon="11.1467572"><ele>495.0</ele><time>2026-04-26T15:18:46.593Z</time></trkpt><trkpt lat="43.0951438" lon="11.146626"><ele>496.0</ele><time>2026-04-26T15:18:47.592Z</time></trkpt><trkpt lat="43.0951836" lon="11.1464988"><ele>497.0</ele><time>2026-04-26T15:18:48.592Z</time></trkpt><trkpt lat="43.095198" lon="11.146362"><ele>498.0</ele><time>2026-04-26T15:18:49.592Z</time></trkpt><trkpt lat="43.0951848" lon="11.1462162"><ele>499.0</ele><time>2026-04-26T15:18:50.592Z</time></trkpt><trkpt lat="43.0951666" lon="11.1460738"><ele>500.0</ele><time>2026-04-26T15:18:51.592Z</time></trkpt><trkpt lat="43.0951491" lon="11.1459314"><ele>500.0</ele><time>2026-04-26T15:18:52.592Z</time></trkpt><trkpt lat="43.0951365" lon="11.1458005"><ele>500.0</ele><time>2026-04-26T15:18:53.592Z</time></trkpt><trkpt lat="43.0951361" lon="11.1456721"><ele>500.0</ele><time>2026-04-26T15:18:54.592Z</time></trkpt><trkpt lat="43.0951455" lon="11.1455569"><ele>500.0</ele><time>2026-04-26T15:18:55.593Z</time></trkpt><trkpt lat="43.0951742" lon="11.1454426"><ele>500.0</ele><time>2026-04-26T15:18:56.592Z</time></trkpt><trkpt lat="43.0952196" lon="11.1453239"><ele>500.6</ele><time>2026-04-26T15:18:57.592Z</time></trkpt><trkpt lat="43.095278" lon="11.1451888"><ele>501.2</ele><time>2026-04-26T15:18:58.592Z</time></trkpt><trkpt lat="43.0953284" lon="11.1450589"><ele>501.79999999999995</ele><time>2026-04-26T15:18:59.592Z</time></trkpt><trkpt lat="43.0953727" lon="11.1449426"><ele>502.4</ele><time>2026-04-26T15:19:00.593Z</time></trkpt><trkpt lat="43.0954264" lon="11.1448301"><ele>503.0</ele><time>2026-04-26T15:19:01.592Z</time></trkpt><trkpt lat="43.0954817" lon="11.1447223"><ele>504.2</ele><time>2026-04-26T15:19:02.592Z</time></trkpt><trkpt lat="43.0955341" lon="11.1446096"><ele>505.4</ele><time>2026-04-26T15:19:03.593Z</time></trkpt><trkpt lat="43.0955821" lon="11.1444922"><ele>506.59999999999997</ele><time>2026-04-26T15:19:04.591Z</time></trkpt><trkpt lat="43.0956159" lon="11.1443763"><ele>507.79999999999995</ele><time>2026-04-26T15:19:05.591Z</time></trkpt><trkpt lat="43.0956431" lon="11.1442494"><ele>509.0</ele><time>2026-04-26T15:19:06.591Z</time></trkpt><trkpt lat="43.0956684" lon="11.1441184"><ele>508.66666666666663</ele><time>2026-04-26T15:19:07.591Z</time></trkpt><trkpt lat="43.0956969" lon="11.1439875"><ele>508.3333333333333</ele><time>2026-04-26T15:19:08.591Z</time></trkpt><trkpt lat="43.0957291" lon="11.1438631"><ele>508.0</ele><time>2026-04-26T15:19:09.591Z</time></trkpt><trkpt lat="43.0957597" lon="11.1437543"><ele>507.66666666666663</ele><time>2026-04-26T15:19:10.591Z</time></trkpt><trkpt lat="43.0957818" lon="11.143648"><ele>507.3333333333333</ele><time>2026-04-26T15:19:11.591Z</time></trkpt><trkpt lat="43.0958095" lon="11.1435533"><ele>507.0</ele><time>2026-04-26T15:19:12.591Z</time></trkpt><trkpt lat="43.0958342" lon="11.1434574"><ele>503.5</ele><time>2026-04-26T15:19:13.591Z</time></trkpt><trkpt lat="43.0958741" lon="11.1433621"><ele>500.0</ele><time>2026-04-26T15:19:14.592Z</time></trkpt><trkpt lat="43.0959221" lon="11.1432741"><ele>496.5</ele><time>2026-04-26T15:19:15.591Z</time></trkpt><trkpt lat="43.095962" lon="11.143191"><ele>493.0</ele><time>2026-04-26T15:19:16.591Z</time></trkpt><trkpt lat="43.0959853" lon="11.1430943"><ele>489.5</ele><time>2026-04-26T15:19:17.591Z</time></trkpt><trkpt lat="43.0959948" lon="11.1429831"><ele>486.0</ele><time>2026-04-26T15:19:18.591Z</time></trkpt><trkpt lat="43.0959902" lon="11.1428648"><ele>485.6</ele><time>2026-04-26T15:19:19.591Z</time></trkpt><trkpt lat="43.0959872" lon="11.1427458"><ele>485.20000000000005</ele><time>2026-04-26T15:19:20.591Z</time></trkpt><trkpt lat="43.0959898" lon="11.1426115"><ele>484.79999999999995</ele><time>2026-04-26T15:19:21.591Z</time></trkpt><trkpt lat="43.0960058" lon="11.1424686"><ele>484.4</ele><time>2026-04-26T15:19:22.592Z</time></trkpt><trkpt lat="43.0960359" lon="11.1423329"><ele>484.0</ele><time>2026-04-26T15:19:23.591Z</time></trkpt><trkpt lat="43.0960749" lon="11.1422194"><ele>483.1666666666667</ele><time>2026-04-26T15:19:24.591Z</time></trkpt><trkpt lat="43.0961296" lon="11.1421318"><ele>482.33333333333337</ele><time>2026-04-26T15:19:25.591Z</time></trkpt><trkpt lat="43.0961853" lon="11.1420589"><ele>481.5</ele><time>2026-04-26T15:19:26.591Z</time></trkpt><trkpt lat="43.0962395" lon="11.1419853"><ele>480.66666666666663</ele><time>2026-04-26T15:19:27.591Z</time></trkpt><trkpt lat="43.096286" lon="11.1418962"><ele>479.8333333333333</ele><time>2026-04-26T15:19:28.591Z</time></trkpt><trkpt lat="43.0963209" lon="11.1417863"><ele>479.0</ele><time>2026-04-26T15:19:29.591Z</time></trkpt><trkpt lat="43.0963347" lon="11.1416678"><ele>478.79999999999995</ele><time>2026-04-26T15:19:30.591Z</time></trkpt><trkpt lat="43.0963343" lon="11.1415373"><ele>478.59999999999997</ele><time>2026-04-26T15:19:31.591Z</time></trkpt><trkpt lat="43.0963229" lon="11.1414155"><ele>478.4</ele><time>2026-04-26T15:19:32.591Z</time></trkpt><trkpt lat="43.096312" lon="11.141285"><ele>478.2</ele><time>2026-04-26T15:19:33.592Z</time></trkpt><trkpt lat="43.0963002" lon="11.1411606"><ele>478.0</ele><time>2026-04-26T15:19:34.591Z</time></trkpt><trkpt lat="43.0963088" lon="11.1410395"><ele>478.00000000000006</ele><time>2026-04-26T15:19:35.592Z</time></trkpt><trkpt lat="43.0963348" lon="11.1409222"><ele>478.0</ele><time>2026-04-26T15:19:36.591Z</time></trkpt><trkpt lat="43.0963703" lon="11.1408064"><ele>478.0</ele><time>2026-04-26T15:19:37.591Z</time></trkpt><trkpt lat="43.0963999" lon="11.1406913"><ele>478.0</ele><time>2026-04-26T15:19:38.591Z</time></trkpt><trkpt lat="43.0964164" lon="11.1405728"><ele>478.00000000000006</ele><time>2026-04-26T15:19:39.591Z</time></trkpt><trkpt lat="43.096433" lon="11.1404631"><ele>478.0</ele><time>2026-04-26T15:19:40.591Z</time></trkpt><trkpt lat="43.0964387" lon="11.1403501"><ele>477.83333333333337</ele><time>2026-04-26T15:19:41.591Z</time></trkpt><trkpt lat="43.0964312" lon="11.140234"><ele>477.6666666666667</ele><time>2026-04-26T15:19:42.591Z</time></trkpt><trkpt lat="43.0964377" lon="11.1401165"><ele>477.5</ele><time>2026-04-26T15:19:43.591Z</time></trkpt><trkpt lat="43.0964552" lon="11.1400034"><ele>477.33333333333337</ele><time>2026-04-26T15:19:44.591Z</time></trkpt><trkpt lat="43.0964815" lon="11.1398917"><ele>477.1666666666667</ele><time>2026-04-26T15:19:45.591Z</time></trkpt><trkpt lat="43.0965043" lon="11.1397779"><ele>477.0</ele><time>2026-04-26T15:19:46.591Z</time></trkpt><trkpt lat="43.0965331" lon="11.1396633"><ele>475.85714285714283</ele><time>2026-04-26T15:19:47.591Z</time></trkpt><trkpt lat="43.0965656" lon="11.1395569"><ele>474.71428571428567</ele><time>2026-04-26T15:19:48.591Z</time></trkpt><trkpt lat="43.0965785" lon="11.1394588"><ele>473.57142857142856</ele><time>2026-04-26T15:19:49.591Z</time></trkpt><trkpt lat="43.0965643" lon="11.1393684"><ele>472.42857142857144</ele><time>2026-04-26T15:19:50.591Z</time></trkpt><trkpt lat="43.0965481" lon="11.1392766"><ele>471.2857142857143</ele><time>2026-04-26T15:19:51.591Z</time></trkpt><trkpt lat="43.0965322" lon="11.139183"><ele>470.1428571428571</ele><time>2026-04-26T15:19:52.591Z</time></trkpt><trkpt lat="43.0965591" lon="11.1390741"><ele>469.0</ele><time>2026-04-26T15:19:54.592Z</time></trkpt><trkpt lat="43.0966659" lon="11.1390352"><ele>466.57142857142856</ele><time>2026-04-26T15:19:56.591Z</time></trkpt><trkpt lat="43.096747" lon="11.1390304"><ele>464.1428571428571</ele><time>2026-04-26T15:19:57.591Z</time></trkpt><trkpt lat="43.0968257" lon="11.1390256"><ele>461.7142857142857</ele><time>2026-04-26T15:19:58.592Z</time></trkpt><trkpt lat="43.0968964" lon="11.139009"><ele>459.2857142857143</ele><time>2026-04-26T15:19:59.591Z</time></trkpt><trkpt lat="43.0969548" lon="11.1389706"><ele>456.85714285714283</ele><time>2026-04-26T15:20:00.591Z</time></trkpt><trkpt lat="43.0969879" lon="11.1388961"><ele>454.42857142857144</ele><time>2026-04-26T15:20:01.591Z</time></trkpt><trkpt lat="43.0970031" lon="11.1388037"><ele>452.0</ele><time>2026-04-26T15:20:02.591Z</time></trkpt><trkpt lat="43.0969981" lon="11.1387029"><ele>451.99999999999994</ele><time>2026-04-26T15:20:03.592Z</time></trkpt><trkpt lat="43.0969678" lon="11.1385918"><ele>452.0</ele><time>2026-04-26T15:20:04.591Z</time></trkpt><trkpt lat="43.0969368" lon="11.1384753"><ele>452.0</ele><time>2026-04-26T15:20:05.591Z</time></trkpt><trkpt lat="43.0969069" lon="11.1383769"><ele>452.0</ele><time>2026-04-26T15:20:06.591Z</time></trkpt><trkpt lat="43.09687" lon="11.138287"><ele>451.99999999999994</ele><time>2026-04-26T15:20:07.591Z</time></trkpt><trkpt lat="43.0968256" lon="11.138207"><ele>452.0</ele><time>2026-04-26T15:20:08.591Z</time></trkpt><trkpt lat="43.0967894" lon="11.1381279"><ele>449.40000000000003</ele><time>2026-04-26T15:20:09.591Z</time></trkpt><trkpt lat="43.0967758" lon="11.1379743"><ele>446.80000000000007</ele><time>2026-04-26T15:20:11.591Z</time></trkpt><trkpt lat="43.0968896" lon="11.1379745"><ele>444.2</ele><time>2026-04-26T15:20:13.591Z</time></trkpt><trkpt lat="43.0969624" lon="11.1380175"><ele>441.6</ele><time>2026-04-26T15:20:14.591Z</time></trkpt><trkpt lat="43.0970234" lon="11.1380884"><ele>439.0</ele><time>2026-04-26T15:20:15.591Z</time></trkpt><trkpt lat="43.097087" lon="11.1381559"><ele>439.00000000000006</ele><time>2026-04-26T15:20:16.591Z</time></trkpt><trkpt lat="43.0971511" lon="11.138214"><ele>439.0</ele><time>2026-04-26T15:20:17.591Z</time></trkpt><trkpt lat="43.0972185" lon="11.1382703"><ele>439.0</ele><time>2026-04-26T15:20:18.591Z</time></trkpt><trkpt lat="43.0972825" lon="11.1383194"><ele>439.0</ele><time>2026-04-26T15:20:19.591Z</time></trkpt><trkpt lat="43.0973417" lon="11.1383623"><ele>439.00000000000006</ele><time>2026-04-26T15:20:20.591Z</time></trkpt><trkpt lat="43.0974006" lon="11.1384007"><ele>439.0</ele><time>2026-04-26T15:20:21.591Z</time></trkpt><trkpt lat="43.0975205" lon="11.1384737"><ele>438.83333333333337</ele><time>2026-04-26T15:20:23.591Z</time></trkpt><trkpt lat="43.097592" lon="11.1385472"><ele>438.6666666666667</ele><time>2026-04-26T15:20:24.591Z</time></trkpt><trkpt lat="43.0976622" lon="11.1386376"><ele>438.5</ele><time>2026-04-26T15:20:25.591Z</time></trkpt><trkpt lat="43.0977124" lon="11.1387259"><ele>438.33333333333337</ele><time>2026-04-26T15:20:26.592Z</time></trkpt><trkpt lat="43.0977567" lon="11.1388133"><ele>438.1666666666667</ele><time>2026-04-26T15:20:27.591Z</time></trkpt><trkpt lat="43.097793" lon="11.1389013"><ele>438.0</ele><time>2026-04-26T15:20:28.591Z</time></trkpt><trkpt lat="43.0978159" lon="11.1390042"><ele>438.4</ele><time>2026-04-26T15:20:29.591Z</time></trkpt><trkpt lat="43.0977953" lon="11.1391711"><ele>438.79999999999995</ele><time>2026-04-26T15:20:31.592Z</time></trkpt><trkpt lat="43.0977524" lon="11.1392611"><ele>439.2</ele><time>2026-04-26T15:20:32.591Z</time></trkpt><trkpt lat="43.0977025" lon="11.1393608"><ele>439.6</ele><time>2026-04-26T15:20:33.591Z</time></trkpt><trkpt lat="43.0976577" lon="11.1394649"><ele>440.0</ele><time>2026-04-26T15:20:34.591Z</time></trkpt><trkpt lat="43.0976238" lon="11.1395648"><ele>439.99999999999994</ele><time>2026-04-26T15:20:35.592Z</time></trkpt><trkpt lat="43.0976133" lon="11.1396639"><ele>440.0</ele><time>2026-04-26T15:20:36.591Z</time></trkpt><trkpt lat="43.097643" lon="11.1397533"><ele>440.0</ele><time>2026-04-26T15:20:37.591Z</time></trkpt><trkpt lat="43.097697" lon="11.1398139"><ele>440.0</ele><time>2026-04-26T15:20:38.591Z</time></trkpt><trkpt lat="43.0977668" lon="11.1398542"><ele>440.0</ele><time>2026-04-26T15:20:39.591Z</time></trkpt><trkpt lat="43.0978515" lon="11.1398625"><ele>439.99999999999994</ele><time>2026-04-26T15:20:40.591Z</time></trkpt><trkpt lat="43.0979239" lon="11.1398578"><ele>440.0</ele><time>2026-04-26T15:20:41.591Z</time></trkpt><trkpt lat="43.0979921" lon="11.1398557"><ele>439.66666666666663</ele><time>2026-04-26T15:20:42.591Z</time></trkpt><trkpt lat="43.0981113" lon="11.1399003"><ele>439.3333333333333</ele><time>2026-04-26T15:20:44.592Z</time></trkpt><trkpt lat="43.0981707" lon="11.1399568"><ele>439.0</ele><time>2026-04-26T15:20:45.591Z</time></trkpt><trkpt lat="43.0982354" lon="11.1400049"><ele>438.66666666666663</ele><time>2026-04-26T15:20:46.591Z</time></trkpt><trkpt lat="43.0982986" lon="11.1400622"><ele>438.3333333333333</ele><time>2026-04-26T15:20:47.591Z</time></trkpt><trkpt lat="43.0983692" lon="11.1401152"><ele>438.0</ele><time>2026-04-26T15:20:48.592Z</time></trkpt><trkpt lat="43.0984351" lon="11.1401469"><ele>435.6666666666667</ele><time>2026-04-26T15:20:49.591Z</time></trkpt><trkpt lat="43.0985248" lon="11.1401547"><ele>433.33333333333337</ele><time>2026-04-26T15:20:50.591Z</time></trkpt><trkpt lat="43.0986325" lon="11.1401557"><ele>431.0</ele><time>2026-04-26T15:20:51.591Z</time></trkpt><trkpt lat="43.0987251" lon="11.1401548"><ele>428.6666666666667</ele><time>2026-04-26T15:20:52.592Z</time></trkpt><trkpt lat="43.0987996" lon="11.1401517"><ele>426.33333333333337</ele><time>2026-04-26T15:20:53.591Z</time></trkpt><trkpt lat="43.098865" lon="11.1401419"><ele>424.0</ele><time>2026-04-26T15:20:54.592Z</time></trkpt><trkpt lat="43.0989363" lon="11.1401566"><ele>424.0</ele><time>2026-04-26T15:20:56.591Z</time></trkpt><trkpt lat="43.0990007" lon="11.1401749"><ele>424.0</ele><time>2026-04-26T15:20:59.592Z</time></trkpt><trkpt lat="43.0990769" lon="11.1401118"><ele>424.0</ele><time>2026-04-26T15:21:01.591Z</time></trkpt><trkpt lat="43.0991506" lon="11.1400199"><ele>414.0</ele><time>2026-04-26T15:21:03.591Z</time></trkpt><trkpt lat="43.0992131" lon="11.1399663"><ele>414.0</ele><time>2026-04-26T15:21:06.591Z</time></trkpt></trkseg></trk></gpx>